<?xml version="1.0" encoding="UTF-8" standalone="no" ?>
<gpx xmlns="http://www.topografix.com/GPX/1/1" xmlns:xsi="http://www.w3.org/2001/XMLSchema-instance" xsi:schemaLocation="http://www.topografix.com/GPX/1/1 http://www.topografix.com/GPX/1/1/gpx.xsd" version="1.1" creator="VisuGPX - https://www.visugpx.com">
  <metadata>
    <name>Rando VTT sur Saint Didier 3</name>
    <desc><![CDATA[Petit parcours sur st didier, ébauche d\'un futur grand parcours]]></desc>
  </metadata>
  <trk>
    <name><![CDATA[30/01/2013 13:36 St Didier 3]]></name>
    <desc><![CDATA[]]></desc>
    <trkseg>
      <trkpt lat="44.00594" lon="5.11205">
        <ele>223.9</ele>
        <time>2013-01-30T12:36:51.000Z</time>
      </trkpt>
      <trkpt lat="44.00593" lon="5.11209">
        <ele>220.2</ele>
        <time>2013-01-30T12:37:01.000Z</time>
      </trkpt>
      <trkpt lat="44.00593" lon="5.11212">
        <ele>218.5</ele>
        <time>2013-01-30T12:37:02.000Z</time>
      </trkpt>
      <trkpt lat="44.00592" lon="5.11217">
        <ele>217</ele>
        <time>2013-01-30T12:37:14.000Z</time>
      </trkpt>
      <trkpt lat="44.00592" lon="5.11219">
        <ele>217.1</ele>
        <time>2013-01-30T12:37:15.000Z</time>
      </trkpt>
      <trkpt lat="44.0059" lon="5.1122">
        <ele>216.6</ele>
        <time>2013-01-30T12:37:16.000Z</time>
      </trkpt>
      <trkpt lat="44.00586" lon="5.11219">
        <ele>216.7</ele>
        <time>2013-01-30T12:37:17.000Z</time>
      </trkpt>
      <trkpt lat="44.00583" lon="5.1122">
        <ele>216.3</ele>
        <time>2013-01-30T12:37:18.000Z</time>
      </trkpt>
      <trkpt lat="44.00581" lon="5.11222">
        <ele>217</ele>
        <time>2013-01-30T12:37:19.000Z</time>
      </trkpt>
      <trkpt lat="44.00578" lon="5.11223">
        <ele>216.8</ele>
        <time>2013-01-30T12:37:20.000Z</time>
      </trkpt>
      <trkpt lat="44.00576" lon="5.11224">
        <ele>216.6</ele>
        <time>2013-01-30T12:37:21.000Z</time>
      </trkpt>
      <trkpt lat="44.00574" lon="5.1122">
        <ele>217.2</ele>
        <time>2013-01-30T12:37:23.000Z</time>
      </trkpt>
      <trkpt lat="44.00573" lon="5.11219">
        <ele>218.1</ele>
        <time>2013-01-30T12:37:24.000Z</time>
      </trkpt>
      <trkpt lat="44.00572" lon="5.11216">
        <ele>218.4</ele>
        <time>2013-01-30T12:37:26.000Z</time>
      </trkpt>
      <trkpt lat="44.00566" lon="5.11211">
        <ele>218.1</ele>
        <time>2013-01-30T12:37:27.000Z</time>
      </trkpt>
      <trkpt lat="44.00563" lon="5.11207">
        <ele>217.7</ele>
        <time>2013-01-30T12:37:28.000Z</time>
      </trkpt>
      <trkpt lat="44.00559" lon="5.11203">
        <ele>217.9</ele>
        <time>2013-01-30T12:37:29.000Z</time>
      </trkpt>
      <trkpt lat="44.00557" lon="5.11201">
        <ele>218.6</ele>
        <time>2013-01-30T12:37:30.000Z</time>
      </trkpt>
      <trkpt lat="44.00554" lon="5.11198">
        <ele>218.4</ele>
        <time>2013-01-30T12:37:31.000Z</time>
      </trkpt>
      <trkpt lat="44.00549" lon="5.11199">
        <ele>218.1</ele>
        <time>2013-01-30T12:37:32.000Z</time>
      </trkpt>
      <trkpt lat="44.00546" lon="5.11198">
        <ele>217.9</ele>
        <time>2013-01-30T12:37:33.000Z</time>
      </trkpt>
      <trkpt lat="44.00543" lon="5.11198">
        <ele>217.8</ele>
        <time>2013-01-30T12:37:34.000Z</time>
      </trkpt>
      <trkpt lat="44.0054" lon="5.11197">
        <ele>217.7</ele>
        <time>2013-01-30T12:37:35.000Z</time>
      </trkpt>
      <trkpt lat="44.00538" lon="5.11194">
        <ele>218.7</ele>
        <time>2013-01-30T12:37:36.000Z</time>
      </trkpt>
      <trkpt lat="44.00535" lon="5.11191">
        <ele>226.9</ele>
        <time>2013-01-30T12:37:41.000Z</time>
      </trkpt>
      <trkpt lat="44.00531" lon="5.11187">
        <ele>226.7</ele>
        <time>2013-01-30T12:37:42.000Z</time>
      </trkpt>
      <trkpt lat="44.00527" lon="5.11182">
        <ele>226.1</ele>
        <time>2013-01-30T12:37:43.000Z</time>
      </trkpt>
      <trkpt lat="44.00523" lon="5.11175">
        <ele>225.4</ele>
        <time>2013-01-30T12:37:44.000Z</time>
      </trkpt>
      <trkpt lat="44.00519" lon="5.11172">
        <ele>224.9</ele>
        <time>2013-01-30T12:37:45.000Z</time>
      </trkpt>
      <trkpt lat="44.0052" lon="5.11165">
        <ele>224.1</ele>
        <time>2013-01-30T12:37:46.000Z</time>
      </trkpt>
      <trkpt lat="44.00518" lon="5.1116">
        <ele>223.7</ele>
        <time>2013-01-30T12:37:47.000Z</time>
      </trkpt>
      <trkpt lat="44.00517" lon="5.11155">
        <ele>223.7</ele>
        <time>2013-01-30T12:37:48.000Z</time>
      </trkpt>
      <trkpt lat="44.00515" lon="5.1115">
        <ele>223.7</ele>
        <time>2013-01-30T12:37:49.000Z</time>
      </trkpt>
      <trkpt lat="44.00513" lon="5.11145">
        <ele>223.9</ele>
        <time>2013-01-30T12:37:50.000Z</time>
      </trkpt>
      <trkpt lat="44.00512" lon="5.1114">
        <ele>223.7</ele>
        <time>2013-01-30T12:37:51.000Z</time>
      </trkpt>
      <trkpt lat="44.0051" lon="5.11134">
        <ele>223.2</ele>
        <time>2013-01-30T12:37:52.000Z</time>
      </trkpt>
      <trkpt lat="44.00507" lon="5.11128">
        <ele>223.2</ele>
        <time>2013-01-30T12:37:53.000Z</time>
      </trkpt>
      <trkpt lat="44.00504" lon="5.11122">
        <ele>223</ele>
        <time>2013-01-30T12:37:54.000Z</time>
      </trkpt>
      <trkpt lat="44.005" lon="5.11116">
        <ele>223</ele>
        <time>2013-01-30T12:37:55.000Z</time>
      </trkpt>
      <trkpt lat="44.00502" lon="5.11109">
        <ele>223</ele>
        <time>2013-01-30T12:37:56.000Z</time>
      </trkpt>
      <trkpt lat="44.005" lon="5.11104">
        <ele>223</ele>
        <time>2013-01-30T12:37:57.000Z</time>
      </trkpt>
      <trkpt lat="44.00499" lon="5.11099">
        <ele>223.5</ele>
        <time>2013-01-30T12:37:58.000Z</time>
      </trkpt>
      <trkpt lat="44.00497" lon="5.11095">
        <ele>224</ele>
        <time>2013-01-30T12:37:59.000Z</time>
      </trkpt>
      <trkpt lat="44.00493" lon="5.11085">
        <ele>222.4</ele>
        <time>2013-01-30T12:38:00.000Z</time>
      </trkpt>
      <trkpt lat="44.00491" lon="5.11078">
        <ele>221.7</ele>
        <time>2013-01-30T12:38:01.000Z</time>
      </trkpt>
      <trkpt lat="44.00489" lon="5.11072">
        <ele>221.2</ele>
        <time>2013-01-30T12:38:02.000Z</time>
      </trkpt>
      <trkpt lat="44.00489" lon="5.11067">
        <ele>220.7</ele>
        <time>2013-01-30T12:38:03.000Z</time>
      </trkpt>
      <trkpt lat="44.00489" lon="5.11063">
        <ele>220.2</ele>
        <time>2013-01-30T12:38:04.000Z</time>
      </trkpt>
      <trkpt lat="44.00487" lon="5.11059">
        <ele>219.4</ele>
        <time>2013-01-30T12:38:05.000Z</time>
      </trkpt>
      <trkpt lat="44.00487" lon="5.11055">
        <ele>218.9</ele>
        <time>2013-01-30T12:38:06.000Z</time>
      </trkpt>
      <trkpt lat="44.00489" lon="5.11049">
        <ele>218.1</ele>
        <time>2013-01-30T12:38:07.000Z</time>
      </trkpt>
      <trkpt lat="44.00488" lon="5.11043">
        <ele>217.7</ele>
        <time>2013-01-30T12:38:09.000Z</time>
      </trkpt>
      <trkpt lat="44.00487" lon="5.1104">
        <ele>217.5</ele>
        <time>2013-01-30T12:38:10.000Z</time>
      </trkpt>
      <trkpt lat="44.00485" lon="5.11036">
        <ele>217.9</ele>
        <time>2013-01-30T12:38:11.000Z</time>
      </trkpt>
      <trkpt lat="44.00486" lon="5.11029">
        <ele>218</ele>
        <time>2013-01-30T12:38:12.000Z</time>
      </trkpt>
      <trkpt lat="44.00482" lon="5.11019">
        <ele>217.2</ele>
        <time>2013-01-30T12:38:13.000Z</time>
      </trkpt>
      <trkpt lat="44.00478" lon="5.11013">
        <ele>217.4</ele>
        <time>2013-01-30T12:38:14.000Z</time>
      </trkpt>
      <trkpt lat="44.00474" lon="5.11003">
        <ele>214.2</ele>
        <time>2013-01-30T12:38:15.000Z</time>
      </trkpt>
      <trkpt lat="44.00472" lon="5.10995">
        <ele>213.1</ele>
        <time>2013-01-30T12:38:16.000Z</time>
      </trkpt>
      <trkpt lat="44.00469" lon="5.10984">
        <ele>211.7</ele>
        <time>2013-01-30T12:38:17.000Z</time>
      </trkpt>
      <trkpt lat="44.00465" lon="5.10976">
        <ele>211.1</ele>
        <time>2013-01-30T12:38:18.000Z</time>
      </trkpt>
      <trkpt lat="44.00463" lon="5.10965">
        <ele>210</ele>
        <time>2013-01-30T12:38:19.000Z</time>
      </trkpt>
      <trkpt lat="44.0046" lon="5.10963">
        <ele>211.9</ele>
        <time>2013-01-30T12:38:20.000Z</time>
      </trkpt>
      <trkpt lat="44.00459" lon="5.10955">
        <ele>211.8</ele>
        <time>2013-01-30T12:38:21.000Z</time>
      </trkpt>
      <trkpt lat="44.00457" lon="5.10948">
        <ele>211.4</ele>
        <time>2013-01-30T12:38:22.000Z</time>
      </trkpt>
      <trkpt lat="44.00456" lon="5.10942">
        <ele>211.5</ele>
        <time>2013-01-30T12:38:23.000Z</time>
      </trkpt>
      <trkpt lat="44.00454" lon="5.10936">
        <ele>211.4</ele>
        <time>2013-01-30T12:38:24.000Z</time>
      </trkpt>
      <trkpt lat="44.00458" lon="5.10927">
        <ele>211.2</ele>
        <time>2013-01-30T12:38:25.000Z</time>
      </trkpt>
      <trkpt lat="44.00461" lon="5.1092">
        <ele>211.1</ele>
        <time>2013-01-30T12:38:26.000Z</time>
      </trkpt>
      <trkpt lat="44.00467" lon="5.10914">
        <ele>211.1</ele>
        <time>2013-01-30T12:38:27.000Z</time>
      </trkpt>
      <trkpt lat="44.0047" lon="5.10907">
        <ele>211.2</ele>
        <time>2013-01-30T12:38:28.000Z</time>
      </trkpt>
      <trkpt lat="44.00473" lon="5.109">
        <ele>211</ele>
        <time>2013-01-30T12:38:29.000Z</time>
      </trkpt>
      <trkpt lat="44.00476" lon="5.10893">
        <ele>211.2</ele>
        <time>2013-01-30T12:38:30.000Z</time>
      </trkpt>
      <trkpt lat="44.00478" lon="5.10888">
        <ele>211.2</ele>
        <time>2013-01-30T12:38:31.000Z</time>
      </trkpt>
      <trkpt lat="44.0048" lon="5.10883">
        <ele>211</ele>
        <time>2013-01-30T12:38:32.000Z</time>
      </trkpt>
      <trkpt lat="44.00482" lon="5.10878">
        <ele>210.5</ele>
        <time>2013-01-30T12:38:33.000Z</time>
      </trkpt>
      <trkpt lat="44.00485" lon="5.10872">
        <ele>209.7</ele>
        <time>2013-01-30T12:38:34.000Z</time>
      </trkpt>
      <trkpt lat="44.00487" lon="5.10866">
        <ele>210</ele>
        <time>2013-01-30T12:38:35.000Z</time>
      </trkpt>
      <trkpt lat="44.00489" lon="5.10861">
        <ele>210.2</ele>
        <time>2013-01-30T12:38:36.000Z</time>
      </trkpt>
      <trkpt lat="44.00492" lon="5.10855">
        <ele>209.9</ele>
        <time>2013-01-30T12:38:37.000Z</time>
      </trkpt>
      <trkpt lat="44.00494" lon="5.10849">
        <ele>209.8</ele>
        <time>2013-01-30T12:38:38.000Z</time>
      </trkpt>
      <trkpt lat="44.00496" lon="5.10843">
        <ele>209.5</ele>
        <time>2013-01-30T12:38:39.000Z</time>
      </trkpt>
      <trkpt lat="44.00499" lon="5.10837">
        <ele>208.7</ele>
        <time>2013-01-30T12:38:40.000Z</time>
      </trkpt>
      <trkpt lat="44.00502" lon="5.10831">
        <ele>209</ele>
        <time>2013-01-30T12:38:41.000Z</time>
      </trkpt>
      <trkpt lat="44.00504" lon="5.10827">
        <ele>208.9</ele>
        <time>2013-01-30T12:38:42.000Z</time>
      </trkpt>
      <trkpt lat="44.00503" lon="5.1082">
        <ele>209.1</ele>
        <time>2013-01-30T12:38:43.000Z</time>
      </trkpt>
      <trkpt lat="44.00504" lon="5.10813">
        <ele>209.1</ele>
        <time>2013-01-30T12:38:44.000Z</time>
      </trkpt>
      <trkpt lat="44.00504" lon="5.10806">
        <ele>208.8</ele>
        <time>2013-01-30T12:38:45.000Z</time>
      </trkpt>
      <trkpt lat="44.00499" lon="5.10801">
        <ele>208.6</ele>
        <time>2013-01-30T12:38:46.000Z</time>
      </trkpt>
      <trkpt lat="44.00498" lon="5.10795">
        <ele>208.7</ele>
        <time>2013-01-30T12:38:47.000Z</time>
      </trkpt>
      <trkpt lat="44.00496" lon="5.1079">
        <ele>208.9</ele>
        <time>2013-01-30T12:38:48.000Z</time>
      </trkpt>
      <trkpt lat="44.00494" lon="5.10785">
        <ele>208.4</ele>
        <time>2013-01-30T12:38:49.000Z</time>
      </trkpt>
      <trkpt lat="44.00492" lon="5.10779">
        <ele>208.3</ele>
        <time>2013-01-30T12:38:50.000Z</time>
      </trkpt>
      <trkpt lat="44.00491" lon="5.10773">
        <ele>208.6</ele>
        <time>2013-01-30T12:38:51.000Z</time>
      </trkpt>
      <trkpt lat="44.00489" lon="5.10768">
        <ele>208.6</ele>
        <time>2013-01-30T12:38:52.000Z</time>
      </trkpt>
      <trkpt lat="44.00494" lon="5.10764">
        <ele>209.4</ele>
        <time>2013-01-30T12:38:53.000Z</time>
      </trkpt>
      <trkpt lat="44.00494" lon="5.1076">
        <ele>210.1</ele>
        <time>2013-01-30T12:38:54.000Z</time>
      </trkpt>
      <trkpt lat="44.00492" lon="5.10754">
        <ele>210.1</ele>
        <time>2013-01-30T12:38:55.000Z</time>
      </trkpt>
      <trkpt lat="44.00492" lon="5.10749">
        <ele>210</ele>
        <time>2013-01-30T12:38:56.000Z</time>
      </trkpt>
      <trkpt lat="44.00491" lon="5.10743">
        <ele>210.1</ele>
        <time>2013-01-30T12:38:57.000Z</time>
      </trkpt>
      <trkpt lat="44.0049" lon="5.10738">
        <ele>210.1</ele>
        <time>2013-01-30T12:38:58.000Z</time>
      </trkpt>
      <trkpt lat="44.00489" lon="5.10733">
        <ele>210.1</ele>
        <time>2013-01-30T12:38:59.000Z</time>
      </trkpt>
      <trkpt lat="44.00487" lon="5.10727">
        <ele>210.6</ele>
        <time>2013-01-30T12:39:00.000Z</time>
      </trkpt>
      <trkpt lat="44.00483" lon="5.1072">
        <ele>211.7</ele>
        <time>2013-01-30T12:39:01.000Z</time>
      </trkpt>
      <trkpt lat="44.00482" lon="5.10715">
        <ele>212.2</ele>
        <time>2013-01-30T12:39:02.000Z</time>
      </trkpt>
      <trkpt lat="44.00481" lon="5.10709">
        <ele>212.5</ele>
        <time>2013-01-30T12:39:03.000Z</time>
      </trkpt>
      <trkpt lat="44.0048" lon="5.10703">
        <ele>212.3</ele>
        <time>2013-01-30T12:39:04.000Z</time>
      </trkpt>
      <trkpt lat="44.00479" lon="5.10698">
        <ele>212</ele>
        <time>2013-01-30T12:39:05.000Z</time>
      </trkpt>
      <trkpt lat="44.00478" lon="5.10692">
        <ele>211.7</ele>
        <time>2013-01-30T12:39:06.000Z</time>
      </trkpt>
      <trkpt lat="44.00477" lon="5.10686">
        <ele>211.6</ele>
        <time>2013-01-30T12:39:07.000Z</time>
      </trkpt>
      <trkpt lat="44.00476" lon="5.10681">
        <ele>211.4</ele>
        <time>2013-01-30T12:39:08.000Z</time>
      </trkpt>
      <trkpt lat="44.00475" lon="5.10675">
        <ele>211.3</ele>
        <time>2013-01-30T12:39:09.000Z</time>
      </trkpt>
      <trkpt lat="44.00474" lon="5.1067">
        <ele>211.5</ele>
        <time>2013-01-30T12:39:10.000Z</time>
      </trkpt>
      <trkpt lat="44.00474" lon="5.10664">
        <ele>211.6</ele>
        <time>2013-01-30T12:39:11.000Z</time>
      </trkpt>
      <trkpt lat="44.00473" lon="5.10659">
        <ele>211.6</ele>
        <time>2013-01-30T12:39:12.000Z</time>
      </trkpt>
      <trkpt lat="44.00472" lon="5.10653">
        <ele>211.7</ele>
        <time>2013-01-30T12:39:13.000Z</time>
      </trkpt>
      <trkpt lat="44.00472" lon="5.10647">
        <ele>211.6</ele>
        <time>2013-01-30T12:39:14.000Z</time>
      </trkpt>
      <trkpt lat="44.0047" lon="5.10641">
        <ele>211.5</ele>
        <time>2013-01-30T12:39:15.000Z</time>
      </trkpt>
      <trkpt lat="44.00469" lon="5.10636">
        <ele>211.4</ele>
        <time>2013-01-30T12:39:16.000Z</time>
      </trkpt>
      <trkpt lat="44.00469" lon="5.1063">
        <ele>211.3</ele>
        <time>2013-01-30T12:39:17.000Z</time>
      </trkpt>
      <trkpt lat="44.00468" lon="5.10624">
        <ele>211</ele>
        <time>2013-01-30T12:39:18.000Z</time>
      </trkpt>
      <trkpt lat="44.00467" lon="5.10619">
        <ele>211.1</ele>
        <time>2013-01-30T12:39:19.000Z</time>
      </trkpt>
      <trkpt lat="44.00466" lon="5.10613">
        <ele>211</ele>
        <time>2013-01-30T12:39:20.000Z</time>
      </trkpt>
      <trkpt lat="44.00465" lon="5.10607">
        <ele>211.2</ele>
        <time>2013-01-30T12:39:21.000Z</time>
      </trkpt>
      <trkpt lat="44.00464" lon="5.10602">
        <ele>211.4</ele>
        <time>2013-01-30T12:39:22.000Z</time>
      </trkpt>
      <trkpt lat="44.00463" lon="5.10597">
        <ele>211.1</ele>
        <time>2013-01-30T12:39:23.000Z</time>
      </trkpt>
      <trkpt lat="44.00463" lon="5.10592">
        <ele>211.3</ele>
        <time>2013-01-30T12:39:24.000Z</time>
      </trkpt>
      <trkpt lat="44.00462" lon="5.10587">
        <ele>211.2</ele>
        <time>2013-01-30T12:39:25.000Z</time>
      </trkpt>
      <trkpt lat="44.00462" lon="5.10582">
        <ele>211.1</ele>
        <time>2013-01-30T12:39:26.000Z</time>
      </trkpt>
      <trkpt lat="44.00461" lon="5.10576">
        <ele>211.4</ele>
        <time>2013-01-30T12:39:27.000Z</time>
      </trkpt>
      <trkpt lat="44.0046" lon="5.10572">
        <ele>211.7</ele>
        <time>2013-01-30T12:39:28.000Z</time>
      </trkpt>
      <trkpt lat="44.00459" lon="5.10566">
        <ele>211.7</ele>
        <time>2013-01-30T12:39:29.000Z</time>
      </trkpt>
      <trkpt lat="44.00458" lon="5.10561">
        <ele>211.7</ele>
        <time>2013-01-30T12:39:30.000Z</time>
      </trkpt>
      <trkpt lat="44.00457" lon="5.10556">
        <ele>211.6</ele>
        <time>2013-01-30T12:39:31.000Z</time>
      </trkpt>
      <trkpt lat="44.00456" lon="5.10552">
        <ele>211.5</ele>
        <time>2013-01-30T12:39:32.000Z</time>
      </trkpt>
      <trkpt lat="44.00455" lon="5.10547">
        <ele>211.5</ele>
        <time>2013-01-30T12:39:33.000Z</time>
      </trkpt>
      <trkpt lat="44.00454" lon="5.10541">
        <ele>211.5</ele>
        <time>2013-01-30T12:39:34.000Z</time>
      </trkpt>
      <trkpt lat="44.00452" lon="5.10536">
        <ele>211.8</ele>
        <time>2013-01-30T12:39:35.000Z</time>
      </trkpt>
      <trkpt lat="44.00451" lon="5.10532">
        <ele>212.2</ele>
        <time>2013-01-30T12:39:36.000Z</time>
      </trkpt>
      <trkpt lat="44.00449" lon="5.10527">
        <ele>212.5</ele>
        <time>2013-01-30T12:39:37.000Z</time>
      </trkpt>
      <trkpt lat="44.00447" lon="5.10522">
        <ele>212.4</ele>
        <time>2013-01-30T12:39:38.000Z</time>
      </trkpt>
      <trkpt lat="44.00446" lon="5.10518">
        <ele>212.4</ele>
        <time>2013-01-30T12:39:39.000Z</time>
      </trkpt>
      <trkpt lat="44.00445" lon="5.10513">
        <ele>212.3</ele>
        <time>2013-01-30T12:39:40.000Z</time>
      </trkpt>
      <trkpt lat="44.00443" lon="5.10508">
        <ele>212.2</ele>
        <time>2013-01-30T12:39:41.000Z</time>
      </trkpt>
      <trkpt lat="44.00442" lon="5.10504">
        <ele>212.2</ele>
        <time>2013-01-30T12:39:42.000Z</time>
      </trkpt>
      <trkpt lat="44.0044" lon="5.10499">
        <ele>212.1</ele>
        <time>2013-01-30T12:39:43.000Z</time>
      </trkpt>
      <trkpt lat="44.00439" lon="5.10495">
        <ele>212.1</ele>
        <time>2013-01-30T12:39:44.000Z</time>
      </trkpt>
      <trkpt lat="44.00438" lon="5.1049">
        <ele>212.2</ele>
        <time>2013-01-30T12:39:45.000Z</time>
      </trkpt>
      <trkpt lat="44.00436" lon="5.10486">
        <ele>212.2</ele>
        <time>2013-01-30T12:39:46.000Z</time>
      </trkpt>
      <trkpt lat="44.00435" lon="5.10481">
        <ele>212.3</ele>
        <time>2013-01-30T12:39:47.000Z</time>
      </trkpt>
      <trkpt lat="44.00434" lon="5.10477">
        <ele>212.3</ele>
        <time>2013-01-30T12:39:48.000Z</time>
      </trkpt>
      <trkpt lat="44.00433" lon="5.10472">
        <ele>212.1</ele>
        <time>2013-01-30T12:39:49.000Z</time>
      </trkpt>
      <trkpt lat="44.00431" lon="5.10467">
        <ele>212.3</ele>
        <time>2013-01-30T12:39:50.000Z</time>
      </trkpt>
      <trkpt lat="44.0043" lon="5.10463">
        <ele>212.2</ele>
        <time>2013-01-30T12:39:51.000Z</time>
      </trkpt>
      <trkpt lat="44.00429" lon="5.10457">
        <ele>212.2</ele>
        <time>2013-01-30T12:39:52.000Z</time>
      </trkpt>
      <trkpt lat="44.00427" lon="5.10452">
        <ele>212.1</ele>
        <time>2013-01-30T12:39:53.000Z</time>
      </trkpt>
      <trkpt lat="44.00426" lon="5.10447">
        <ele>212.1</ele>
        <time>2013-01-30T12:39:54.000Z</time>
      </trkpt>
      <trkpt lat="44.00425" lon="5.10441">
        <ele>211.9</ele>
        <time>2013-01-30T12:39:55.000Z</time>
      </trkpt>
      <trkpt lat="44.00424" lon="5.10436">
        <ele>211.4</ele>
        <time>2013-01-30T12:39:56.000Z</time>
      </trkpt>
      <trkpt lat="44.00424" lon="5.1043">
        <ele>211.4</ele>
        <time>2013-01-30T12:39:57.000Z</time>
      </trkpt>
      <trkpt lat="44.00424" lon="5.10424">
        <ele>211.2</ele>
        <time>2013-01-30T12:39:58.000Z</time>
      </trkpt>
      <trkpt lat="44.00423" lon="5.10418">
        <ele>211.2</ele>
        <time>2013-01-30T12:39:59.000Z</time>
      </trkpt>
      <trkpt lat="44.00423" lon="5.10412">
        <ele>211.3</ele>
        <time>2013-01-30T12:40:00.000Z</time>
      </trkpt>
      <trkpt lat="44.00423" lon="5.10406">
        <ele>211.3</ele>
        <time>2013-01-30T12:40:01.000Z</time>
      </trkpt>
      <trkpt lat="44.00423" lon="5.104">
        <ele>211.1</ele>
        <time>2013-01-30T12:40:02.000Z</time>
      </trkpt>
      <trkpt lat="44.00423" lon="5.10393">
        <ele>210.9</ele>
        <time>2013-01-30T12:40:03.000Z</time>
      </trkpt>
      <trkpt lat="44.00423" lon="5.10387">
        <ele>210.8</ele>
        <time>2013-01-30T12:40:04.000Z</time>
      </trkpt>
      <trkpt lat="44.00424" lon="5.1038">
        <ele>210.8</ele>
        <time>2013-01-30T12:40:05.000Z</time>
      </trkpt>
      <trkpt lat="44.00425" lon="5.10374">
        <ele>210.6</ele>
        <time>2013-01-30T12:40:06.000Z</time>
      </trkpt>
      <trkpt lat="44.00425" lon="5.10367">
        <ele>210.5</ele>
        <time>2013-01-30T12:40:07.000Z</time>
      </trkpt>
      <trkpt lat="44.00426" lon="5.10361">
        <ele>210.8</ele>
        <time>2013-01-30T12:40:08.000Z</time>
      </trkpt>
      <trkpt lat="44.00427" lon="5.10354">
        <ele>210.7</ele>
        <time>2013-01-30T12:40:09.000Z</time>
      </trkpt>
      <trkpt lat="44.00427" lon="5.10347">
        <ele>210.7</ele>
        <time>2013-01-30T12:40:10.000Z</time>
      </trkpt>
      <trkpt lat="44.00428" lon="5.10341">
        <ele>210.5</ele>
        <time>2013-01-30T12:40:11.000Z</time>
      </trkpt>
      <trkpt lat="44.00429" lon="5.10334">
        <ele>210.3</ele>
        <time>2013-01-30T12:40:12.000Z</time>
      </trkpt>
      <trkpt lat="44.0043" lon="5.10327">
        <ele>210.6</ele>
        <time>2013-01-30T12:40:13.000Z</time>
      </trkpt>
      <trkpt lat="44.00431" lon="5.1032">
        <ele>210.7</ele>
        <time>2013-01-30T12:40:14.000Z</time>
      </trkpt>
      <trkpt lat="44.00432" lon="5.10314">
        <ele>210.8</ele>
        <time>2013-01-30T12:40:15.000Z</time>
      </trkpt>
      <trkpt lat="44.00433" lon="5.10308">
        <ele>210.4</ele>
        <time>2013-01-30T12:40:16.000Z</time>
      </trkpt>
      <trkpt lat="44.00434" lon="5.10302">
        <ele>210.1</ele>
        <time>2013-01-30T12:40:17.000Z</time>
      </trkpt>
      <trkpt lat="44.00436" lon="5.10296">
        <ele>210</ele>
        <time>2013-01-30T12:40:18.000Z</time>
      </trkpt>
      <trkpt lat="44.00436" lon="5.10288">
        <ele>210</ele>
        <time>2013-01-30T12:40:19.000Z</time>
      </trkpt>
      <trkpt lat="44.00436" lon="5.1028">
        <ele>209.9</ele>
        <time>2013-01-30T12:40:20.000Z</time>
      </trkpt>
      <trkpt lat="44.00437" lon="5.10272">
        <ele>209.8</ele>
        <time>2013-01-30T12:40:21.000Z</time>
      </trkpt>
      <trkpt lat="44.00438" lon="5.10266">
        <ele>209.5</ele>
        <time>2013-01-30T12:40:22.000Z</time>
      </trkpt>
      <trkpt lat="44.00438" lon="5.10259">
        <ele>209.4</ele>
        <time>2013-01-30T12:40:23.000Z</time>
      </trkpt>
      <trkpt lat="44.00438" lon="5.10251">
        <ele>209.4</ele>
        <time>2013-01-30T12:40:24.000Z</time>
      </trkpt>
      <trkpt lat="44.00439" lon="5.10244">
        <ele>209.4</ele>
        <time>2013-01-30T12:40:25.000Z</time>
      </trkpt>
      <trkpt lat="44.0044" lon="5.10236">
        <ele>209.2</ele>
        <time>2013-01-30T12:40:26.000Z</time>
      </trkpt>
      <trkpt lat="44.00441" lon="5.10229">
        <ele>209</ele>
        <time>2013-01-30T12:40:27.000Z</time>
      </trkpt>
      <trkpt lat="44.00441" lon="5.10221">
        <ele>208.9</ele>
        <time>2013-01-30T12:40:28.000Z</time>
      </trkpt>
      <trkpt lat="44.00442" lon="5.10214">
        <ele>208.6</ele>
        <time>2013-01-30T12:40:29.000Z</time>
      </trkpt>
      <trkpt lat="44.00443" lon="5.10207">
        <ele>208.5</ele>
        <time>2013-01-30T12:40:30.000Z</time>
      </trkpt>
      <trkpt lat="44.00444" lon="5.102">
        <ele>208.3</ele>
        <time>2013-01-30T12:40:31.000Z</time>
      </trkpt>
      <trkpt lat="44.00445" lon="5.10193">
        <ele>208.1</ele>
        <time>2013-01-30T12:40:32.000Z</time>
      </trkpt>
      <trkpt lat="44.00446" lon="5.10186">
        <ele>208.2</ele>
        <time>2013-01-30T12:40:33.000Z</time>
      </trkpt>
      <trkpt lat="44.00447" lon="5.10179">
        <ele>208</ele>
        <time>2013-01-30T12:40:34.000Z</time>
      </trkpt>
      <trkpt lat="44.00447" lon="5.10172">
        <ele>207.7</ele>
        <time>2013-01-30T12:40:35.000Z</time>
      </trkpt>
      <trkpt lat="44.00447" lon="5.10165">
        <ele>207.2</ele>
        <time>2013-01-30T12:40:36.000Z</time>
      </trkpt>
      <trkpt lat="44.00448" lon="5.10159">
        <ele>207.3</ele>
        <time>2013-01-30T12:40:37.000Z</time>
      </trkpt>
      <trkpt lat="44.00449" lon="5.10153">
        <ele>207.3</ele>
        <time>2013-01-30T12:40:38.000Z</time>
      </trkpt>
      <trkpt lat="44.0045" lon="5.10146">
        <ele>207.2</ele>
        <time>2013-01-30T12:40:39.000Z</time>
      </trkpt>
      <trkpt lat="44.0045" lon="5.1014">
        <ele>207.3</ele>
        <time>2013-01-30T12:40:40.000Z</time>
      </trkpt>
      <trkpt lat="44.00451" lon="5.10131">
        <ele>207.1</ele>
        <time>2013-01-30T12:40:41.000Z</time>
      </trkpt>
      <trkpt lat="44.00452" lon="5.10124">
        <ele>206.9</ele>
        <time>2013-01-30T12:40:42.000Z</time>
      </trkpt>
      <trkpt lat="44.00453" lon="5.10116">
        <ele>207</ele>
        <time>2013-01-30T12:40:43.000Z</time>
      </trkpt>
      <trkpt lat="44.00453" lon="5.10109">
        <ele>207.2</ele>
        <time>2013-01-30T12:40:44.000Z</time>
      </trkpt>
      <trkpt lat="44.00454" lon="5.10102">
        <ele>207.3</ele>
        <time>2013-01-30T12:40:45.000Z</time>
      </trkpt>
      <trkpt lat="44.00455" lon="5.10095">
        <ele>207.1</ele>
        <time>2013-01-30T12:40:46.000Z</time>
      </trkpt>
      <trkpt lat="44.00456" lon="5.10088">
        <ele>206.9</ele>
        <time>2013-01-30T12:40:47.000Z</time>
      </trkpt>
      <trkpt lat="44.00457" lon="5.1008">
        <ele>207</ele>
        <time>2013-01-30T12:40:48.000Z</time>
      </trkpt>
      <trkpt lat="44.00458" lon="5.10073">
        <ele>207.3</ele>
        <time>2013-01-30T12:40:49.000Z</time>
      </trkpt>
      <trkpt lat="44.00458" lon="5.10066">
        <ele>207.6</ele>
        <time>2013-01-30T12:40:50.000Z</time>
      </trkpt>
      <trkpt lat="44.00459" lon="5.10059">
        <ele>207.8</ele>
        <time>2013-01-30T12:40:51.000Z</time>
      </trkpt>
      <trkpt lat="44.00458" lon="5.10051">
        <ele>208</ele>
        <time>2013-01-30T12:40:52.000Z</time>
      </trkpt>
      <trkpt lat="44.00458" lon="5.10044">
        <ele>208.1</ele>
        <time>2013-01-30T12:40:53.000Z</time>
      </trkpt>
      <trkpt lat="44.00457" lon="5.10038">
        <ele>208.1</ele>
        <time>2013-01-30T12:40:54.000Z</time>
      </trkpt>
      <trkpt lat="44.00456" lon="5.10031">
        <ele>208</ele>
        <time>2013-01-30T12:40:55.000Z</time>
      </trkpt>
      <trkpt lat="44.00454" lon="5.10025">
        <ele>208</ele>
        <time>2013-01-30T12:40:56.000Z</time>
      </trkpt>
      <trkpt lat="44.00453" lon="5.10018">
        <ele>208</ele>
        <time>2013-01-30T12:40:57.000Z</time>
      </trkpt>
      <trkpt lat="44.00452" lon="5.10012">
        <ele>208</ele>
        <time>2013-01-30T12:40:58.000Z</time>
      </trkpt>
      <trkpt lat="44.0045" lon="5.10006">
        <ele>208.2</ele>
        <time>2013-01-30T12:40:59.000Z</time>
      </trkpt>
      <trkpt lat="44.00448" lon="5.10001">
        <ele>208.2</ele>
        <time>2013-01-30T12:41:00.000Z</time>
      </trkpt>
      <trkpt lat="44.00446" lon="5.09995">
        <ele>208.5</ele>
        <time>2013-01-30T12:41:01.000Z</time>
      </trkpt>
      <trkpt lat="44.00445" lon="5.0999">
        <ele>208.5</ele>
        <time>2013-01-30T12:41:02.000Z</time>
      </trkpt>
      <trkpt lat="44.00444" lon="5.09984">
        <ele>208.4</ele>
        <time>2013-01-30T12:41:03.000Z</time>
      </trkpt>
      <trkpt lat="44.00442" lon="5.09979">
        <ele>208.3</ele>
        <time>2013-01-30T12:41:04.000Z</time>
      </trkpt>
      <trkpt lat="44.00439" lon="5.09974">
        <ele>208.3</ele>
        <time>2013-01-30T12:41:05.000Z</time>
      </trkpt>
      <trkpt lat="44.00437" lon="5.0997">
        <ele>208.4</ele>
        <time>2013-01-30T12:41:06.000Z</time>
      </trkpt>
      <trkpt lat="44.00435" lon="5.09966">
        <ele>208.3</ele>
        <time>2013-01-30T12:41:07.000Z</time>
      </trkpt>
      <trkpt lat="44.00433" lon="5.09962">
        <ele>208.2</ele>
        <time>2013-01-30T12:41:08.000Z</time>
      </trkpt>
      <trkpt lat="44.00431" lon="5.09959">
        <ele>208.1</ele>
        <time>2013-01-30T12:41:09.000Z</time>
      </trkpt>
      <trkpt lat="44.00429" lon="5.09963">
        <ele>208.6</ele>
        <time>2013-01-30T12:41:10.000Z</time>
      </trkpt>
      <trkpt lat="44.00426" lon="5.09967">
        <ele>209.1</ele>
        <time>2013-01-30T12:41:12.000Z</time>
      </trkpt>
      <trkpt lat="44.00424" lon="5.09969">
        <ele>209.4</ele>
        <time>2013-01-30T12:41:13.000Z</time>
      </trkpt>
      <trkpt lat="44.00422" lon="5.09971">
        <ele>209.5</ele>
        <time>2013-01-30T12:41:14.000Z</time>
      </trkpt>
      <trkpt lat="44.00421" lon="5.09973">
        <ele>209.7</ele>
        <time>2013-01-30T12:41:15.000Z</time>
      </trkpt>
      <trkpt lat="44.00419" lon="5.09976">
        <ele>209.9</ele>
        <time>2013-01-30T12:41:16.000Z</time>
      </trkpt>
      <trkpt lat="44.00417" lon="5.09978">
        <ele>209.9</ele>
        <time>2013-01-30T12:41:17.000Z</time>
      </trkpt>
      <trkpt lat="44.00415" lon="5.0998">
        <ele>210</ele>
        <time>2013-01-30T12:41:18.000Z</time>
      </trkpt>
      <trkpt lat="44.00414" lon="5.09982">
        <ele>209.9</ele>
        <time>2013-01-30T12:41:19.000Z</time>
      </trkpt>
      <trkpt lat="44.00411" lon="5.09986">
        <ele>210.3</ele>
        <time>2013-01-30T12:41:21.000Z</time>
      </trkpt>
      <trkpt lat="44.0041" lon="5.09987">
        <ele>210.9</ele>
        <time>2013-01-30T12:41:22.000Z</time>
      </trkpt>
      <trkpt lat="44.00407" lon="5.09991">
        <ele>211.3</ele>
        <time>2013-01-30T12:41:24.000Z</time>
      </trkpt>
      <trkpt lat="44.00406" lon="5.09992">
        <ele>211.2</ele>
        <time>2013-01-30T12:41:25.000Z</time>
      </trkpt>
      <trkpt lat="44.00403" lon="5.09997">
        <ele>211.5</ele>
        <time>2013-01-30T12:41:27.000Z</time>
      </trkpt>
      <trkpt lat="44.00401" lon="5.09998">
        <ele>211.6</ele>
        <time>2013-01-30T12:41:28.000Z</time>
      </trkpt>
      <trkpt lat="44.00398" lon="5.10002">
        <ele>212.2</ele>
        <time>2013-01-30T12:41:30.000Z</time>
      </trkpt>
      <trkpt lat="44.00397" lon="5.10003">
        <ele>212.3</ele>
        <time>2013-01-30T12:41:31.000Z</time>
      </trkpt>
      <trkpt lat="44.00393" lon="5.10006">
        <ele>212.8</ele>
        <time>2013-01-30T12:41:33.000Z</time>
      </trkpt>
      <trkpt lat="44.00391" lon="5.10007">
        <ele>212.9</ele>
        <time>2013-01-30T12:41:34.000Z</time>
      </trkpt>
      <trkpt lat="44.00388" lon="5.10011">
        <ele>213.3</ele>
        <time>2013-01-30T12:41:36.000Z</time>
      </trkpt>
      <trkpt lat="44.00387" lon="5.10012">
        <ele>213.6</ele>
        <time>2013-01-30T12:41:37.000Z</time>
      </trkpt>
      <trkpt lat="44.00384" lon="5.10016">
        <ele>213.6</ele>
        <time>2013-01-30T12:41:39.000Z</time>
      </trkpt>
      <trkpt lat="44.00382" lon="5.10017">
        <ele>213.6</ele>
        <time>2013-01-30T12:41:40.000Z</time>
      </trkpt>
      <trkpt lat="44.00378" lon="5.10019">
        <ele>214.4</ele>
        <time>2013-01-30T12:41:42.000Z</time>
      </trkpt>
      <trkpt lat="44.00377" lon="5.1002">
        <ele>214.5</ele>
        <time>2013-01-30T12:41:43.000Z</time>
      </trkpt>
      <trkpt lat="44.00373" lon="5.10023">
        <ele>215</ele>
        <time>2013-01-30T12:41:45.000Z</time>
      </trkpt>
      <trkpt lat="44.00371" lon="5.10024">
        <ele>215</ele>
        <time>2013-01-30T12:41:46.000Z</time>
      </trkpt>
      <trkpt lat="44.00368" lon="5.10028">
        <ele>214.4</ele>
        <time>2013-01-30T12:41:49.000Z</time>
      </trkpt>
      <trkpt lat="44.00366" lon="5.10029">
        <ele>214.6</ele>
        <time>2013-01-30T12:41:50.000Z</time>
      </trkpt>
      <trkpt lat="44.00363" lon="5.1003">
        <ele>214.9</ele>
        <time>2013-01-30T12:41:51.000Z</time>
      </trkpt>
      <trkpt lat="44.00361" lon="5.10031">
        <ele>215.1</ele>
        <time>2013-01-30T12:41:52.000Z</time>
      </trkpt>
      <trkpt lat="44.00358" lon="5.10033">
        <ele>215.3</ele>
        <time>2013-01-30T12:41:54.000Z</time>
      </trkpt>
      <trkpt lat="44.00356" lon="5.10034">
        <ele>215.7</ele>
        <time>2013-01-30T12:41:55.000Z</time>
      </trkpt>
      <trkpt lat="44.00352" lon="5.10036">
        <ele>216.6</ele>
        <time>2013-01-30T12:41:57.000Z</time>
      </trkpt>
      <trkpt lat="44.0035" lon="5.10037">
        <ele>217.1</ele>
        <time>2013-01-30T12:41:58.000Z</time>
      </trkpt>
      <trkpt lat="44.00347" lon="5.10038">
        <ele>218</ele>
        <time>2013-01-30T12:42:00.000Z</time>
      </trkpt>
      <trkpt lat="44.00346" lon="5.10039">
        <ele>218.5</ele>
        <time>2013-01-30T12:42:01.000Z</time>
      </trkpt>
      <trkpt lat="44.00342" lon="5.10042">
        <ele>219</ele>
        <time>2013-01-30T12:42:03.000Z</time>
      </trkpt>
      <trkpt lat="44.00341" lon="5.10043">
        <ele>219.2</ele>
        <time>2013-01-30T12:42:04.000Z</time>
      </trkpt>
      <trkpt lat="44.00337" lon="5.10046">
        <ele>219.3</ele>
        <time>2013-01-30T12:42:06.000Z</time>
      </trkpt>
      <trkpt lat="44.00336" lon="5.10047">
        <ele>219.5</ele>
        <time>2013-01-30T12:42:07.000Z</time>
      </trkpt>
      <trkpt lat="44.00332" lon="5.10049">
        <ele>219.7</ele>
        <time>2013-01-30T12:42:09.000Z</time>
      </trkpt>
      <trkpt lat="44.00331" lon="5.1005">
        <ele>219.8</ele>
        <time>2013-01-30T12:42:10.000Z</time>
      </trkpt>
      <trkpt lat="44.00328" lon="5.10052">
        <ele>220.2</ele>
        <time>2013-01-30T12:42:12.000Z</time>
      </trkpt>
      <trkpt lat="44.00326" lon="5.10053">
        <ele>220.6</ele>
        <time>2013-01-30T12:42:13.000Z</time>
      </trkpt>
      <trkpt lat="44.00323" lon="5.10055">
        <ele>221.2</ele>
        <time>2013-01-30T12:42:15.000Z</time>
      </trkpt>
      <trkpt lat="44.00321" lon="5.10057">
        <ele>221.4</ele>
        <time>2013-01-30T12:42:16.000Z</time>
      </trkpt>
      <trkpt lat="44.00318" lon="5.10059">
        <ele>221.9</ele>
        <time>2013-01-30T12:42:18.000Z</time>
      </trkpt>
      <trkpt lat="44.00316" lon="5.1006">
        <ele>222.1</ele>
        <time>2013-01-30T12:42:19.000Z</time>
      </trkpt>
      <trkpt lat="44.00313" lon="5.10062">
        <ele>222.7</ele>
        <time>2013-01-30T12:42:21.000Z</time>
      </trkpt>
      <trkpt lat="44.00311" lon="5.10063">
        <ele>222.7</ele>
        <time>2013-01-30T12:42:22.000Z</time>
      </trkpt>
      <trkpt lat="44.00308" lon="5.10064">
        <ele>223.1</ele>
        <time>2013-01-30T12:42:24.000Z</time>
      </trkpt>
      <trkpt lat="44.00306" lon="5.10066">
        <ele>223.2</ele>
        <time>2013-01-30T12:42:25.000Z</time>
      </trkpt>
      <trkpt lat="44.00303" lon="5.10067">
        <ele>223.7</ele>
        <time>2013-01-30T12:42:27.000Z</time>
      </trkpt>
      <trkpt lat="44.00301" lon="5.10068">
        <ele>223.8</ele>
        <time>2013-01-30T12:42:28.000Z</time>
      </trkpt>
      <trkpt lat="44.00297" lon="5.1007">
        <ele>223.9</ele>
        <time>2013-01-30T12:42:30.000Z</time>
      </trkpt>
      <trkpt lat="44.00295" lon="5.1007">
        <ele>224.1</ele>
        <time>2013-01-30T12:42:31.000Z</time>
      </trkpt>
      <trkpt lat="44.00291" lon="5.10072">
        <ele>224.7</ele>
        <time>2013-01-30T12:42:33.000Z</time>
      </trkpt>
      <trkpt lat="44.00289" lon="5.10072">
        <ele>225</ele>
        <time>2013-01-30T12:42:34.000Z</time>
      </trkpt>
      <trkpt lat="44.00286" lon="5.10074">
        <ele>225.6</ele>
        <time>2013-01-30T12:42:36.000Z</time>
      </trkpt>
      <trkpt lat="44.00284" lon="5.10075">
        <ele>225.8</ele>
        <time>2013-01-30T12:42:37.000Z</time>
      </trkpt>
      <trkpt lat="44.00281" lon="5.10077">
        <ele>226.3</ele>
        <time>2013-01-30T12:42:39.000Z</time>
      </trkpt>
      <trkpt lat="44.00279" lon="5.10079">
        <ele>226.5</ele>
        <time>2013-01-30T12:42:40.000Z</time>
      </trkpt>
      <trkpt lat="44.00276" lon="5.10082">
        <ele>227.1</ele>
        <time>2013-01-30T12:42:42.000Z</time>
      </trkpt>
      <trkpt lat="44.00274" lon="5.10083">
        <ele>227.4</ele>
        <time>2013-01-30T12:42:43.000Z</time>
      </trkpt>
      <trkpt lat="44.00271" lon="5.10086">
        <ele>227.9</ele>
        <time>2013-01-30T12:42:45.000Z</time>
      </trkpt>
      <trkpt lat="44.00269" lon="5.10088">
        <ele>228</ele>
        <time>2013-01-30T12:42:46.000Z</time>
      </trkpt>
      <trkpt lat="44.00266" lon="5.1009">
        <ele>227.8</ele>
        <time>2013-01-30T12:42:48.000Z</time>
      </trkpt>
      <trkpt lat="44.00264" lon="5.10091">
        <ele>227.9</ele>
        <time>2013-01-30T12:42:49.000Z</time>
      </trkpt>
      <trkpt lat="44.00261" lon="5.10094">
        <ele>228.1</ele>
        <time>2013-01-30T12:42:51.000Z</time>
      </trkpt>
      <trkpt lat="44.00259" lon="5.10095">
        <ele>228.3</ele>
        <time>2013-01-30T12:42:52.000Z</time>
      </trkpt>
      <trkpt lat="44.00255" lon="5.10098">
        <ele>228.7</ele>
        <time>2013-01-30T12:42:54.000Z</time>
      </trkpt>
      <trkpt lat="44.00254" lon="5.10099">
        <ele>228.8</ele>
        <time>2013-01-30T12:42:55.000Z</time>
      </trkpt>
      <trkpt lat="44.0025" lon="5.10102">
        <ele>228.7</ele>
        <time>2013-01-30T12:42:57.000Z</time>
      </trkpt>
      <trkpt lat="44.00249" lon="5.10103">
        <ele>228.8</ele>
        <time>2013-01-30T12:42:58.000Z</time>
      </trkpt>
      <trkpt lat="44.00245" lon="5.10106">
        <ele>229.1</ele>
        <time>2013-01-30T12:43:00.000Z</time>
      </trkpt>
      <trkpt lat="44.00244" lon="5.10108">
        <ele>229.2</ele>
        <time>2013-01-30T12:43:01.000Z</time>
      </trkpt>
      <trkpt lat="44.0024" lon="5.10111">
        <ele>229.4</ele>
        <time>2013-01-30T12:43:03.000Z</time>
      </trkpt>
      <trkpt lat="44.00238" lon="5.10112">
        <ele>229.4</ele>
        <time>2013-01-30T12:43:04.000Z</time>
      </trkpt>
      <trkpt lat="44.00235" lon="5.10115">
        <ele>229.7</ele>
        <time>2013-01-30T12:43:06.000Z</time>
      </trkpt>
      <trkpt lat="44.00234" lon="5.10117">
        <ele>229.8</ele>
        <time>2013-01-30T12:43:07.000Z</time>
      </trkpt>
      <trkpt lat="44.0023" lon="5.1012">
        <ele>230</ele>
        <time>2013-01-30T12:43:09.000Z</time>
      </trkpt>
      <trkpt lat="44.00229" lon="5.10122">
        <ele>230.1</ele>
        <time>2013-01-30T12:43:10.000Z</time>
      </trkpt>
      <trkpt lat="44.00225" lon="5.10124">
        <ele>230.2</ele>
        <time>2013-01-30T12:43:12.000Z</time>
      </trkpt>
      <trkpt lat="44.00223" lon="5.10126">
        <ele>230.3</ele>
        <time>2013-01-30T12:43:13.000Z</time>
      </trkpt>
      <trkpt lat="44.0022" lon="5.10129">
        <ele>230.6</ele>
        <time>2013-01-30T12:43:15.000Z</time>
      </trkpt>
      <trkpt lat="44.00218" lon="5.10131">
        <ele>230.8</ele>
        <time>2013-01-30T12:43:16.000Z</time>
      </trkpt>
      <trkpt lat="44.00215" lon="5.10134">
        <ele>231</ele>
        <time>2013-01-30T12:43:18.000Z</time>
      </trkpt>
      <trkpt lat="44.00213" lon="5.10136">
        <ele>231.1</ele>
        <time>2013-01-30T12:43:19.000Z</time>
      </trkpt>
      <trkpt lat="44.0021" lon="5.10139">
        <ele>231.3</ele>
        <time>2013-01-30T12:43:21.000Z</time>
      </trkpt>
      <trkpt lat="44.00208" lon="5.1014">
        <ele>231.2</ele>
        <time>2013-01-30T12:43:22.000Z</time>
      </trkpt>
      <trkpt lat="44.00205" lon="5.10143">
        <ele>231.5</ele>
        <time>2013-01-30T12:43:24.000Z</time>
      </trkpt>
      <trkpt lat="44.00203" lon="5.10144">
        <ele>231.6</ele>
        <time>2013-01-30T12:43:25.000Z</time>
      </trkpt>
      <trkpt lat="44.002" lon="5.10147">
        <ele>231.7</ele>
        <time>2013-01-30T12:43:27.000Z</time>
      </trkpt>
      <trkpt lat="44.00198" lon="5.10148">
        <ele>231.7</ele>
        <time>2013-01-30T12:43:28.000Z</time>
      </trkpt>
      <trkpt lat="44.00194" lon="5.10151">
        <ele>232</ele>
        <time>2013-01-30T12:43:30.000Z</time>
      </trkpt>
      <trkpt lat="44.00192" lon="5.10152">
        <ele>232.1</ele>
        <time>2013-01-30T12:43:31.000Z</time>
      </trkpt>
      <trkpt lat="44.00189" lon="5.10154">
        <ele>232.3</ele>
        <time>2013-01-30T12:43:33.000Z</time>
      </trkpt>
      <trkpt lat="44.00187" lon="5.10155">
        <ele>232.6</ele>
        <time>2013-01-30T12:43:34.000Z</time>
      </trkpt>
      <trkpt lat="44.00184" lon="5.10158">
        <ele>233</ele>
        <time>2013-01-30T12:43:36.000Z</time>
      </trkpt>
      <trkpt lat="44.00182" lon="5.10159">
        <ele>233.1</ele>
        <time>2013-01-30T12:43:37.000Z</time>
      </trkpt>
      <trkpt lat="44.00178" lon="5.10162">
        <ele>233.3</ele>
        <time>2013-01-30T12:43:39.000Z</time>
      </trkpt>
      <trkpt lat="44.00177" lon="5.10163">
        <ele>233.5</ele>
        <time>2013-01-30T12:43:40.000Z</time>
      </trkpt>
      <trkpt lat="44.00173" lon="5.10165">
        <ele>233.4</ele>
        <time>2013-01-30T12:43:42.000Z</time>
      </trkpt>
      <trkpt lat="44.00171" lon="5.10167">
        <ele>233.6</ele>
        <time>2013-01-30T12:43:43.000Z</time>
      </trkpt>
      <trkpt lat="44.00168" lon="5.10169">
        <ele>233.1</ele>
        <time>2013-01-30T12:43:45.000Z</time>
      </trkpt>
      <trkpt lat="44.00166" lon="5.10171">
        <ele>233.7</ele>
        <time>2013-01-30T12:43:46.000Z</time>
      </trkpt>
      <trkpt lat="44.00162" lon="5.10173">
        <ele>233.9</ele>
        <time>2013-01-30T12:43:48.000Z</time>
      </trkpt>
      <trkpt lat="44.00161" lon="5.10174">
        <ele>234.2</ele>
        <time>2013-01-30T12:43:49.000Z</time>
      </trkpt>
      <trkpt lat="44.00157" lon="5.10176">
        <ele>234.5</ele>
        <time>2013-01-30T12:43:51.000Z</time>
      </trkpt>
      <trkpt lat="44.00155" lon="5.10177">
        <ele>234.8</ele>
        <time>2013-01-30T12:43:52.000Z</time>
      </trkpt>
      <trkpt lat="44.00152" lon="5.1018">
        <ele>234.8</ele>
        <time>2013-01-30T12:43:54.000Z</time>
      </trkpt>
      <trkpt lat="44.0015" lon="5.1018">
        <ele>235.5</ele>
        <time>2013-01-30T12:43:55.000Z</time>
      </trkpt>
      <trkpt lat="44.00147" lon="5.10183">
        <ele>235.5</ele>
        <time>2013-01-30T12:43:57.000Z</time>
      </trkpt>
      <trkpt lat="44.00145" lon="5.10184">
        <ele>235.7</ele>
        <time>2013-01-30T12:43:58.000Z</time>
      </trkpt>
      <trkpt lat="44.00142" lon="5.10187">
        <ele>236.1</ele>
        <time>2013-01-30T12:44:00.000Z</time>
      </trkpt>
      <trkpt lat="44.0014" lon="5.10188">
        <ele>236.3</ele>
        <time>2013-01-30T12:44:01.000Z</time>
      </trkpt>
      <trkpt lat="44.00137" lon="5.1019">
        <ele>236.7</ele>
        <time>2013-01-30T12:44:03.000Z</time>
      </trkpt>
      <trkpt lat="44.00136" lon="5.10191">
        <ele>237.1</ele>
        <time>2013-01-30T12:44:04.000Z</time>
      </trkpt>
      <trkpt lat="44.00132" lon="5.10194">
        <ele>237.5</ele>
        <time>2013-01-30T12:44:06.000Z</time>
      </trkpt>
      <trkpt lat="44.00131" lon="5.10195">
        <ele>238.1</ele>
        <time>2013-01-30T12:44:07.000Z</time>
      </trkpt>
      <trkpt lat="44.00128" lon="5.10197">
        <ele>238.6</ele>
        <time>2013-01-30T12:44:09.000Z</time>
      </trkpt>
      <trkpt lat="44.00127" lon="5.10198">
        <ele>238.9</ele>
        <time>2013-01-30T12:44:10.000Z</time>
      </trkpt>
      <trkpt lat="44.00123" lon="5.10201">
        <ele>239.8</ele>
        <time>2013-01-30T12:44:13.000Z</time>
      </trkpt>
      <trkpt lat="44.00121" lon="5.10202">
        <ele>240</ele>
        <time>2013-01-30T12:44:14.000Z</time>
      </trkpt>
      <trkpt lat="44.00118" lon="5.10205">
        <ele>241</ele>
        <time>2013-01-30T12:44:17.000Z</time>
      </trkpt>
      <trkpt lat="44.00116" lon="5.10207">
        <ele>241.3</ele>
        <time>2013-01-30T12:44:18.000Z</time>
      </trkpt>
      <trkpt lat="44.00113" lon="5.10208">
        <ele>241.7</ele>
        <time>2013-01-30T12:44:20.000Z</time>
      </trkpt>
      <trkpt lat="44.00112" lon="5.10209">
        <ele>241.9</ele>
        <time>2013-01-30T12:44:21.000Z</time>
      </trkpt>
      <trkpt lat="44.0011" lon="5.10211">
        <ele>242.6</ele>
        <time>2013-01-30T12:44:23.000Z</time>
      </trkpt>
      <trkpt lat="44.00108" lon="5.10212">
        <ele>242.9</ele>
        <time>2013-01-30T12:44:24.000Z</time>
      </trkpt>
      <trkpt lat="44.00106" lon="5.10214">
        <ele>243.4</ele>
        <time>2013-01-30T12:44:26.000Z</time>
      </trkpt>
      <trkpt lat="44.00104" lon="5.10215">
        <ele>243.5</ele>
        <time>2013-01-30T12:44:27.000Z</time>
      </trkpt>
      <trkpt lat="44.001" lon="5.10218">
        <ele>244.4</ele>
        <time>2013-01-30T12:44:30.000Z</time>
      </trkpt>
      <trkpt lat="44.00099" lon="5.10219">
        <ele>244.7</ele>
        <time>2013-01-30T12:44:31.000Z</time>
      </trkpt>
      <trkpt lat="44.00096" lon="5.10222">
        <ele>245.5</ele>
        <time>2013-01-30T12:44:34.000Z</time>
      </trkpt>
      <trkpt lat="44.00095" lon="5.10222">
        <ele>245.8</ele>
        <time>2013-01-30T12:44:35.000Z</time>
      </trkpt>
      <trkpt lat="44.00091" lon="5.1022">
        <ele>246.7</ele>
        <time>2013-01-30T12:44:38.000Z</time>
      </trkpt>
      <trkpt lat="44.00089" lon="5.10219">
        <ele>247.3</ele>
        <time>2013-01-30T12:44:39.000Z</time>
      </trkpt>
      <trkpt lat="44.00088" lon="5.10221">
        <ele>248.6</ele>
        <time>2013-01-30T12:44:41.000Z</time>
      </trkpt>
      <trkpt lat="44.00087" lon="5.10225">
        <ele>249.7</ele>
        <time>2013-01-30T12:44:42.000Z</time>
      </trkpt>
      <trkpt lat="44.00084" lon="5.10228">
        <ele>250.9</ele>
        <time>2013-01-30T12:44:45.000Z</time>
      </trkpt>
      <trkpt lat="44.00083" lon="5.10229">
        <ele>250.9</ele>
        <time>2013-01-30T12:44:46.000Z</time>
      </trkpt>
      <trkpt lat="44.00081" lon="5.10233">
        <ele>251.8</ele>
        <time>2013-01-30T12:44:48.000Z</time>
      </trkpt>
      <trkpt lat="44.00081" lon="5.10235">
        <ele>252.2</ele>
        <time>2013-01-30T12:44:49.000Z</time>
      </trkpt>
      <trkpt lat="44.00078" lon="5.10238">
        <ele>252.7</ele>
        <time>2013-01-30T12:44:51.000Z</time>
      </trkpt>
      <trkpt lat="44.00077" lon="5.1024">
        <ele>253.1</ele>
        <time>2013-01-30T12:44:52.000Z</time>
      </trkpt>
      <trkpt lat="44.00074" lon="5.10244">
        <ele>253.4</ele>
        <time>2013-01-30T12:44:55.000Z</time>
      </trkpt>
      <trkpt lat="44.00073" lon="5.10245">
        <ele>253.5</ele>
        <time>2013-01-30T12:44:56.000Z</time>
      </trkpt>
      <trkpt lat="44.0007" lon="5.10249">
        <ele>253.6</ele>
        <time>2013-01-30T12:44:59.000Z</time>
      </trkpt>
      <trkpt lat="44.00069" lon="5.1025">
        <ele>254.2</ele>
        <time>2013-01-30T12:45:00.000Z</time>
      </trkpt>
      <trkpt lat="44.00066" lon="5.10253">
        <ele>255</ele>
        <time>2013-01-30T12:45:03.000Z</time>
      </trkpt>
      <trkpt lat="44.00065" lon="5.10254">
        <ele>255.2</ele>
        <time>2013-01-30T12:45:04.000Z</time>
      </trkpt>
      <trkpt lat="44.00061" lon="5.10257">
        <ele>256</ele>
        <time>2013-01-30T12:45:07.000Z</time>
      </trkpt>
      <trkpt lat="44.0006" lon="5.10257">
        <ele>256.3</ele>
        <time>2013-01-30T12:45:08.000Z</time>
      </trkpt>
      <trkpt lat="44.00057" lon="5.10259">
        <ele>256.8</ele>
        <time>2013-01-30T12:45:11.000Z</time>
      </trkpt>
      <trkpt lat="44.00057" lon="5.10261">
        <ele>257.3</ele>
        <time>2013-01-30T12:45:12.000Z</time>
      </trkpt>
      <trkpt lat="44.00055" lon="5.10267">
        <ele>258.5</ele>
        <time>2013-01-30T12:45:15.000Z</time>
      </trkpt>
      <trkpt lat="44.00055" lon="5.10268">
        <ele>258.7</ele>
        <time>2013-01-30T12:45:16.000Z</time>
      </trkpt>
      <trkpt lat="44.00054" lon="5.10274">
        <ele>258.7</ele>
        <time>2013-01-30T12:45:28.000Z</time>
      </trkpt>
      <trkpt lat="44.00054" lon="5.10275">
        <ele>258.3</ele>
        <time>2013-01-30T12:45:29.000Z</time>
      </trkpt>
      <trkpt lat="44.0005" lon="5.10277">
        <ele>260.8</ele>
        <time>2013-01-30T12:45:42.000Z</time>
      </trkpt>
      <trkpt lat="44.00049" lon="5.10278">
        <ele>261</ele>
        <time>2013-01-30T12:45:43.000Z</time>
      </trkpt>
      <trkpt lat="44.00047" lon="5.10282">
        <ele>261.9</ele>
        <time>2013-01-30T12:45:47.000Z</time>
      </trkpt>
      <trkpt lat="44.00047" lon="5.10283">
        <ele>262.1</ele>
        <time>2013-01-30T12:45:48.000Z</time>
      </trkpt>
      <trkpt lat="44.00043" lon="5.10287">
        <ele>262.7</ele>
        <time>2013-01-30T12:45:53.000Z</time>
      </trkpt>
      <trkpt lat="44.00042" lon="5.10288">
        <ele>264.5</ele>
        <time>2013-01-30T12:45:54.000Z</time>
      </trkpt>
      <trkpt lat="44.00038" lon="5.10289">
        <ele>264.7</ele>
        <time>2013-01-30T12:45:57.000Z</time>
      </trkpt>
      <trkpt lat="44.00038" lon="5.1029">
        <ele>265</ele>
        <time>2013-01-30T12:45:58.000Z</time>
      </trkpt>
      <trkpt lat="44.00036" lon="5.10295">
        <ele>267.4</ele>
        <time>2013-01-30T12:46:07.000Z</time>
      </trkpt>
      <trkpt lat="44.00036" lon="5.10297">
        <ele>268</ele>
        <time>2013-01-30T12:46:08.000Z</time>
      </trkpt>
      <trkpt lat="44.00037" lon="5.10302">
        <ele>269.1</ele>
        <time>2013-01-30T12:46:11.000Z</time>
      </trkpt>
      <trkpt lat="44.00037" lon="5.10304">
        <ele>269.4</ele>
        <time>2013-01-30T12:46:12.000Z</time>
      </trkpt>
      <trkpt lat="44.00039" lon="5.10308">
        <ele>269.4</ele>
        <time>2013-01-30T12:46:14.000Z</time>
      </trkpt>
      <trkpt lat="44.00039" lon="5.10311">
        <ele>269.8</ele>
        <time>2013-01-30T12:46:15.000Z</time>
      </trkpt>
      <trkpt lat="44.0004" lon="5.10315">
        <ele>270.8</ele>
        <time>2013-01-30T12:46:17.000Z</time>
      </trkpt>
      <trkpt lat="44.0004" lon="5.10318">
        <ele>270.7</ele>
        <time>2013-01-30T12:46:18.000Z</time>
      </trkpt>
      <trkpt lat="44.0004" lon="5.10322">
        <ele>270.9</ele>
        <time>2013-01-30T12:46:20.000Z</time>
      </trkpt>
      <trkpt lat="44.00039" lon="5.10324">
        <ele>270.9</ele>
        <time>2013-01-30T12:46:21.000Z</time>
      </trkpt>
      <trkpt lat="44.00038" lon="5.10328">
        <ele>272.3</ele>
        <time>2013-01-30T12:46:28.000Z</time>
      </trkpt>
      <trkpt lat="44.00037" lon="5.1033">
        <ele>273</ele>
        <time>2013-01-30T12:46:29.000Z</time>
      </trkpt>
      <trkpt lat="44.00036" lon="5.10336">
        <ele>273.3</ele>
        <time>2013-01-30T12:46:37.000Z</time>
      </trkpt>
      <trkpt lat="44.00036" lon="5.10337">
        <ele>273.3</ele>
        <time>2013-01-30T12:46:38.000Z</time>
      </trkpt>
      <trkpt lat="44.00033" lon="5.10341">
        <ele>274.5</ele>
        <time>2013-01-30T12:46:45.000Z</time>
      </trkpt>
      <trkpt lat="44.00034" lon="5.10342">
        <ele>273.8</ele>
        <time>2013-01-30T12:46:46.000Z</time>
      </trkpt>
      <trkpt lat="44.00033" lon="5.10348">
        <ele>273.7</ele>
        <time>2013-01-30T12:46:49.000Z</time>
      </trkpt>
      <trkpt lat="44.00032" lon="5.10351">
        <ele>273.8</ele>
        <time>2013-01-30T12:46:50.000Z</time>
      </trkpt>
      <trkpt lat="44.0003" lon="5.10354">
        <ele>274.2</ele>
        <time>2013-01-30T12:46:52.000Z</time>
      </trkpt>
      <trkpt lat="44.00028" lon="5.10354">
        <ele>274</ele>
        <time>2013-01-30T12:46:53.000Z</time>
      </trkpt>
      <trkpt lat="44.00026" lon="5.10357">
        <ele>274.4</ele>
        <time>2013-01-30T12:46:55.000Z</time>
      </trkpt>
      <trkpt lat="44.00025" lon="5.10359">
        <ele>274.6</ele>
        <time>2013-01-30T12:46:56.000Z</time>
      </trkpt>
      <trkpt lat="44.00022" lon="5.10361">
        <ele>273.5</ele>
        <time>2013-01-30T12:46:58.000Z</time>
      </trkpt>
      <trkpt lat="44.00021" lon="5.10362">
        <ele>274.4</ele>
        <time>2013-01-30T12:46:59.000Z</time>
      </trkpt>
      <trkpt lat="44.00018" lon="5.10366">
        <ele>275.6</ele>
        <time>2013-01-30T12:47:02.000Z</time>
      </trkpt>
      <trkpt lat="44.00016" lon="5.10367">
        <ele>275.2</ele>
        <time>2013-01-30T12:47:03.000Z</time>
      </trkpt>
      <trkpt lat="44.00013" lon="5.10369">
        <ele>276.9</ele>
        <time>2013-01-30T12:47:06.000Z</time>
      </trkpt>
      <trkpt lat="44.00012" lon="5.10371">
        <ele>277</ele>
        <time>2013-01-30T12:47:07.000Z</time>
      </trkpt>
      <trkpt lat="44.00009" lon="5.10375">
        <ele>276.9</ele>
        <time>2013-01-30T12:47:11.000Z</time>
      </trkpt>
      <trkpt lat="44.00008" lon="5.10375">
        <ele>277.2</ele>
        <time>2013-01-30T12:47:12.000Z</time>
      </trkpt>
      <trkpt lat="44.00005" lon="5.10377">
        <ele>278.2</ele>
        <time>2013-01-30T12:47:14.000Z</time>
      </trkpt>
      <trkpt lat="44.00004" lon="5.10379">
        <ele>277.9</ele>
        <time>2013-01-30T12:47:15.000Z</time>
      </trkpt>
      <trkpt lat="44" lon="5.1038">
        <ele>276.7</ele>
        <time>2013-01-30T12:47:16.000Z</time>
      </trkpt>
      <trkpt lat="43.99999" lon="5.10382">
        <ele>276.7</ele>
        <time>2013-01-30T12:47:17.000Z</time>
      </trkpt>
      <trkpt lat="43.99997" lon="5.10386">
        <ele>275.8</ele>
        <time>2013-01-30T12:47:19.000Z</time>
      </trkpt>
      <trkpt lat="43.99995" lon="5.10388">
        <ele>276.3</ele>
        <time>2013-01-30T12:47:20.000Z</time>
      </trkpt>
      <trkpt lat="43.99992" lon="5.10391">
        <ele>275.7</ele>
        <time>2013-01-30T12:47:22.000Z</time>
      </trkpt>
      <trkpt lat="43.9999" lon="5.10393">
        <ele>275.7</ele>
        <time>2013-01-30T12:47:23.000Z</time>
      </trkpt>
      <trkpt lat="43.99987" lon="5.10396">
        <ele>277.4</ele>
        <time>2013-01-30T12:47:26.000Z</time>
      </trkpt>
      <trkpt lat="43.99985" lon="5.10397">
        <ele>277.7</ele>
        <time>2013-01-30T12:47:27.000Z</time>
      </trkpt>
      <trkpt lat="43.99982" lon="5.10401">
        <ele>276.8</ele>
        <time>2013-01-30T12:47:29.000Z</time>
      </trkpt>
      <trkpt lat="43.99981" lon="5.10402">
        <ele>277</ele>
        <time>2013-01-30T12:47:30.000Z</time>
      </trkpt>
      <trkpt lat="43.99978" lon="5.10404">
        <ele>279.6</ele>
        <time>2013-01-30T12:47:33.000Z</time>
      </trkpt>
      <trkpt lat="43.99977" lon="5.10405">
        <ele>280.3</ele>
        <time>2013-01-30T12:47:34.000Z</time>
      </trkpt>
      <trkpt lat="43.99977" lon="5.10407">
        <ele>289.3</ele>
        <time>2013-01-30T12:47:39.000Z</time>
      </trkpt>
      <trkpt lat="43.99975" lon="5.10412">
        <ele>292.8</ele>
        <time>2013-01-30T12:47:40.000Z</time>
      </trkpt>
      <trkpt lat="43.99973" lon="5.10411">
        <ele>293</ele>
        <time>2013-01-30T12:47:41.000Z</time>
      </trkpt>
      <trkpt lat="43.9997" lon="5.10408">
        <ele>293.2</ele>
        <time>2013-01-30T12:47:42.000Z</time>
      </trkpt>
      <trkpt lat="43.9997" lon="5.10403">
        <ele>304.3</ele>
        <time>2013-01-30T12:47:46.000Z</time>
      </trkpt>
      <trkpt lat="43.9997" lon="5.104">
        <ele>301.9</ele>
        <time>2013-01-30T12:47:47.000Z</time>
      </trkpt>
      <trkpt lat="43.9997" lon="5.10395">
        <ele>300.8</ele>
        <time>2013-01-30T12:47:49.000Z</time>
      </trkpt>
      <trkpt lat="43.99969" lon="5.10393">
        <ele>300.5</ele>
        <time>2013-01-30T12:47:50.000Z</time>
      </trkpt>
      <trkpt lat="43.99969" lon="5.1039">
        <ele>299.5</ele>
        <time>2013-01-30T12:47:51.000Z</time>
      </trkpt>
      <trkpt lat="43.99967" lon="5.10388">
        <ele>298.7</ele>
        <time>2013-01-30T12:47:52.000Z</time>
      </trkpt>
      <trkpt lat="43.99962" lon="5.10387">
        <ele>295.9</ele>
        <time>2013-01-30T12:47:53.000Z</time>
      </trkpt>
      <trkpt lat="43.99959" lon="5.10386">
        <ele>295.2</ele>
        <time>2013-01-30T12:47:54.000Z</time>
      </trkpt>
      <trkpt lat="43.99958" lon="5.10382">
        <ele>291.2</ele>
        <time>2013-01-30T12:47:56.000Z</time>
      </trkpt>
      <trkpt lat="43.99958" lon="5.1038">
        <ele>290.3</ele>
        <time>2013-01-30T12:47:57.000Z</time>
      </trkpt>
      <trkpt lat="43.99955" lon="5.10378">
        <ele>292.2</ele>
        <time>2013-01-30T12:47:59.000Z</time>
      </trkpt>
      <trkpt lat="43.99954" lon="5.10377">
        <ele>292.1</ele>
        <time>2013-01-30T12:48:00.000Z</time>
      </trkpt>
      <trkpt lat="43.99952" lon="5.10375">
        <ele>291.7</ele>
        <time>2013-01-30T12:48:01.000Z</time>
      </trkpt>
      <trkpt lat="43.99949" lon="5.10371">
        <ele>291.1</ele>
        <time>2013-01-30T12:48:02.000Z</time>
      </trkpt>
      <trkpt lat="43.99947" lon="5.10368">
        <ele>291.2</ele>
        <time>2013-01-30T12:48:03.000Z</time>
      </trkpt>
      <trkpt lat="43.99945" lon="5.10366">
        <ele>290.8</ele>
        <time>2013-01-30T12:48:04.000Z</time>
      </trkpt>
      <trkpt lat="43.99942" lon="5.10361">
        <ele>290.2</ele>
        <time>2013-01-30T12:48:06.000Z</time>
      </trkpt>
      <trkpt lat="43.99941" lon="5.1036">
        <ele>291.1</ele>
        <time>2013-01-30T12:48:07.000Z</time>
      </trkpt>
      <trkpt lat="43.99939" lon="5.10358">
        <ele>291.3</ele>
        <time>2013-01-30T12:48:08.000Z</time>
      </trkpt>
      <trkpt lat="43.99938" lon="5.10355">
        <ele>291.4</ele>
        <time>2013-01-30T12:48:09.000Z</time>
      </trkpt>
      <trkpt lat="43.99937" lon="5.10351">
        <ele>290.2</ele>
        <time>2013-01-30T12:48:10.000Z</time>
      </trkpt>
      <trkpt lat="43.99936" lon="5.10348">
        <ele>291</ele>
        <time>2013-01-30T12:48:11.000Z</time>
      </trkpt>
      <trkpt lat="43.99934" lon="5.10344">
        <ele>291.8</ele>
        <time>2013-01-30T12:48:14.000Z</time>
      </trkpt>
      <trkpt lat="43.99933" lon="5.10342">
        <ele>292.2</ele>
        <time>2013-01-30T12:48:15.000Z</time>
      </trkpt>
      <trkpt lat="43.99931" lon="5.10339">
        <ele>294.7</ele>
        <time>2013-01-30T12:48:21.000Z</time>
      </trkpt>
      <trkpt lat="43.99928" lon="5.1034">
        <ele>293.5</ele>
        <time>2013-01-30T12:48:22.000Z</time>
      </trkpt>
      <trkpt lat="43.99924" lon="5.1034">
        <ele>294.4</ele>
        <time>2013-01-30T12:48:25.000Z</time>
      </trkpt>
      <trkpt lat="43.99922" lon="5.1034">
        <ele>294.5</ele>
        <time>2013-01-30T12:48:26.000Z</time>
      </trkpt>
      <trkpt lat="43.9992" lon="5.10339">
        <ele>294.9</ele>
        <time>2013-01-30T12:48:28.000Z</time>
      </trkpt>
      <trkpt lat="43.99917" lon="5.10338">
        <ele>296</ele>
        <time>2013-01-30T12:48:29.000Z</time>
      </trkpt>
      <trkpt lat="43.99914" lon="5.10335">
        <ele>298.8</ele>
        <time>2013-01-30T12:48:31.000Z</time>
      </trkpt>
      <trkpt lat="43.99913" lon="5.10334">
        <ele>299.4</ele>
        <time>2013-01-30T12:48:32.000Z</time>
      </trkpt>
      <trkpt lat="43.99909" lon="5.10333">
        <ele>300.3</ele>
        <time>2013-01-30T12:48:34.000Z</time>
      </trkpt>
      <trkpt lat="43.99907" lon="5.10333">
        <ele>300.5</ele>
        <time>2013-01-30T12:48:35.000Z</time>
      </trkpt>
      <trkpt lat="43.99903" lon="5.10332">
        <ele>299.8</ele>
        <time>2013-01-30T12:48:36.000Z</time>
      </trkpt>
      <trkpt lat="43.999" lon="5.10331">
        <ele>300</ele>
        <time>2013-01-30T12:48:37.000Z</time>
      </trkpt>
      <trkpt lat="43.99897" lon="5.10331">
        <ele>299.4</ele>
        <time>2013-01-30T12:48:38.000Z</time>
      </trkpt>
      <trkpt lat="43.99894" lon="5.10333">
        <ele>298.3</ele>
        <time>2013-01-30T12:48:39.000Z</time>
      </trkpt>
      <trkpt lat="43.99891" lon="5.10335">
        <ele>296.9</ele>
        <time>2013-01-30T12:48:40.000Z</time>
      </trkpt>
      <trkpt lat="43.9989" lon="5.10337">
        <ele>297</ele>
        <time>2013-01-30T12:48:41.000Z</time>
      </trkpt>
      <trkpt lat="43.99887" lon="5.10338">
        <ele>295.9</ele>
        <time>2013-01-30T12:48:42.000Z</time>
      </trkpt>
      <trkpt lat="43.99885" lon="5.10339">
        <ele>295.3</ele>
        <time>2013-01-30T12:48:43.000Z</time>
      </trkpt>
      <trkpt lat="43.99882" lon="5.10338">
        <ele>296</ele>
        <time>2013-01-30T12:48:46.000Z</time>
      </trkpt>
      <trkpt lat="43.99881" lon="5.10343">
        <ele>294.6</ele>
        <time>2013-01-30T12:48:47.000Z</time>
      </trkpt>
      <trkpt lat="43.99877" lon="5.10344">
        <ele>293.1</ele>
        <time>2013-01-30T12:48:52.000Z</time>
      </trkpt>
      <trkpt lat="43.99875" lon="5.10343">
        <ele>292.8</ele>
        <time>2013-01-30T12:48:53.000Z</time>
      </trkpt>
      <trkpt lat="43.99872" lon="5.10344">
        <ele>292.8</ele>
        <time>2013-01-30T12:48:56.000Z</time>
      </trkpt>
      <trkpt lat="43.99871" lon="5.10345">
        <ele>293.1</ele>
        <time>2013-01-30T12:48:57.000Z</time>
      </trkpt>
      <trkpt lat="43.99867" lon="5.10346">
        <ele>293.3</ele>
        <time>2013-01-30T12:49:01.000Z</time>
      </trkpt>
      <trkpt lat="43.99866" lon="5.10346">
        <ele>293.7</ele>
        <time>2013-01-30T12:49:02.000Z</time>
      </trkpt>
      <trkpt lat="43.99863" lon="5.10349">
        <ele>293.6</ele>
        <time>2013-01-30T12:49:07.000Z</time>
      </trkpt>
      <trkpt lat="43.99862" lon="5.10351">
        <ele>293.4</ele>
        <time>2013-01-30T12:49:08.000Z</time>
      </trkpt>
      <trkpt lat="43.9986" lon="5.10355">
        <ele>293.9</ele>
        <time>2013-01-30T12:49:10.000Z</time>
      </trkpt>
      <trkpt lat="43.99858" lon="5.10356">
        <ele>293.7</ele>
        <time>2013-01-30T12:49:11.000Z</time>
      </trkpt>
      <trkpt lat="43.99853" lon="5.10356">
        <ele>293.1</ele>
        <time>2013-01-30T12:49:12.000Z</time>
      </trkpt>
      <trkpt lat="43.9985" lon="5.10359">
        <ele>293.5</ele>
        <time>2013-01-30T12:49:14.000Z</time>
      </trkpt>
      <trkpt lat="43.99848" lon="5.1036">
        <ele>293.8</ele>
        <time>2013-01-30T12:49:15.000Z</time>
      </trkpt>
      <trkpt lat="43.99845" lon="5.10361">
        <ele>295.2</ele>
        <time>2013-01-30T12:49:17.000Z</time>
      </trkpt>
      <trkpt lat="43.99844" lon="5.10361">
        <ele>296</ele>
        <time>2013-01-30T12:49:18.000Z</time>
      </trkpt>
      <trkpt lat="43.9984" lon="5.10362">
        <ele>295.3</ele>
        <time>2013-01-30T12:49:20.000Z</time>
      </trkpt>
      <trkpt lat="43.99838" lon="5.10364">
        <ele>293.5</ele>
        <time>2013-01-30T12:49:21.000Z</time>
      </trkpt>
      <trkpt lat="43.99837" lon="5.10368">
        <ele>294.3</ele>
        <time>2013-01-30T12:49:22.000Z</time>
      </trkpt>
      <trkpt lat="43.99835" lon="5.1037">
        <ele>294</ele>
        <time>2013-01-30T12:49:23.000Z</time>
      </trkpt>
      <trkpt lat="43.99832" lon="5.10374">
        <ele>295.5</ele>
        <time>2013-01-30T12:49:25.000Z</time>
      </trkpt>
      <trkpt lat="43.99831" lon="5.10378">
        <ele>295</ele>
        <time>2013-01-30T12:49:26.000Z</time>
      </trkpt>
      <trkpt lat="43.9983" lon="5.10383">
        <ele>296.1</ele>
        <time>2013-01-30T12:49:28.000Z</time>
      </trkpt>
      <trkpt lat="43.99828" lon="5.10387">
        <ele>295.7</ele>
        <time>2013-01-30T12:49:29.000Z</time>
      </trkpt>
      <trkpt lat="43.99826" lon="5.10389">
        <ele>294.9</ele>
        <time>2013-01-30T12:49:30.000Z</time>
      </trkpt>
      <trkpt lat="43.99824" lon="5.10391">
        <ele>294.5</ele>
        <time>2013-01-30T12:49:31.000Z</time>
      </trkpt>
      <trkpt lat="43.99823" lon="5.10395">
        <ele>295.2</ele>
        <time>2013-01-30T12:49:33.000Z</time>
      </trkpt>
      <trkpt lat="43.99821" lon="5.10399">
        <ele>293.6</ele>
        <time>2013-01-30T12:49:34.000Z</time>
      </trkpt>
      <trkpt lat="43.9982" lon="5.10401">
        <ele>293.5</ele>
        <time>2013-01-30T12:49:35.000Z</time>
      </trkpt>
      <trkpt lat="43.99819" lon="5.10404">
        <ele>293.1</ele>
        <time>2013-01-30T12:49:36.000Z</time>
      </trkpt>
      <trkpt lat="43.99817" lon="5.10409">
        <ele>294.7</ele>
        <time>2013-01-30T12:49:40.000Z</time>
      </trkpt>
      <trkpt lat="43.99816" lon="5.10413">
        <ele>294.4</ele>
        <time>2013-01-30T12:49:41.000Z</time>
      </trkpt>
      <trkpt lat="43.99815" lon="5.10418">
        <ele>294.5</ele>
        <time>2013-01-30T12:49:43.000Z</time>
      </trkpt>
      <trkpt lat="43.99814" lon="5.10419">
        <ele>295</ele>
        <time>2013-01-30T12:49:44.000Z</time>
      </trkpt>
      <trkpt lat="43.99812" lon="5.10424">
        <ele>295.5</ele>
        <time>2013-01-30T12:49:47.000Z</time>
      </trkpt>
      <trkpt lat="43.99811" lon="5.10427">
        <ele>295.5</ele>
        <time>2013-01-30T12:49:48.000Z</time>
      </trkpt>
      <trkpt lat="43.99807" lon="5.10429">
        <ele>296.2</ele>
        <time>2013-01-30T12:49:51.000Z</time>
      </trkpt>
      <trkpt lat="43.99806" lon="5.1043">
        <ele>296.7</ele>
        <time>2013-01-30T12:49:52.000Z</time>
      </trkpt>
      <trkpt lat="43.99802" lon="5.1043">
        <ele>298.5</ele>
        <time>2013-01-30T12:49:55.000Z</time>
      </trkpt>
      <trkpt lat="43.99801" lon="5.1043">
        <ele>298.2</ele>
        <time>2013-01-30T12:49:56.000Z</time>
      </trkpt>
      <trkpt lat="43.99797" lon="5.10427">
        <ele>298.7</ele>
        <time>2013-01-30T12:50:00.000Z</time>
      </trkpt>
      <trkpt lat="43.99797" lon="5.10426">
        <ele>299.4</ele>
        <time>2013-01-30T12:50:01.000Z</time>
      </trkpt>
      <trkpt lat="43.99793" lon="5.10423">
        <ele>300.9</ele>
        <time>2013-01-30T12:50:05.000Z</time>
      </trkpt>
      <trkpt lat="43.99792" lon="5.10422">
        <ele>300.2</ele>
        <time>2013-01-30T12:50:06.000Z</time>
      </trkpt>
      <trkpt lat="43.99789" lon="5.10417">
        <ele>301</ele>
        <time>2013-01-30T12:50:09.000Z</time>
      </trkpt>
      <trkpt lat="43.99789" lon="5.10417">
        <ele>301.1</ele>
        <time>2013-01-30T12:50:10.000Z</time>
      </trkpt>
      <trkpt lat="43.99787" lon="5.10412">
        <ele>304.2</ele>
        <time>2013-01-30T12:50:14.000Z</time>
      </trkpt>
      <trkpt lat="43.99786" lon="5.1041">
        <ele>304.6</ele>
        <time>2013-01-30T12:50:15.000Z</time>
      </trkpt>
      <trkpt lat="43.99784" lon="5.10406">
        <ele>302.9</ele>
        <time>2013-01-30T12:50:17.000Z</time>
      </trkpt>
      <trkpt lat="43.99782" lon="5.10405">
        <ele>303.3</ele>
        <time>2013-01-30T12:50:18.000Z</time>
      </trkpt>
      <trkpt lat="43.9978" lon="5.104">
        <ele>303.6</ele>
        <time>2013-01-30T12:50:21.000Z</time>
      </trkpt>
      <trkpt lat="43.99779" lon="5.10398">
        <ele>304.1</ele>
        <time>2013-01-30T12:50:22.000Z</time>
      </trkpt>
      <trkpt lat="43.99778" lon="5.10394">
        <ele>304.3</ele>
        <time>2013-01-30T12:50:24.000Z</time>
      </trkpt>
      <trkpt lat="43.99776" lon="5.10392">
        <ele>304.1</ele>
        <time>2013-01-30T12:50:25.000Z</time>
      </trkpt>
      <trkpt lat="43.99773" lon="5.10389">
        <ele>305.5</ele>
        <time>2013-01-30T12:50:28.000Z</time>
      </trkpt>
      <trkpt lat="43.99772" lon="5.10388">
        <ele>306.4</ele>
        <time>2013-01-30T12:50:29.000Z</time>
      </trkpt>
      <trkpt lat="43.99771" lon="5.10382">
        <ele>307.6</ele>
        <time>2013-01-30T12:50:32.000Z</time>
      </trkpt>
      <trkpt lat="43.9977" lon="5.10381">
        <ele>307.7</ele>
        <time>2013-01-30T12:50:33.000Z</time>
      </trkpt>
      <trkpt lat="43.99767" lon="5.10377">
        <ele>307.5</ele>
        <time>2013-01-30T12:50:38.000Z</time>
      </trkpt>
      <trkpt lat="43.99767" lon="5.10377">
        <ele>307.5</ele>
        <time>2013-01-30T12:50:39.000Z</time>
      </trkpt>
      <trkpt lat="43.99763" lon="5.10375">
        <ele>307.7</ele>
        <time>2013-01-30T12:50:46.000Z</time>
      </trkpt>
      <trkpt lat="43.99762" lon="5.10374">
        <ele>308.5</ele>
        <time>2013-01-30T12:50:47.000Z</time>
      </trkpt>
      <trkpt lat="43.99759" lon="5.1037">
        <ele>309.8</ele>
        <time>2013-01-30T12:50:50.000Z</time>
      </trkpt>
      <trkpt lat="43.99758" lon="5.1037">
        <ele>309.5</ele>
        <time>2013-01-30T12:50:51.000Z</time>
      </trkpt>
      <trkpt lat="43.99757" lon="5.10375">
        <ele>309.4</ele>
        <time>2013-01-30T12:50:53.000Z</time>
      </trkpt>
      <trkpt lat="43.99756" lon="5.10377">
        <ele>308.9</ele>
        <time>2013-01-30T12:50:54.000Z</time>
      </trkpt>
      <trkpt lat="43.99756" lon="5.10384">
        <ele>310.5</ele>
        <time>2013-01-30T12:51:03.000Z</time>
      </trkpt>
      <trkpt lat="43.99756" lon="5.10385">
        <ele>310.8</ele>
        <time>2013-01-30T12:51:04.000Z</time>
      </trkpt>
      <trkpt lat="43.99755" lon="5.1039">
        <ele>311.6</ele>
        <time>2013-01-30T12:51:09.000Z</time>
      </trkpt>
      <trkpt lat="43.99754" lon="5.10392">
        <ele>311.4</ele>
        <time>2013-01-30T12:51:10.000Z</time>
      </trkpt>
      <trkpt lat="43.99753" lon="5.10397">
        <ele>311.4</ele>
        <time>2013-01-30T12:51:15.000Z</time>
      </trkpt>
      <trkpt lat="43.99752" lon="5.10398">
        <ele>311.2</ele>
        <time>2013-01-30T12:51:16.000Z</time>
      </trkpt>
      <trkpt lat="43.99748" lon="5.10401">
        <ele>313.2</ele>
        <time>2013-01-30T12:51:22.000Z</time>
      </trkpt>
      <trkpt lat="43.99748" lon="5.10402">
        <ele>313</ele>
        <time>2013-01-30T12:51:23.000Z</time>
      </trkpt>
      <trkpt lat="43.99745" lon="5.10404">
        <ele>313</ele>
        <time>2013-01-30T12:51:28.000Z</time>
      </trkpt>
      <trkpt lat="43.99743" lon="5.10404">
        <ele>312.9</ele>
        <time>2013-01-30T12:51:29.000Z</time>
      </trkpt>
      <trkpt lat="43.99739" lon="5.10407">
        <ele>317.1</ele>
        <time>2013-01-30T12:51:36.000Z</time>
      </trkpt>
      <trkpt lat="43.99738" lon="5.10407">
        <ele>317.4</ele>
        <time>2013-01-30T12:51:37.000Z</time>
      </trkpt>
      <trkpt lat="43.99735" lon="5.10411">
        <ele>316.8</ele>
        <time>2013-01-30T12:51:48.000Z</time>
      </trkpt>
      <trkpt lat="43.99735" lon="5.10411">
        <ele>316.7</ele>
        <time>2013-01-30T12:51:49.000Z</time>
      </trkpt>
      <trkpt lat="43.99731" lon="5.10413">
        <ele>317.7</ele>
        <time>2013-01-30T12:52:06.000Z</time>
      </trkpt>
      <trkpt lat="43.99728" lon="5.10413">
        <ele>316.5</ele>
        <time>2013-01-30T12:52:07.000Z</time>
      </trkpt>
      <trkpt lat="43.99725" lon="5.10413">
        <ele>317.5</ele>
        <time>2013-01-30T12:52:10.000Z</time>
      </trkpt>
      <trkpt lat="43.99723" lon="5.10414">
        <ele>317.4</ele>
        <time>2013-01-30T12:52:11.000Z</time>
      </trkpt>
      <trkpt lat="43.99719" lon="5.10416">
        <ele>317.6</ele>
        <time>2013-01-30T12:52:13.000Z</time>
      </trkpt>
      <trkpt lat="43.99715" lon="5.10413">
        <ele>317.4</ele>
        <time>2013-01-30T12:52:14.000Z</time>
      </trkpt>
      <trkpt lat="43.99713" lon="5.10413">
        <ele>317.1</ele>
        <time>2013-01-30T12:52:16.000Z</time>
      </trkpt>
      <trkpt lat="43.99711" lon="5.10414">
        <ele>316.7</ele>
        <time>2013-01-30T12:52:17.000Z</time>
      </trkpt>
      <trkpt lat="43.99709" lon="5.10416">
        <ele>316.2</ele>
        <time>2013-01-30T12:52:18.000Z</time>
      </trkpt>
      <trkpt lat="43.99707" lon="5.10418">
        <ele>316</ele>
        <time>2013-01-30T12:52:19.000Z</time>
      </trkpt>
      <trkpt lat="43.99705" lon="5.10421">
        <ele>316.4</ele>
        <time>2013-01-30T12:52:20.000Z</time>
      </trkpt>
      <trkpt lat="43.99701" lon="5.10422">
        <ele>315.8</ele>
        <time>2013-01-30T12:52:21.000Z</time>
      </trkpt>
      <trkpt lat="43.99697" lon="5.10424">
        <ele>315.1</ele>
        <time>2013-01-30T12:52:22.000Z</time>
      </trkpt>
      <trkpt lat="43.99693" lon="5.10424">
        <ele>315.3</ele>
        <time>2013-01-30T12:52:23.000Z</time>
      </trkpt>
      <trkpt lat="43.99689" lon="5.10424">
        <ele>314.8</ele>
        <time>2013-01-30T12:52:24.000Z</time>
      </trkpt>
      <trkpt lat="43.99686" lon="5.10424">
        <ele>314.9</ele>
        <time>2013-01-30T12:52:25.000Z</time>
      </trkpt>
      <trkpt lat="43.99683" lon="5.10427">
        <ele>317</ele>
        <time>2013-01-30T12:52:26.000Z</time>
      </trkpt>
      <trkpt lat="43.99679" lon="5.10428">
        <ele>317.1</ele>
        <time>2013-01-30T12:52:27.000Z</time>
      </trkpt>
      <trkpt lat="43.99675" lon="5.1043">
        <ele>316.4</ele>
        <time>2013-01-30T12:52:28.000Z</time>
      </trkpt>
      <trkpt lat="43.99672" lon="5.1043">
        <ele>316.4</ele>
        <time>2013-01-30T12:52:29.000Z</time>
      </trkpt>
      <trkpt lat="43.99667" lon="5.10436">
        <ele>315</ele>
        <time>2013-01-30T12:52:30.000Z</time>
      </trkpt>
      <trkpt lat="43.9966" lon="5.1044">
        <ele>312.7</ele>
        <time>2013-01-30T12:52:31.000Z</time>
      </trkpt>
      <trkpt lat="43.99655" lon="5.10442">
        <ele>312.6</ele>
        <time>2013-01-30T12:52:32.000Z</time>
      </trkpt>
      <trkpt lat="43.99652" lon="5.10445">
        <ele>312.4</ele>
        <time>2013-01-30T12:52:33.000Z</time>
      </trkpt>
      <trkpt lat="43.99647" lon="5.10449">
        <ele>311.4</ele>
        <time>2013-01-30T12:52:34.000Z</time>
      </trkpt>
      <trkpt lat="43.99643" lon="5.10453">
        <ele>310.7</ele>
        <time>2013-01-30T12:52:35.000Z</time>
      </trkpt>
      <trkpt lat="43.9964" lon="5.10459">
        <ele>310.3</ele>
        <time>2013-01-30T12:52:36.000Z</time>
      </trkpt>
      <trkpt lat="43.99636" lon="5.1046">
        <ele>309.9</ele>
        <time>2013-01-30T12:52:38.000Z</time>
      </trkpt>
      <trkpt lat="43.99633" lon="5.10461">
        <ele>310.5</ele>
        <time>2013-01-30T12:52:39.000Z</time>
      </trkpt>
      <trkpt lat="43.99631" lon="5.10463">
        <ele>310</ele>
        <time>2013-01-30T12:52:40.000Z</time>
      </trkpt>
      <trkpt lat="43.99628" lon="5.10465">
        <ele>309.8</ele>
        <time>2013-01-30T12:52:41.000Z</time>
      </trkpt>
      <trkpt lat="43.99625" lon="5.10468">
        <ele>309.4</ele>
        <time>2013-01-30T12:52:42.000Z</time>
      </trkpt>
      <trkpt lat="43.99621" lon="5.10471">
        <ele>308.8</ele>
        <time>2013-01-30T12:52:43.000Z</time>
      </trkpt>
      <trkpt lat="43.99617" lon="5.10479">
        <ele>309.1</ele>
        <time>2013-01-30T12:52:45.000Z</time>
      </trkpt>
      <trkpt lat="43.9962" lon="5.10485">
        <ele>307.2</ele>
        <time>2013-01-30T12:52:46.000Z</time>
      </trkpt>
      <trkpt lat="43.99618" lon="5.10489">
        <ele>306.8</ele>
        <time>2013-01-30T12:52:47.000Z</time>
      </trkpt>
      <trkpt lat="43.99617" lon="5.10493">
        <ele>306.3</ele>
        <time>2013-01-30T12:52:48.000Z</time>
      </trkpt>
      <trkpt lat="43.99617" lon="5.10497">
        <ele>306.4</ele>
        <time>2013-01-30T12:52:49.000Z</time>
      </trkpt>
      <trkpt lat="43.99616" lon="5.105">
        <ele>306.3</ele>
        <time>2013-01-30T12:52:50.000Z</time>
      </trkpt>
      <trkpt lat="43.99613" lon="5.105">
        <ele>306.5</ele>
        <time>2013-01-30T12:52:51.000Z</time>
      </trkpt>
      <trkpt lat="43.99611" lon="5.105">
        <ele>305.9</ele>
        <time>2013-01-30T12:52:52.000Z</time>
      </trkpt>
      <trkpt lat="43.99607" lon="5.10502">
        <ele>305.2</ele>
        <time>2013-01-30T12:52:54.000Z</time>
      </trkpt>
      <trkpt lat="43.99605" lon="5.10504">
        <ele>304.9</ele>
        <time>2013-01-30T12:52:55.000Z</time>
      </trkpt>
      <trkpt lat="43.99602" lon="5.10505">
        <ele>304.8</ele>
        <time>2013-01-30T12:52:57.000Z</time>
      </trkpt>
      <trkpt lat="43.996" lon="5.10508">
        <ele>303.5</ele>
        <time>2013-01-30T12:52:58.000Z</time>
      </trkpt>
      <trkpt lat="43.99596" lon="5.10511">
        <ele>302.2</ele>
        <time>2013-01-30T12:52:59.000Z</time>
      </trkpt>
      <trkpt lat="43.99595" lon="5.10512">
        <ele>303.7</ele>
        <time>2013-01-30T12:53:00.000Z</time>
      </trkpt>
      <trkpt lat="43.99592" lon="5.10507">
        <ele>296.2</ele>
        <time>2013-01-30T12:53:01.000Z</time>
      </trkpt>
      <trkpt lat="43.99589" lon="5.10507">
        <ele>295.5</ele>
        <time>2013-01-30T12:53:02.000Z</time>
      </trkpt>
      <trkpt lat="43.99587" lon="5.10506">
        <ele>294.2</ele>
        <time>2013-01-30T12:53:03.000Z</time>
      </trkpt>
      <trkpt lat="43.99583" lon="5.10506">
        <ele>291.7</ele>
        <time>2013-01-30T12:53:05.000Z</time>
      </trkpt>
      <trkpt lat="43.99578" lon="5.1051">
        <ele>289.7</ele>
        <time>2013-01-30T12:53:06.000Z</time>
      </trkpt>
      <trkpt lat="43.99575" lon="5.10513">
        <ele>288.4</ele>
        <time>2013-01-30T12:53:07.000Z</time>
      </trkpt>
      <trkpt lat="43.99573" lon="5.10515">
        <ele>287.8</ele>
        <time>2013-01-30T12:53:08.000Z</time>
      </trkpt>
      <trkpt lat="43.99572" lon="5.10516">
        <ele>286.9</ele>
        <time>2013-01-30T12:53:09.000Z</time>
      </trkpt>
      <trkpt lat="43.99578" lon="5.10514">
        <ele>293.8</ele>
        <time>2013-01-30T12:53:10.000Z</time>
      </trkpt>
      <trkpt lat="43.99576" lon="5.10517">
        <ele>292.7</ele>
        <time>2013-01-30T12:53:11.000Z</time>
      </trkpt>
      <trkpt lat="43.99575" lon="5.10522">
        <ele>291.6</ele>
        <time>2013-01-30T12:53:12.000Z</time>
      </trkpt>
      <trkpt lat="43.99574" lon="5.10526">
        <ele>291.5</ele>
        <time>2013-01-30T12:53:13.000Z</time>
      </trkpt>
      <trkpt lat="43.99572" lon="5.10531">
        <ele>291.4</ele>
        <time>2013-01-30T12:53:14.000Z</time>
      </trkpt>
      <trkpt lat="43.99572" lon="5.10536">
        <ele>293</ele>
        <time>2013-01-30T12:53:15.000Z</time>
      </trkpt>
      <trkpt lat="43.99568" lon="5.1052">
        <ele>290.5</ele>
        <time>2013-01-30T12:53:16.000Z</time>
      </trkpt>
      <trkpt lat="43.99566" lon="5.10516">
        <ele>289.2</ele>
        <time>2013-01-30T12:53:17.000Z</time>
      </trkpt>
      <trkpt lat="43.99564" lon="5.10511">
        <ele>288.4</ele>
        <time>2013-01-30T12:53:18.000Z</time>
      </trkpt>
      <trkpt lat="43.99563" lon="5.10507">
        <ele>287</ele>
        <time>2013-01-30T12:53:19.000Z</time>
      </trkpt>
      <trkpt lat="43.99561" lon="5.10503">
        <ele>286.3</ele>
        <time>2013-01-30T12:53:20.000Z</time>
      </trkpt>
      <trkpt lat="43.9956" lon="5.10498">
        <ele>285.1</ele>
        <time>2013-01-30T12:53:21.000Z</time>
      </trkpt>
      <trkpt lat="43.99558" lon="5.10493">
        <ele>283.8</ele>
        <time>2013-01-30T12:53:22.000Z</time>
      </trkpt>
      <trkpt lat="43.99555" lon="5.10488">
        <ele>282.7</ele>
        <time>2013-01-30T12:53:23.000Z</time>
      </trkpt>
      <trkpt lat="43.99547" lon="5.10482">
        <ele>285.9</ele>
        <time>2013-01-30T12:53:24.000Z</time>
      </trkpt>
      <trkpt lat="43.99544" lon="5.10477">
        <ele>285.3</ele>
        <time>2013-01-30T12:53:25.000Z</time>
      </trkpt>
      <trkpt lat="43.9954" lon="5.10473">
        <ele>283.8</ele>
        <time>2013-01-30T12:53:26.000Z</time>
      </trkpt>
      <trkpt lat="43.99535" lon="5.1047">
        <ele>283.5</ele>
        <time>2013-01-30T12:53:27.000Z</time>
      </trkpt>
      <trkpt lat="43.99529" lon="5.10468">
        <ele>283.6</ele>
        <time>2013-01-30T12:53:28.000Z</time>
      </trkpt>
      <trkpt lat="43.99523" lon="5.10466">
        <ele>283.8</ele>
        <time>2013-01-30T12:53:29.000Z</time>
      </trkpt>
      <trkpt lat="43.99519" lon="5.10468">
        <ele>283.9</ele>
        <time>2013-01-30T12:53:30.000Z</time>
      </trkpt>
      <trkpt lat="43.99513" lon="5.10468">
        <ele>283.2</ele>
        <time>2013-01-30T12:53:31.000Z</time>
      </trkpt>
      <trkpt lat="43.99508" lon="5.10466">
        <ele>283</ele>
        <time>2013-01-30T12:53:32.000Z</time>
      </trkpt>
      <trkpt lat="43.99504" lon="5.10462">
        <ele>282.4</ele>
        <time>2013-01-30T12:53:33.000Z</time>
      </trkpt>
      <trkpt lat="43.99502" lon="5.10458">
        <ele>281.7</ele>
        <time>2013-01-30T12:53:34.000Z</time>
      </trkpt>
      <trkpt lat="43.99499" lon="5.10451">
        <ele>281.2</ele>
        <time>2013-01-30T12:53:35.000Z</time>
      </trkpt>
      <trkpt lat="43.99496" lon="5.10444">
        <ele>281.1</ele>
        <time>2013-01-30T12:53:36.000Z</time>
      </trkpt>
      <trkpt lat="43.99493" lon="5.10435">
        <ele>280.8</ele>
        <time>2013-01-30T12:53:37.000Z</time>
      </trkpt>
      <trkpt lat="43.99493" lon="5.10427">
        <ele>280.4</ele>
        <time>2013-01-30T12:53:38.000Z</time>
      </trkpt>
      <trkpt lat="43.99492" lon="5.10421">
        <ele>279.8</ele>
        <time>2013-01-30T12:53:39.000Z</time>
      </trkpt>
      <trkpt lat="43.9949" lon="5.10416">
        <ele>279.5</ele>
        <time>2013-01-30T12:53:40.000Z</time>
      </trkpt>
      <trkpt lat="43.99488" lon="5.10413">
        <ele>279.2</ele>
        <time>2013-01-30T12:53:41.000Z</time>
      </trkpt>
      <trkpt lat="43.99485" lon="5.1041">
        <ele>278.6</ele>
        <time>2013-01-30T12:53:42.000Z</time>
      </trkpt>
      <trkpt lat="43.99479" lon="5.1041">
        <ele>278.1</ele>
        <time>2013-01-30T12:53:43.000Z</time>
      </trkpt>
      <trkpt lat="43.99474" lon="5.1041">
        <ele>278.4</ele>
        <time>2013-01-30T12:53:44.000Z</time>
      </trkpt>
      <trkpt lat="43.9947" lon="5.1041">
        <ele>278.5</ele>
        <time>2013-01-30T12:53:45.000Z</time>
      </trkpt>
      <trkpt lat="43.99466" lon="5.10411">
        <ele>278.6</ele>
        <time>2013-01-30T12:53:46.000Z</time>
      </trkpt>
      <trkpt lat="43.99459" lon="5.1041">
        <ele>279.2</ele>
        <time>2013-01-30T12:53:47.000Z</time>
      </trkpt>
      <trkpt lat="43.9945" lon="5.10414">
        <ele>273.6</ele>
        <time>2013-01-30T12:53:48.000Z</time>
      </trkpt>
      <trkpt lat="43.99442" lon="5.10414">
        <ele>273</ele>
        <time>2013-01-30T12:53:49.000Z</time>
      </trkpt>
      <trkpt lat="43.99436" lon="5.10413">
        <ele>272.8</ele>
        <time>2013-01-30T12:53:50.000Z</time>
      </trkpt>
      <trkpt lat="43.9943" lon="5.10413">
        <ele>272.4</ele>
        <time>2013-01-30T12:53:51.000Z</time>
      </trkpt>
      <trkpt lat="43.99424" lon="5.10414">
        <ele>271.5</ele>
        <time>2013-01-30T12:53:52.000Z</time>
      </trkpt>
      <trkpt lat="43.99417" lon="5.10414">
        <ele>270.7</ele>
        <time>2013-01-30T12:53:53.000Z</time>
      </trkpt>
      <trkpt lat="43.99413" lon="5.10415">
        <ele>270.7</ele>
        <time>2013-01-30T12:53:54.000Z</time>
      </trkpt>
      <trkpt lat="43.9941" lon="5.10415">
        <ele>270.8</ele>
        <time>2013-01-30T12:53:55.000Z</time>
      </trkpt>
      <trkpt lat="43.99406" lon="5.10413">
        <ele>273.9</ele>
        <time>2013-01-30T12:53:58.000Z</time>
      </trkpt>
      <trkpt lat="43.99404" lon="5.10413">
        <ele>274.3</ele>
        <time>2013-01-30T12:53:59.000Z</time>
      </trkpt>
      <trkpt lat="43.99401" lon="5.10414">
        <ele>276.4</ele>
        <time>2013-01-30T12:54:04.000Z</time>
      </trkpt>
      <trkpt lat="43.99397" lon="5.10414">
        <ele>276.2</ele>
        <time>2013-01-30T12:54:05.000Z</time>
      </trkpt>
      <trkpt lat="43.99394" lon="5.10414">
        <ele>278.7</ele>
        <time>2013-01-30T12:54:07.000Z</time>
      </trkpt>
      <trkpt lat="43.99393" lon="5.10414">
        <ele>279.9</ele>
        <time>2013-01-30T12:54:08.000Z</time>
      </trkpt>
      <trkpt lat="43.9939" lon="5.10416">
        <ele>280</ele>
        <time>2013-01-30T12:54:09.000Z</time>
      </trkpt>
      <trkpt lat="43.99388" lon="5.10418">
        <ele>280.6</ele>
        <time>2013-01-30T12:54:10.000Z</time>
      </trkpt>
      <trkpt lat="43.99385" lon="5.10421">
        <ele>281.5</ele>
        <time>2013-01-30T12:54:12.000Z</time>
      </trkpt>
      <trkpt lat="43.99383" lon="5.10422">
        <ele>281.7</ele>
        <time>2013-01-30T12:54:13.000Z</time>
      </trkpt>
      <trkpt lat="43.9938" lon="5.10423">
        <ele>281.3</ele>
        <time>2013-01-30T12:54:22.000Z</time>
      </trkpt>
      <trkpt lat="43.99378" lon="5.10423">
        <ele>281.4</ele>
        <time>2013-01-30T12:54:23.000Z</time>
      </trkpt>
      <trkpt lat="43.99375" lon="5.10425">
        <ele>285.6</ele>
        <time>2013-01-30T12:54:32.000Z</time>
      </trkpt>
      <trkpt lat="43.99374" lon="5.10425">
        <ele>285.9</ele>
        <time>2013-01-30T12:54:33.000Z</time>
      </trkpt>
      <trkpt lat="43.9937" lon="5.10426">
        <ele>288.3</ele>
        <time>2013-01-30T12:54:38.000Z</time>
      </trkpt>
      <trkpt lat="43.99368" lon="5.10427">
        <ele>288.1</ele>
        <time>2013-01-30T12:54:39.000Z</time>
      </trkpt>
      <trkpt lat="43.99364" lon="5.10427">
        <ele>290.5</ele>
        <time>2013-01-30T12:54:43.000Z</time>
      </trkpt>
      <trkpt lat="43.99363" lon="5.10428">
        <ele>290.1</ele>
        <time>2013-01-30T12:54:44.000Z</time>
      </trkpt>
      <trkpt lat="43.9936" lon="5.10429">
        <ele>289.1</ele>
        <time>2013-01-30T12:54:51.000Z</time>
      </trkpt>
      <trkpt lat="43.99359" lon="5.1043">
        <ele>289.9</ele>
        <time>2013-01-30T12:54:52.000Z</time>
      </trkpt>
      <trkpt lat="43.99355" lon="5.10432">
        <ele>289.2</ele>
        <time>2013-01-30T12:54:55.000Z</time>
      </trkpt>
      <trkpt lat="43.99353" lon="5.10433">
        <ele>290.6</ele>
        <time>2013-01-30T12:54:56.000Z</time>
      </trkpt>
      <trkpt lat="43.9935" lon="5.10434">
        <ele>291.4</ele>
        <time>2013-01-30T12:54:58.000Z</time>
      </trkpt>
      <trkpt lat="43.99349" lon="5.10435">
        <ele>291.5</ele>
        <time>2013-01-30T12:54:59.000Z</time>
      </trkpt>
      <trkpt lat="43.99346" lon="5.10436">
        <ele>291.3</ele>
        <time>2013-01-30T12:55:01.000Z</time>
      </trkpt>
      <trkpt lat="43.99345" lon="5.10438">
        <ele>291.4</ele>
        <time>2013-01-30T12:55:02.000Z</time>
      </trkpt>
      <trkpt lat="43.99343" lon="5.1044">
        <ele>291.9</ele>
        <time>2013-01-30T12:55:03.000Z</time>
      </trkpt>
      <trkpt lat="43.9934" lon="5.10442">
        <ele>292.3</ele>
        <time>2013-01-30T12:55:04.000Z</time>
      </trkpt>
      <trkpt lat="43.99338" lon="5.10444">
        <ele>292.6</ele>
        <time>2013-01-30T12:55:05.000Z</time>
      </trkpt>
      <trkpt lat="43.9933" lon="5.1045">
        <ele>290.9</ele>
        <time>2013-01-30T12:55:06.000Z</time>
      </trkpt>
      <trkpt lat="43.99325" lon="5.10453">
        <ele>291</ele>
        <time>2013-01-30T12:55:07.000Z</time>
      </trkpt>
      <trkpt lat="43.99321" lon="5.10456">
        <ele>291.3</ele>
        <time>2013-01-30T12:55:09.000Z</time>
      </trkpt>
      <trkpt lat="43.9932" lon="5.10458">
        <ele>291.4</ele>
        <time>2013-01-30T12:55:10.000Z</time>
      </trkpt>
      <trkpt lat="43.99317" lon="5.10461">
        <ele>289.1</ele>
        <time>2013-01-30T12:55:21.000Z</time>
      </trkpt>
      <trkpt lat="43.99316" lon="5.10463">
        <ele>288.7</ele>
        <time>2013-01-30T12:55:22.000Z</time>
      </trkpt>
      <trkpt lat="43.99313" lon="5.10464">
        <ele>289</ele>
        <time>2013-01-30T12:55:24.000Z</time>
      </trkpt>
      <trkpt lat="43.99311" lon="5.10464">
        <ele>288.7</ele>
        <time>2013-01-30T12:55:25.000Z</time>
      </trkpt>
      <trkpt lat="43.99309" lon="5.10461">
        <ele>292.6</ele>
        <time>2013-01-30T12:55:30.000Z</time>
      </trkpt>
      <trkpt lat="43.99308" lon="5.1046">
        <ele>293.2</ele>
        <time>2013-01-30T12:55:31.000Z</time>
      </trkpt>
      <trkpt lat="43.99304" lon="5.10463">
        <ele>292.4</ele>
        <time>2013-01-30T12:55:33.000Z</time>
      </trkpt>
      <trkpt lat="43.99303" lon="5.10464">
        <ele>292.6</ele>
        <time>2013-01-30T12:55:34.000Z</time>
      </trkpt>
      <trkpt lat="43.99299" lon="5.10464">
        <ele>293.8</ele>
        <time>2013-01-30T12:55:36.000Z</time>
      </trkpt>
      <trkpt lat="43.99298" lon="5.10463">
        <ele>293.8</ele>
        <time>2013-01-30T12:55:37.000Z</time>
      </trkpt>
      <trkpt lat="43.99296" lon="5.10463">
        <ele>293.2</ele>
        <time>2013-01-30T12:55:38.000Z</time>
      </trkpt>
      <trkpt lat="43.99292" lon="5.10457">
        <ele>299</ele>
        <time>2013-01-30T12:55:39.000Z</time>
      </trkpt>
      <trkpt lat="43.99289" lon="5.10454">
        <ele>300.9</ele>
        <time>2013-01-30T12:55:40.000Z</time>
      </trkpt>
      <trkpt lat="43.99287" lon="5.10451">
        <ele>302.3</ele>
        <time>2013-01-30T12:55:41.000Z</time>
      </trkpt>
      <trkpt lat="43.99283" lon="5.1045">
        <ele>303.4</ele>
        <time>2013-01-30T12:55:43.000Z</time>
      </trkpt>
      <trkpt lat="43.99282" lon="5.10448">
        <ele>304.2</ele>
        <time>2013-01-30T12:55:44.000Z</time>
      </trkpt>
      <trkpt lat="43.99281" lon="5.10444">
        <ele>304.8</ele>
        <time>2013-01-30T12:55:46.000Z</time>
      </trkpt>
      <trkpt lat="43.99286" lon="5.10458">
        <ele>298.6</ele>
        <time>2013-01-30T12:55:47.000Z</time>
      </trkpt>
      <trkpt lat="43.99286" lon="5.10462">
        <ele>299.6</ele>
        <time>2013-01-30T12:55:51.000Z</time>
      </trkpt>
      <trkpt lat="43.99287" lon="5.10464">
        <ele>299.3</ele>
        <time>2013-01-30T12:55:52.000Z</time>
      </trkpt>
      <trkpt lat="43.99288" lon="5.10466">
        <ele>298.9</ele>
        <time>2013-01-30T12:55:56.000Z</time>
      </trkpt>
      <trkpt lat="43.99281" lon="5.10463">
        <ele>298.6</ele>
        <time>2013-01-30T12:55:57.000Z</time>
      </trkpt>
      <trkpt lat="43.99279" lon="5.10459">
        <ele>298.6</ele>
        <time>2013-01-30T12:55:58.000Z</time>
      </trkpt>
      <trkpt lat="43.99274" lon="5.10455">
        <ele>298</ele>
        <time>2013-01-30T12:55:59.000Z</time>
      </trkpt>
      <trkpt lat="43.99267" lon="5.10455">
        <ele>297.8</ele>
        <time>2013-01-30T12:56:00.000Z</time>
      </trkpt>
      <trkpt lat="43.99263" lon="5.1045">
        <ele>297.8</ele>
        <time>2013-01-30T12:56:01.000Z</time>
      </trkpt>
      <trkpt lat="43.99262" lon="5.10446">
        <ele>297.7</ele>
        <time>2013-01-30T12:56:03.000Z</time>
      </trkpt>
      <trkpt lat="43.9926" lon="5.10443">
        <ele>298.4</ele>
        <time>2013-01-30T12:56:04.000Z</time>
      </trkpt>
      <trkpt lat="43.99258" lon="5.10441">
        <ele>298.6</ele>
        <time>2013-01-30T12:56:06.000Z</time>
      </trkpt>
      <trkpt lat="43.99252" lon="5.10434">
        <ele>299.3</ele>
        <time>2013-01-30T12:56:07.000Z</time>
      </trkpt>
      <trkpt lat="43.99245" lon="5.10433">
        <ele>297.5</ele>
        <time>2013-01-30T12:56:08.000Z</time>
      </trkpt>
      <trkpt lat="43.99241" lon="5.10433">
        <ele>299.6</ele>
        <time>2013-01-30T12:56:21.000Z</time>
      </trkpt>
      <trkpt lat="43.99241" lon="5.10434">
        <ele>299.7</ele>
        <time>2013-01-30T12:56:22.000Z</time>
      </trkpt>
      <trkpt lat="43.99236" lon="5.10435">
        <ele>300</ele>
        <time>2013-01-30T12:56:35.000Z</time>
      </trkpt>
      <trkpt lat="43.99235" lon="5.10435">
        <ele>299.3</ele>
        <time>2013-01-30T12:56:36.000Z</time>
      </trkpt>
      <trkpt lat="43.99231" lon="5.10437">
        <ele>299.6</ele>
        <time>2013-01-30T12:56:57.000Z</time>
      </trkpt>
      <trkpt lat="43.99231" lon="5.10437">
        <ele>299.7</ele>
        <time>2013-01-30T12:56:58.000Z</time>
      </trkpt>
      <trkpt lat="43.99227" lon="5.10436">
        <ele>298.4</ele>
        <time>2013-01-30T12:56:59.000Z</time>
      </trkpt>
      <trkpt lat="43.99225" lon="5.10436">
        <ele>299</ele>
        <time>2013-01-30T12:57:00.000Z</time>
      </trkpt>
      <trkpt lat="43.99222" lon="5.10434">
        <ele>297.7</ele>
        <time>2013-01-30T12:57:02.000Z</time>
      </trkpt>
      <trkpt lat="43.9922" lon="5.10433">
        <ele>296.8</ele>
        <time>2013-01-30T12:57:03.000Z</time>
      </trkpt>
      <trkpt lat="43.99216" lon="5.1043">
        <ele>296.5</ele>
        <time>2013-01-30T12:57:05.000Z</time>
      </trkpt>
      <trkpt lat="43.99215" lon="5.10428">
        <ele>296.4</ele>
        <time>2013-01-30T12:57:06.000Z</time>
      </trkpt>
      <trkpt lat="43.9921" lon="5.10429">
        <ele>297</ele>
        <time>2013-01-30T12:57:11.000Z</time>
      </trkpt>
      <trkpt lat="43.9921" lon="5.1043">
        <ele>298</ele>
        <time>2013-01-30T12:57:12.000Z</time>
      </trkpt>
      <trkpt lat="43.99207" lon="5.10432">
        <ele>299.2</ele>
        <time>2013-01-30T12:57:15.000Z</time>
      </trkpt>
      <trkpt lat="43.99205" lon="5.10433">
        <ele>299.9</ele>
        <time>2013-01-30T12:57:16.000Z</time>
      </trkpt>
      <trkpt lat="43.99203" lon="5.10434">
        <ele>301.7</ele>
        <time>2013-01-30T12:57:18.000Z</time>
      </trkpt>
      <trkpt lat="43.99198" lon="5.10436">
        <ele>300.2</ele>
        <time>2013-01-30T12:57:19.000Z</time>
      </trkpt>
      <trkpt lat="43.99195" lon="5.10438">
        <ele>300</ele>
        <time>2013-01-30T12:57:21.000Z</time>
      </trkpt>
      <trkpt lat="43.99194" lon="5.10439">
        <ele>300.6</ele>
        <time>2013-01-30T12:57:22.000Z</time>
      </trkpt>
      <trkpt lat="43.99191" lon="5.10442">
        <ele>299.6</ele>
        <time>2013-01-30T12:57:24.000Z</time>
      </trkpt>
      <trkpt lat="43.9919" lon="5.10442">
        <ele>299.4</ele>
        <time>2013-01-30T12:57:25.000Z</time>
      </trkpt>
      <trkpt lat="43.99187" lon="5.10444">
        <ele>299.3</ele>
        <time>2013-01-30T12:57:27.000Z</time>
      </trkpt>
      <trkpt lat="43.99186" lon="5.10444">
        <ele>300.1</ele>
        <time>2013-01-30T12:57:28.000Z</time>
      </trkpt>
      <trkpt lat="43.99181" lon="5.10446">
        <ele>300.4</ele>
        <time>2013-01-30T12:57:31.000Z</time>
      </trkpt>
      <trkpt lat="43.9918" lon="5.10447">
        <ele>300.7</ele>
        <time>2013-01-30T12:57:32.000Z</time>
      </trkpt>
      <trkpt lat="43.99176" lon="5.10449">
        <ele>297.5</ele>
        <time>2013-01-30T12:57:35.000Z</time>
      </trkpt>
      <trkpt lat="43.99175" lon="5.10449">
        <ele>296.4</ele>
        <time>2013-01-30T12:57:36.000Z</time>
      </trkpt>
      <trkpt lat="43.99172" lon="5.10452">
        <ele>301.1</ele>
        <time>2013-01-30T12:57:43.000Z</time>
      </trkpt>
      <trkpt lat="43.99171" lon="5.10453">
        <ele>300.1</ele>
        <time>2013-01-30T12:57:44.000Z</time>
      </trkpt>
      <trkpt lat="43.99167" lon="5.10453">
        <ele>298.3</ele>
        <time>2013-01-30T12:57:47.000Z</time>
      </trkpt>
      <trkpt lat="43.99165" lon="5.10453">
        <ele>298.5</ele>
        <time>2013-01-30T12:57:48.000Z</time>
      </trkpt>
      <trkpt lat="43.99163" lon="5.10452">
        <ele>297.5</ele>
        <time>2013-01-30T12:57:50.000Z</time>
      </trkpt>
      <trkpt lat="43.9916" lon="5.10454">
        <ele>297.6</ele>
        <time>2013-01-30T12:57:51.000Z</time>
      </trkpt>
      <trkpt lat="43.99156" lon="5.10454">
        <ele>298.4</ele>
        <time>2013-01-30T12:57:54.000Z</time>
      </trkpt>
      <trkpt lat="43.99154" lon="5.10454">
        <ele>299.2</ele>
        <time>2013-01-30T12:57:55.000Z</time>
      </trkpt>
      <trkpt lat="43.9915" lon="5.10456">
        <ele>307.7</ele>
        <time>2013-01-30T12:58:05.000Z</time>
      </trkpt>
      <trkpt lat="43.99147" lon="5.10456">
        <ele>304.4</ele>
        <time>2013-01-30T12:58:06.000Z</time>
      </trkpt>
      <trkpt lat="43.99144" lon="5.10459">
        <ele>306.3</ele>
        <time>2013-01-30T12:58:09.000Z</time>
      </trkpt>
      <trkpt lat="43.99143" lon="5.1046">
        <ele>306.4</ele>
        <time>2013-01-30T12:58:10.000Z</time>
      </trkpt>
      <trkpt lat="43.99139" lon="5.10461">
        <ele>306.7</ele>
        <time>2013-01-30T12:58:14.000Z</time>
      </trkpt>
      <trkpt lat="43.99137" lon="5.10461">
        <ele>307.6</ele>
        <time>2013-01-30T12:58:15.000Z</time>
      </trkpt>
      <trkpt lat="43.99135" lon="5.10462">
        <ele>308</ele>
        <time>2013-01-30T12:58:18.000Z</time>
      </trkpt>
      <trkpt lat="43.99132" lon="5.10464">
        <ele>308.5</ele>
        <time>2013-01-30T12:58:19.000Z</time>
      </trkpt>
      <trkpt lat="43.99131" lon="5.10466">
        <ele>308.8</ele>
        <time>2013-01-30T12:58:20.000Z</time>
      </trkpt>
      <trkpt lat="43.99126" lon="5.10468">
        <ele>310.2</ele>
        <time>2013-01-30T12:58:21.000Z</time>
      </trkpt>
      <trkpt lat="43.99122" lon="5.1047">
        <ele>311.4</ele>
        <time>2013-01-30T12:58:22.000Z</time>
      </trkpt>
      <trkpt lat="43.99121" lon="5.10472">
        <ele>308.9</ele>
        <time>2013-01-30T12:58:23.000Z</time>
      </trkpt>
      <trkpt lat="43.99119" lon="5.10475">
        <ele>307.2</ele>
        <time>2013-01-30T12:58:25.000Z</time>
      </trkpt>
      <trkpt lat="43.99117" lon="5.10475">
        <ele>307.3</ele>
        <time>2013-01-30T12:58:26.000Z</time>
      </trkpt>
      <trkpt lat="43.99114" lon="5.10474">
        <ele>307.3</ele>
        <time>2013-01-30T12:58:27.000Z</time>
      </trkpt>
      <trkpt lat="43.99111" lon="5.10474">
        <ele>306.6</ele>
        <time>2013-01-30T12:58:28.000Z</time>
      </trkpt>
      <trkpt lat="43.99107" lon="5.10476">
        <ele>305.3</ele>
        <time>2013-01-30T12:58:31.000Z</time>
      </trkpt>
      <trkpt lat="43.99106" lon="5.10477">
        <ele>304.9</ele>
        <time>2013-01-30T12:58:32.000Z</time>
      </trkpt>
      <trkpt lat="43.99104" lon="5.10479">
        <ele>301.3</ele>
        <time>2013-01-30T12:58:36.000Z</time>
      </trkpt>
      <trkpt lat="43.99102" lon="5.10479">
        <ele>300.9</ele>
        <time>2013-01-30T12:58:37.000Z</time>
      </trkpt>
      <trkpt lat="43.99099" lon="5.10481">
        <ele>302.1</ele>
        <time>2013-01-30T12:58:39.000Z</time>
      </trkpt>
      <trkpt lat="43.99096" lon="5.10481">
        <ele>302.5</ele>
        <time>2013-01-30T12:58:40.000Z</time>
      </trkpt>
      <trkpt lat="43.99093" lon="5.10486">
        <ele>304.5</ele>
        <time>2013-01-30T12:58:45.000Z</time>
      </trkpt>
      <trkpt lat="43.99092" lon="5.10486">
        <ele>304.6</ele>
        <time>2013-01-30T12:58:46.000Z</time>
      </trkpt>
      <trkpt lat="43.99088" lon="5.10487">
        <ele>306</ele>
        <time>2013-01-30T12:58:50.000Z</time>
      </trkpt>
      <trkpt lat="43.99086" lon="5.10488">
        <ele>307</ele>
        <time>2013-01-30T12:58:51.000Z</time>
      </trkpt>
      <trkpt lat="43.99082" lon="5.1049">
        <ele>307.1</ele>
        <time>2013-01-30T12:58:53.000Z</time>
      </trkpt>
      <trkpt lat="43.99081" lon="5.10492">
        <ele>308.3</ele>
        <time>2013-01-30T12:58:54.000Z</time>
      </trkpt>
      <trkpt lat="43.99078" lon="5.10495">
        <ele>308.3</ele>
        <time>2013-01-30T12:58:57.000Z</time>
      </trkpt>
      <trkpt lat="43.99077" lon="5.10496">
        <ele>308.5</ele>
        <time>2013-01-30T12:58:58.000Z</time>
      </trkpt>
      <trkpt lat="43.99075" lon="5.10498">
        <ele>308.4</ele>
        <time>2013-01-30T12:59:00.000Z</time>
      </trkpt>
      <trkpt lat="43.99073" lon="5.10498">
        <ele>308.6</ele>
        <time>2013-01-30T12:59:01.000Z</time>
      </trkpt>
      <trkpt lat="43.99069" lon="5.10501">
        <ele>310.6</ele>
        <time>2013-01-30T12:59:04.000Z</time>
      </trkpt>
      <trkpt lat="43.99068" lon="5.10502">
        <ele>311</ele>
        <time>2013-01-30T12:59:05.000Z</time>
      </trkpt>
      <trkpt lat="43.99066" lon="5.10505">
        <ele>311.6</ele>
        <time>2013-01-30T12:59:07.000Z</time>
      </trkpt>
      <trkpt lat="43.99064" lon="5.10506">
        <ele>311.9</ele>
        <time>2013-01-30T12:59:08.000Z</time>
      </trkpt>
      <trkpt lat="43.9906" lon="5.10509">
        <ele>312.6</ele>
        <time>2013-01-30T12:59:10.000Z</time>
      </trkpt>
      <trkpt lat="43.99059" lon="5.1051">
        <ele>312.7</ele>
        <time>2013-01-30T12:59:11.000Z</time>
      </trkpt>
      <trkpt lat="43.99056" lon="5.10512">
        <ele>313.2</ele>
        <time>2013-01-30T12:59:13.000Z</time>
      </trkpt>
      <trkpt lat="43.99055" lon="5.10513">
        <ele>313.5</ele>
        <time>2013-01-30T12:59:14.000Z</time>
      </trkpt>
      <trkpt lat="43.99053" lon="5.10518">
        <ele>313.6</ele>
        <time>2013-01-30T12:59:17.000Z</time>
      </trkpt>
      <trkpt lat="43.99052" lon="5.10519">
        <ele>313.7</ele>
        <time>2013-01-30T12:59:18.000Z</time>
      </trkpt>
      <trkpt lat="43.99049" lon="5.10523">
        <ele>315.3</ele>
        <time>2013-01-30T12:59:21.000Z</time>
      </trkpt>
      <trkpt lat="43.99048" lon="5.10524">
        <ele>315.6</ele>
        <time>2013-01-30T12:59:22.000Z</time>
      </trkpt>
      <trkpt lat="43.99045" lon="5.10527">
        <ele>316.1</ele>
        <time>2013-01-30T12:59:25.000Z</time>
      </trkpt>
      <trkpt lat="43.99043" lon="5.10528">
        <ele>315.9</ele>
        <time>2013-01-30T12:59:26.000Z</time>
      </trkpt>
      <trkpt lat="43.99039" lon="5.10526">
        <ele>316.3</ele>
        <time>2013-01-30T12:59:27.000Z</time>
      </trkpt>
      <trkpt lat="43.99038" lon="5.10525">
        <ele>316.4</ele>
        <time>2013-01-30T12:59:28.000Z</time>
      </trkpt>
      <trkpt lat="43.99037" lon="5.1052">
        <ele>317.1</ele>
        <time>2013-01-30T12:59:32.000Z</time>
      </trkpt>
      <trkpt lat="43.99036" lon="5.10519">
        <ele>317.3</ele>
        <time>2013-01-30T12:59:33.000Z</time>
      </trkpt>
      <trkpt lat="43.99034" lon="5.10515">
        <ele>318</ele>
        <time>2013-01-30T12:59:36.000Z</time>
      </trkpt>
      <trkpt lat="43.99033" lon="5.10513">
        <ele>318.3</ele>
        <time>2013-01-30T12:59:37.000Z</time>
      </trkpt>
      <trkpt lat="43.99029" lon="5.1051">
        <ele>318.6</ele>
        <time>2013-01-30T12:59:40.000Z</time>
      </trkpt>
      <trkpt lat="43.99027" lon="5.10509">
        <ele>318.8</ele>
        <time>2013-01-30T12:59:41.000Z</time>
      </trkpt>
      <trkpt lat="43.99025" lon="5.10506">
        <ele>319.2</ele>
        <time>2013-01-30T12:59:43.000Z</time>
      </trkpt>
      <trkpt lat="43.99024" lon="5.10505">
        <ele>319.3</ele>
        <time>2013-01-30T12:59:44.000Z</time>
      </trkpt>
      <trkpt lat="43.9902" lon="5.10503">
        <ele>319.6</ele>
        <time>2013-01-30T12:59:47.000Z</time>
      </trkpt>
      <trkpt lat="43.99019" lon="5.10502">
        <ele>319.8</ele>
        <time>2013-01-30T12:59:48.000Z</time>
      </trkpt>
      <trkpt lat="43.99016" lon="5.10497">
        <ele>321.9</ele>
        <time>2013-01-30T12:59:52.000Z</time>
      </trkpt>
      <trkpt lat="43.99015" lon="5.10496">
        <ele>322.1</ele>
        <time>2013-01-30T12:59:53.000Z</time>
      </trkpt>
      <trkpt lat="43.99014" lon="5.10492">
        <ele>321.8</ele>
        <time>2013-01-30T12:59:56.000Z</time>
      </trkpt>
      <trkpt lat="43.99014" lon="5.1049">
        <ele>321.2</ele>
        <time>2013-01-30T12:59:57.000Z</time>
      </trkpt>
      <trkpt lat="43.99013" lon="5.10484">
        <ele>322.6</ele>
        <time>2013-01-30T13:00:02.000Z</time>
      </trkpt>
      <trkpt lat="43.99013" lon="5.10483">
        <ele>322.8</ele>
        <time>2013-01-30T13:00:03.000Z</time>
      </trkpt>
      <trkpt lat="43.99012" lon="5.10477">
        <ele>323.4</ele>
        <time>2013-01-30T13:00:09.000Z</time>
      </trkpt>
      <trkpt lat="43.99012" lon="5.10476">
        <ele>322.4</ele>
        <time>2013-01-30T13:00:10.000Z</time>
      </trkpt>
      <trkpt lat="43.9901" lon="5.1047">
        <ele>323</ele>
        <time>2013-01-30T13:00:15.000Z</time>
      </trkpt>
      <trkpt lat="43.9901" lon="5.10469">
        <ele>323</ele>
        <time>2013-01-30T13:00:16.000Z</time>
      </trkpt>
      <trkpt lat="43.99006" lon="5.10467">
        <ele>324.4</ele>
        <time>2013-01-30T13:00:20.000Z</time>
      </trkpt>
      <trkpt lat="43.99004" lon="5.10467">
        <ele>324.8</ele>
        <time>2013-01-30T13:00:21.000Z</time>
      </trkpt>
      <trkpt lat="43.99001" lon="5.10465">
        <ele>324.8</ele>
        <time>2013-01-30T13:00:23.000Z</time>
      </trkpt>
      <trkpt lat="43.98999" lon="5.10465">
        <ele>324.7</ele>
        <time>2013-01-30T13:00:24.000Z</time>
      </trkpt>
      <trkpt lat="43.98997" lon="5.10464">
        <ele>324.4</ele>
        <time>2013-01-30T13:00:25.000Z</time>
      </trkpt>
      <trkpt lat="43.98993" lon="5.10465">
        <ele>324.3</ele>
        <time>2013-01-30T13:00:26.000Z</time>
      </trkpt>
      <trkpt lat="43.98989" lon="5.10467">
        <ele>322.7</ele>
        <time>2013-01-30T13:00:27.000Z</time>
      </trkpt>
      <trkpt lat="43.98986" lon="5.10468">
        <ele>321.9</ele>
        <time>2013-01-30T13:00:28.000Z</time>
      </trkpt>
      <trkpt lat="43.98983" lon="5.1047">
        <ele>321.5</ele>
        <time>2013-01-30T13:00:29.000Z</time>
      </trkpt>
      <trkpt lat="43.98979" lon="5.10471">
        <ele>321.7</ele>
        <time>2013-01-30T13:00:30.000Z</time>
      </trkpt>
      <trkpt lat="43.98974" lon="5.10472">
        <ele>322.1</ele>
        <time>2013-01-30T13:00:31.000Z</time>
      </trkpt>
      <trkpt lat="43.98968" lon="5.10473">
        <ele>322.4</ele>
        <time>2013-01-30T13:00:32.000Z</time>
      </trkpt>
      <trkpt lat="43.98964" lon="5.10474">
        <ele>322.7</ele>
        <time>2013-01-30T13:00:33.000Z</time>
      </trkpt>
      <trkpt lat="43.98956" lon="5.10479">
        <ele>317.7</ele>
        <time>2013-01-30T13:00:34.000Z</time>
      </trkpt>
      <trkpt lat="43.9895" lon="5.1048">
        <ele>317.8</ele>
        <time>2013-01-30T13:00:35.000Z</time>
      </trkpt>
      <trkpt lat="43.98947" lon="5.1048">
        <ele>318.3</ele>
        <time>2013-01-30T13:00:36.000Z</time>
      </trkpt>
      <trkpt lat="43.98945" lon="5.1048">
        <ele>318.9</ele>
        <time>2013-01-30T13:00:37.000Z</time>
      </trkpt>
      <trkpt lat="43.9894" lon="5.1048">
        <ele>318.1</ele>
        <time>2013-01-30T13:00:39.000Z</time>
      </trkpt>
      <trkpt lat="43.98939" lon="5.10479">
        <ele>318.1</ele>
        <time>2013-01-30T13:00:40.000Z</time>
      </trkpt>
      <trkpt lat="43.98937" lon="5.10477">
        <ele>318.4</ele>
        <time>2013-01-30T13:00:41.000Z</time>
      </trkpt>
      <trkpt lat="43.98933" lon="5.10474">
        <ele>318.3</ele>
        <time>2013-01-30T13:00:42.000Z</time>
      </trkpt>
      <trkpt lat="43.98932" lon="5.10471">
        <ele>318.5</ele>
        <time>2013-01-30T13:00:43.000Z</time>
      </trkpt>
      <trkpt lat="43.98929" lon="5.10467">
        <ele>319.4</ele>
        <time>2013-01-30T13:00:44.000Z</time>
      </trkpt>
      <trkpt lat="43.98925" lon="5.10465">
        <ele>318.4</ele>
        <time>2013-01-30T13:00:45.000Z</time>
      </trkpt>
      <trkpt lat="43.98921" lon="5.10463">
        <ele>317.3</ele>
        <time>2013-01-30T13:00:46.000Z</time>
      </trkpt>
      <trkpt lat="43.98918" lon="5.1046">
        <ele>317.7</ele>
        <time>2013-01-30T13:00:49.000Z</time>
      </trkpt>
      <trkpt lat="43.98916" lon="5.1046">
        <ele>317.9</ele>
        <time>2013-01-30T13:00:50.000Z</time>
      </trkpt>
      <trkpt lat="43.98913" lon="5.10456">
        <ele>318.1</ele>
        <time>2013-01-30T13:00:53.000Z</time>
      </trkpt>
      <trkpt lat="43.98912" lon="5.10454">
        <ele>318.1</ele>
        <time>2013-01-30T13:00:54.000Z</time>
      </trkpt>
      <trkpt lat="43.98911" lon="5.10453">
        <ele>318.3</ele>
        <time>2013-01-30T13:00:55.000Z</time>
      </trkpt>
      <trkpt lat="43.98907" lon="5.1045">
        <ele>315.9</ele>
        <time>2013-01-30T13:00:56.000Z</time>
      </trkpt>
      <trkpt lat="43.98905" lon="5.10447">
        <ele>315.6</ele>
        <time>2013-01-30T13:00:57.000Z</time>
      </trkpt>
      <trkpt lat="43.98904" lon="5.10445">
        <ele>315.2</ele>
        <time>2013-01-30T13:00:58.000Z</time>
      </trkpt>
      <trkpt lat="43.98901" lon="5.10442">
        <ele>316.1</ele>
        <time>2013-01-30T13:00:59.000Z</time>
      </trkpt>
      <trkpt lat="43.98896" lon="5.1044">
        <ele>314.2</ele>
        <time>2013-01-30T13:01:00.000Z</time>
      </trkpt>
      <trkpt lat="43.98892" lon="5.10438">
        <ele>314.4</ele>
        <time>2013-01-30T13:01:01.000Z</time>
      </trkpt>
      <trkpt lat="43.98889" lon="5.10436">
        <ele>314.2</ele>
        <time>2013-01-30T13:01:02.000Z</time>
      </trkpt>
      <trkpt lat="43.98885" lon="5.10435">
        <ele>313.3</ele>
        <time>2013-01-30T13:01:03.000Z</time>
      </trkpt>
      <trkpt lat="43.98881" lon="5.10434">
        <ele>313</ele>
        <time>2013-01-30T13:01:04.000Z</time>
      </trkpt>
      <trkpt lat="43.98877" lon="5.10433">
        <ele>312</ele>
        <time>2013-01-30T13:01:05.000Z</time>
      </trkpt>
      <trkpt lat="43.98874" lon="5.10432">
        <ele>311.3</ele>
        <time>2013-01-30T13:01:06.000Z</time>
      </trkpt>
      <trkpt lat="43.98872" lon="5.10431">
        <ele>310.6</ele>
        <time>2013-01-30T13:01:07.000Z</time>
      </trkpt>
      <trkpt lat="43.98867" lon="5.10425">
        <ele>314.2</ele>
        <time>2013-01-30T13:01:08.000Z</time>
      </trkpt>
      <trkpt lat="43.98863" lon="5.10422">
        <ele>313.8</ele>
        <time>2013-01-30T13:01:09.000Z</time>
      </trkpt>
      <trkpt lat="43.98861" lon="5.1042">
        <ele>313.9</ele>
        <time>2013-01-30T13:01:10.000Z</time>
      </trkpt>
      <trkpt lat="43.98857" lon="5.10418">
        <ele>314.2</ele>
        <time>2013-01-30T13:01:12.000Z</time>
      </trkpt>
      <trkpt lat="43.98852" lon="5.1042">
        <ele>314.3</ele>
        <time>2013-01-30T13:01:13.000Z</time>
      </trkpt>
      <trkpt lat="43.98848" lon="5.1042">
        <ele>315.1</ele>
        <time>2013-01-30T13:01:14.000Z</time>
      </trkpt>
      <trkpt lat="43.98845" lon="5.1042">
        <ele>315.1</ele>
        <time>2013-01-30T13:01:15.000Z</time>
      </trkpt>
      <trkpt lat="43.98841" lon="5.1042">
        <ele>313.3</ele>
        <time>2013-01-30T13:01:17.000Z</time>
      </trkpt>
      <trkpt lat="43.98837" lon="5.1042">
        <ele>313.1</ele>
        <time>2013-01-30T13:01:18.000Z</time>
      </trkpt>
      <trkpt lat="43.98835" lon="5.10421">
        <ele>313.5</ele>
        <time>2013-01-30T13:01:19.000Z</time>
      </trkpt>
      <trkpt lat="43.9883" lon="5.10422">
        <ele>313.9</ele>
        <time>2013-01-30T13:01:20.000Z</time>
      </trkpt>
      <trkpt lat="43.98826" lon="5.10418">
        <ele>314.4</ele>
        <time>2013-01-30T13:01:21.000Z</time>
      </trkpt>
      <trkpt lat="43.98818" lon="5.10417">
        <ele>313.8</ele>
        <time>2013-01-30T13:01:22.000Z</time>
      </trkpt>
      <trkpt lat="43.98811" lon="5.10414">
        <ele>314.3</ele>
        <time>2013-01-30T13:01:23.000Z</time>
      </trkpt>
      <trkpt lat="43.98802" lon="5.1041">
        <ele>313.8</ele>
        <time>2013-01-30T13:01:24.000Z</time>
      </trkpt>
      <trkpt lat="43.98798" lon="5.10404">
        <ele>314.6</ele>
        <time>2013-01-30T13:01:25.000Z</time>
      </trkpt>
      <trkpt lat="43.98793" lon="5.10397">
        <ele>315.1</ele>
        <time>2013-01-30T13:01:26.000Z</time>
      </trkpt>
      <trkpt lat="43.98789" lon="5.1039">
        <ele>315.5</ele>
        <time>2013-01-30T13:01:27.000Z</time>
      </trkpt>
      <trkpt lat="43.98785" lon="5.10383">
        <ele>315.2</ele>
        <time>2013-01-30T13:01:28.000Z</time>
      </trkpt>
      <trkpt lat="43.98783" lon="5.10378">
        <ele>313.3</ele>
        <time>2013-01-30T13:01:30.000Z</time>
      </trkpt>
      <trkpt lat="43.98781" lon="5.10375">
        <ele>313.5</ele>
        <time>2013-01-30T13:01:31.000Z</time>
      </trkpt>
      <trkpt lat="43.98778" lon="5.10374">
        <ele>314.3</ele>
        <time>2013-01-30T13:01:32.000Z</time>
      </trkpt>
      <trkpt lat="43.98775" lon="5.10373">
        <ele>314.4</ele>
        <time>2013-01-30T13:01:33.000Z</time>
      </trkpt>
      <trkpt lat="43.9877" lon="5.10373">
        <ele>313.9</ele>
        <time>2013-01-30T13:01:34.000Z</time>
      </trkpt>
      <trkpt lat="43.98768" lon="5.10373">
        <ele>314.2</ele>
        <time>2013-01-30T13:01:35.000Z</time>
      </trkpt>
      <trkpt lat="43.98765" lon="5.10372">
        <ele>314.1</ele>
        <time>2013-01-30T13:01:36.000Z</time>
      </trkpt>
      <trkpt lat="43.98762" lon="5.10371">
        <ele>314.6</ele>
        <time>2013-01-30T13:01:37.000Z</time>
      </trkpt>
      <trkpt lat="43.98759" lon="5.1037">
        <ele>314.6</ele>
        <time>2013-01-30T13:01:38.000Z</time>
      </trkpt>
      <trkpt lat="43.98755" lon="5.1037">
        <ele>314.4</ele>
        <time>2013-01-30T13:01:39.000Z</time>
      </trkpt>
      <trkpt lat="43.98753" lon="5.1037">
        <ele>314.4</ele>
        <time>2013-01-30T13:01:40.000Z</time>
      </trkpt>
      <trkpt lat="43.9875" lon="5.10373">
        <ele>316.2</ele>
        <time>2013-01-30T13:01:43.000Z</time>
      </trkpt>
      <trkpt lat="43.98749" lon="5.10375">
        <ele>316.6</ele>
        <time>2013-01-30T13:01:44.000Z</time>
      </trkpt>
      <trkpt lat="43.98746" lon="5.10377">
        <ele>316.6</ele>
        <time>2013-01-30T13:01:45.000Z</time>
      </trkpt>
      <trkpt lat="43.98744" lon="5.10378">
        <ele>316.9</ele>
        <time>2013-01-30T13:01:46.000Z</time>
      </trkpt>
      <trkpt lat="43.98742" lon="5.10377">
        <ele>318</ele>
        <time>2013-01-30T13:01:47.000Z</time>
      </trkpt>
      <trkpt lat="43.98737" lon="5.10377">
        <ele>317.6</ele>
        <time>2013-01-30T13:01:48.000Z</time>
      </trkpt>
      <trkpt lat="43.98735" lon="5.10377">
        <ele>317.8</ele>
        <time>2013-01-30T13:01:49.000Z</time>
      </trkpt>
      <trkpt lat="43.98732" lon="5.10375">
        <ele>317.3</ele>
        <time>2013-01-30T13:01:50.000Z</time>
      </trkpt>
      <trkpt lat="43.9873" lon="5.10372">
        <ele>317.8</ele>
        <time>2013-01-30T13:01:51.000Z</time>
      </trkpt>
      <trkpt lat="43.98724" lon="5.10371">
        <ele>318</ele>
        <time>2013-01-30T13:01:52.000Z</time>
      </trkpt>
      <trkpt lat="43.98717" lon="5.10369">
        <ele>317.5</ele>
        <time>2013-01-30T13:01:53.000Z</time>
      </trkpt>
      <trkpt lat="43.9871" lon="5.10367">
        <ele>317.4</ele>
        <time>2013-01-30T13:01:54.000Z</time>
      </trkpt>
      <trkpt lat="43.98706" lon="5.10366">
        <ele>317.2</ele>
        <time>2013-01-30T13:01:55.000Z</time>
      </trkpt>
      <trkpt lat="43.98702" lon="5.10365">
        <ele>317</ele>
        <time>2013-01-30T13:01:56.000Z</time>
      </trkpt>
      <trkpt lat="43.98695" lon="5.10364">
        <ele>315.9</ele>
        <time>2013-01-30T13:01:57.000Z</time>
      </trkpt>
      <trkpt lat="43.98692" lon="5.10363">
        <ele>315.2</ele>
        <time>2013-01-30T13:01:58.000Z</time>
      </trkpt>
      <trkpt lat="43.98689" lon="5.10363">
        <ele>314.7</ele>
        <time>2013-01-30T13:01:59.000Z</time>
      </trkpt>
      <trkpt lat="43.98686" lon="5.10362">
        <ele>314.1</ele>
        <time>2013-01-30T13:02:00.000Z</time>
      </trkpt>
      <trkpt lat="43.98684" lon="5.10362">
        <ele>313.9</ele>
        <time>2013-01-30T13:02:01.000Z</time>
      </trkpt>
      <trkpt lat="43.98681" lon="5.10361">
        <ele>313.7</ele>
        <time>2013-01-30T13:02:02.000Z</time>
      </trkpt>
      <trkpt lat="43.98678" lon="5.1036">
        <ele>313.7</ele>
        <time>2013-01-30T13:02:03.000Z</time>
      </trkpt>
      <trkpt lat="43.98674" lon="5.10358">
        <ele>313</ele>
        <time>2013-01-30T13:02:04.000Z</time>
      </trkpt>
      <trkpt lat="43.98671" lon="5.10356">
        <ele>312.5</ele>
        <time>2013-01-30T13:02:05.000Z</time>
      </trkpt>
      <trkpt lat="43.98667" lon="5.10354">
        <ele>312</ele>
        <time>2013-01-30T13:02:06.000Z</time>
      </trkpt>
      <trkpt lat="43.98665" lon="5.10352">
        <ele>311.8</ele>
        <time>2013-01-30T13:02:07.000Z</time>
      </trkpt>
      <trkpt lat="43.98663" lon="5.10346">
        <ele>311.6</ele>
        <time>2013-01-30T13:02:08.000Z</time>
      </trkpt>
      <trkpt lat="43.9866" lon="5.10343">
        <ele>311.2</ele>
        <time>2013-01-30T13:02:09.000Z</time>
      </trkpt>
      <trkpt lat="43.98658" lon="5.10339">
        <ele>310.9</ele>
        <time>2013-01-30T13:02:10.000Z</time>
      </trkpt>
      <trkpt lat="43.98656" lon="5.10334">
        <ele>310.9</ele>
        <time>2013-01-30T13:02:11.000Z</time>
      </trkpt>
      <trkpt lat="43.98669" lon="5.10331">
        <ele>309.7</ele>
        <time>2013-01-30T13:02:12.000Z</time>
      </trkpt>
      <trkpt lat="43.98669" lon="5.10327">
        <ele>309.1</ele>
        <time>2013-01-30T13:02:13.000Z</time>
      </trkpt>
      <trkpt lat="43.98669" lon="5.10323">
        <ele>308.7</ele>
        <time>2013-01-30T13:02:14.000Z</time>
      </trkpt>
      <trkpt lat="43.9867" lon="5.10319">
        <ele>308.3</ele>
        <time>2013-01-30T13:02:15.000Z</time>
      </trkpt>
      <trkpt lat="43.98672" lon="5.10316">
        <ele>308.6</ele>
        <time>2013-01-30T13:02:16.000Z</time>
      </trkpt>
      <trkpt lat="43.98673" lon="5.10312">
        <ele>307.9</ele>
        <time>2013-01-30T13:02:17.000Z</time>
      </trkpt>
      <trkpt lat="43.98675" lon="5.10308">
        <ele>307.9</ele>
        <time>2013-01-30T13:02:18.000Z</time>
      </trkpt>
      <trkpt lat="43.98674" lon="5.10303">
        <ele>307.9</ele>
        <time>2013-01-30T13:02:19.000Z</time>
      </trkpt>
      <trkpt lat="43.98674" lon="5.10298">
        <ele>307.9</ele>
        <time>2013-01-30T13:02:20.000Z</time>
      </trkpt>
      <trkpt lat="43.98685" lon="5.10288">
        <ele>304.8</ele>
        <time>2013-01-30T13:02:21.000Z</time>
      </trkpt>
      <trkpt lat="43.98688" lon="5.10281">
        <ele>303.8</ele>
        <time>2013-01-30T13:02:22.000Z</time>
      </trkpt>
      <trkpt lat="43.98693" lon="5.10276">
        <ele>303.2</ele>
        <time>2013-01-30T13:02:23.000Z</time>
      </trkpt>
      <trkpt lat="43.98699" lon="5.10275">
        <ele>301.2</ele>
        <time>2013-01-30T13:02:24.000Z</time>
      </trkpt>
      <trkpt lat="43.98704" lon="5.10273">
        <ele>299.8</ele>
        <time>2013-01-30T13:02:25.000Z</time>
      </trkpt>
      <trkpt lat="43.98707" lon="5.10267">
        <ele>299.6</ele>
        <time>2013-01-30T13:02:26.000Z</time>
      </trkpt>
      <trkpt lat="43.98711" lon="5.10262">
        <ele>299.3</ele>
        <time>2013-01-30T13:02:27.000Z</time>
      </trkpt>
      <trkpt lat="43.98714" lon="5.10256">
        <ele>299</ele>
        <time>2013-01-30T13:02:28.000Z</time>
      </trkpt>
      <trkpt lat="43.98714" lon="5.10251">
        <ele>299.2</ele>
        <time>2013-01-30T13:02:29.000Z</time>
      </trkpt>
      <trkpt lat="43.98708" lon="5.10244">
        <ele>299.2</ele>
        <time>2013-01-30T13:02:30.000Z</time>
      </trkpt>
      <trkpt lat="43.98706" lon="5.1024">
        <ele>299.5</ele>
        <time>2013-01-30T13:02:31.000Z</time>
      </trkpt>
      <trkpt lat="43.98698" lon="5.1024">
        <ele>299</ele>
        <time>2013-01-30T13:02:32.000Z</time>
      </trkpt>
      <trkpt lat="43.98695" lon="5.1024">
        <ele>298.8</ele>
        <time>2013-01-30T13:02:33.000Z</time>
      </trkpt>
      <trkpt lat="43.98685" lon="5.10242">
        <ele>299.9</ele>
        <time>2013-01-30T13:02:34.000Z</time>
      </trkpt>
      <trkpt lat="43.9868" lon="5.10241">
        <ele>299.9</ele>
        <time>2013-01-30T13:02:35.000Z</time>
      </trkpt>
      <trkpt lat="43.98677" lon="5.10239">
        <ele>299.2</ele>
        <time>2013-01-30T13:02:36.000Z</time>
      </trkpt>
      <trkpt lat="43.98673" lon="5.10239">
        <ele>299.4</ele>
        <time>2013-01-30T13:02:37.000Z</time>
      </trkpt>
      <trkpt lat="43.98667" lon="5.10238">
        <ele>298.3</ele>
        <time>2013-01-30T13:02:38.000Z</time>
      </trkpt>
      <trkpt lat="43.98662" lon="5.10238">
        <ele>297.8</ele>
        <time>2013-01-30T13:02:39.000Z</time>
      </trkpt>
      <trkpt lat="43.98658" lon="5.10239">
        <ele>296.6</ele>
        <time>2013-01-30T13:02:40.000Z</time>
      </trkpt>
      <trkpt lat="43.98653" lon="5.1024">
        <ele>296.3</ele>
        <time>2013-01-30T13:02:41.000Z</time>
      </trkpt>
      <trkpt lat="43.98647" lon="5.10242">
        <ele>296.1</ele>
        <time>2013-01-30T13:02:42.000Z</time>
      </trkpt>
      <trkpt lat="43.9864" lon="5.10245">
        <ele>293.2</ele>
        <time>2013-01-30T13:02:43.000Z</time>
      </trkpt>
      <trkpt lat="43.98635" lon="5.10247">
        <ele>292.8</ele>
        <time>2013-01-30T13:02:44.000Z</time>
      </trkpt>
      <trkpt lat="43.98628" lon="5.1024">
        <ele>290.2</ele>
        <time>2013-01-30T13:02:45.000Z</time>
      </trkpt>
      <trkpt lat="43.98624" lon="5.10235">
        <ele>289.7</ele>
        <time>2013-01-30T13:02:46.000Z</time>
      </trkpt>
      <trkpt lat="43.98621" lon="5.10229">
        <ele>289.9</ele>
        <time>2013-01-30T13:02:47.000Z</time>
      </trkpt>
      <trkpt lat="43.98617" lon="5.10225">
        <ele>289.4</ele>
        <time>2013-01-30T13:02:48.000Z</time>
      </trkpt>
      <trkpt lat="43.98614" lon="5.10222">
        <ele>288.9</ele>
        <time>2013-01-30T13:02:51.000Z</time>
      </trkpt>
      <trkpt lat="43.98614" lon="5.1022">
        <ele>289</ele>
        <time>2013-01-30T13:02:52.000Z</time>
      </trkpt>
      <trkpt lat="43.98612" lon="5.10216">
        <ele>289</ele>
        <time>2013-01-30T13:02:55.000Z</time>
      </trkpt>
      <trkpt lat="43.98611" lon="5.10214">
        <ele>289.2</ele>
        <time>2013-01-30T13:02:56.000Z</time>
      </trkpt>
      <trkpt lat="43.98611" lon="5.1021">
        <ele>288.6</ele>
        <time>2013-01-30T13:02:58.000Z</time>
      </trkpt>
      <trkpt lat="43.98609" lon="5.10207">
        <ele>288.5</ele>
        <time>2013-01-30T13:02:59.000Z</time>
      </trkpt>
      <trkpt lat="43.98606" lon="5.10202">
        <ele>288</ele>
        <time>2013-01-30T13:03:00.000Z</time>
      </trkpt>
      <trkpt lat="43.98609" lon="5.10198">
        <ele>287.8</ele>
        <time>2013-01-30T13:03:01.000Z</time>
      </trkpt>
      <trkpt lat="43.9861" lon="5.10195">
        <ele>287.4</ele>
        <time>2013-01-30T13:03:02.000Z</time>
      </trkpt>
      <trkpt lat="43.98612" lon="5.10192">
        <ele>287.1</ele>
        <time>2013-01-30T13:03:03.000Z</time>
      </trkpt>
      <trkpt lat="43.98614" lon="5.1019">
        <ele>286.8</ele>
        <time>2013-01-30T13:03:04.000Z</time>
      </trkpt>
      <trkpt lat="43.98615" lon="5.10187">
        <ele>286.6</ele>
        <time>2013-01-30T13:03:05.000Z</time>
      </trkpt>
      <trkpt lat="43.98616" lon="5.10185">
        <ele>287</ele>
        <time>2013-01-30T13:03:06.000Z</time>
      </trkpt>
      <trkpt lat="43.98617" lon="5.10181">
        <ele>286.3</ele>
        <time>2013-01-30T13:03:07.000Z</time>
      </trkpt>
      <trkpt lat="43.98619" lon="5.10178">
        <ele>285.7</ele>
        <time>2013-01-30T13:03:08.000Z</time>
      </trkpt>
      <trkpt lat="43.98621" lon="5.10176">
        <ele>286</ele>
        <time>2013-01-30T13:03:09.000Z</time>
      </trkpt>
      <trkpt lat="43.98624" lon="5.10174">
        <ele>285.8</ele>
        <time>2013-01-30T13:03:10.000Z</time>
      </trkpt>
      <trkpt lat="43.98626" lon="5.10171">
        <ele>285.6</ele>
        <time>2013-01-30T13:03:11.000Z</time>
      </trkpt>
      <trkpt lat="43.98629" lon="5.10169">
        <ele>285.4</ele>
        <time>2013-01-30T13:03:12.000Z</time>
      </trkpt>
      <trkpt lat="43.98632" lon="5.10167">
        <ele>284.9</ele>
        <time>2013-01-30T13:03:13.000Z</time>
      </trkpt>
      <trkpt lat="43.98636" lon="5.10166">
        <ele>284.4</ele>
        <time>2013-01-30T13:03:14.000Z</time>
      </trkpt>
      <trkpt lat="43.98639" lon="5.10164">
        <ele>284.3</ele>
        <time>2013-01-30T13:03:15.000Z</time>
      </trkpt>
      <trkpt lat="43.98642" lon="5.10162">
        <ele>284.2</ele>
        <time>2013-01-30T13:03:16.000Z</time>
      </trkpt>
      <trkpt lat="43.98645" lon="5.10161">
        <ele>284</ele>
        <time>2013-01-30T13:03:17.000Z</time>
      </trkpt>
      <trkpt lat="43.98648" lon="5.10159">
        <ele>283.4</ele>
        <time>2013-01-30T13:03:18.000Z</time>
      </trkpt>
      <trkpt lat="43.9865" lon="5.10157">
        <ele>283.4</ele>
        <time>2013-01-30T13:03:19.000Z</time>
      </trkpt>
      <trkpt lat="43.98653" lon="5.10155">
        <ele>283.3</ele>
        <time>2013-01-30T13:03:20.000Z</time>
      </trkpt>
      <trkpt lat="43.98655" lon="5.10152">
        <ele>283.1</ele>
        <time>2013-01-30T13:03:21.000Z</time>
      </trkpt>
      <trkpt lat="43.98656" lon="5.1015">
        <ele>283</ele>
        <time>2013-01-30T13:03:22.000Z</time>
      </trkpt>
      <trkpt lat="43.98658" lon="5.10148">
        <ele>283</ele>
        <time>2013-01-30T13:03:23.000Z</time>
      </trkpt>
      <trkpt lat="43.98654" lon="5.10147">
        <ele>283.4</ele>
        <time>2013-01-30T13:03:25.000Z</time>
      </trkpt>
      <trkpt lat="43.98653" lon="5.10147">
        <ele>283.2</ele>
        <time>2013-01-30T13:03:26.000Z</time>
      </trkpt>
      <trkpt lat="43.9865" lon="5.10148">
        <ele>282.5</ele>
        <time>2013-01-30T13:03:28.000Z</time>
      </trkpt>
      <trkpt lat="43.98648" lon="5.10149">
        <ele>282.4</ele>
        <time>2013-01-30T13:03:29.000Z</time>
      </trkpt>
      <trkpt lat="43.98644" lon="5.10151">
        <ele>282.1</ele>
        <time>2013-01-30T13:03:31.000Z</time>
      </trkpt>
      <trkpt lat="43.98643" lon="5.10151">
        <ele>281.8</ele>
        <time>2013-01-30T13:03:32.000Z</time>
      </trkpt>
      <trkpt lat="43.98639" lon="5.10153">
        <ele>281.5</ele>
        <time>2013-01-30T13:03:34.000Z</time>
      </trkpt>
      <trkpt lat="43.98637" lon="5.10153">
        <ele>280.8</ele>
        <time>2013-01-30T13:03:35.000Z</time>
      </trkpt>
      <trkpt lat="43.98633" lon="5.10155">
        <ele>281.4</ele>
        <time>2013-01-30T13:03:37.000Z</time>
      </trkpt>
      <trkpt lat="43.98631" lon="5.10156">
        <ele>281.6</ele>
        <time>2013-01-30T13:03:38.000Z</time>
      </trkpt>
      <trkpt lat="43.98628" lon="5.10157">
        <ele>281.7</ele>
        <time>2013-01-30T13:03:39.000Z</time>
      </trkpt>
      <trkpt lat="43.98626" lon="5.10158">
        <ele>282.1</ele>
        <time>2013-01-30T13:03:40.000Z</time>
      </trkpt>
      <trkpt lat="43.98624" lon="5.10159">
        <ele>282.1</ele>
        <time>2013-01-30T13:03:41.000Z</time>
      </trkpt>
      <trkpt lat="43.98622" lon="5.1016">
        <ele>282.2</ele>
        <time>2013-01-30T13:03:42.000Z</time>
      </trkpt>
      <trkpt lat="43.98619" lon="5.10161">
        <ele>283.9</ele>
        <time>2013-01-30T13:03:44.000Z</time>
      </trkpt>
      <trkpt lat="43.98616" lon="5.10164">
        <ele>284.1</ele>
        <time>2013-01-30T13:03:45.000Z</time>
      </trkpt>
      <trkpt lat="43.98612" lon="5.10166">
        <ele>284.8</ele>
        <time>2013-01-30T13:03:47.000Z</time>
      </trkpt>
      <trkpt lat="43.9861" lon="5.10167">
        <ele>285.3</ele>
        <time>2013-01-30T13:03:48.000Z</time>
      </trkpt>
      <trkpt lat="43.98608" lon="5.10168">
        <ele>285.8</ele>
        <time>2013-01-30T13:03:49.000Z</time>
      </trkpt>
      <trkpt lat="43.98606" lon="5.1017">
        <ele>286.1</ele>
        <time>2013-01-30T13:03:50.000Z</time>
      </trkpt>
      <trkpt lat="43.98602" lon="5.10173">
        <ele>286.7</ele>
        <time>2013-01-30T13:03:52.000Z</time>
      </trkpt>
      <trkpt lat="43.986" lon="5.10174">
        <ele>286.8</ele>
        <time>2013-01-30T13:03:53.000Z</time>
      </trkpt>
      <trkpt lat="43.98598" lon="5.10176">
        <ele>287</ele>
        <time>2013-01-30T13:03:54.000Z</time>
      </trkpt>
      <trkpt lat="43.98596" lon="5.10178">
        <ele>286.6</ele>
        <time>2013-01-30T13:03:55.000Z</time>
      </trkpt>
      <trkpt lat="43.98593" lon="5.1018">
        <ele>286.1</ele>
        <time>2013-01-30T13:03:56.000Z</time>
      </trkpt>
      <trkpt lat="43.98591" lon="5.10182">
        <ele>285.3</ele>
        <time>2013-01-30T13:03:57.000Z</time>
      </trkpt>
      <trkpt lat="43.98588" lon="5.10184">
        <ele>284.8</ele>
        <time>2013-01-30T13:03:58.000Z</time>
      </trkpt>
      <trkpt lat="43.98585" lon="5.10186">
        <ele>284.5</ele>
        <time>2013-01-30T13:03:59.000Z</time>
      </trkpt>
      <trkpt lat="43.98581" lon="5.10187">
        <ele>286</ele>
        <time>2013-01-30T13:04:02.000Z</time>
      </trkpt>
      <trkpt lat="43.98579" lon="5.10188">
        <ele>284.7</ele>
        <time>2013-01-30T13:04:03.000Z</time>
      </trkpt>
      <trkpt lat="43.98576" lon="5.10189">
        <ele>287.1</ele>
        <time>2013-01-30T13:04:05.000Z</time>
      </trkpt>
      <trkpt lat="43.98574" lon="5.10188">
        <ele>287.6</ele>
        <time>2013-01-30T13:04:06.000Z</time>
      </trkpt>
      <trkpt lat="43.9857" lon="5.10189">
        <ele>286.8</ele>
        <time>2013-01-30T13:04:08.000Z</time>
      </trkpt>
      <trkpt lat="43.98568" lon="5.10188">
        <ele>286.8</ele>
        <time>2013-01-30T13:04:09.000Z</time>
      </trkpt>
      <trkpt lat="43.98564" lon="5.10188">
        <ele>287.9</ele>
        <time>2013-01-30T13:04:11.000Z</time>
      </trkpt>
      <trkpt lat="43.98562" lon="5.10188">
        <ele>288.4</ele>
        <time>2013-01-30T13:04:12.000Z</time>
      </trkpt>
      <trkpt lat="43.98558" lon="5.10187">
        <ele>288.2</ele>
        <time>2013-01-30T13:04:14.000Z</time>
      </trkpt>
      <trkpt lat="43.98555" lon="5.10187">
        <ele>288.4</ele>
        <time>2013-01-30T13:04:15.000Z</time>
      </trkpt>
      <trkpt lat="43.98552" lon="5.10185">
        <ele>288.7</ele>
        <time>2013-01-30T13:04:17.000Z</time>
      </trkpt>
      <trkpt lat="43.9855" lon="5.10185">
        <ele>289.1</ele>
        <time>2013-01-30T13:04:18.000Z</time>
      </trkpt>
      <trkpt lat="43.98547" lon="5.10184">
        <ele>289.3</ele>
        <time>2013-01-30T13:04:19.000Z</time>
      </trkpt>
      <trkpt lat="43.98545" lon="5.10184">
        <ele>289.6</ele>
        <time>2013-01-30T13:04:20.000Z</time>
      </trkpt>
      <trkpt lat="43.98541" lon="5.10182">
        <ele>291.3</ele>
        <time>2013-01-30T13:04:23.000Z</time>
      </trkpt>
      <trkpt lat="43.98539" lon="5.10183">
        <ele>291.3</ele>
        <time>2013-01-30T13:04:24.000Z</time>
      </trkpt>
      <trkpt lat="43.98535" lon="5.10183">
        <ele>291.4</ele>
        <time>2013-01-30T13:04:27.000Z</time>
      </trkpt>
      <trkpt lat="43.98533" lon="5.10182">
        <ele>292.2</ele>
        <time>2013-01-30T13:04:28.000Z</time>
      </trkpt>
      <trkpt lat="43.9853" lon="5.10182">
        <ele>292</ele>
        <time>2013-01-30T13:04:30.000Z</time>
      </trkpt>
      <trkpt lat="43.98528" lon="5.10182">
        <ele>292.3</ele>
        <time>2013-01-30T13:04:31.000Z</time>
      </trkpt>
      <trkpt lat="43.98524" lon="5.10182">
        <ele>293.4</ele>
        <time>2013-01-30T13:04:33.000Z</time>
      </trkpt>
      <trkpt lat="43.98522" lon="5.10182">
        <ele>293.4</ele>
        <time>2013-01-30T13:04:34.000Z</time>
      </trkpt>
      <trkpt lat="43.9852" lon="5.10182">
        <ele>294</ele>
        <time>2013-01-30T13:04:36.000Z</time>
      </trkpt>
      <trkpt lat="43.98517" lon="5.10183">
        <ele>293.4</ele>
        <time>2013-01-30T13:04:37.000Z</time>
      </trkpt>
      <trkpt lat="43.98513" lon="5.10183">
        <ele>292.5</ele>
        <time>2013-01-30T13:04:39.000Z</time>
      </trkpt>
      <trkpt lat="43.9851" lon="5.10183">
        <ele>293.8</ele>
        <time>2013-01-30T13:04:40.000Z</time>
      </trkpt>
      <trkpt lat="43.98506" lon="5.10184">
        <ele>293.2</ele>
        <time>2013-01-30T13:04:42.000Z</time>
      </trkpt>
      <trkpt lat="43.98504" lon="5.10184">
        <ele>293.8</ele>
        <time>2013-01-30T13:04:43.000Z</time>
      </trkpt>
      <trkpt lat="43.985" lon="5.10184">
        <ele>294.4</ele>
        <time>2013-01-30T13:04:45.000Z</time>
      </trkpt>
      <trkpt lat="43.98498" lon="5.10184">
        <ele>294.8</ele>
        <time>2013-01-30T13:04:46.000Z</time>
      </trkpt>
      <trkpt lat="43.98494" lon="5.10184">
        <ele>295.8</ele>
        <time>2013-01-30T13:04:49.000Z</time>
      </trkpt>
      <trkpt lat="43.98489" lon="5.10184">
        <ele>292.4</ele>
        <time>2013-01-30T13:04:50.000Z</time>
      </trkpt>
      <trkpt lat="43.98485" lon="5.10183">
        <ele>292.3</ele>
        <time>2013-01-30T13:04:51.000Z</time>
      </trkpt>
      <trkpt lat="43.98483" lon="5.10183">
        <ele>292</ele>
        <time>2013-01-30T13:04:52.000Z</time>
      </trkpt>
      <trkpt lat="43.9848" lon="5.10183">
        <ele>292.4</ele>
        <time>2013-01-30T13:04:53.000Z</time>
      </trkpt>
      <trkpt lat="43.98478" lon="5.10185">
        <ele>292.7</ele>
        <time>2013-01-30T13:04:54.000Z</time>
      </trkpt>
      <trkpt lat="43.98475" lon="5.10188">
        <ele>294.8</ele>
        <time>2013-01-30T13:04:56.000Z</time>
      </trkpt>
      <trkpt lat="43.98474" lon="5.1019">
        <ele>295.4</ele>
        <time>2013-01-30T13:04:57.000Z</time>
      </trkpt>
      <trkpt lat="43.98473" lon="5.10192">
        <ele>296.7</ele>
        <time>2013-01-30T13:04:59.000Z</time>
      </trkpt>
      <trkpt lat="43.98472" lon="5.10196">
        <ele>296.5</ele>
        <time>2013-01-30T13:05:00.000Z</time>
      </trkpt>
      <trkpt lat="43.98473" lon="5.10199">
        <ele>296.9</ele>
        <time>2013-01-30T13:05:01.000Z</time>
      </trkpt>
      <trkpt lat="43.98472" lon="5.10202">
        <ele>297.8</ele>
        <time>2013-01-30T13:05:02.000Z</time>
      </trkpt>
      <trkpt lat="43.98473" lon="5.10201">
        <ele>298.4</ele>
        <time>2013-01-30T13:05:03.000Z</time>
      </trkpt>
      <trkpt lat="43.98474" lon="5.10208">
        <ele>297.8</ele>
        <time>2013-01-30T13:05:04.000Z</time>
      </trkpt>
      <trkpt lat="43.98474" lon="5.10214">
        <ele>299.4</ele>
        <time>2013-01-30T13:05:07.000Z</time>
      </trkpt>
      <trkpt lat="43.98474" lon="5.10216">
        <ele>299.5</ele>
        <time>2013-01-30T13:05:08.000Z</time>
      </trkpt>
      <trkpt lat="43.98474" lon="5.10221">
        <ele>301.6</ele>
        <time>2013-01-30T13:05:12.000Z</time>
      </trkpt>
      <trkpt lat="43.98475" lon="5.10225">
        <ele>301.7</ele>
        <time>2013-01-30T13:05:13.000Z</time>
      </trkpt>
      <trkpt lat="43.98472" lon="5.10228">
        <ele>309.3</ele>
        <time>2013-01-30T13:05:27.000Z</time>
      </trkpt>
      <trkpt lat="43.98471" lon="5.10229">
        <ele>309.4</ele>
        <time>2013-01-30T13:05:28.000Z</time>
      </trkpt>
      <trkpt lat="43.98467" lon="5.10228">
        <ele>311.9</ele>
        <time>2013-01-30T13:05:40.000Z</time>
      </trkpt>
      <trkpt lat="43.98467" lon="5.10229">
        <ele>312.2</ele>
        <time>2013-01-30T13:05:41.000Z</time>
      </trkpt>
      <trkpt lat="43.98463" lon="5.1023">
        <ele>312.3</ele>
        <time>2013-01-30T13:05:48.000Z</time>
      </trkpt>
      <trkpt lat="43.98462" lon="5.10231">
        <ele>311.2</ele>
        <time>2013-01-30T13:05:49.000Z</time>
      </trkpt>
      <trkpt lat="43.98458" lon="5.1023">
        <ele>317.7</ele>
        <time>2013-01-30T13:05:54.000Z</time>
      </trkpt>
      <trkpt lat="43.98457" lon="5.10231">
        <ele>317.9</ele>
        <time>2013-01-30T13:05:55.000Z</time>
      </trkpt>
      <trkpt lat="43.98454" lon="5.10232">
        <ele>318</ele>
        <time>2013-01-30T13:06:01.000Z</time>
      </trkpt>
      <trkpt lat="43.98452" lon="5.10233">
        <ele>317.7</ele>
        <time>2013-01-30T13:06:02.000Z</time>
      </trkpt>
      <trkpt lat="43.98448" lon="5.10234">
        <ele>317.3</ele>
        <time>2013-01-30T13:06:05.000Z</time>
      </trkpt>
      <trkpt lat="43.98447" lon="5.10234">
        <ele>317.6</ele>
        <time>2013-01-30T13:06:06.000Z</time>
      </trkpt>
      <trkpt lat="43.98444" lon="5.10234">
        <ele>316.3</ele>
        <time>2013-01-30T13:06:07.000Z</time>
      </trkpt>
      <trkpt lat="43.98442" lon="5.10235">
        <ele>315.2</ele>
        <time>2013-01-30T13:06:08.000Z</time>
      </trkpt>
      <trkpt lat="43.98439" lon="5.10237">
        <ele>313.9</ele>
        <time>2013-01-30T13:06:10.000Z</time>
      </trkpt>
      <trkpt lat="43.98438" lon="5.10237">
        <ele>313.7</ele>
        <time>2013-01-30T13:06:11.000Z</time>
      </trkpt>
      <trkpt lat="43.98434" lon="5.10239">
        <ele>311.9</ele>
        <time>2013-01-30T13:06:16.000Z</time>
      </trkpt>
      <trkpt lat="43.98433" lon="5.1024">
        <ele>311.5</ele>
        <time>2013-01-30T13:06:17.000Z</time>
      </trkpt>
      <trkpt lat="43.98429" lon="5.10243">
        <ele>310.5</ele>
        <time>2013-01-30T13:06:20.000Z</time>
      </trkpt>
      <trkpt lat="43.98428" lon="5.10243">
        <ele>311.7</ele>
        <time>2013-01-30T13:06:21.000Z</time>
      </trkpt>
      <trkpt lat="43.98424" lon="5.10245">
        <ele>312.7</ele>
        <time>2013-01-30T13:06:24.000Z</time>
      </trkpt>
      <trkpt lat="43.98422" lon="5.10245">
        <ele>313.3</ele>
        <time>2013-01-30T13:06:25.000Z</time>
      </trkpt>
      <trkpt lat="43.98419" lon="5.10248">
        <ele>313.8</ele>
        <time>2013-01-30T13:06:28.000Z</time>
      </trkpt>
      <trkpt lat="43.98417" lon="5.10248">
        <ele>314</ele>
        <time>2013-01-30T13:06:29.000Z</time>
      </trkpt>
      <trkpt lat="43.98414" lon="5.1025">
        <ele>314</ele>
        <time>2013-01-30T13:06:31.000Z</time>
      </trkpt>
      <trkpt lat="43.98412" lon="5.10251">
        <ele>314.4</ele>
        <time>2013-01-30T13:06:32.000Z</time>
      </trkpt>
      <trkpt lat="43.9841" lon="5.10255">
        <ele>315.2</ele>
        <time>2013-01-30T13:06:34.000Z</time>
      </trkpt>
      <trkpt lat="43.98408" lon="5.10256">
        <ele>315.4</ele>
        <time>2013-01-30T13:06:35.000Z</time>
      </trkpt>
      <trkpt lat="43.98405" lon="5.10258">
        <ele>315.4</ele>
        <time>2013-01-30T13:06:37.000Z</time>
      </trkpt>
      <trkpt lat="43.98404" lon="5.1026">
        <ele>315.3</ele>
        <time>2013-01-30T13:06:38.000Z</time>
      </trkpt>
      <trkpt lat="43.98401" lon="5.10262">
        <ele>315.3</ele>
        <time>2013-01-30T13:06:40.000Z</time>
      </trkpt>
      <trkpt lat="43.98399" lon="5.10264">
        <ele>315</ele>
        <time>2013-01-30T13:06:41.000Z</time>
      </trkpt>
      <trkpt lat="43.98397" lon="5.10267">
        <ele>315.3</ele>
        <time>2013-01-30T13:06:42.000Z</time>
      </trkpt>
      <trkpt lat="43.98395" lon="5.10268">
        <ele>314.7</ele>
        <time>2013-01-30T13:06:43.000Z</time>
      </trkpt>
      <trkpt lat="43.98392" lon="5.10271">
        <ele>315.3</ele>
        <time>2013-01-30T13:06:44.000Z</time>
      </trkpt>
      <trkpt lat="43.98392" lon="5.10275">
        <ele>315.1</ele>
        <time>2013-01-30T13:06:45.000Z</time>
      </trkpt>
      <trkpt lat="43.9839" lon="5.10279">
        <ele>314.8</ele>
        <time>2013-01-30T13:06:47.000Z</time>
      </trkpt>
      <trkpt lat="43.98389" lon="5.1028">
        <ele>314.7</ele>
        <time>2013-01-30T13:06:48.000Z</time>
      </trkpt>
      <trkpt lat="43.98388" lon="5.10286">
        <ele>314.7</ele>
        <time>2013-01-30T13:06:50.000Z</time>
      </trkpt>
      <trkpt lat="43.98387" lon="5.10289">
        <ele>314.6</ele>
        <time>2013-01-30T13:06:51.000Z</time>
      </trkpt>
      <trkpt lat="43.98385" lon="5.1029">
        <ele>315.5</ele>
        <time>2013-01-30T13:06:52.000Z</time>
      </trkpt>
      <trkpt lat="43.98383" lon="5.10292">
        <ele>316.1</ele>
        <time>2013-01-30T13:06:53.000Z</time>
      </trkpt>
      <trkpt lat="43.98379" lon="5.10292">
        <ele>314.3</ele>
        <time>2013-01-30T13:06:54.000Z</time>
      </trkpt>
      <trkpt lat="43.98378" lon="5.10294">
        <ele>313.8</ele>
        <time>2013-01-30T13:06:55.000Z</time>
      </trkpt>
      <trkpt lat="43.98376" lon="5.10297">
        <ele>313.8</ele>
        <time>2013-01-30T13:06:56.000Z</time>
      </trkpt>
      <trkpt lat="43.98374" lon="5.10298">
        <ele>314</ele>
        <time>2013-01-30T13:06:57.000Z</time>
      </trkpt>
      <trkpt lat="43.98371" lon="5.10299">
        <ele>314.1</ele>
        <time>2013-01-30T13:06:59.000Z</time>
      </trkpt>
      <trkpt lat="43.98369" lon="5.103">
        <ele>314.7</ele>
        <time>2013-01-30T13:07:00.000Z</time>
      </trkpt>
      <trkpt lat="43.98367" lon="5.10298">
        <ele>315.3</ele>
        <time>2013-01-30T13:07:01.000Z</time>
      </trkpt>
      <trkpt lat="43.98363" lon="5.10296">
        <ele>315.7</ele>
        <time>2013-01-30T13:07:02.000Z</time>
      </trkpt>
      <trkpt lat="43.9836" lon="5.10301">
        <ele>316.8</ele>
        <time>2013-01-30T13:07:04.000Z</time>
      </trkpt>
      <trkpt lat="43.98359" lon="5.10304">
        <ele>316.9</ele>
        <time>2013-01-30T13:07:05.000Z</time>
      </trkpt>
      <trkpt lat="43.98355" lon="5.10306">
        <ele>316.2</ele>
        <time>2013-01-30T13:07:08.000Z</time>
      </trkpt>
      <trkpt lat="43.98354" lon="5.10306">
        <ele>315.8</ele>
        <time>2013-01-30T13:07:09.000Z</time>
      </trkpt>
      <trkpt lat="43.98349" lon="5.10308">
        <ele>315.2</ele>
        <time>2013-01-30T13:07:13.000Z</time>
      </trkpt>
      <trkpt lat="43.9835" lon="5.1031">
        <ele>315</ele>
        <time>2013-01-30T13:07:14.000Z</time>
      </trkpt>
      <trkpt lat="43.98347" lon="5.10313">
        <ele>316.7</ele>
        <time>2013-01-30T13:07:18.000Z</time>
      </trkpt>
      <trkpt lat="43.98345" lon="5.10314">
        <ele>318.4</ele>
        <time>2013-01-30T13:07:19.000Z</time>
      </trkpt>
      <trkpt lat="43.98342" lon="5.10317">
        <ele>320.2</ele>
        <time>2013-01-30T13:07:22.000Z</time>
      </trkpt>
      <trkpt lat="43.98341" lon="5.10318">
        <ele>320.8</ele>
        <time>2013-01-30T13:07:23.000Z</time>
      </trkpt>
      <trkpt lat="43.98337" lon="5.10318">
        <ele>324</ele>
        <time>2013-01-30T13:07:26.000Z</time>
      </trkpt>
      <trkpt lat="43.98335" lon="5.10318">
        <ele>324.3</ele>
        <time>2013-01-30T13:07:27.000Z</time>
      </trkpt>
      <trkpt lat="43.98331" lon="5.10318">
        <ele>324.3</ele>
        <time>2013-01-30T13:07:29.000Z</time>
      </trkpt>
      <trkpt lat="43.9833" lon="5.10318">
        <ele>324</ele>
        <time>2013-01-30T13:07:30.000Z</time>
      </trkpt>
      <trkpt lat="43.98326" lon="5.10317">
        <ele>323.9</ele>
        <time>2013-01-30T13:07:33.000Z</time>
      </trkpt>
      <trkpt lat="43.98324" lon="5.10318">
        <ele>323.3</ele>
        <time>2013-01-30T13:07:34.000Z</time>
      </trkpt>
      <trkpt lat="43.98321" lon="5.10317">
        <ele>323.6</ele>
        <time>2013-01-30T13:07:37.000Z</time>
      </trkpt>
      <trkpt lat="43.98314" lon="5.10316">
        <ele>321.8</ele>
        <time>2013-01-30T13:07:38.000Z</time>
      </trkpt>
      <trkpt lat="43.98313" lon="5.10321">
        <ele>322.9</ele>
        <time>2013-01-30T13:07:39.000Z</time>
      </trkpt>
      <trkpt lat="43.98309" lon="5.10322">
        <ele>323.1</ele>
        <time>2013-01-30T13:07:40.000Z</time>
      </trkpt>
      <trkpt lat="43.98307" lon="5.10326">
        <ele>323.8</ele>
        <time>2013-01-30T13:07:43.000Z</time>
      </trkpt>
      <trkpt lat="43.98306" lon="5.10327">
        <ele>324.1</ele>
        <time>2013-01-30T13:07:44.000Z</time>
      </trkpt>
      <trkpt lat="43.98303" lon="5.10328">
        <ele>327.1</ele>
        <time>2013-01-30T13:07:48.000Z</time>
      </trkpt>
      <trkpt lat="43.98302" lon="5.10328">
        <ele>327.7</ele>
        <time>2013-01-30T13:07:49.000Z</time>
      </trkpt>
      <trkpt lat="43.98299" lon="5.10332">
        <ele>328.2</ele>
        <time>2013-01-30T13:07:53.000Z</time>
      </trkpt>
      <trkpt lat="43.98298" lon="5.10333">
        <ele>328.9</ele>
        <time>2013-01-30T13:07:54.000Z</time>
      </trkpt>
      <trkpt lat="43.98295" lon="5.10337">
        <ele>329.4</ele>
        <time>2013-01-30T13:07:57.000Z</time>
      </trkpt>
      <trkpt lat="43.98294" lon="5.10338">
        <ele>330.1</ele>
        <time>2013-01-30T13:07:58.000Z</time>
      </trkpt>
      <trkpt lat="43.9829" lon="5.10339">
        <ele>333.9</ele>
        <time>2013-01-30T13:08:02.000Z</time>
      </trkpt>
      <trkpt lat="43.98289" lon="5.10342">
        <ele>332.5</ele>
        <time>2013-01-30T13:08:03.000Z</time>
      </trkpt>
      <trkpt lat="43.98286" lon="5.10345">
        <ele>332.2</ele>
        <time>2013-01-30T13:08:05.000Z</time>
      </trkpt>
      <trkpt lat="43.98284" lon="5.10347">
        <ele>331.4</ele>
        <time>2013-01-30T13:08:06.000Z</time>
      </trkpt>
      <trkpt lat="43.98281" lon="5.1035">
        <ele>330.5</ele>
        <time>2013-01-30T13:08:11.000Z</time>
      </trkpt>
      <trkpt lat="43.9828" lon="5.1035">
        <ele>330.5</ele>
        <time>2013-01-30T13:08:12.000Z</time>
      </trkpt>
      <trkpt lat="43.98278" lon="5.10356">
        <ele>329.6</ele>
        <time>2013-01-30T13:08:18.000Z</time>
      </trkpt>
      <trkpt lat="43.98278" lon="5.10357">
        <ele>329.4</ele>
        <time>2013-01-30T13:08:19.000Z</time>
      </trkpt>
      <trkpt lat="43.98276" lon="5.10362">
        <ele>331.3</ele>
        <time>2013-01-30T13:08:25.000Z</time>
      </trkpt>
      <trkpt lat="43.98276" lon="5.10363">
        <ele>331.6</ele>
        <time>2013-01-30T13:08:26.000Z</time>
      </trkpt>
      <trkpt lat="43.98273" lon="5.10365">
        <ele>335.1</ele>
        <time>2013-01-30T13:08:28.000Z</time>
      </trkpt>
      <trkpt lat="43.98271" lon="5.10366">
        <ele>335.9</ele>
        <time>2013-01-30T13:08:29.000Z</time>
      </trkpt>
      <trkpt lat="43.98268" lon="5.10371">
        <ele>334.5</ele>
        <time>2013-01-30T13:08:35.000Z</time>
      </trkpt>
      <trkpt lat="43.98268" lon="5.10371">
        <ele>334.6</ele>
        <time>2013-01-30T13:08:36.000Z</time>
      </trkpt>
      <trkpt lat="43.98267" lon="5.10373">
        <ele>334.3</ele>
        <time>2013-01-30T13:08:37.000Z</time>
      </trkpt>
      <trkpt lat="43.98262" lon="5.10373">
        <ele>336</ele>
        <time>2013-01-30T13:08:38.000Z</time>
      </trkpt>
      <trkpt lat="43.9826" lon="5.10376">
        <ele>336.2</ele>
        <time>2013-01-30T13:08:41.000Z</time>
      </trkpt>
      <trkpt lat="43.98258" lon="5.10377">
        <ele>336.6</ele>
        <time>2013-01-30T13:08:42.000Z</time>
      </trkpt>
      <trkpt lat="43.98255" lon="5.10379">
        <ele>337.1</ele>
        <time>2013-01-30T13:08:46.000Z</time>
      </trkpt>
      <trkpt lat="43.98254" lon="5.1038">
        <ele>336.9</ele>
        <time>2013-01-30T13:08:47.000Z</time>
      </trkpt>
      <trkpt lat="43.98252" lon="5.10385">
        <ele>338.2</ele>
        <time>2013-01-30T13:08:54.000Z</time>
      </trkpt>
      <trkpt lat="43.98249" lon="5.10385">
        <ele>337.3</ele>
        <time>2013-01-30T13:08:55.000Z</time>
      </trkpt>
      <trkpt lat="43.98245" lon="5.10388">
        <ele>337.1</ele>
        <time>2013-01-30T13:08:59.000Z</time>
      </trkpt>
      <trkpt lat="43.98243" lon="5.1039">
        <ele>336.7</ele>
        <time>2013-01-30T13:09:00.000Z</time>
      </trkpt>
      <trkpt lat="43.98243" lon="5.10395">
        <ele>337.9</ele>
        <time>2013-01-30T13:09:03.000Z</time>
      </trkpt>
      <trkpt lat="43.98242" lon="5.10396">
        <ele>337.8</ele>
        <time>2013-01-30T13:09:04.000Z</time>
      </trkpt>
      <trkpt lat="43.98241" lon="5.104">
        <ele>337.6</ele>
        <time>2013-01-30T13:09:06.000Z</time>
      </trkpt>
      <trkpt lat="43.98241" lon="5.10402">
        <ele>337.5</ele>
        <time>2013-01-30T13:09:07.000Z</time>
      </trkpt>
      <trkpt lat="43.98237" lon="5.10404">
        <ele>337.2</ele>
        <time>2013-01-30T13:09:09.000Z</time>
      </trkpt>
      <trkpt lat="43.98236" lon="5.10406">
        <ele>336.5</ele>
        <time>2013-01-30T13:09:10.000Z</time>
      </trkpt>
      <trkpt lat="43.98233" lon="5.10411">
        <ele>336.3</ele>
        <time>2013-01-30T13:09:13.000Z</time>
      </trkpt>
      <trkpt lat="43.98231" lon="5.10412">
        <ele>336.1</ele>
        <time>2013-01-30T13:09:14.000Z</time>
      </trkpt>
      <trkpt lat="43.98229" lon="5.10416">
        <ele>335.3</ele>
        <time>2013-01-30T13:09:16.000Z</time>
      </trkpt>
      <trkpt lat="43.98229" lon="5.10418">
        <ele>335.2</ele>
        <time>2013-01-30T13:09:17.000Z</time>
      </trkpt>
      <trkpt lat="43.98226" lon="5.10421">
        <ele>334.5</ele>
        <time>2013-01-30T13:09:19.000Z</time>
      </trkpt>
      <trkpt lat="43.98225" lon="5.10423">
        <ele>334.5</ele>
        <time>2013-01-30T13:09:20.000Z</time>
      </trkpt>
      <trkpt lat="43.98223" lon="5.10426">
        <ele>334.8</ele>
        <time>2013-01-30T13:09:22.000Z</time>
      </trkpt>
      <trkpt lat="43.98221" lon="5.10428">
        <ele>334.6</ele>
        <time>2013-01-30T13:09:23.000Z</time>
      </trkpt>
      <trkpt lat="43.98219" lon="5.10432">
        <ele>334.3</ele>
        <time>2013-01-30T13:09:25.000Z</time>
      </trkpt>
      <trkpt lat="43.98219" lon="5.10433">
        <ele>334.7</ele>
        <time>2013-01-30T13:09:26.000Z</time>
      </trkpt>
      <trkpt lat="43.98216" lon="5.10438">
        <ele>334.9</ele>
        <time>2013-01-30T13:09:29.000Z</time>
      </trkpt>
      <trkpt lat="43.98215" lon="5.10439">
        <ele>335</ele>
        <time>2013-01-30T13:09:30.000Z</time>
      </trkpt>
      <trkpt lat="43.98211" lon="5.1044">
        <ele>334.9</ele>
        <time>2013-01-30T13:09:32.000Z</time>
      </trkpt>
      <trkpt lat="43.98209" lon="5.10441">
        <ele>335.1</ele>
        <time>2013-01-30T13:09:33.000Z</time>
      </trkpt>
      <trkpt lat="43.98206" lon="5.10442">
        <ele>336.1</ele>
        <time>2013-01-30T13:09:36.000Z</time>
      </trkpt>
      <trkpt lat="43.98204" lon="5.10442">
        <ele>335.2</ele>
        <time>2013-01-30T13:09:37.000Z</time>
      </trkpt>
      <trkpt lat="43.98202" lon="5.10442">
        <ele>335.1</ele>
        <time>2013-01-30T13:09:38.000Z</time>
      </trkpt>
      <trkpt lat="43.98199" lon="5.10441">
        <ele>335.2</ele>
        <time>2013-01-30T13:09:39.000Z</time>
      </trkpt>
      <trkpt lat="43.98195" lon="5.10441">
        <ele>334.8</ele>
        <time>2013-01-30T13:09:41.000Z</time>
      </trkpt>
      <trkpt lat="43.98191" lon="5.10441">
        <ele>334.1</ele>
        <time>2013-01-30T13:09:42.000Z</time>
      </trkpt>
      <trkpt lat="43.98187" lon="5.10443">
        <ele>333.8</ele>
        <time>2013-01-30T13:09:43.000Z</time>
      </trkpt>
      <trkpt lat="43.98181" lon="5.10445">
        <ele>333.4</ele>
        <time>2013-01-30T13:09:44.000Z</time>
      </trkpt>
      <trkpt lat="43.98178" lon="5.10446">
        <ele>334.1</ele>
        <time>2013-01-30T13:09:45.000Z</time>
      </trkpt>
      <trkpt lat="43.98177" lon="5.10451">
        <ele>332.6</ele>
        <time>2013-01-30T13:09:46.000Z</time>
      </trkpt>
      <trkpt lat="43.98171" lon="5.10454">
        <ele>330.7</ele>
        <time>2013-01-30T13:09:47.000Z</time>
      </trkpt>
      <trkpt lat="43.98168" lon="5.10457">
        <ele>330.2</ele>
        <time>2013-01-30T13:09:48.000Z</time>
      </trkpt>
      <trkpt lat="43.98165" lon="5.1046">
        <ele>329.8</ele>
        <time>2013-01-30T13:09:49.000Z</time>
      </trkpt>
      <trkpt lat="43.9816" lon="5.10463">
        <ele>329.5</ele>
        <time>2013-01-30T13:09:50.000Z</time>
      </trkpt>
      <trkpt lat="43.98156" lon="5.10464">
        <ele>328.6</ele>
        <time>2013-01-30T13:09:51.000Z</time>
      </trkpt>
      <trkpt lat="43.98155" lon="5.10465">
        <ele>328.1</ele>
        <time>2013-01-30T13:09:52.000Z</time>
      </trkpt>
      <trkpt lat="43.98152" lon="5.10466">
        <ele>328.3</ele>
        <time>2013-01-30T13:09:53.000Z</time>
      </trkpt>
      <trkpt lat="43.98149" lon="5.10467">
        <ele>327.8</ele>
        <time>2013-01-30T13:09:54.000Z</time>
      </trkpt>
      <trkpt lat="43.98148" lon="5.10466">
        <ele>328.2</ele>
        <time>2013-01-30T13:09:55.000Z</time>
      </trkpt>
      <trkpt lat="43.98144" lon="5.10466">
        <ele>327.4</ele>
        <time>2013-01-30T13:09:56.000Z</time>
      </trkpt>
      <trkpt lat="43.9814" lon="5.10465">
        <ele>327.2</ele>
        <time>2013-01-30T13:09:57.000Z</time>
      </trkpt>
      <trkpt lat="43.98138" lon="5.10465">
        <ele>326.2</ele>
        <time>2013-01-30T13:09:58.000Z</time>
      </trkpt>
      <trkpt lat="43.98135" lon="5.10466">
        <ele>326.2</ele>
        <time>2013-01-30T13:09:59.000Z</time>
      </trkpt>
      <trkpt lat="43.98132" lon="5.10468">
        <ele>325.9</ele>
        <time>2013-01-30T13:10:00.000Z</time>
      </trkpt>
      <trkpt lat="43.9813" lon="5.1047">
        <ele>325.8</ele>
        <time>2013-01-30T13:10:01.000Z</time>
      </trkpt>
      <trkpt lat="43.98126" lon="5.1047">
        <ele>325.8</ele>
        <time>2013-01-30T13:10:02.000Z</time>
      </trkpt>
      <trkpt lat="43.98122" lon="5.1047">
        <ele>326.6</ele>
        <time>2013-01-30T13:10:04.000Z</time>
      </trkpt>
      <trkpt lat="43.9812" lon="5.1047">
        <ele>326.7</ele>
        <time>2013-01-30T13:10:05.000Z</time>
      </trkpt>
      <trkpt lat="43.98116" lon="5.10472">
        <ele>326.2</ele>
        <time>2013-01-30T13:10:14.000Z</time>
      </trkpt>
      <trkpt lat="43.98116" lon="5.10472">
        <ele>326.2</ele>
        <time>2013-01-30T13:10:15.000Z</time>
      </trkpt>
      <trkpt lat="43.98113" lon="5.10475">
        <ele>325.7</ele>
        <time>2013-01-30T13:10:19.000Z</time>
      </trkpt>
      <trkpt lat="43.98112" lon="5.10476">
        <ele>325.3</ele>
        <time>2013-01-30T13:10:20.000Z</time>
      </trkpt>
      <trkpt lat="43.98109" lon="5.10477">
        <ele>326.6</ele>
        <time>2013-01-30T13:10:23.000Z</time>
      </trkpt>
      <trkpt lat="43.98107" lon="5.10478">
        <ele>327.1</ele>
        <time>2013-01-30T13:10:24.000Z</time>
      </trkpt>
      <trkpt lat="43.98104" lon="5.10479">
        <ele>327.3</ele>
        <time>2013-01-30T13:10:25.000Z</time>
      </trkpt>
      <trkpt lat="43.98102" lon="5.1048">
        <ele>327.7</ele>
        <time>2013-01-30T13:10:26.000Z</time>
      </trkpt>
      <trkpt lat="43.98098" lon="5.10483">
        <ele>328</ele>
        <time>2013-01-30T13:10:28.000Z</time>
      </trkpt>
      <trkpt lat="43.98095" lon="5.10485">
        <ele>327.7</ele>
        <time>2013-01-30T13:10:29.000Z</time>
      </trkpt>
      <trkpt lat="43.98091" lon="5.10487">
        <ele>327.3</ele>
        <time>2013-01-30T13:10:31.000Z</time>
      </trkpt>
      <trkpt lat="43.98089" lon="5.10489">
        <ele>327.1</ele>
        <time>2013-01-30T13:10:32.000Z</time>
      </trkpt>
      <trkpt lat="43.98086" lon="5.1049">
        <ele>326.7</ele>
        <time>2013-01-30T13:10:33.000Z</time>
      </trkpt>
      <trkpt lat="43.98084" lon="5.1049">
        <ele>327.1</ele>
        <time>2013-01-30T13:10:34.000Z</time>
      </trkpt>
      <trkpt lat="43.98082" lon="5.10489">
        <ele>326.5</ele>
        <time>2013-01-30T13:10:35.000Z</time>
      </trkpt>
      <trkpt lat="43.98079" lon="5.10489">
        <ele>326.5</ele>
        <time>2013-01-30T13:10:36.000Z</time>
      </trkpt>
      <trkpt lat="43.98075" lon="5.1049">
        <ele>327.8</ele>
        <time>2013-01-30T13:10:38.000Z</time>
      </trkpt>
      <trkpt lat="43.98072" lon="5.10489">
        <ele>328.5</ele>
        <time>2013-01-30T13:10:39.000Z</time>
      </trkpt>
      <trkpt lat="43.9807" lon="5.10487">
        <ele>329.4</ele>
        <time>2013-01-30T13:10:40.000Z</time>
      </trkpt>
      <trkpt lat="43.98066" lon="5.10496">
        <ele>329.1</ele>
        <time>2013-01-30T13:10:41.000Z</time>
      </trkpt>
      <trkpt lat="43.98063" lon="5.10498">
        <ele>329.8</ele>
        <time>2013-01-30T13:10:42.000Z</time>
      </trkpt>
      <trkpt lat="43.9806" lon="5.105">
        <ele>330.3</ele>
        <time>2013-01-30T13:10:43.000Z</time>
      </trkpt>
      <trkpt lat="43.98054" lon="5.10497">
        <ele>331.2</ele>
        <time>2013-01-30T13:10:44.000Z</time>
      </trkpt>
      <trkpt lat="43.9805" lon="5.10498">
        <ele>330.7</ele>
        <time>2013-01-30T13:10:45.000Z</time>
      </trkpt>
      <trkpt lat="43.98047" lon="5.105">
        <ele>329.6</ele>
        <time>2013-01-30T13:10:46.000Z</time>
      </trkpt>
      <trkpt lat="43.98044" lon="5.10502">
        <ele>328.6</ele>
        <time>2013-01-30T13:10:47.000Z</time>
      </trkpt>
      <trkpt lat="43.98041" lon="5.10505">
        <ele>328.1</ele>
        <time>2013-01-30T13:10:48.000Z</time>
      </trkpt>
      <trkpt lat="43.98037" lon="5.10506">
        <ele>327.6</ele>
        <time>2013-01-30T13:10:49.000Z</time>
      </trkpt>
      <trkpt lat="43.98033" lon="5.10507">
        <ele>327.1</ele>
        <time>2013-01-30T13:10:50.000Z</time>
      </trkpt>
      <trkpt lat="43.98028" lon="5.10502">
        <ele>327.5</ele>
        <time>2013-01-30T13:10:51.000Z</time>
      </trkpt>
      <trkpt lat="43.98023" lon="5.10502">
        <ele>327</ele>
        <time>2013-01-30T13:10:52.000Z</time>
      </trkpt>
      <trkpt lat="43.98018" lon="5.10504">
        <ele>325.9</ele>
        <time>2013-01-30T13:10:53.000Z</time>
      </trkpt>
      <trkpt lat="43.98015" lon="5.10506">
        <ele>325.2</ele>
        <time>2013-01-30T13:10:54.000Z</time>
      </trkpt>
      <trkpt lat="43.98012" lon="5.10508">
        <ele>324.9</ele>
        <time>2013-01-30T13:10:55.000Z</time>
      </trkpt>
      <trkpt lat="43.98006" lon="5.1051">
        <ele>323.8</ele>
        <time>2013-01-30T13:10:56.000Z</time>
      </trkpt>
      <trkpt lat="43.98001" lon="5.10512">
        <ele>323</ele>
        <time>2013-01-30T13:10:57.000Z</time>
      </trkpt>
      <trkpt lat="43.97998" lon="5.10514">
        <ele>322</ele>
        <time>2013-01-30T13:10:58.000Z</time>
      </trkpt>
      <trkpt lat="43.97996" lon="5.10517">
        <ele>321.8</ele>
        <time>2013-01-30T13:10:59.000Z</time>
      </trkpt>
      <trkpt lat="43.97993" lon="5.10519">
        <ele>321.6</ele>
        <time>2013-01-30T13:11:00.000Z</time>
      </trkpt>
      <trkpt lat="43.97991" lon="5.1052">
        <ele>321.1</ele>
        <time>2013-01-30T13:11:01.000Z</time>
      </trkpt>
      <trkpt lat="43.97989" lon="5.10524">
        <ele>320.8</ele>
        <time>2013-01-30T13:11:02.000Z</time>
      </trkpt>
      <trkpt lat="43.97985" lon="5.10526">
        <ele>319.7</ele>
        <time>2013-01-30T13:11:03.000Z</time>
      </trkpt>
      <trkpt lat="43.97983" lon="5.10531">
        <ele>319.5</ele>
        <time>2013-01-30T13:11:04.000Z</time>
      </trkpt>
      <trkpt lat="43.97977" lon="5.10533">
        <ele>317.6</ele>
        <time>2013-01-30T13:11:05.000Z</time>
      </trkpt>
      <trkpt lat="43.97974" lon="5.1054">
        <ele>317.4</ele>
        <time>2013-01-30T13:11:06.000Z</time>
      </trkpt>
      <trkpt lat="43.97972" lon="5.10543">
        <ele>316.9</ele>
        <time>2013-01-30T13:11:07.000Z</time>
      </trkpt>
      <trkpt lat="43.97969" lon="5.10546">
        <ele>316.4</ele>
        <time>2013-01-30T13:11:08.000Z</time>
      </trkpt>
      <trkpt lat="43.97963" lon="5.10546">
        <ele>315.5</ele>
        <time>2013-01-30T13:11:09.000Z</time>
      </trkpt>
      <trkpt lat="43.97959" lon="5.10549">
        <ele>315.4</ele>
        <time>2013-01-30T13:11:10.000Z</time>
      </trkpt>
      <trkpt lat="43.97957" lon="5.10554">
        <ele>314.6</ele>
        <time>2013-01-30T13:11:11.000Z</time>
      </trkpt>
      <trkpt lat="43.97954" lon="5.10558">
        <ele>313</ele>
        <time>2013-01-30T13:11:13.000Z</time>
      </trkpt>
      <trkpt lat="43.97952" lon="5.10563">
        <ele>312.8</ele>
        <time>2013-01-30T13:11:14.000Z</time>
      </trkpt>
      <trkpt lat="43.97951" lon="5.10568">
        <ele>311.8</ele>
        <time>2013-01-30T13:11:26.000Z</time>
      </trkpt>
      <trkpt lat="43.97947" lon="5.10568">
        <ele>311.1</ele>
        <time>2013-01-30T13:11:27.000Z</time>
      </trkpt>
      <trkpt lat="43.97944" lon="5.10571">
        <ele>308.9</ele>
        <time>2013-01-30T13:11:37.000Z</time>
      </trkpt>
      <trkpt lat="43.97943" lon="5.10572">
        <ele>309</ele>
        <time>2013-01-30T13:11:38.000Z</time>
      </trkpt>
      <trkpt lat="43.9794" lon="5.10573">
        <ele>308.8</ele>
        <time>2013-01-30T13:11:39.000Z</time>
      </trkpt>
      <trkpt lat="43.97937" lon="5.10578">
        <ele>307.7</ele>
        <time>2013-01-30T13:11:40.000Z</time>
      </trkpt>
      <trkpt lat="43.97935" lon="5.10581">
        <ele>307.3</ele>
        <time>2013-01-30T13:11:41.000Z</time>
      </trkpt>
      <trkpt lat="43.97932" lon="5.10585">
        <ele>307.3</ele>
        <time>2013-01-30T13:11:42.000Z</time>
      </trkpt>
      <trkpt lat="43.97929" lon="5.10589">
        <ele>307.2</ele>
        <time>2013-01-30T13:11:43.000Z</time>
      </trkpt>
      <trkpt lat="43.97927" lon="5.10593">
        <ele>306.8</ele>
        <time>2013-01-30T13:11:44.000Z</time>
      </trkpt>
      <trkpt lat="43.97924" lon="5.10596">
        <ele>306.1</ele>
        <time>2013-01-30T13:11:45.000Z</time>
      </trkpt>
      <trkpt lat="43.97922" lon="5.10599">
        <ele>306.1</ele>
        <time>2013-01-30T13:11:46.000Z</time>
      </trkpt>
      <trkpt lat="43.97921" lon="5.10602">
        <ele>305.8</ele>
        <time>2013-01-30T13:11:47.000Z</time>
      </trkpt>
      <trkpt lat="43.9792" lon="5.10605">
        <ele>306.7</ele>
        <time>2013-01-30T13:11:48.000Z</time>
      </trkpt>
      <trkpt lat="43.97917" lon="5.10608">
        <ele>307.4</ele>
        <time>2013-01-30T13:11:50.000Z</time>
      </trkpt>
      <trkpt lat="43.97916" lon="5.10611">
        <ele>307.6</ele>
        <time>2013-01-30T13:11:51.000Z</time>
      </trkpt>
      <trkpt lat="43.97914" lon="5.10615">
        <ele>308.6</ele>
        <time>2013-01-30T13:11:53.000Z</time>
      </trkpt>
      <trkpt lat="43.97914" lon="5.10618">
        <ele>308.9</ele>
        <time>2013-01-30T13:11:54.000Z</time>
      </trkpt>
      <trkpt lat="43.97913" lon="5.10623">
        <ele>309.4</ele>
        <time>2013-01-30T13:12:00.000Z</time>
      </trkpt>
      <trkpt lat="43.97913" lon="5.10624">
        <ele>309.3</ele>
        <time>2013-01-30T13:12:01.000Z</time>
      </trkpt>
      <trkpt lat="43.97912" lon="5.10629">
        <ele>309</ele>
        <time>2013-01-30T13:12:03.000Z</time>
      </trkpt>
      <trkpt lat="43.97911" lon="5.10631">
        <ele>309</ele>
        <time>2013-01-30T13:12:04.000Z</time>
      </trkpt>
      <trkpt lat="43.97909" lon="5.10635">
        <ele>308.5</ele>
        <time>2013-01-30T13:12:07.000Z</time>
      </trkpt>
      <trkpt lat="43.97909" lon="5.10637">
        <ele>309.3</ele>
        <time>2013-01-30T13:12:08.000Z</time>
      </trkpt>
      <trkpt lat="43.97907" lon="5.10642">
        <ele>310.3</ele>
        <time>2013-01-30T13:12:11.000Z</time>
      </trkpt>
      <trkpt lat="43.97907" lon="5.10644">
        <ele>310</ele>
        <time>2013-01-30T13:12:12.000Z</time>
      </trkpt>
      <trkpt lat="43.97905" lon="5.10649">
        <ele>311.6</ele>
        <time>2013-01-30T13:12:16.000Z</time>
      </trkpt>
      <trkpt lat="43.97905" lon="5.10652">
        <ele>311.7</ele>
        <time>2013-01-30T13:12:17.000Z</time>
      </trkpt>
      <trkpt lat="43.97904" lon="5.10656">
        <ele>312</ele>
        <time>2013-01-30T13:12:19.000Z</time>
      </trkpt>
      <trkpt lat="43.97903" lon="5.10658">
        <ele>312.4</ele>
        <time>2013-01-30T13:12:20.000Z</time>
      </trkpt>
      <trkpt lat="43.97903" lon="5.10663">
        <ele>312.7</ele>
        <time>2013-01-30T13:12:22.000Z</time>
      </trkpt>
      <trkpt lat="43.97901" lon="5.10665">
        <ele>312.9</ele>
        <time>2013-01-30T13:12:23.000Z</time>
      </trkpt>
      <trkpt lat="43.97902" lon="5.1067">
        <ele>313.1</ele>
        <time>2013-01-30T13:12:26.000Z</time>
      </trkpt>
      <trkpt lat="43.97902" lon="5.10671">
        <ele>312.8</ele>
        <time>2013-01-30T13:12:27.000Z</time>
      </trkpt>
      <trkpt lat="43.97901" lon="5.10676">
        <ele>312.8</ele>
        <time>2013-01-30T13:12:30.000Z</time>
      </trkpt>
      <trkpt lat="43.97901" lon="5.10678">
        <ele>313.7</ele>
        <time>2013-01-30T13:12:31.000Z</time>
      </trkpt>
      <trkpt lat="43.97899" lon="5.10681">
        <ele>313.3</ele>
        <time>2013-01-30T13:12:35.000Z</time>
      </trkpt>
      <trkpt lat="43.97898" lon="5.10683">
        <ele>313.5</ele>
        <time>2013-01-30T13:12:36.000Z</time>
      </trkpt>
      <trkpt lat="43.97897" lon="5.10685">
        <ele>313.7</ele>
        <time>2013-01-30T13:12:37.000Z</time>
      </trkpt>
      <trkpt lat="43.97898" lon="5.1069">
        <ele>312.5</ele>
        <time>2013-01-30T13:12:38.000Z</time>
      </trkpt>
      <trkpt lat="43.97894" lon="5.10692">
        <ele>316.6</ele>
        <time>2013-01-30T13:12:44.000Z</time>
      </trkpt>
      <trkpt lat="43.97894" lon="5.10693">
        <ele>316.3</ele>
        <time>2013-01-30T13:12:45.000Z</time>
      </trkpt>
      <trkpt lat="43.97894" lon="5.10696">
        <ele>316.5</ele>
        <time>2013-01-30T13:12:46.000Z</time>
      </trkpt>
      <trkpt lat="43.97893" lon="5.107">
        <ele>317</ele>
        <time>2013-01-30T13:12:47.000Z</time>
      </trkpt>
      <trkpt lat="43.97891" lon="5.10705">
        <ele>317.6</ele>
        <time>2013-01-30T13:12:49.000Z</time>
      </trkpt>
      <trkpt lat="43.97892" lon="5.10709">
        <ele>318</ele>
        <time>2013-01-30T13:12:50.000Z</time>
      </trkpt>
      <trkpt lat="43.97889" lon="5.10714">
        <ele>318.7</ele>
        <time>2013-01-30T13:12:53.000Z</time>
      </trkpt>
      <trkpt lat="43.97889" lon="5.10715">
        <ele>318</ele>
        <time>2013-01-30T13:12:54.000Z</time>
      </trkpt>
      <trkpt lat="43.97888" lon="5.10719">
        <ele>317</ele>
        <time>2013-01-30T13:12:56.000Z</time>
      </trkpt>
      <trkpt lat="43.97887" lon="5.10721">
        <ele>316.8</ele>
        <time>2013-01-30T13:12:57.000Z</time>
      </trkpt>
      <trkpt lat="43.97886" lon="5.10724">
        <ele>316.8</ele>
        <time>2013-01-30T13:12:58.000Z</time>
      </trkpt>
      <trkpt lat="43.97886" lon="5.10727">
        <ele>316.6</ele>
        <time>2013-01-30T13:12:59.000Z</time>
      </trkpt>
      <trkpt lat="43.97884" lon="5.10731">
        <ele>317.5</ele>
        <time>2013-01-30T13:13:02.000Z</time>
      </trkpt>
      <trkpt lat="43.97885" lon="5.10734">
        <ele>317.8</ele>
        <time>2013-01-30T13:13:03.000Z</time>
      </trkpt>
      <trkpt lat="43.97881" lon="5.10736">
        <ele>318.3</ele>
        <time>2013-01-30T13:13:05.000Z</time>
      </trkpt>
      <trkpt lat="43.9788" lon="5.1074">
        <ele>319</ele>
        <time>2013-01-30T13:13:06.000Z</time>
      </trkpt>
      <trkpt lat="43.97881" lon="5.10743">
        <ele>319.3</ele>
        <time>2013-01-30T13:13:07.000Z</time>
      </trkpt>
      <trkpt lat="43.97885" lon="5.1074">
        <ele>319.3</ele>
        <time>2013-01-30T13:13:08.000Z</time>
      </trkpt>
      <trkpt lat="43.97881" lon="5.1074">
        <ele>321.8</ele>
        <time>2013-01-30T13:13:13.000Z</time>
      </trkpt>
      <trkpt lat="43.9788" lon="5.10742">
        <ele>322.1</ele>
        <time>2013-01-30T13:13:14.000Z</time>
      </trkpt>
      <trkpt lat="43.97879" lon="5.10745">
        <ele>323.2</ele>
        <time>2013-01-30T13:13:16.000Z</time>
      </trkpt>
      <trkpt lat="43.9788" lon="5.1075">
        <ele>325.4</ele>
        <time>2013-01-30T13:13:17.000Z</time>
      </trkpt>
      <trkpt lat="43.97877" lon="5.10754">
        <ele>325.6</ele>
        <time>2013-01-30T13:13:21.000Z</time>
      </trkpt>
      <trkpt lat="43.97877" lon="5.10756">
        <ele>325.4</ele>
        <time>2013-01-30T13:13:22.000Z</time>
      </trkpt>
      <trkpt lat="43.97875" lon="5.1076">
        <ele>325.9</ele>
        <time>2013-01-30T13:13:26.000Z</time>
      </trkpt>
      <trkpt lat="43.97875" lon="5.10762">
        <ele>325.8</ele>
        <time>2013-01-30T13:13:27.000Z</time>
      </trkpt>
      <trkpt lat="43.97873" lon="5.10768">
        <ele>326.3</ele>
        <time>2013-01-30T13:13:31.000Z</time>
      </trkpt>
      <trkpt lat="43.97873" lon="5.10769">
        <ele>326.8</ele>
        <time>2013-01-30T13:13:32.000Z</time>
      </trkpt>
      <trkpt lat="43.9787" lon="5.10772">
        <ele>327.7</ele>
        <time>2013-01-30T13:13:36.000Z</time>
      </trkpt>
      <trkpt lat="43.9787" lon="5.10773">
        <ele>327.7</ele>
        <time>2013-01-30T13:13:37.000Z</time>
      </trkpt>
      <trkpt lat="43.97869" lon="5.10778">
        <ele>327.2</ele>
        <time>2013-01-30T13:13:41.000Z</time>
      </trkpt>
      <trkpt lat="43.97869" lon="5.10779">
        <ele>326.8</ele>
        <time>2013-01-30T13:13:42.000Z</time>
      </trkpt>
      <trkpt lat="43.97869" lon="5.10785">
        <ele>327</ele>
        <time>2013-01-30T13:13:45.000Z</time>
      </trkpt>
      <trkpt lat="43.97869" lon="5.10786">
        <ele>327.4</ele>
        <time>2013-01-30T13:13:46.000Z</time>
      </trkpt>
      <trkpt lat="43.97868" lon="5.10791">
        <ele>328.1</ele>
        <time>2013-01-30T13:13:49.000Z</time>
      </trkpt>
      <trkpt lat="43.97868" lon="5.10793">
        <ele>328.1</ele>
        <time>2013-01-30T13:13:50.000Z</time>
      </trkpt>
      <trkpt lat="43.97866" lon="5.10798">
        <ele>333</ele>
        <time>2013-01-30T13:13:55.000Z</time>
      </trkpt>
      <trkpt lat="43.97866" lon="5.108">
        <ele>333.1</ele>
        <time>2013-01-30T13:13:56.000Z</time>
      </trkpt>
      <trkpt lat="43.97866" lon="5.10804">
        <ele>333.8</ele>
        <time>2013-01-30T13:13:59.000Z</time>
      </trkpt>
      <trkpt lat="43.97866" lon="5.10806">
        <ele>334</ele>
        <time>2013-01-30T13:14:00.000Z</time>
      </trkpt>
      <trkpt lat="43.97866" lon="5.10811">
        <ele>334.9</ele>
        <time>2013-01-30T13:14:03.000Z</time>
      </trkpt>
      <trkpt lat="43.97866" lon="5.10814">
        <ele>335.2</ele>
        <time>2013-01-30T13:14:04.000Z</time>
      </trkpt>
      <trkpt lat="43.97866" lon="5.10819">
        <ele>335.8</ele>
        <time>2013-01-30T13:14:07.000Z</time>
      </trkpt>
      <trkpt lat="43.97866" lon="5.10821">
        <ele>335.8</ele>
        <time>2013-01-30T13:14:08.000Z</time>
      </trkpt>
      <trkpt lat="43.97865" lon="5.10826">
        <ele>336.5</ele>
        <time>2013-01-30T13:14:12.000Z</time>
      </trkpt>
      <trkpt lat="43.97864" lon="5.10828">
        <ele>336.9</ele>
        <time>2013-01-30T13:14:13.000Z</time>
      </trkpt>
      <trkpt lat="43.97864" lon="5.10832">
        <ele>337.2</ele>
        <time>2013-01-30T13:14:16.000Z</time>
      </trkpt>
      <trkpt lat="43.97863" lon="5.10834">
        <ele>337.3</ele>
        <time>2013-01-30T13:14:17.000Z</time>
      </trkpt>
      <trkpt lat="43.97862" lon="5.1084">
        <ele>337.6</ele>
        <time>2013-01-30T13:14:20.000Z</time>
      </trkpt>
      <trkpt lat="43.97862" lon="5.10841">
        <ele>337.5</ele>
        <time>2013-01-30T13:14:21.000Z</time>
      </trkpt>
      <trkpt lat="43.9786" lon="5.10846">
        <ele>336.6</ele>
        <time>2013-01-30T13:14:24.000Z</time>
      </trkpt>
      <trkpt lat="43.97859" lon="5.1085">
        <ele>336.4</ele>
        <time>2013-01-30T13:14:25.000Z</time>
      </trkpt>
      <trkpt lat="43.97859" lon="5.10849">
        <ele>338.1</ele>
        <time>2013-01-30T13:14:29.000Z</time>
      </trkpt>
      <trkpt lat="43.97857" lon="5.10838">
        <ele>338.2</ele>
        <time>2013-01-30T13:14:30.000Z</time>
      </trkpt>
      <trkpt lat="43.97856" lon="5.10824">
        <ele>338.6</ele>
        <time>2013-01-30T13:14:31.000Z</time>
      </trkpt>
      <trkpt lat="43.97856" lon="5.10814">
        <ele>340.3</ele>
        <time>2013-01-30T13:14:32.000Z</time>
      </trkpt>
      <trkpt lat="43.97857" lon="5.10807">
        <ele>340.5</ele>
        <time>2013-01-30T13:14:33.000Z</time>
      </trkpt>
      <trkpt lat="43.97857" lon="5.10801">
        <ele>340.6</ele>
        <time>2013-01-30T13:14:35.000Z</time>
      </trkpt>
      <trkpt lat="43.97857" lon="5.108">
        <ele>340.5</ele>
        <time>2013-01-30T13:14:36.000Z</time>
      </trkpt>
      <trkpt lat="43.97857" lon="5.10805">
        <ele>340.4</ele>
        <time>2013-01-30T13:14:37.000Z</time>
      </trkpt>
      <trkpt lat="43.97856" lon="5.10815">
        <ele>340.4</ele>
        <time>2013-01-30T13:14:38.000Z</time>
      </trkpt>
      <trkpt lat="43.97857" lon="5.10845">
        <ele>338.7</ele>
        <time>2013-01-30T13:14:39.000Z</time>
      </trkpt>
      <trkpt lat="43.97855" lon="5.10863">
        <ele>338.2</ele>
        <time>2013-01-30T13:14:40.000Z</time>
      </trkpt>
      <trkpt lat="43.97854" lon="5.1087">
        <ele>337.8</ele>
        <time>2013-01-30T13:14:41.000Z</time>
      </trkpt>
      <trkpt lat="43.97852" lon="5.1088">
        <ele>337.7</ele>
        <time>2013-01-30T13:14:42.000Z</time>
      </trkpt>
      <trkpt lat="43.97851" lon="5.10886">
        <ele>337.7</ele>
        <time>2013-01-30T13:14:43.000Z</time>
      </trkpt>
      <trkpt lat="43.97849" lon="5.1089">
        <ele>337.9</ele>
        <time>2013-01-30T13:14:45.000Z</time>
      </trkpt>
      <trkpt lat="43.97849" lon="5.10892">
        <ele>337.7</ele>
        <time>2013-01-30T13:14:46.000Z</time>
      </trkpt>
      <trkpt lat="43.97846" lon="5.10897">
        <ele>340.9</ele>
        <time>2013-01-30T13:14:51.000Z</time>
      </trkpt>
      <trkpt lat="43.97845" lon="5.10898">
        <ele>341.1</ele>
        <time>2013-01-30T13:14:52.000Z</time>
      </trkpt>
      <trkpt lat="43.97844" lon="5.10903">
        <ele>342.5</ele>
        <time>2013-01-30T13:14:55.000Z</time>
      </trkpt>
      <trkpt lat="43.97843" lon="5.10905">
        <ele>342.8</ele>
        <time>2013-01-30T13:14:56.000Z</time>
      </trkpt>
      <trkpt lat="43.97842" lon="5.10911">
        <ele>344.8</ele>
        <time>2013-01-30T13:15:00.000Z</time>
      </trkpt>
      <trkpt lat="43.97842" lon="5.10913">
        <ele>344.8</ele>
        <time>2013-01-30T13:15:01.000Z</time>
      </trkpt>
      <trkpt lat="43.97842" lon="5.10916">
        <ele>345.5</ele>
        <time>2013-01-30T13:15:04.000Z</time>
      </trkpt>
      <trkpt lat="43.97842" lon="5.10919">
        <ele>345.2</ele>
        <time>2013-01-30T13:15:05.000Z</time>
      </trkpt>
      <trkpt lat="43.97841" lon="5.10925">
        <ele>348.9</ele>
        <time>2013-01-30T13:15:10.000Z</time>
      </trkpt>
      <trkpt lat="43.97841" lon="5.10927">
        <ele>348.7</ele>
        <time>2013-01-30T13:15:11.000Z</time>
      </trkpt>
      <trkpt lat="43.97837" lon="5.10931">
        <ele>350</ele>
        <time>2013-01-30T13:15:15.000Z</time>
      </trkpt>
      <trkpt lat="43.97837" lon="5.10933">
        <ele>349.8</ele>
        <time>2013-01-30T13:15:16.000Z</time>
      </trkpt>
      <trkpt lat="43.97835" lon="5.10936">
        <ele>350.8</ele>
        <time>2013-01-30T13:15:20.000Z</time>
      </trkpt>
      <trkpt lat="43.97833" lon="5.10938">
        <ele>350.5</ele>
        <time>2013-01-30T13:15:21.000Z</time>
      </trkpt>
      <trkpt lat="43.9783" lon="5.10941">
        <ele>352</ele>
        <time>2013-01-30T13:15:26.000Z</time>
      </trkpt>
      <trkpt lat="43.97829" lon="5.10942">
        <ele>352.5</ele>
        <time>2013-01-30T13:15:27.000Z</time>
      </trkpt>
      <trkpt lat="43.97827" lon="5.10946">
        <ele>348.7</ele>
        <time>2013-01-30T13:15:30.000Z</time>
      </trkpt>
      <trkpt lat="43.97826" lon="5.10946">
        <ele>348.5</ele>
        <time>2013-01-30T13:15:31.000Z</time>
      </trkpt>
      <trkpt lat="43.97821" lon="5.10946">
        <ele>348.9</ele>
        <time>2013-01-30T13:15:36.000Z</time>
      </trkpt>
      <trkpt lat="43.9782" lon="5.1095">
        <ele>348.3</ele>
        <time>2013-01-30T13:15:37.000Z</time>
      </trkpt>
      <trkpt lat="43.97816" lon="5.10949">
        <ele>351.8</ele>
        <time>2013-01-30T13:15:40.000Z</time>
      </trkpt>
      <trkpt lat="43.97815" lon="5.10949">
        <ele>352.3</ele>
        <time>2013-01-30T13:15:41.000Z</time>
      </trkpt>
      <trkpt lat="43.97812" lon="5.10947">
        <ele>352.6</ele>
        <time>2013-01-30T13:15:45.000Z</time>
      </trkpt>
      <trkpt lat="43.9781" lon="5.10945">
        <ele>352.2</ele>
        <time>2013-01-30T13:15:46.000Z</time>
      </trkpt>
      <trkpt lat="43.97808" lon="5.10946">
        <ele>353.1</ele>
        <time>2013-01-30T13:15:49.000Z</time>
      </trkpt>
      <trkpt lat="43.97808" lon="5.10952">
        <ele>353.2</ele>
        <time>2013-01-30T13:15:50.000Z</time>
      </trkpt>
      <trkpt lat="43.97805" lon="5.10955">
        <ele>352.9</ele>
        <time>2013-01-30T13:15:52.000Z</time>
      </trkpt>
      <trkpt lat="43.97804" lon="5.10958">
        <ele>353.1</ele>
        <time>2013-01-30T13:15:53.000Z</time>
      </trkpt>
      <trkpt lat="43.97801" lon="5.10961">
        <ele>353.5</ele>
        <time>2013-01-30T13:15:56.000Z</time>
      </trkpt>
      <trkpt lat="43.97801" lon="5.10963">
        <ele>353.2</ele>
        <time>2013-01-30T13:15:57.000Z</time>
      </trkpt>
      <trkpt lat="43.97799" lon="5.10967">
        <ele>353.7</ele>
        <time>2013-01-30T13:16:00.000Z</time>
      </trkpt>
      <trkpt lat="43.97799" lon="5.10969">
        <ele>354.7</ele>
        <time>2013-01-30T13:16:01.000Z</time>
      </trkpt>
      <trkpt lat="43.97799" lon="5.10975">
        <ele>354.6</ele>
        <time>2013-01-30T13:16:02.000Z</time>
      </trkpt>
      <trkpt lat="43.97798" lon="5.1098">
        <ele>353.9</ele>
        <time>2013-01-30T13:16:03.000Z</time>
      </trkpt>
      <trkpt lat="43.978" lon="5.10981">
        <ele>353.8</ele>
        <time>2013-01-30T13:16:04.000Z</time>
      </trkpt>
      <trkpt lat="43.978" lon="5.10987">
        <ele>353.3</ele>
        <time>2013-01-30T13:16:05.000Z</time>
      </trkpt>
      <trkpt lat="43.97804" lon="5.10984">
        <ele>353.1</ele>
        <time>2013-01-30T13:16:09.000Z</time>
      </trkpt>
      <trkpt lat="43.97805" lon="5.10982">
        <ele>352.8</ele>
        <time>2013-01-30T13:16:10.000Z</time>
      </trkpt>
      <trkpt lat="43.97807" lon="5.10978">
        <ele>354</ele>
        <time>2013-01-30T13:16:14.000Z</time>
      </trkpt>
      <trkpt lat="43.97808" lon="5.10977">
        <ele>354</ele>
        <time>2013-01-30T13:16:15.000Z</time>
      </trkpt>
      <trkpt lat="43.97811" lon="5.10975">
        <ele>353.7</ele>
        <time>2013-01-30T13:16:18.000Z</time>
      </trkpt>
      <trkpt lat="43.97813" lon="5.10974">
        <ele>353.3</ele>
        <time>2013-01-30T13:16:19.000Z</time>
      </trkpt>
      <trkpt lat="43.97816" lon="5.10972">
        <ele>353.1</ele>
        <time>2013-01-30T13:16:22.000Z</time>
      </trkpt>
      <trkpt lat="43.97817" lon="5.10972">
        <ele>352.7</ele>
        <time>2013-01-30T13:16:23.000Z</time>
      </trkpt>
      <trkpt lat="43.9782" lon="5.10976">
        <ele>355.4</ele>
        <time>2013-01-30T13:16:26.000Z</time>
      </trkpt>
      <trkpt lat="43.97821" lon="5.10977">
        <ele>355.7</ele>
        <time>2013-01-30T13:16:27.000Z</time>
      </trkpt>
      <trkpt lat="43.97823" lon="5.1098">
        <ele>355.5</ele>
        <time>2013-01-30T13:16:29.000Z</time>
      </trkpt>
      <trkpt lat="43.97824" lon="5.10982">
        <ele>356.2</ele>
        <time>2013-01-30T13:16:30.000Z</time>
      </trkpt>
      <trkpt lat="43.97826" lon="5.10985">
        <ele>356.6</ele>
        <time>2013-01-30T13:16:32.000Z</time>
      </trkpt>
      <trkpt lat="43.97827" lon="5.10987">
        <ele>357</ele>
        <time>2013-01-30T13:16:33.000Z</time>
      </trkpt>
      <trkpt lat="43.97829" lon="5.1099">
        <ele>357.3</ele>
        <time>2013-01-30T13:16:35.000Z</time>
      </trkpt>
      <trkpt lat="43.97831" lon="5.10991">
        <ele>357.8</ele>
        <time>2013-01-30T13:16:36.000Z</time>
      </trkpt>
      <trkpt lat="43.97834" lon="5.10994">
        <ele>359.2</ele>
        <time>2013-01-30T13:16:40.000Z</time>
      </trkpt>
      <trkpt lat="43.97834" lon="5.10995">
        <ele>359.8</ele>
        <time>2013-01-30T13:16:41.000Z</time>
      </trkpt>
      <trkpt lat="43.97837" lon="5.10999">
        <ele>360</ele>
        <time>2013-01-30T13:16:44.000Z</time>
      </trkpt>
      <trkpt lat="43.97838" lon="5.11">
        <ele>360.4</ele>
        <time>2013-01-30T13:16:45.000Z</time>
      </trkpt>
      <trkpt lat="43.97839" lon="5.11004">
        <ele>360.7</ele>
        <time>2013-01-30T13:16:48.000Z</time>
      </trkpt>
      <trkpt lat="43.97839" lon="5.11007">
        <ele>360.9</ele>
        <time>2013-01-30T13:16:49.000Z</time>
      </trkpt>
      <trkpt lat="43.97839" lon="5.11012">
        <ele>361.2</ele>
        <time>2013-01-30T13:16:53.000Z</time>
      </trkpt>
      <trkpt lat="43.9784" lon="5.11013">
        <ele>362.1</ele>
        <time>2013-01-30T13:16:54.000Z</time>
      </trkpt>
      <trkpt lat="43.97841" lon="5.11019">
        <ele>363.7</ele>
        <time>2013-01-30T13:16:57.000Z</time>
      </trkpt>
      <trkpt lat="43.97842" lon="5.1102">
        <ele>363.5</ele>
        <time>2013-01-30T13:16:58.000Z</time>
      </trkpt>
      <trkpt lat="43.97844" lon="5.11026">
        <ele>365</ele>
        <time>2013-01-30T13:17:03.000Z</time>
      </trkpt>
      <trkpt lat="43.97844" lon="5.11027">
        <ele>364.8</ele>
        <time>2013-01-30T13:17:04.000Z</time>
      </trkpt>
      <trkpt lat="43.97846" lon="5.11032">
        <ele>366</ele>
        <time>2013-01-30T13:17:08.000Z</time>
      </trkpt>
      <trkpt lat="43.97846" lon="5.11033">
        <ele>366.8</ele>
        <time>2013-01-30T13:17:09.000Z</time>
      </trkpt>
      <trkpt lat="43.97844" lon="5.11038">
        <ele>370</ele>
        <time>2013-01-30T13:17:13.000Z</time>
      </trkpt>
      <trkpt lat="43.97846" lon="5.11042">
        <ele>370.2</ele>
        <time>2013-01-30T13:17:14.000Z</time>
      </trkpt>
      <trkpt lat="43.97848" lon="5.11047">
        <ele>369.7</ele>
        <time>2013-01-30T13:17:17.000Z</time>
      </trkpt>
      <trkpt lat="43.9785" lon="5.11049">
        <ele>369.6</ele>
        <time>2013-01-30T13:17:18.000Z</time>
      </trkpt>
      <trkpt lat="43.97852" lon="5.11055">
        <ele>369.6</ele>
        <time>2013-01-30T13:17:20.000Z</time>
      </trkpt>
      <trkpt lat="43.97853" lon="5.11057">
        <ele>369.9</ele>
        <time>2013-01-30T13:17:21.000Z</time>
      </trkpt>
      <trkpt lat="43.97855" lon="5.11062">
        <ele>370.9</ele>
        <time>2013-01-30T13:17:23.000Z</time>
      </trkpt>
      <trkpt lat="43.97856" lon="5.11063">
        <ele>371.3</ele>
        <time>2013-01-30T13:17:24.000Z</time>
      </trkpt>
      <trkpt lat="43.97857" lon="5.11069">
        <ele>371.9</ele>
        <time>2013-01-30T13:17:26.000Z</time>
      </trkpt>
      <trkpt lat="43.97858" lon="5.11071">
        <ele>372.4</ele>
        <time>2013-01-30T13:17:27.000Z</time>
      </trkpt>
      <trkpt lat="43.9786" lon="5.11076">
        <ele>372.3</ele>
        <time>2013-01-30T13:17:29.000Z</time>
      </trkpt>
      <trkpt lat="43.9786" lon="5.11077">
        <ele>372.8</ele>
        <time>2013-01-30T13:17:30.000Z</time>
      </trkpt>
      <trkpt lat="43.97861" lon="5.11081">
        <ele>374.1</ele>
        <time>2013-01-30T13:17:32.000Z</time>
      </trkpt>
      <trkpt lat="43.97862" lon="5.11083">
        <ele>372.5</ele>
        <time>2013-01-30T13:17:33.000Z</time>
      </trkpt>
      <trkpt lat="43.97864" lon="5.11089">
        <ele>371.9</ele>
        <time>2013-01-30T13:17:35.000Z</time>
      </trkpt>
      <trkpt lat="43.97866" lon="5.11092">
        <ele>371.5</ele>
        <time>2013-01-30T13:17:36.000Z</time>
      </trkpt>
      <trkpt lat="43.97866" lon="5.11096">
        <ele>370.8</ele>
        <time>2013-01-30T13:17:37.000Z</time>
      </trkpt>
      <trkpt lat="43.97868" lon="5.11101">
        <ele>369.3</ele>
        <time>2013-01-30T13:17:38.000Z</time>
      </trkpt>
      <trkpt lat="43.97872" lon="5.11104">
        <ele>372.4</ele>
        <time>2013-01-30T13:17:45.000Z</time>
      </trkpt>
      <trkpt lat="43.97872" lon="5.11105">
        <ele>372.1</ele>
        <time>2013-01-30T13:17:46.000Z</time>
      </trkpt>
      <trkpt lat="43.97873" lon="5.11109">
        <ele>373</ele>
        <time>2013-01-30T13:17:48.000Z</time>
      </trkpt>
      <trkpt lat="43.97875" lon="5.11111">
        <ele>372.8</ele>
        <time>2013-01-30T13:17:49.000Z</time>
      </trkpt>
      <trkpt lat="43.97877" lon="5.11116">
        <ele>372.5</ele>
        <time>2013-01-30T13:17:52.000Z</time>
      </trkpt>
      <trkpt lat="43.97878" lon="5.11117">
        <ele>372.9</ele>
        <time>2013-01-30T13:17:53.000Z</time>
      </trkpt>
      <trkpt lat="43.97881" lon="5.11121">
        <ele>372.5</ele>
        <time>2013-01-30T13:17:55.000Z</time>
      </trkpt>
      <trkpt lat="43.97881" lon="5.11122">
        <ele>373.4</ele>
        <time>2013-01-30T13:17:56.000Z</time>
      </trkpt>
      <trkpt lat="43.97883" lon="5.11127">
        <ele>372.8</ele>
        <time>2013-01-30T13:17:59.000Z</time>
      </trkpt>
      <trkpt lat="43.97884" lon="5.11128">
        <ele>372.4</ele>
        <time>2013-01-30T13:18:00.000Z</time>
      </trkpt>
      <trkpt lat="43.97886" lon="5.11131">
        <ele>373.2</ele>
        <time>2013-01-30T13:18:03.000Z</time>
      </trkpt>
      <trkpt lat="43.97888" lon="5.11132">
        <ele>373.1</ele>
        <time>2013-01-30T13:18:04.000Z</time>
      </trkpt>
      <trkpt lat="43.97891" lon="5.11135">
        <ele>373.4</ele>
        <time>2013-01-30T13:18:08.000Z</time>
      </trkpt>
      <trkpt lat="43.9789" lon="5.11138">
        <ele>373.7</ele>
        <time>2013-01-30T13:18:09.000Z</time>
      </trkpt>
      <trkpt lat="43.97895" lon="5.11132">
        <ele>373.4</ele>
        <time>2013-01-30T13:18:10.000Z</time>
      </trkpt>
      <trkpt lat="43.97899" lon="5.11132">
        <ele>372.6</ele>
        <time>2013-01-30T13:18:12.000Z</time>
      </trkpt>
      <trkpt lat="43.97901" lon="5.11129">
        <ele>372.3</ele>
        <time>2013-01-30T13:18:13.000Z</time>
      </trkpt>
      <trkpt lat="43.97903" lon="5.11124">
        <ele>372</ele>
        <time>2013-01-30T13:18:14.000Z</time>
      </trkpt>
      <trkpt lat="43.97905" lon="5.11118">
        <ele>370.3</ele>
        <time>2013-01-30T13:18:15.000Z</time>
      </trkpt>
      <trkpt lat="43.97911" lon="5.1111">
        <ele>369.1</ele>
        <time>2013-01-30T13:18:16.000Z</time>
      </trkpt>
      <trkpt lat="43.97914" lon="5.11103">
        <ele>368.5</ele>
        <time>2013-01-30T13:18:17.000Z</time>
      </trkpt>
      <trkpt lat="43.97917" lon="5.11107">
        <ele>367.2</ele>
        <time>2013-01-30T13:18:21.000Z</time>
      </trkpt>
      <trkpt lat="43.97918" lon="5.11107">
        <ele>366.8</ele>
        <time>2013-01-30T13:18:22.000Z</time>
      </trkpt>
      <trkpt lat="43.97919" lon="5.11112">
        <ele>367.8</ele>
        <time>2013-01-30T13:18:25.000Z</time>
      </trkpt>
      <trkpt lat="43.9792" lon="5.11116">
        <ele>367.7</ele>
        <time>2013-01-30T13:18:26.000Z</time>
      </trkpt>
      <trkpt lat="43.9792" lon="5.11119">
        <ele>366.9</ele>
        <time>2013-01-30T13:18:27.000Z</time>
      </trkpt>
      <trkpt lat="43.97919" lon="5.11123">
        <ele>366.1</ele>
        <time>2013-01-30T13:18:28.000Z</time>
      </trkpt>
      <trkpt lat="43.97918" lon="5.11126">
        <ele>366.2</ele>
        <time>2013-01-30T13:18:29.000Z</time>
      </trkpt>
      <trkpt lat="43.97917" lon="5.11129">
        <ele>366.2</ele>
        <time>2013-01-30T13:18:30.000Z</time>
      </trkpt>
      <trkpt lat="43.97916" lon="5.1113">
        <ele>365.7</ele>
        <time>2013-01-30T13:18:31.000Z</time>
      </trkpt>
      <trkpt lat="43.97911" lon="5.1113">
        <ele>365</ele>
        <time>2013-01-30T13:18:32.000Z</time>
      </trkpt>
      <trkpt lat="43.97907" lon="5.11133">
        <ele>365.5</ele>
        <time>2013-01-30T13:18:34.000Z</time>
      </trkpt>
      <trkpt lat="43.97905" lon="5.11134">
        <ele>366</ele>
        <time>2013-01-30T13:18:35.000Z</time>
      </trkpt>
      <trkpt lat="43.97902" lon="5.11136">
        <ele>366.2</ele>
        <time>2013-01-30T13:18:37.000Z</time>
      </trkpt>
      <trkpt lat="43.979" lon="5.11139">
        <ele>366.5</ele>
        <time>2013-01-30T13:18:38.000Z</time>
      </trkpt>
      <trkpt lat="43.97898" lon="5.11141">
        <ele>366.3</ele>
        <time>2013-01-30T13:18:39.000Z</time>
      </trkpt>
      <trkpt lat="43.97897" lon="5.11144">
        <ele>366.2</ele>
        <time>2013-01-30T13:18:40.000Z</time>
      </trkpt>
      <trkpt lat="43.97894" lon="5.11146">
        <ele>366.5</ele>
        <time>2013-01-30T13:18:42.000Z</time>
      </trkpt>
      <trkpt lat="43.97892" lon="5.11146">
        <ele>366.6</ele>
        <time>2013-01-30T13:18:43.000Z</time>
      </trkpt>
      <trkpt lat="43.9789" lon="5.11147">
        <ele>366.8</ele>
        <time>2013-01-30T13:18:45.000Z</time>
      </trkpt>
      <trkpt lat="43.97888" lon="5.11149">
        <ele>366.7</ele>
        <time>2013-01-30T13:18:46.000Z</time>
      </trkpt>
      <trkpt lat="43.97886" lon="5.11154">
        <ele>366.6</ele>
        <time>2013-01-30T13:18:48.000Z</time>
      </trkpt>
      <trkpt lat="43.97885" lon="5.11155">
        <ele>366.5</ele>
        <time>2013-01-30T13:18:49.000Z</time>
      </trkpt>
      <trkpt lat="43.97888" lon="5.11158">
        <ele>364.9</ele>
        <time>2013-01-30T13:18:51.000Z</time>
      </trkpt>
      <trkpt lat="43.97887" lon="5.1116">
        <ele>363.8</ele>
        <time>2013-01-30T13:18:52.000Z</time>
      </trkpt>
      <trkpt lat="43.97889" lon="5.11162">
        <ele>364.2</ele>
        <time>2013-01-30T13:18:53.000Z</time>
      </trkpt>
      <trkpt lat="43.97891" lon="5.11164">
        <ele>364.7</ele>
        <time>2013-01-30T13:18:54.000Z</time>
      </trkpt>
      <trkpt lat="43.97892" lon="5.11166">
        <ele>364.7</ele>
        <time>2013-01-30T13:18:55.000Z</time>
      </trkpt>
      <trkpt lat="43.97895" lon="5.11168">
        <ele>364.6</ele>
        <time>2013-01-30T13:18:56.000Z</time>
      </trkpt>
      <trkpt lat="43.97897" lon="5.1117">
        <ele>364.7</ele>
        <time>2013-01-30T13:18:57.000Z</time>
      </trkpt>
      <trkpt lat="43.97898" lon="5.11172">
        <ele>365.2</ele>
        <time>2013-01-30T13:18:58.000Z</time>
      </trkpt>
      <trkpt lat="43.979" lon="5.11174">
        <ele>365.5</ele>
        <time>2013-01-30T13:18:59.000Z</time>
      </trkpt>
      <trkpt lat="43.97902" lon="5.11176">
        <ele>366.1</ele>
        <time>2013-01-30T13:19:00.000Z</time>
      </trkpt>
      <trkpt lat="43.97905" lon="5.1118">
        <ele>366.4</ele>
        <time>2013-01-30T13:19:02.000Z</time>
      </trkpt>
      <trkpt lat="43.97907" lon="5.11182">
        <ele>366.3</ele>
        <time>2013-01-30T13:19:03.000Z</time>
      </trkpt>
      <trkpt lat="43.9791" lon="5.11185">
        <ele>366.8</ele>
        <time>2013-01-30T13:19:05.000Z</time>
      </trkpt>
      <trkpt lat="43.97911" lon="5.11187">
        <ele>367.3</ele>
        <time>2013-01-30T13:19:06.000Z</time>
      </trkpt>
      <trkpt lat="43.97914" lon="5.1119">
        <ele>367.5</ele>
        <time>2013-01-30T13:19:08.000Z</time>
      </trkpt>
      <trkpt lat="43.97916" lon="5.11191">
        <ele>367.8</ele>
        <time>2013-01-30T13:19:09.000Z</time>
      </trkpt>
      <trkpt lat="43.97918" lon="5.11193">
        <ele>368.6</ele>
        <time>2013-01-30T13:19:11.000Z</time>
      </trkpt>
      <trkpt lat="43.9792" lon="5.11194">
        <ele>368.8</ele>
        <time>2013-01-30T13:19:12.000Z</time>
      </trkpt>
      <trkpt lat="43.97924" lon="5.11197">
        <ele>369.7</ele>
        <time>2013-01-30T13:19:14.000Z</time>
      </trkpt>
      <trkpt lat="43.97929" lon="5.11202">
        <ele>369</ele>
        <time>2013-01-30T13:19:15.000Z</time>
      </trkpt>
      <trkpt lat="43.97932" lon="5.11206">
        <ele>369.8</ele>
        <time>2013-01-30T13:19:16.000Z</time>
      </trkpt>
      <trkpt lat="43.97934" lon="5.1121">
        <ele>369.5</ele>
        <time>2013-01-30T13:19:17.000Z</time>
      </trkpt>
      <trkpt lat="43.97936" lon="5.11214">
        <ele>369.8</ele>
        <time>2013-01-30T13:19:18.000Z</time>
      </trkpt>
      <trkpt lat="43.97939" lon="5.11217">
        <ele>370.2</ele>
        <time>2013-01-30T13:19:19.000Z</time>
      </trkpt>
      <trkpt lat="43.97942" lon="5.1122">
        <ele>370</ele>
        <time>2013-01-30T13:19:20.000Z</time>
      </trkpt>
      <trkpt lat="43.97945" lon="5.11222">
        <ele>370.8</ele>
        <time>2013-01-30T13:19:21.000Z</time>
      </trkpt>
      <trkpt lat="43.97948" lon="5.11224">
        <ele>371.3</ele>
        <time>2013-01-30T13:19:22.000Z</time>
      </trkpt>
      <trkpt lat="43.97951" lon="5.11223">
        <ele>373.3</ele>
        <time>2013-01-30T13:19:23.000Z</time>
      </trkpt>
      <trkpt lat="43.97954" lon="5.11223">
        <ele>373.5</ele>
        <time>2013-01-30T13:19:24.000Z</time>
      </trkpt>
      <trkpt lat="43.9796" lon="5.1123">
        <ele>371.9</ele>
        <time>2013-01-30T13:19:25.000Z</time>
      </trkpt>
      <trkpt lat="43.97965" lon="5.11234">
        <ele>371</ele>
        <time>2013-01-30T13:19:26.000Z</time>
      </trkpt>
      <trkpt lat="43.97968" lon="5.11237">
        <ele>371.8</ele>
        <time>2013-01-30T13:19:27.000Z</time>
      </trkpt>
      <trkpt lat="43.9797" lon="5.11241">
        <ele>372.5</ele>
        <time>2013-01-30T13:19:28.000Z</time>
      </trkpt>
      <trkpt lat="43.97973" lon="5.11244">
        <ele>372.6</ele>
        <time>2013-01-30T13:19:29.000Z</time>
      </trkpt>
      <trkpt lat="43.97977" lon="5.11247">
        <ele>372.6</ele>
        <time>2013-01-30T13:19:30.000Z</time>
      </trkpt>
      <trkpt lat="43.97982" lon="5.1125">
        <ele>372.3</ele>
        <time>2013-01-30T13:19:31.000Z</time>
      </trkpt>
      <trkpt lat="43.97987" lon="5.11254">
        <ele>371.4</ele>
        <time>2013-01-30T13:19:32.000Z</time>
      </trkpt>
      <trkpt lat="43.97992" lon="5.11258">
        <ele>370.8</ele>
        <time>2013-01-30T13:19:33.000Z</time>
      </trkpt>
      <trkpt lat="43.97998" lon="5.11261">
        <ele>370.3</ele>
        <time>2013-01-30T13:19:34.000Z</time>
      </trkpt>
      <trkpt lat="43.98003" lon="5.11265">
        <ele>369.7</ele>
        <time>2013-01-30T13:19:35.000Z</time>
      </trkpt>
      <trkpt lat="43.98007" lon="5.11267">
        <ele>369.4</ele>
        <time>2013-01-30T13:19:36.000Z</time>
      </trkpt>
      <trkpt lat="43.98011" lon="5.11272">
        <ele>367.8</ele>
        <time>2013-01-30T13:19:37.000Z</time>
      </trkpt>
      <trkpt lat="43.98015" lon="5.11275">
        <ele>368</ele>
        <time>2013-01-30T13:19:38.000Z</time>
      </trkpt>
      <trkpt lat="43.98019" lon="5.11279">
        <ele>368</ele>
        <time>2013-01-30T13:19:39.000Z</time>
      </trkpt>
      <trkpt lat="43.98024" lon="5.11283">
        <ele>368</ele>
        <time>2013-01-30T13:19:40.000Z</time>
      </trkpt>
      <trkpt lat="43.98028" lon="5.11284">
        <ele>367</ele>
        <time>2013-01-30T13:19:41.000Z</time>
      </trkpt>
      <trkpt lat="43.98033" lon="5.11287">
        <ele>366.1</ele>
        <time>2013-01-30T13:19:42.000Z</time>
      </trkpt>
      <trkpt lat="43.98038" lon="5.1129">
        <ele>365.9</ele>
        <time>2013-01-30T13:19:43.000Z</time>
      </trkpt>
      <trkpt lat="43.98044" lon="5.11291">
        <ele>365.8</ele>
        <time>2013-01-30T13:19:44.000Z</time>
      </trkpt>
      <trkpt lat="43.98049" lon="5.11292">
        <ele>365.6</ele>
        <time>2013-01-30T13:19:45.000Z</time>
      </trkpt>
      <trkpt lat="43.98052" lon="5.11293">
        <ele>365.4</ele>
        <time>2013-01-30T13:19:46.000Z</time>
      </trkpt>
      <trkpt lat="43.98055" lon="5.11293">
        <ele>365.5</ele>
        <time>2013-01-30T13:19:47.000Z</time>
      </trkpt>
      <trkpt lat="43.98058" lon="5.11294">
        <ele>365.2</ele>
        <time>2013-01-30T13:19:48.000Z</time>
      </trkpt>
      <trkpt lat="43.98061" lon="5.11295">
        <ele>364.6</ele>
        <time>2013-01-30T13:19:49.000Z</time>
      </trkpt>
      <trkpt lat="43.98066" lon="5.11296">
        <ele>363.5</ele>
        <time>2013-01-30T13:20:04.000Z</time>
      </trkpt>
      <trkpt lat="43.98066" lon="5.11296">
        <ele>364</ele>
        <time>2013-01-30T13:20:05.000Z</time>
      </trkpt>
      <trkpt lat="43.98069" lon="5.11297">
        <ele>364.6</ele>
        <time>2013-01-30T13:20:07.000Z</time>
      </trkpt>
      <trkpt lat="43.98071" lon="5.11298">
        <ele>364.8</ele>
        <time>2013-01-30T13:20:08.000Z</time>
      </trkpt>
      <trkpt lat="43.98073" lon="5.11298">
        <ele>365.2</ele>
        <time>2013-01-30T13:20:09.000Z</time>
      </trkpt>
      <trkpt lat="43.98076" lon="5.113">
        <ele>365.5</ele>
        <time>2013-01-30T13:20:10.000Z</time>
      </trkpt>
      <trkpt lat="43.98078" lon="5.11301">
        <ele>365.7</ele>
        <time>2013-01-30T13:20:11.000Z</time>
      </trkpt>
      <trkpt lat="43.98081" lon="5.11303">
        <ele>366.2</ele>
        <time>2013-01-30T13:20:12.000Z</time>
      </trkpt>
      <trkpt lat="43.98087" lon="5.113">
        <ele>363.3</ele>
        <time>2013-01-30T13:20:13.000Z</time>
      </trkpt>
      <trkpt lat="43.98091" lon="5.11301">
        <ele>362.1</ele>
        <time>2013-01-30T13:20:14.000Z</time>
      </trkpt>
      <trkpt lat="43.98095" lon="5.11302">
        <ele>361.7</ele>
        <time>2013-01-30T13:20:15.000Z</time>
      </trkpt>
      <trkpt lat="43.98098" lon="5.11303">
        <ele>361.8</ele>
        <time>2013-01-30T13:20:16.000Z</time>
      </trkpt>
      <trkpt lat="43.98101" lon="5.11304">
        <ele>361.5</ele>
        <time>2013-01-30T13:20:17.000Z</time>
      </trkpt>
      <trkpt lat="43.98104" lon="5.11305">
        <ele>361.3</ele>
        <time>2013-01-30T13:20:19.000Z</time>
      </trkpt>
      <trkpt lat="43.98106" lon="5.11306">
        <ele>361.2</ele>
        <time>2013-01-30T13:20:20.000Z</time>
      </trkpt>
      <trkpt lat="43.98109" lon="5.11305">
        <ele>361</ele>
        <time>2013-01-30T13:20:22.000Z</time>
      </trkpt>
      <trkpt lat="43.98111" lon="5.11302">
        <ele>359.8</ele>
        <time>2013-01-30T13:20:23.000Z</time>
      </trkpt>
      <trkpt lat="43.98115" lon="5.11302">
        <ele>357.6</ele>
        <time>2013-01-30T13:20:35.000Z</time>
      </trkpt>
      <trkpt lat="43.98116" lon="5.11302">
        <ele>357.5</ele>
        <time>2013-01-30T13:20:36.000Z</time>
      </trkpt>
      <trkpt lat="43.9812" lon="5.11304">
        <ele>355.3</ele>
        <time>2013-01-30T13:20:41.000Z</time>
      </trkpt>
      <trkpt lat="43.98121" lon="5.11305">
        <ele>354.9</ele>
        <time>2013-01-30T13:20:42.000Z</time>
      </trkpt>
      <trkpt lat="43.98125" lon="5.11307">
        <ele>349.3</ele>
        <time>2013-01-30T13:20:48.000Z</time>
      </trkpt>
      <trkpt lat="43.98126" lon="5.11307">
        <ele>348.7</ele>
        <time>2013-01-30T13:20:49.000Z</time>
      </trkpt>
      <trkpt lat="43.98123" lon="5.11304">
        <ele>344.4</ele>
        <time>2013-01-30T13:21:04.000Z</time>
      </trkpt>
      <trkpt lat="43.98122" lon="5.11304">
        <ele>344.1</ele>
        <time>2013-01-30T13:21:05.000Z</time>
      </trkpt>
      <trkpt lat="43.98122" lon="5.11298">
        <ele>342</ele>
        <time>2013-01-30T13:21:09.000Z</time>
      </trkpt>
      <trkpt lat="43.98122" lon="5.11296">
        <ele>342.2</ele>
        <time>2013-01-30T13:21:10.000Z</time>
      </trkpt>
      <trkpt lat="43.98123" lon="5.11296">
        <ele>342.9</ele>
        <time>2013-01-30T13:21:43.000Z</time>
      </trkpt>
      <trkpt lat="43.98129" lon="5.11299">
        <ele>343</ele>
        <time>2013-01-30T13:21:44.000Z</time>
      </trkpt>
      <trkpt lat="43.9813" lon="5.113">
        <ele>342.5</ele>
        <time>2013-01-30T13:21:45.000Z</time>
      </trkpt>
      <trkpt lat="43.98132" lon="5.11303">
        <ele>342.7</ele>
        <time>2013-01-30T13:21:46.000Z</time>
      </trkpt>
      <trkpt lat="43.98136" lon="5.11306">
        <ele>343</ele>
        <time>2013-01-30T13:21:47.000Z</time>
      </trkpt>
      <trkpt lat="43.9814" lon="5.11308">
        <ele>342.1</ele>
        <time>2013-01-30T13:21:49.000Z</time>
      </trkpt>
      <trkpt lat="43.98143" lon="5.1131">
        <ele>341.8</ele>
        <time>2013-01-30T13:21:50.000Z</time>
      </trkpt>
      <trkpt lat="43.98145" lon="5.11313">
        <ele>342.3</ele>
        <time>2013-01-30T13:21:51.000Z</time>
      </trkpt>
      <trkpt lat="43.98149" lon="5.11313">
        <ele>345.5</ele>
        <time>2013-01-30T13:21:52.000Z</time>
      </trkpt>
      <trkpt lat="43.98152" lon="5.11315">
        <ele>347.2</ele>
        <time>2013-01-30T13:21:53.000Z</time>
      </trkpt>
      <trkpt lat="43.98155" lon="5.11315">
        <ele>343.9</ele>
        <time>2013-01-30T13:21:54.000Z</time>
      </trkpt>
      <trkpt lat="43.98159" lon="5.11316">
        <ele>343.2</ele>
        <time>2013-01-30T13:21:55.000Z</time>
      </trkpt>
      <trkpt lat="43.98162" lon="5.11316">
        <ele>342.4</ele>
        <time>2013-01-30T13:21:56.000Z</time>
      </trkpt>
      <trkpt lat="43.98165" lon="5.11316">
        <ele>341.3</ele>
        <time>2013-01-30T13:21:57.000Z</time>
      </trkpt>
      <trkpt lat="43.98168" lon="5.11316">
        <ele>341.1</ele>
        <time>2013-01-30T13:21:58.000Z</time>
      </trkpt>
      <trkpt lat="43.9817" lon="5.11318">
        <ele>340.7</ele>
        <time>2013-01-30T13:21:59.000Z</time>
      </trkpt>
      <trkpt lat="43.98172" lon="5.11319">
        <ele>339.1</ele>
        <time>2013-01-30T13:22:00.000Z</time>
      </trkpt>
      <trkpt lat="43.98175" lon="5.11322">
        <ele>340.5</ele>
        <time>2013-01-30T13:22:02.000Z</time>
      </trkpt>
      <trkpt lat="43.98176" lon="5.11324">
        <ele>340.8</ele>
        <time>2013-01-30T13:22:03.000Z</time>
      </trkpt>
      <trkpt lat="43.98179" lon="5.11326">
        <ele>341.8</ele>
        <time>2013-01-30T13:22:06.000Z</time>
      </trkpt>
      <trkpt lat="43.98182" lon="5.11324">
        <ele>337.1</ele>
        <time>2013-01-30T13:22:07.000Z</time>
      </trkpt>
      <trkpt lat="43.98186" lon="5.11325">
        <ele>335.3</ele>
        <time>2013-01-30T13:22:10.000Z</time>
      </trkpt>
      <trkpt lat="43.98189" lon="5.11327">
        <ele>335.6</ele>
        <time>2013-01-30T13:22:11.000Z</time>
      </trkpt>
      <trkpt lat="43.98191" lon="5.11328">
        <ele>335.6</ele>
        <time>2013-01-30T13:22:12.000Z</time>
      </trkpt>
      <trkpt lat="43.98194" lon="5.1133">
        <ele>336.2</ele>
        <time>2013-01-30T13:22:13.000Z</time>
      </trkpt>
      <trkpt lat="43.98197" lon="5.11333">
        <ele>336.1</ele>
        <time>2013-01-30T13:22:15.000Z</time>
      </trkpt>
      <trkpt lat="43.98199" lon="5.11334">
        <ele>336.8</ele>
        <time>2013-01-30T13:22:16.000Z</time>
      </trkpt>
      <trkpt lat="43.98203" lon="5.11337">
        <ele>336.2</ele>
        <time>2013-01-30T13:22:18.000Z</time>
      </trkpt>
      <trkpt lat="43.98205" lon="5.11339">
        <ele>335.8</ele>
        <time>2013-01-30T13:22:19.000Z</time>
      </trkpt>
      <trkpt lat="43.98209" lon="5.1134">
        <ele>335.9</ele>
        <time>2013-01-30T13:22:21.000Z</time>
      </trkpt>
      <trkpt lat="43.98212" lon="5.11341">
        <ele>337</ele>
        <time>2013-01-30T13:22:22.000Z</time>
      </trkpt>
      <trkpt lat="43.98214" lon="5.11342">
        <ele>337.2</ele>
        <time>2013-01-30T13:22:23.000Z</time>
      </trkpt>
      <trkpt lat="43.98216" lon="5.11342">
        <ele>337.8</ele>
        <time>2013-01-30T13:22:24.000Z</time>
      </trkpt>
      <trkpt lat="43.98219" lon="5.11343">
        <ele>337.2</ele>
        <time>2013-01-30T13:22:25.000Z</time>
      </trkpt>
      <trkpt lat="43.98222" lon="5.11344">
        <ele>336.4</ele>
        <time>2013-01-30T13:22:26.000Z</time>
      </trkpt>
      <trkpt lat="43.98224" lon="5.11344">
        <ele>336.7</ele>
        <time>2013-01-30T13:22:27.000Z</time>
      </trkpt>
      <trkpt lat="43.98227" lon="5.11344">
        <ele>336.4</ele>
        <time>2013-01-30T13:22:28.000Z</time>
      </trkpt>
      <trkpt lat="43.9823" lon="5.11343">
        <ele>335.1</ele>
        <time>2013-01-30T13:22:29.000Z</time>
      </trkpt>
      <trkpt lat="43.98233" lon="5.11342">
        <ele>334.2</ele>
        <time>2013-01-30T13:22:30.000Z</time>
      </trkpt>
      <trkpt lat="43.98235" lon="5.1134">
        <ele>335.2</ele>
        <time>2013-01-30T13:22:31.000Z</time>
      </trkpt>
      <trkpt lat="43.98237" lon="5.11339">
        <ele>336.2</ele>
        <time>2013-01-30T13:22:32.000Z</time>
      </trkpt>
      <trkpt lat="43.98241" lon="5.11337">
        <ele>335.7</ele>
        <time>2013-01-30T13:22:35.000Z</time>
      </trkpt>
      <trkpt lat="43.98244" lon="5.11341">
        <ele>337.2</ele>
        <time>2013-01-30T13:22:36.000Z</time>
      </trkpt>
      <trkpt lat="43.98246" lon="5.11341">
        <ele>338.2</ele>
        <time>2013-01-30T13:22:37.000Z</time>
      </trkpt>
      <trkpt lat="43.98249" lon="5.11341">
        <ele>338</ele>
        <time>2013-01-30T13:22:38.000Z</time>
      </trkpt>
      <trkpt lat="43.98253" lon="5.11342">
        <ele>339.2</ele>
        <time>2013-01-30T13:22:40.000Z</time>
      </trkpt>
      <trkpt lat="43.98255" lon="5.11342">
        <ele>337.8</ele>
        <time>2013-01-30T13:22:41.000Z</time>
      </trkpt>
      <trkpt lat="43.98257" lon="5.11345">
        <ele>340.1</ele>
        <time>2013-01-30T13:22:44.000Z</time>
      </trkpt>
      <trkpt lat="43.98258" lon="5.11346">
        <ele>340.1</ele>
        <time>2013-01-30T13:22:45.000Z</time>
      </trkpt>
      <trkpt lat="43.98257" lon="5.11352">
        <ele>332</ele>
        <time>2013-01-30T13:23:06.000Z</time>
      </trkpt>
      <trkpt lat="43.98258" lon="5.11354">
        <ele>332</ele>
        <time>2013-01-30T13:23:07.000Z</time>
      </trkpt>
      <trkpt lat="43.98259" lon="5.1136">
        <ele>331.1</ele>
        <time>2013-01-30T13:23:09.000Z</time>
      </trkpt>
      <trkpt lat="43.9826" lon="5.11363">
        <ele>330.2</ele>
        <time>2013-01-30T13:23:10.000Z</time>
      </trkpt>
      <trkpt lat="43.98261" lon="5.11364">
        <ele>330.2</ele>
        <time>2013-01-30T13:23:11.000Z</time>
      </trkpt>
      <trkpt lat="43.98255" lon="5.11367">
        <ele>328.2</ele>
        <time>2013-01-30T13:23:12.000Z</time>
      </trkpt>
      <trkpt lat="43.98254" lon="5.11371">
        <ele>325.9</ele>
        <time>2013-01-30T13:23:14.000Z</time>
      </trkpt>
      <trkpt lat="43.98252" lon="5.11373">
        <ele>324.5</ele>
        <time>2013-01-30T13:23:15.000Z</time>
      </trkpt>
      <trkpt lat="43.98255" lon="5.11376">
        <ele>322.4</ele>
        <time>2013-01-30T13:23:33.000Z</time>
      </trkpt>
      <trkpt lat="43.98257" lon="5.11377">
        <ele>322.6</ele>
        <time>2013-01-30T13:23:34.000Z</time>
      </trkpt>
      <trkpt lat="43.98261" lon="5.11378">
        <ele>320.4</ele>
        <time>2013-01-30T13:23:39.000Z</time>
      </trkpt>
      <trkpt lat="43.98264" lon="5.11378">
        <ele>320.1</ele>
        <time>2013-01-30T13:23:40.000Z</time>
      </trkpt>
      <trkpt lat="43.98266" lon="5.1138">
        <ele>320.2</ele>
        <time>2013-01-30T13:23:41.000Z</time>
      </trkpt>
      <trkpt lat="43.98269" lon="5.11381">
        <ele>320.5</ele>
        <time>2013-01-30T13:23:42.000Z</time>
      </trkpt>
      <trkpt lat="43.98266" lon="5.11384">
        <ele>316.1</ele>
        <time>2013-01-30T13:23:47.000Z</time>
      </trkpt>
      <trkpt lat="43.98264" lon="5.11385">
        <ele>315.8</ele>
        <time>2013-01-30T13:23:48.000Z</time>
      </trkpt>
      <trkpt lat="43.98265" lon="5.1139">
        <ele>313.4</ele>
        <time>2013-01-30T13:23:52.000Z</time>
      </trkpt>
      <trkpt lat="43.98266" lon="5.11392">
        <ele>313.2</ele>
        <time>2013-01-30T13:23:53.000Z</time>
      </trkpt>
      <trkpt lat="43.98268" lon="5.11393">
        <ele>313.2</ele>
        <time>2013-01-30T13:23:55.000Z</time>
      </trkpt>
      <trkpt lat="43.9827" lon="5.11398">
        <ele>311.3</ele>
        <time>2013-01-30T13:23:56.000Z</time>
      </trkpt>
      <trkpt lat="43.98272" lon="5.11401">
        <ele>310.3</ele>
        <time>2013-01-30T13:23:57.000Z</time>
      </trkpt>
      <trkpt lat="43.98273" lon="5.11403">
        <ele>309</ele>
        <time>2013-01-30T13:23:58.000Z</time>
      </trkpt>
      <trkpt lat="43.98276" lon="5.11405">
        <ele>309.2</ele>
        <time>2013-01-30T13:24:00.000Z</time>
      </trkpt>
      <trkpt lat="43.98277" lon="5.11408">
        <ele>307.5</ele>
        <time>2013-01-30T13:24:01.000Z</time>
      </trkpt>
      <trkpt lat="43.98278" lon="5.11414">
        <ele>304.7</ele>
        <time>2013-01-30T13:24:03.000Z</time>
      </trkpt>
      <trkpt lat="43.9828" lon="5.11417">
        <ele>303.4</ele>
        <time>2013-01-30T13:24:04.000Z</time>
      </trkpt>
      <trkpt lat="43.98283" lon="5.11422">
        <ele>302.3</ele>
        <time>2013-01-30T13:24:05.000Z</time>
      </trkpt>
      <trkpt lat="43.98285" lon="5.11427">
        <ele>301.6</ele>
        <time>2013-01-30T13:24:06.000Z</time>
      </trkpt>
      <trkpt lat="43.98287" lon="5.11433">
        <ele>300.9</ele>
        <time>2013-01-30T13:24:07.000Z</time>
      </trkpt>
      <trkpt lat="43.98288" lon="5.11439">
        <ele>300.3</ele>
        <time>2013-01-30T13:24:08.000Z</time>
      </trkpt>
      <trkpt lat="43.98289" lon="5.11444">
        <ele>299.9</ele>
        <time>2013-01-30T13:24:09.000Z</time>
      </trkpt>
      <trkpt lat="43.98289" lon="5.11448">
        <ele>299.2</ele>
        <time>2013-01-30T13:24:10.000Z</time>
      </trkpt>
      <trkpt lat="43.98288" lon="5.11453">
        <ele>298.6</ele>
        <time>2013-01-30T13:24:12.000Z</time>
      </trkpt>
      <trkpt lat="43.98286" lon="5.11454">
        <ele>299</ele>
        <time>2013-01-30T13:24:13.000Z</time>
      </trkpt>
      <trkpt lat="43.98276" lon="5.11446">
        <ele>296.5</ele>
        <time>2013-01-30T13:24:14.000Z</time>
      </trkpt>
      <trkpt lat="43.98273" lon="5.11446">
        <ele>296.2</ele>
        <time>2013-01-30T13:24:15.000Z</time>
      </trkpt>
      <trkpt lat="43.98271" lon="5.11446">
        <ele>298.1</ele>
        <time>2013-01-30T13:24:16.000Z</time>
      </trkpt>
      <trkpt lat="43.98268" lon="5.11447">
        <ele>298.8</ele>
        <time>2013-01-30T13:24:17.000Z</time>
      </trkpt>
      <trkpt lat="43.98264" lon="5.11447">
        <ele>299.2</ele>
        <time>2013-01-30T13:24:18.000Z</time>
      </trkpt>
      <trkpt lat="43.98262" lon="5.11447">
        <ele>299.2</ele>
        <time>2013-01-30T13:24:19.000Z</time>
      </trkpt>
      <trkpt lat="43.98258" lon="5.1145">
        <ele>299.3</ele>
        <time>2013-01-30T13:24:20.000Z</time>
      </trkpt>
      <trkpt lat="43.98255" lon="5.11451">
        <ele>299.2</ele>
        <time>2013-01-30T13:24:21.000Z</time>
      </trkpt>
      <trkpt lat="43.98252" lon="5.1145">
        <ele>299.6</ele>
        <time>2013-01-30T13:24:22.000Z</time>
      </trkpt>
      <trkpt lat="43.98249" lon="5.11449">
        <ele>300.5</ele>
        <time>2013-01-30T13:24:23.000Z</time>
      </trkpt>
      <trkpt lat="43.98246" lon="5.11448">
        <ele>301</ele>
        <time>2013-01-30T13:24:24.000Z</time>
      </trkpt>
      <trkpt lat="43.98245" lon="5.11442">
        <ele>304.9</ele>
        <time>2013-01-30T13:24:26.000Z</time>
      </trkpt>
      <trkpt lat="43.98248" lon="5.1143">
        <ele>307.4</ele>
        <time>2013-01-30T13:24:27.000Z</time>
      </trkpt>
      <trkpt lat="43.98245" lon="5.11427">
        <ele>308.6</ele>
        <time>2013-01-30T13:24:31.000Z</time>
      </trkpt>
      <trkpt lat="43.98241" lon="5.1143">
        <ele>308.4</ele>
        <time>2013-01-30T13:24:32.000Z</time>
      </trkpt>
      <trkpt lat="43.98234" lon="5.11424">
        <ele>308</ele>
        <time>2013-01-30T13:24:33.000Z</time>
      </trkpt>
      <trkpt lat="43.98231" lon="5.11437">
        <ele>310.6</ele>
        <time>2013-01-30T13:24:34.000Z</time>
      </trkpt>
      <trkpt lat="43.98223" lon="5.11441">
        <ele>307.9</ele>
        <time>2013-01-30T13:24:35.000Z</time>
      </trkpt>
      <trkpt lat="43.98217" lon="5.11448">
        <ele>305.8</ele>
        <time>2013-01-30T13:24:36.000Z</time>
      </trkpt>
      <trkpt lat="43.98214" lon="5.11452">
        <ele>305.3</ele>
        <time>2013-01-30T13:24:37.000Z</time>
      </trkpt>
      <trkpt lat="43.98209" lon="5.11455">
        <ele>303.6</ele>
        <time>2013-01-30T13:24:38.000Z</time>
      </trkpt>
      <trkpt lat="43.9821" lon="5.11461">
        <ele>300.4</ele>
        <time>2013-01-30T13:24:40.000Z</time>
      </trkpt>
      <trkpt lat="43.98209" lon="5.11463">
        <ele>299.4</ele>
        <time>2013-01-30T13:24:41.000Z</time>
      </trkpt>
      <trkpt lat="43.98209" lon="5.11466">
        <ele>297.6</ele>
        <time>2013-01-30T13:29:20.000Z</time>
      </trkpt>
      <trkpt lat="43.98212" lon="5.1147">
        <ele>296.5</ele>
        <time>2013-01-30T13:29:21.000Z</time>
      </trkpt>
      <trkpt lat="43.98213" lon="5.11472">
        <ele>295.4</ele>
        <time>2013-01-30T13:29:22.000Z</time>
      </trkpt>
      <trkpt lat="43.98215" lon="5.11475">
        <ele>294.3</ele>
        <time>2013-01-30T13:29:23.000Z</time>
      </trkpt>
      <trkpt lat="43.98219" lon="5.1148">
        <ele>296</ele>
        <time>2013-01-30T13:29:24.000Z</time>
      </trkpt>
      <trkpt lat="43.9822" lon="5.11481">
        <ele>297.3</ele>
        <time>2013-01-30T13:29:25.000Z</time>
      </trkpt>
      <trkpt lat="43.98223" lon="5.11484">
        <ele>297.7</ele>
        <time>2013-01-30T13:29:26.000Z</time>
      </trkpt>
      <trkpt lat="43.98226" lon="5.11489">
        <ele>299.1</ele>
        <time>2013-01-30T13:29:27.000Z</time>
      </trkpt>
      <trkpt lat="43.98228" lon="5.11492">
        <ele>299.2</ele>
        <time>2013-01-30T13:29:28.000Z</time>
      </trkpt>
      <trkpt lat="43.9823" lon="5.11493">
        <ele>298.9</ele>
        <time>2013-01-30T13:29:29.000Z</time>
      </trkpt>
      <trkpt lat="43.98234" lon="5.11504">
        <ele>295.8</ele>
        <time>2013-01-30T13:29:30.000Z</time>
      </trkpt>
      <trkpt lat="43.98236" lon="5.11508">
        <ele>293.6</ele>
        <time>2013-01-30T13:29:31.000Z</time>
      </trkpt>
      <trkpt lat="43.98239" lon="5.11513">
        <ele>290.8</ele>
        <time>2013-01-30T13:29:32.000Z</time>
      </trkpt>
      <trkpt lat="43.9824" lon="5.11517">
        <ele>289.4</ele>
        <time>2013-01-30T13:29:33.000Z</time>
      </trkpt>
      <trkpt lat="43.98241" lon="5.11521">
        <ele>287.9</ele>
        <time>2013-01-30T13:29:34.000Z</time>
      </trkpt>
      <trkpt lat="43.98233" lon="5.11514">
        <ele>287.5</ele>
        <time>2013-01-30T13:29:35.000Z</time>
      </trkpt>
      <trkpt lat="43.98231" lon="5.11513">
        <ele>286.9</ele>
        <time>2013-01-30T13:29:36.000Z</time>
      </trkpt>
      <trkpt lat="43.98228" lon="5.11513">
        <ele>286.9</ele>
        <time>2013-01-30T13:29:37.000Z</time>
      </trkpt>
      <trkpt lat="43.98224" lon="5.11512">
        <ele>286.6</ele>
        <time>2013-01-30T13:29:39.000Z</time>
      </trkpt>
      <trkpt lat="43.98222" lon="5.11512">
        <ele>287</ele>
        <time>2013-01-30T13:29:40.000Z</time>
      </trkpt>
      <trkpt lat="43.98218" lon="5.11513">
        <ele>284.5</ele>
        <time>2013-01-30T13:29:41.000Z</time>
      </trkpt>
      <trkpt lat="43.98214" lon="5.11512">
        <ele>285</ele>
        <time>2013-01-30T13:29:42.000Z</time>
      </trkpt>
      <trkpt lat="43.98211" lon="5.11512">
        <ele>285.1</ele>
        <time>2013-01-30T13:29:43.000Z</time>
      </trkpt>
      <trkpt lat="43.98209" lon="5.11511">
        <ele>284.8</ele>
        <time>2013-01-30T13:29:44.000Z</time>
      </trkpt>
      <trkpt lat="43.98204" lon="5.1151">
        <ele>286.8</ele>
        <time>2013-01-30T13:29:46.000Z</time>
      </trkpt>
      <trkpt lat="43.98201" lon="5.11509">
        <ele>285.6</ele>
        <time>2013-01-30T13:29:47.000Z</time>
      </trkpt>
      <trkpt lat="43.98198" lon="5.11508">
        <ele>285.6</ele>
        <time>2013-01-30T13:29:48.000Z</time>
      </trkpt>
      <trkpt lat="43.98196" lon="5.11508">
        <ele>285.1</ele>
        <time>2013-01-30T13:29:49.000Z</time>
      </trkpt>
      <trkpt lat="43.98193" lon="5.11508">
        <ele>284.5</ele>
        <time>2013-01-30T13:29:50.000Z</time>
      </trkpt>
      <trkpt lat="43.9819" lon="5.11507">
        <ele>284.7</ele>
        <time>2013-01-30T13:29:51.000Z</time>
      </trkpt>
      <trkpt lat="43.98187" lon="5.11505">
        <ele>286.6</ele>
        <time>2013-01-30T13:29:54.000Z</time>
      </trkpt>
      <trkpt lat="43.98185" lon="5.11505">
        <ele>286</ele>
        <time>2013-01-30T13:29:55.000Z</time>
      </trkpt>
      <trkpt lat="43.98181" lon="5.11504">
        <ele>285.6</ele>
        <time>2013-01-30T13:29:58.000Z</time>
      </trkpt>
      <trkpt lat="43.98178" lon="5.11501">
        <ele>288.9</ele>
        <time>2013-01-30T13:29:59.000Z</time>
      </trkpt>
      <trkpt lat="43.98174" lon="5.11499">
        <ele>290.9</ele>
        <time>2013-01-30T13:30:01.000Z</time>
      </trkpt>
      <trkpt lat="43.98172" lon="5.11498">
        <ele>291.3</ele>
        <time>2013-01-30T13:30:02.000Z</time>
      </trkpt>
      <trkpt lat="43.9817" lon="5.11498">
        <ele>291.4</ele>
        <time>2013-01-30T13:30:03.000Z</time>
      </trkpt>
      <trkpt lat="43.98167" lon="5.11497">
        <ele>292.5</ele>
        <time>2013-01-30T13:30:04.000Z</time>
      </trkpt>
      <trkpt lat="43.98165" lon="5.11495">
        <ele>293.2</ele>
        <time>2013-01-30T13:30:05.000Z</time>
      </trkpt>
      <trkpt lat="43.98163" lon="5.11493">
        <ele>293.4</ele>
        <time>2013-01-30T13:30:06.000Z</time>
      </trkpt>
      <trkpt lat="43.98161" lon="5.11491">
        <ele>293.6</ele>
        <time>2013-01-30T13:30:07.000Z</time>
      </trkpt>
      <trkpt lat="43.98159" lon="5.1149">
        <ele>290.3</ele>
        <time>2013-01-30T13:30:08.000Z</time>
      </trkpt>
      <trkpt lat="43.98155" lon="5.11488">
        <ele>289</ele>
        <time>2013-01-30T13:30:11.000Z</time>
      </trkpt>
      <trkpt lat="43.98154" lon="5.11487">
        <ele>288.2</ele>
        <time>2013-01-30T13:30:12.000Z</time>
      </trkpt>
      <trkpt lat="43.98152" lon="5.11486">
        <ele>287.8</ele>
        <time>2013-01-30T13:30:13.000Z</time>
      </trkpt>
      <trkpt lat="43.98149" lon="5.11485">
        <ele>286.9</ele>
        <time>2013-01-30T13:30:14.000Z</time>
      </trkpt>
      <trkpt lat="43.98145" lon="5.11483">
        <ele>286.3</ele>
        <time>2013-01-30T13:30:16.000Z</time>
      </trkpt>
      <trkpt lat="43.98144" lon="5.11483">
        <ele>286.2</ele>
        <time>2013-01-30T13:30:17.000Z</time>
      </trkpt>
      <trkpt lat="43.98141" lon="5.11481">
        <ele>286.4</ele>
        <time>2013-01-30T13:30:19.000Z</time>
      </trkpt>
      <trkpt lat="43.98137" lon="5.11481">
        <ele>285.9</ele>
        <time>2013-01-30T13:30:20.000Z</time>
      </trkpt>
      <trkpt lat="43.98135" lon="5.1148">
        <ele>285.8</ele>
        <time>2013-01-30T13:30:21.000Z</time>
      </trkpt>
      <trkpt lat="43.98132" lon="5.11481">
        <ele>286.7</ele>
        <time>2013-01-30T13:30:22.000Z</time>
      </trkpt>
      <trkpt lat="43.9813" lon="5.1148">
        <ele>287.2</ele>
        <time>2013-01-30T13:30:23.000Z</time>
      </trkpt>
      <trkpt lat="43.98127" lon="5.1148">
        <ele>287.5</ele>
        <time>2013-01-30T13:30:24.000Z</time>
      </trkpt>
      <trkpt lat="43.98123" lon="5.11481">
        <ele>286.6</ele>
        <time>2013-01-30T13:30:26.000Z</time>
      </trkpt>
      <trkpt lat="43.9812" lon="5.11481">
        <ele>287.3</ele>
        <time>2013-01-30T13:30:27.000Z</time>
      </trkpt>
      <trkpt lat="43.98118" lon="5.11481">
        <ele>287.3</ele>
        <time>2013-01-30T13:30:28.000Z</time>
      </trkpt>
      <trkpt lat="43.98115" lon="5.11482">
        <ele>287.2</ele>
        <time>2013-01-30T13:30:29.000Z</time>
      </trkpt>
      <trkpt lat="43.98111" lon="5.11483">
        <ele>286.6</ele>
        <time>2013-01-30T13:30:31.000Z</time>
      </trkpt>
      <trkpt lat="43.98108" lon="5.11483">
        <ele>286.5</ele>
        <time>2013-01-30T13:30:32.000Z</time>
      </trkpt>
      <trkpt lat="43.98104" lon="5.11483">
        <ele>286.7</ele>
        <time>2013-01-30T13:30:34.000Z</time>
      </trkpt>
      <trkpt lat="43.98102" lon="5.11485">
        <ele>286</ele>
        <time>2013-01-30T13:30:35.000Z</time>
      </trkpt>
      <trkpt lat="43.98099" lon="5.11485">
        <ele>287</ele>
        <time>2013-01-30T13:30:37.000Z</time>
      </trkpt>
      <trkpt lat="43.98097" lon="5.11485">
        <ele>288.4</ele>
        <time>2013-01-30T13:30:38.000Z</time>
      </trkpt>
      <trkpt lat="43.98094" lon="5.11483">
        <ele>291.3</ele>
        <time>2013-01-30T13:30:41.000Z</time>
      </trkpt>
      <trkpt lat="43.98089" lon="5.11483">
        <ele>290</ele>
        <time>2013-01-30T13:30:42.000Z</time>
      </trkpt>
      <trkpt lat="43.98086" lon="5.11483">
        <ele>289.8</ele>
        <time>2013-01-30T13:30:43.000Z</time>
      </trkpt>
      <trkpt lat="43.98085" lon="5.11483">
        <ele>291.2</ele>
        <time>2013-01-30T13:30:44.000Z</time>
      </trkpt>
      <trkpt lat="43.98082" lon="5.11484">
        <ele>291.8</ele>
        <time>2013-01-30T13:30:45.000Z</time>
      </trkpt>
      <trkpt lat="43.9808" lon="5.11484">
        <ele>291.4</ele>
        <time>2013-01-30T13:30:46.000Z</time>
      </trkpt>
      <trkpt lat="43.98077" lon="5.11483">
        <ele>291.7</ele>
        <time>2013-01-30T13:30:47.000Z</time>
      </trkpt>
      <trkpt lat="43.98075" lon="5.11483">
        <ele>291.6</ele>
        <time>2013-01-30T13:30:48.000Z</time>
      </trkpt>
      <trkpt lat="43.98072" lon="5.11483">
        <ele>292.1</ele>
        <time>2013-01-30T13:30:49.000Z</time>
      </trkpt>
      <trkpt lat="43.9807" lon="5.11483">
        <ele>292.1</ele>
        <time>2013-01-30T13:30:50.000Z</time>
      </trkpt>
      <trkpt lat="43.98065" lon="5.11483">
        <ele>293.2</ele>
        <time>2013-01-30T13:30:52.000Z</time>
      </trkpt>
      <trkpt lat="43.98063" lon="5.11483">
        <ele>292.8</ele>
        <time>2013-01-30T13:30:53.000Z</time>
      </trkpt>
      <trkpt lat="43.98059" lon="5.11484">
        <ele>293.3</ele>
        <time>2013-01-30T13:30:55.000Z</time>
      </trkpt>
      <trkpt lat="43.98057" lon="5.11484">
        <ele>293.3</ele>
        <time>2013-01-30T13:30:56.000Z</time>
      </trkpt>
      <trkpt lat="43.98053" lon="5.11485">
        <ele>297.6</ele>
        <time>2013-01-30T13:31:00.000Z</time>
      </trkpt>
      <trkpt lat="43.98051" lon="5.11485">
        <ele>297.7</ele>
        <time>2013-01-30T13:31:01.000Z</time>
      </trkpt>
      <trkpt lat="43.98047" lon="5.11486">
        <ele>297.8</ele>
        <time>2013-01-30T13:31:04.000Z</time>
      </trkpt>
      <trkpt lat="43.98046" lon="5.11486">
        <ele>297.9</ele>
        <time>2013-01-30T13:31:05.000Z</time>
      </trkpt>
      <trkpt lat="43.98042" lon="5.11487">
        <ele>297.5</ele>
        <time>2013-01-30T13:31:08.000Z</time>
      </trkpt>
      <trkpt lat="43.98041" lon="5.11486">
        <ele>297.4</ele>
        <time>2013-01-30T13:31:09.000Z</time>
      </trkpt>
      <trkpt lat="43.9804" lon="5.11486">
        <ele>299.6</ele>
        <time>2013-01-30T13:31:10.000Z</time>
      </trkpt>
      <trkpt lat="43.98036" lon="5.11487">
        <ele>296.3</ele>
        <time>2013-01-30T13:31:11.000Z</time>
      </trkpt>
      <trkpt lat="43.98033" lon="5.11487">
        <ele>299</ele>
        <time>2013-01-30T13:31:13.000Z</time>
      </trkpt>
      <trkpt lat="43.98031" lon="5.11487">
        <ele>300.2</ele>
        <time>2013-01-30T13:31:14.000Z</time>
      </trkpt>
      <trkpt lat="43.98028" lon="5.11488">
        <ele>301.4</ele>
        <time>2013-01-30T13:31:16.000Z</time>
      </trkpt>
      <trkpt lat="43.98026" lon="5.11489">
        <ele>301.7</ele>
        <time>2013-01-30T13:31:17.000Z</time>
      </trkpt>
      <trkpt lat="43.98023" lon="5.11492">
        <ele>304.3</ele>
        <time>2013-01-30T13:31:20.000Z</time>
      </trkpt>
      <trkpt lat="43.9802" lon="5.11493">
        <ele>303.4</ele>
        <time>2013-01-30T13:31:21.000Z</time>
      </trkpt>
      <trkpt lat="43.98018" lon="5.11494">
        <ele>304.4</ele>
        <time>2013-01-30T13:31:23.000Z</time>
      </trkpt>
      <trkpt lat="43.98016" lon="5.11495">
        <ele>303.6</ele>
        <time>2013-01-30T13:31:24.000Z</time>
      </trkpt>
      <trkpt lat="43.98012" lon="5.11495">
        <ele>304.7</ele>
        <time>2013-01-30T13:31:26.000Z</time>
      </trkpt>
      <trkpt lat="43.98011" lon="5.11494">
        <ele>305.9</ele>
        <time>2013-01-30T13:31:27.000Z</time>
      </trkpt>
      <trkpt lat="43.98006" lon="5.11496">
        <ele>306.5</ele>
        <time>2013-01-30T13:31:29.000Z</time>
      </trkpt>
      <trkpt lat="43.98003" lon="5.11496">
        <ele>306.2</ele>
        <time>2013-01-30T13:31:30.000Z</time>
      </trkpt>
      <trkpt lat="43.98001" lon="5.11497">
        <ele>305.4</ele>
        <time>2013-01-30T13:31:31.000Z</time>
      </trkpt>
      <trkpt lat="43.97999" lon="5.11497">
        <ele>305.4</ele>
        <time>2013-01-30T13:31:32.000Z</time>
      </trkpt>
      <trkpt lat="43.97997" lon="5.11498">
        <ele>304.8</ele>
        <time>2013-01-30T13:31:33.000Z</time>
      </trkpt>
      <trkpt lat="43.97993" lon="5.11497">
        <ele>303.8</ele>
        <time>2013-01-30T13:31:34.000Z</time>
      </trkpt>
      <trkpt lat="43.97991" lon="5.11498">
        <ele>303.6</ele>
        <time>2013-01-30T13:31:35.000Z</time>
      </trkpt>
      <trkpt lat="43.97989" lon="5.11497">
        <ele>303.6</ele>
        <time>2013-01-30T13:31:36.000Z</time>
      </trkpt>
      <trkpt lat="43.97985" lon="5.11497">
        <ele>303.2</ele>
        <time>2013-01-30T13:31:38.000Z</time>
      </trkpt>
      <trkpt lat="43.97983" lon="5.11497">
        <ele>303.6</ele>
        <time>2013-01-30T13:31:39.000Z</time>
      </trkpt>
      <trkpt lat="43.9798" lon="5.11497">
        <ele>304.7</ele>
        <time>2013-01-30T13:31:41.000Z</time>
      </trkpt>
      <trkpt lat="43.97978" lon="5.11497">
        <ele>305.2</ele>
        <time>2013-01-30T13:31:42.000Z</time>
      </trkpt>
      <trkpt lat="43.97975" lon="5.11492">
        <ele>307.2</ele>
        <time>2013-01-30T13:31:45.000Z</time>
      </trkpt>
      <trkpt lat="43.97976" lon="5.11483">
        <ele>310</ele>
        <time>2013-01-30T13:31:46.000Z</time>
      </trkpt>
      <trkpt lat="43.97976" lon="5.11473">
        <ele>313.1</ele>
        <time>2013-01-30T13:31:47.000Z</time>
      </trkpt>
      <trkpt lat="43.97971" lon="5.11479">
        <ele>317.7</ele>
        <time>2013-01-30T13:31:48.000Z</time>
      </trkpt>
      <trkpt lat="43.97969" lon="5.11475">
        <ele>320.6</ele>
        <time>2013-01-30T13:31:49.000Z</time>
      </trkpt>
      <trkpt lat="43.97968" lon="5.11474">
        <ele>321.5</ele>
        <time>2013-01-30T13:31:50.000Z</time>
      </trkpt>
      <trkpt lat="43.97966" lon="5.11474">
        <ele>323.4</ele>
        <time>2013-01-30T13:31:51.000Z</time>
      </trkpt>
      <trkpt lat="43.97963" lon="5.11476">
        <ele>324.1</ele>
        <time>2013-01-30T13:31:52.000Z</time>
      </trkpt>
      <trkpt lat="43.97959" lon="5.11478">
        <ele>325.7</ele>
        <time>2013-01-30T13:31:56.000Z</time>
      </trkpt>
      <trkpt lat="43.97959" lon="5.11479">
        <ele>327.3</ele>
        <time>2013-01-30T13:31:57.000Z</time>
      </trkpt>
      <trkpt lat="43.97957" lon="5.11478">
        <ele>330.4</ele>
        <time>2013-01-30T13:31:59.000Z</time>
      </trkpt>
      <trkpt lat="43.97953" lon="5.1148">
        <ele>327.3</ele>
        <time>2013-01-30T13:32:00.000Z</time>
      </trkpt>
      <trkpt lat="43.97949" lon="5.11481">
        <ele>326.7</ele>
        <time>2013-01-30T13:32:02.000Z</time>
      </trkpt>
      <trkpt lat="43.97946" lon="5.11483">
        <ele>325.8</ele>
        <time>2013-01-30T13:32:03.000Z</time>
      </trkpt>
      <trkpt lat="43.97944" lon="5.11482">
        <ele>327.2</ele>
        <time>2013-01-30T13:32:04.000Z</time>
      </trkpt>
      <trkpt lat="43.97941" lon="5.11483">
        <ele>325.6</ele>
        <time>2013-01-30T13:32:05.000Z</time>
      </trkpt>
      <trkpt lat="43.97937" lon="5.11483">
        <ele>336.4</ele>
        <time>2013-01-30T13:32:10.000Z</time>
      </trkpt>
      <trkpt lat="43.97935" lon="5.11483">
        <ele>337.7</ele>
        <time>2013-01-30T13:32:11.000Z</time>
      </trkpt>
      <trkpt lat="43.97932" lon="5.11486">
        <ele>336.8</ele>
        <time>2013-01-30T13:32:13.000Z</time>
      </trkpt>
      <trkpt lat="43.9793" lon="5.11487">
        <ele>336.9</ele>
        <time>2013-01-30T13:32:14.000Z</time>
      </trkpt>
      <trkpt lat="43.97927" lon="5.11489">
        <ele>336.1</ele>
        <time>2013-01-30T13:32:16.000Z</time>
      </trkpt>
      <trkpt lat="43.97925" lon="5.11486">
        <ele>343</ele>
        <time>2013-01-30T13:32:17.000Z</time>
      </trkpt>
      <trkpt lat="43.97922" lon="5.11486">
        <ele>340.6</ele>
        <time>2013-01-30T13:32:18.000Z</time>
      </trkpt>
      <trkpt lat="43.97919" lon="5.11487">
        <ele>339.7</ele>
        <time>2013-01-30T13:32:19.000Z</time>
      </trkpt>
      <trkpt lat="43.97917" lon="5.11486">
        <ele>340.3</ele>
        <time>2013-01-30T13:32:20.000Z</time>
      </trkpt>
      <trkpt lat="43.97911" lon="5.11489">
        <ele>337.4</ele>
        <time>2013-01-30T13:32:21.000Z</time>
      </trkpt>
      <trkpt lat="43.97908" lon="5.1149">
        <ele>335.5</ele>
        <time>2013-01-30T13:32:22.000Z</time>
      </trkpt>
      <trkpt lat="43.97905" lon="5.11491">
        <ele>334.5</ele>
        <time>2013-01-30T13:32:23.000Z</time>
      </trkpt>
      <trkpt lat="43.97901" lon="5.11492">
        <ele>332.4</ele>
        <time>2013-01-30T13:32:24.000Z</time>
      </trkpt>
      <trkpt lat="43.97899" lon="5.11492">
        <ele>331.5</ele>
        <time>2013-01-30T13:32:25.000Z</time>
      </trkpt>
      <trkpt lat="43.97896" lon="5.11492">
        <ele>330.7</ele>
        <time>2013-01-30T13:32:27.000Z</time>
      </trkpt>
      <trkpt lat="43.97893" lon="5.11496">
        <ele>327.5</ele>
        <time>2013-01-30T13:32:28.000Z</time>
      </trkpt>
      <trkpt lat="43.97892" lon="5.11497">
        <ele>328.3</ele>
        <time>2013-01-30T13:32:29.000Z</time>
      </trkpt>
      <trkpt lat="43.97889" lon="5.11499">
        <ele>326.2</ele>
        <time>2013-01-30T13:32:30.000Z</time>
      </trkpt>
      <trkpt lat="43.97885" lon="5.115">
        <ele>323.8</ele>
        <time>2013-01-30T13:32:32.000Z</time>
      </trkpt>
      <trkpt lat="43.97884" lon="5.11501">
        <ele>322.6</ele>
        <time>2013-01-30T13:32:33.000Z</time>
      </trkpt>
      <trkpt lat="43.9788" lon="5.11503">
        <ele>322.5</ele>
        <time>2013-01-30T13:32:35.000Z</time>
      </trkpt>
      <trkpt lat="43.97879" lon="5.11504">
        <ele>322.6</ele>
        <time>2013-01-30T13:32:36.000Z</time>
      </trkpt>
      <trkpt lat="43.97875" lon="5.11507">
        <ele>321.6</ele>
        <time>2013-01-30T13:32:38.000Z</time>
      </trkpt>
      <trkpt lat="43.97874" lon="5.11508">
        <ele>320.4</ele>
        <time>2013-01-30T13:32:39.000Z</time>
      </trkpt>
      <trkpt lat="43.97871" lon="5.11511">
        <ele>318.1</ele>
        <time>2013-01-30T13:32:41.000Z</time>
      </trkpt>
      <trkpt lat="43.97869" lon="5.11513">
        <ele>317.4</ele>
        <time>2013-01-30T13:32:42.000Z</time>
      </trkpt>
      <trkpt lat="43.97866" lon="5.11516">
        <ele>318.7</ele>
        <time>2013-01-30T13:32:44.000Z</time>
      </trkpt>
      <trkpt lat="43.97864" lon="5.11517">
        <ele>319.5</ele>
        <time>2013-01-30T13:32:45.000Z</time>
      </trkpt>
      <trkpt lat="43.97861" lon="5.11519">
        <ele>320.7</ele>
        <time>2013-01-30T13:32:47.000Z</time>
      </trkpt>
      <trkpt lat="43.9786" lon="5.1152">
        <ele>320.6</ele>
        <time>2013-01-30T13:32:48.000Z</time>
      </trkpt>
      <trkpt lat="43.97856" lon="5.11522">
        <ele>320.3</ele>
        <time>2013-01-30T13:32:51.000Z</time>
      </trkpt>
      <trkpt lat="43.97855" lon="5.11524">
        <ele>320.1</ele>
        <time>2013-01-30T13:32:52.000Z</time>
      </trkpt>
      <trkpt lat="43.97854" lon="5.11525">
        <ele>320</ele>
        <time>2013-01-30T13:32:53.000Z</time>
      </trkpt>
      <trkpt lat="43.9785" lon="5.11526">
        <ele>319.8</ele>
        <time>2013-01-30T13:32:54.000Z</time>
      </trkpt>
      <trkpt lat="43.97848" lon="5.11526">
        <ele>318.8</ele>
        <time>2013-01-30T13:32:55.000Z</time>
      </trkpt>
      <trkpt lat="43.97844" lon="5.11526">
        <ele>318.3</ele>
        <time>2013-01-30T13:32:56.000Z</time>
      </trkpt>
      <trkpt lat="43.9784" lon="5.11526">
        <ele>319.1</ele>
        <time>2013-01-30T13:32:59.000Z</time>
      </trkpt>
      <trkpt lat="43.97838" lon="5.11527">
        <ele>318.7</ele>
        <time>2013-01-30T13:33:00.000Z</time>
      </trkpt>
      <trkpt lat="43.97833" lon="5.11528">
        <ele>317.3</ele>
        <time>2013-01-30T13:33:02.000Z</time>
      </trkpt>
      <trkpt lat="43.97831" lon="5.11528">
        <ele>317</ele>
        <time>2013-01-30T13:33:03.000Z</time>
      </trkpt>
      <trkpt lat="43.97827" lon="5.11527">
        <ele>316.2</ele>
        <time>2013-01-30T13:33:06.000Z</time>
      </trkpt>
      <trkpt lat="43.97827" lon="5.11527">
        <ele>317.9</ele>
        <time>2013-01-30T13:33:07.000Z</time>
      </trkpt>
      <trkpt lat="43.97823" lon="5.11528">
        <ele>317.9</ele>
        <time>2013-01-30T13:33:10.000Z</time>
      </trkpt>
      <trkpt lat="43.97821" lon="5.11528">
        <ele>317.2</ele>
        <time>2013-01-30T13:33:11.000Z</time>
      </trkpt>
      <trkpt lat="43.97818" lon="5.11527">
        <ele>317.1</ele>
        <time>2013-01-30T13:33:13.000Z</time>
      </trkpt>
      <trkpt lat="43.97815" lon="5.11526">
        <ele>316.8</ele>
        <time>2013-01-30T13:33:14.000Z</time>
      </trkpt>
      <trkpt lat="43.97813" lon="5.11526">
        <ele>316.7</ele>
        <time>2013-01-30T13:33:15.000Z</time>
      </trkpt>
      <trkpt lat="43.9781" lon="5.11527">
        <ele>312.9</ele>
        <time>2013-01-30T13:33:16.000Z</time>
      </trkpt>
      <trkpt lat="43.97807" lon="5.11527">
        <ele>312.7</ele>
        <time>2013-01-30T13:33:17.000Z</time>
      </trkpt>
      <trkpt lat="43.97805" lon="5.11526">
        <ele>313</ele>
        <time>2013-01-30T13:33:18.000Z</time>
      </trkpt>
      <trkpt lat="43.97801" lon="5.11526">
        <ele>314.1</ele>
        <time>2013-01-30T13:33:21.000Z</time>
      </trkpt>
      <trkpt lat="43.978" lon="5.11526">
        <ele>313.7</ele>
        <time>2013-01-30T13:33:22.000Z</time>
      </trkpt>
      <trkpt lat="43.97795" lon="5.11525">
        <ele>313.9</ele>
        <time>2013-01-30T13:33:24.000Z</time>
      </trkpt>
      <trkpt lat="43.97794" lon="5.11524">
        <ele>314.3</ele>
        <time>2013-01-30T13:33:25.000Z</time>
      </trkpt>
      <trkpt lat="43.97792" lon="5.11522">
        <ele>316</ele>
        <time>2013-01-30T13:33:27.000Z</time>
      </trkpt>
      <trkpt lat="43.9779" lon="5.11521">
        <ele>316.4</ele>
        <time>2013-01-30T13:33:28.000Z</time>
      </trkpt>
      <trkpt lat="43.97785" lon="5.11521">
        <ele>316.3</ele>
        <time>2013-01-30T13:33:31.000Z</time>
      </trkpt>
      <trkpt lat="43.97785" lon="5.11521">
        <ele>317.2</ele>
        <time>2013-01-30T13:33:32.000Z</time>
      </trkpt>
      <trkpt lat="43.9778" lon="5.11519">
        <ele>317.8</ele>
        <time>2013-01-30T13:33:35.000Z</time>
      </trkpt>
      <trkpt lat="43.97778" lon="5.11518">
        <ele>317.2</ele>
        <time>2013-01-30T13:33:36.000Z</time>
      </trkpt>
      <trkpt lat="43.97776" lon="5.11517">
        <ele>317.5</ele>
        <time>2013-01-30T13:33:38.000Z</time>
      </trkpt>
      <trkpt lat="43.97774" lon="5.11517">
        <ele>317.9</ele>
        <time>2013-01-30T13:33:39.000Z</time>
      </trkpt>
      <trkpt lat="43.9777" lon="5.11515">
        <ele>321</ele>
        <time>2013-01-30T13:33:43.000Z</time>
      </trkpt>
      <trkpt lat="43.97768" lon="5.11514">
        <ele>320.9</ele>
        <time>2013-01-30T13:33:44.000Z</time>
      </trkpt>
      <trkpt lat="43.97764" lon="5.11513">
        <ele>320.5</ele>
        <time>2013-01-30T13:33:47.000Z</time>
      </trkpt>
      <trkpt lat="43.97762" lon="5.11513">
        <ele>321.1</ele>
        <time>2013-01-30T13:33:48.000Z</time>
      </trkpt>
      <trkpt lat="43.97758" lon="5.11512">
        <ele>321.3</ele>
        <time>2013-01-30T13:33:50.000Z</time>
      </trkpt>
      <trkpt lat="43.97757" lon="5.11513">
        <ele>321.2</ele>
        <time>2013-01-30T13:33:51.000Z</time>
      </trkpt>
      <trkpt lat="43.97753" lon="5.11514">
        <ele>322.1</ele>
        <time>2013-01-30T13:33:54.000Z</time>
      </trkpt>
      <trkpt lat="43.97752" lon="5.11514">
        <ele>322.2</ele>
        <time>2013-01-30T13:33:55.000Z</time>
      </trkpt>
      <trkpt lat="43.97748" lon="5.11514">
        <ele>322.2</ele>
        <time>2013-01-30T13:33:58.000Z</time>
      </trkpt>
      <trkpt lat="43.97746" lon="5.11515">
        <ele>322.7</ele>
        <time>2013-01-30T13:33:59.000Z</time>
      </trkpt>
      <trkpt lat="43.97742" lon="5.11515">
        <ele>324.3</ele>
        <time>2013-01-30T13:34:02.000Z</time>
      </trkpt>
      <trkpt lat="43.97741" lon="5.11515">
        <ele>325.1</ele>
        <time>2013-01-30T13:34:03.000Z</time>
      </trkpt>
      <trkpt lat="43.97737" lon="5.11516">
        <ele>326</ele>
        <time>2013-01-30T13:34:05.000Z</time>
      </trkpt>
      <trkpt lat="43.97735" lon="5.11516">
        <ele>326.2</ele>
        <time>2013-01-30T13:34:06.000Z</time>
      </trkpt>
      <trkpt lat="43.97731" lon="5.11517">
        <ele>327.1</ele>
        <time>2013-01-30T13:34:09.000Z</time>
      </trkpt>
      <trkpt lat="43.97729" lon="5.11517">
        <ele>327.4</ele>
        <time>2013-01-30T13:34:10.000Z</time>
      </trkpt>
      <trkpt lat="43.97726" lon="5.11519">
        <ele>326.8</ele>
        <time>2013-01-30T13:34:12.000Z</time>
      </trkpt>
      <trkpt lat="43.97725" lon="5.1152">
        <ele>326.6</ele>
        <time>2013-01-30T13:34:13.000Z</time>
      </trkpt>
      <trkpt lat="43.97722" lon="5.11521">
        <ele>326.6</ele>
        <time>2013-01-30T13:34:15.000Z</time>
      </trkpt>
      <trkpt lat="43.9772" lon="5.11521">
        <ele>326.6</ele>
        <time>2013-01-30T13:34:16.000Z</time>
      </trkpt>
      <trkpt lat="43.97716" lon="5.11521">
        <ele>326.1</ele>
        <time>2013-01-30T13:34:18.000Z</time>
      </trkpt>
      <trkpt lat="43.97714" lon="5.11522">
        <ele>325.8</ele>
        <time>2013-01-30T13:34:19.000Z</time>
      </trkpt>
      <trkpt lat="43.9771" lon="5.11524">
        <ele>327.2</ele>
        <time>2013-01-30T13:34:21.000Z</time>
      </trkpt>
      <trkpt lat="43.97709" lon="5.11524">
        <ele>327.5</ele>
        <time>2013-01-30T13:34:22.000Z</time>
      </trkpt>
      <trkpt lat="43.97705" lon="5.11525">
        <ele>327</ele>
        <time>2013-01-30T13:34:25.000Z</time>
      </trkpt>
      <trkpt lat="43.97704" lon="5.11525">
        <ele>326.8</ele>
        <time>2013-01-30T13:34:26.000Z</time>
      </trkpt>
      <trkpt lat="43.97702" lon="5.11525">
        <ele>326.9</ele>
        <time>2013-01-30T13:34:27.000Z</time>
      </trkpt>
      <trkpt lat="43.97696" lon="5.11527">
        <ele>325.5</ele>
        <time>2013-01-30T13:34:28.000Z</time>
      </trkpt>
      <trkpt lat="43.97694" lon="5.11528">
        <ele>324.2</ele>
        <time>2013-01-30T13:34:29.000Z</time>
      </trkpt>
      <trkpt lat="43.97691" lon="5.11529">
        <ele>323.8</ele>
        <time>2013-01-30T13:34:30.000Z</time>
      </trkpt>
      <trkpt lat="43.97687" lon="5.11528">
        <ele>323.3</ele>
        <time>2013-01-30T13:34:32.000Z</time>
      </trkpt>
      <trkpt lat="43.97687" lon="5.1153">
        <ele>323.4</ele>
        <time>2013-01-30T13:34:33.000Z</time>
      </trkpt>
      <trkpt lat="43.97684" lon="5.11532">
        <ele>323</ele>
        <time>2013-01-30T13:34:35.000Z</time>
      </trkpt>
      <trkpt lat="43.97682" lon="5.11534">
        <ele>323.1</ele>
        <time>2013-01-30T13:34:36.000Z</time>
      </trkpt>
      <trkpt lat="43.9768" lon="5.11536">
        <ele>322.4</ele>
        <time>2013-01-30T13:34:38.000Z</time>
      </trkpt>
      <trkpt lat="43.9768" lon="5.1154">
        <ele>322.2</ele>
        <time>2013-01-30T13:34:39.000Z</time>
      </trkpt>
      <trkpt lat="43.97676" lon="5.1154">
        <ele>324</ele>
        <time>2013-01-30T13:34:41.000Z</time>
      </trkpt>
      <trkpt lat="43.97674" lon="5.11541">
        <ele>323.5</ele>
        <time>2013-01-30T13:34:42.000Z</time>
      </trkpt>
      <trkpt lat="43.97673" lon="5.11542">
        <ele>323.4</ele>
        <time>2013-01-30T13:34:43.000Z</time>
      </trkpt>
      <trkpt lat="43.97668" lon="5.11543">
        <ele>323.2</ele>
        <time>2013-01-30T13:34:45.000Z</time>
      </trkpt>
      <trkpt lat="43.97665" lon="5.11543">
        <ele>323.1</ele>
        <time>2013-01-30T13:34:46.000Z</time>
      </trkpt>
      <trkpt lat="43.97663" lon="5.11542">
        <ele>322.9</ele>
        <time>2013-01-30T13:34:47.000Z</time>
      </trkpt>
      <trkpt lat="43.97659" lon="5.11544">
        <ele>322.2</ele>
        <time>2013-01-30T13:34:49.000Z</time>
      </trkpt>
      <trkpt lat="43.97657" lon="5.11545">
        <ele>322.1</ele>
        <time>2013-01-30T13:34:50.000Z</time>
      </trkpt>
      <trkpt lat="43.97655" lon="5.11546">
        <ele>321.9</ele>
        <time>2013-01-30T13:34:51.000Z</time>
      </trkpt>
      <trkpt lat="43.97652" lon="5.11547">
        <ele>321.8</ele>
        <time>2013-01-30T13:34:52.000Z</time>
      </trkpt>
      <trkpt lat="43.97649" lon="5.11547">
        <ele>321.2</ele>
        <time>2013-01-30T13:34:54.000Z</time>
      </trkpt>
      <trkpt lat="43.97646" lon="5.11547">
        <ele>320.8</ele>
        <time>2013-01-30T13:34:55.000Z</time>
      </trkpt>
      <trkpt lat="43.97642" lon="5.11549">
        <ele>321.1</ele>
        <time>2013-01-30T13:34:57.000Z</time>
      </trkpt>
      <trkpt lat="43.9764" lon="5.11552">
        <ele>319.9</ele>
        <time>2013-01-30T13:34:58.000Z</time>
      </trkpt>
      <trkpt lat="43.97637" lon="5.11553">
        <ele>320.1</ele>
        <time>2013-01-30T13:35:00.000Z</time>
      </trkpt>
      <trkpt lat="43.97634" lon="5.11554">
        <ele>319.9</ele>
        <time>2013-01-30T13:35:01.000Z</time>
      </trkpt>
      <trkpt lat="43.97631" lon="5.11555">
        <ele>320.2</ele>
        <time>2013-01-30T13:35:03.000Z</time>
      </trkpt>
      <trkpt lat="43.97629" lon="5.11555">
        <ele>320</ele>
        <time>2013-01-30T13:35:04.000Z</time>
      </trkpt>
      <trkpt lat="43.97625" lon="5.11557">
        <ele>320.1</ele>
        <time>2013-01-30T13:35:06.000Z</time>
      </trkpt>
      <trkpt lat="43.97623" lon="5.11558">
        <ele>319.9</ele>
        <time>2013-01-30T13:35:07.000Z</time>
      </trkpt>
      <trkpt lat="43.9762" lon="5.11558">
        <ele>319.6</ele>
        <time>2013-01-30T13:35:09.000Z</time>
      </trkpt>
      <trkpt lat="43.97618" lon="5.11558">
        <ele>319.3</ele>
        <time>2013-01-30T13:35:10.000Z</time>
      </trkpt>
      <trkpt lat="43.97615" lon="5.11559">
        <ele>319.5</ele>
        <time>2013-01-30T13:35:12.000Z</time>
      </trkpt>
      <trkpt lat="43.97614" lon="5.1156">
        <ele>319.3</ele>
        <time>2013-01-30T13:35:13.000Z</time>
      </trkpt>
      <trkpt lat="43.9761" lon="5.11561">
        <ele>319.7</ele>
        <time>2013-01-30T13:35:16.000Z</time>
      </trkpt>
      <trkpt lat="43.97609" lon="5.11562">
        <ele>320.3</ele>
        <time>2013-01-30T13:35:17.000Z</time>
      </trkpt>
      <trkpt lat="43.97607" lon="5.11563">
        <ele>321</ele>
        <time>2013-01-30T13:35:18.000Z</time>
      </trkpt>
      <trkpt lat="43.97604" lon="5.11563">
        <ele>320.6</ele>
        <time>2013-01-30T13:35:19.000Z</time>
      </trkpt>
      <trkpt lat="43.976" lon="5.11565">
        <ele>321.4</ele>
        <time>2013-01-30T13:35:21.000Z</time>
      </trkpt>
      <trkpt lat="43.97598" lon="5.11565">
        <ele>321.8</ele>
        <time>2013-01-30T13:35:22.000Z</time>
      </trkpt>
      <trkpt lat="43.97594" lon="5.11567">
        <ele>322.1</ele>
        <time>2013-01-30T13:35:25.000Z</time>
      </trkpt>
      <trkpt lat="43.97592" lon="5.11568">
        <ele>322.5</ele>
        <time>2013-01-30T13:35:26.000Z</time>
      </trkpt>
      <trkpt lat="43.97589" lon="5.11569">
        <ele>322.3</ele>
        <time>2013-01-30T13:35:28.000Z</time>
      </trkpt>
      <trkpt lat="43.97586" lon="5.11568">
        <ele>322.2</ele>
        <time>2013-01-30T13:35:29.000Z</time>
      </trkpt>
      <trkpt lat="43.97582" lon="5.11571">
        <ele>316.8</ele>
        <time>2013-01-30T13:35:30.000Z</time>
      </trkpt>
      <trkpt lat="43.9758" lon="5.11572">
        <ele>315.4</ele>
        <time>2013-01-30T13:35:31.000Z</time>
      </trkpt>
      <trkpt lat="43.97577" lon="5.11574">
        <ele>315</ele>
        <time>2013-01-30T13:35:32.000Z</time>
      </trkpt>
      <trkpt lat="43.97573" lon="5.11572">
        <ele>315.3</ele>
        <time>2013-01-30T13:35:34.000Z</time>
      </trkpt>
      <trkpt lat="43.97572" lon="5.11573">
        <ele>315</ele>
        <time>2013-01-30T13:35:35.000Z</time>
      </trkpt>
      <trkpt lat="43.97568" lon="5.11572">
        <ele>315.5</ele>
        <time>2013-01-30T13:35:38.000Z</time>
      </trkpt>
      <trkpt lat="43.97567" lon="5.11573">
        <ele>316.3</ele>
        <time>2013-01-30T13:35:39.000Z</time>
      </trkpt>
      <trkpt lat="43.97563" lon="5.11574">
        <ele>315.8</ele>
        <time>2013-01-30T13:35:41.000Z</time>
      </trkpt>
      <trkpt lat="43.97562" lon="5.11575">
        <ele>316.5</ele>
        <time>2013-01-30T13:35:42.000Z</time>
      </trkpt>
      <trkpt lat="43.97557" lon="5.11574">
        <ele>319.2</ele>
        <time>2013-01-30T13:35:45.000Z</time>
      </trkpt>
      <trkpt lat="43.97555" lon="5.11575">
        <ele>319.8</ele>
        <time>2013-01-30T13:35:46.000Z</time>
      </trkpt>
      <trkpt lat="43.97552" lon="5.11575">
        <ele>324.8</ele>
        <time>2013-01-30T13:35:50.000Z</time>
      </trkpt>
      <trkpt lat="43.9755" lon="5.11575">
        <ele>325.2</ele>
        <time>2013-01-30T13:35:51.000Z</time>
      </trkpt>
      <trkpt lat="43.97545" lon="5.11575">
        <ele>324.9</ele>
        <time>2013-01-30T13:35:54.000Z</time>
      </trkpt>
      <trkpt lat="43.97543" lon="5.11574">
        <ele>324.6</ele>
        <time>2013-01-30T13:35:55.000Z</time>
      </trkpt>
      <trkpt lat="43.9754" lon="5.11574">
        <ele>328.2</ele>
        <time>2013-01-30T13:35:58.000Z</time>
      </trkpt>
      <trkpt lat="43.97538" lon="5.11575">
        <ele>329.1</ele>
        <time>2013-01-30T13:35:59.000Z</time>
      </trkpt>
      <trkpt lat="43.97537" lon="5.1157">
        <ele>332.5</ele>
        <time>2013-01-30T13:36:01.000Z</time>
      </trkpt>
      <trkpt lat="43.97536" lon="5.11566">
        <ele>333.9</ele>
        <time>2013-01-30T13:36:02.000Z</time>
      </trkpt>
      <trkpt lat="43.97533" lon="5.11566">
        <ele>340</ele>
        <time>2013-01-30T13:36:05.000Z</time>
      </trkpt>
      <trkpt lat="43.97531" lon="5.11566">
        <ele>339.6</ele>
        <time>2013-01-30T13:36:06.000Z</time>
      </trkpt>
      <trkpt lat="43.97528" lon="5.1157">
        <ele>339.9</ele>
        <time>2013-01-30T13:36:08.000Z</time>
      </trkpt>
      <trkpt lat="43.97527" lon="5.11571">
        <ele>339.7</ele>
        <time>2013-01-30T13:36:09.000Z</time>
      </trkpt>
      <trkpt lat="43.97523" lon="5.11571">
        <ele>339.8</ele>
        <time>2013-01-30T13:36:12.000Z</time>
      </trkpt>
      <trkpt lat="43.97521" lon="5.1157">
        <ele>341.3</ele>
        <time>2013-01-30T13:36:13.000Z</time>
      </trkpt>
      <trkpt lat="43.97517" lon="5.1157">
        <ele>341.5</ele>
        <time>2013-01-30T13:36:14.000Z</time>
      </trkpt>
      <trkpt lat="43.97514" lon="5.1157">
        <ele>341.5</ele>
        <time>2013-01-30T13:36:15.000Z</time>
      </trkpt>
      <trkpt lat="43.97511" lon="5.1157">
        <ele>341.1</ele>
        <time>2013-01-30T13:36:17.000Z</time>
      </trkpt>
      <trkpt lat="43.97509" lon="5.11569">
        <ele>340.9</ele>
        <time>2013-01-30T13:36:18.000Z</time>
      </trkpt>
      <trkpt lat="43.97504" lon="5.11569">
        <ele>341.4</ele>
        <time>2013-01-30T13:36:20.000Z</time>
      </trkpt>
      <trkpt lat="43.97503" lon="5.11569">
        <ele>341.8</ele>
        <time>2013-01-30T13:36:21.000Z</time>
      </trkpt>
      <trkpt lat="43.975" lon="5.11569">
        <ele>341.9</ele>
        <time>2013-01-30T13:36:23.000Z</time>
      </trkpt>
      <trkpt lat="43.97498" lon="5.11569">
        <ele>341.9</ele>
        <time>2013-01-30T13:36:24.000Z</time>
      </trkpt>
      <trkpt lat="43.97494" lon="5.11568">
        <ele>342.2</ele>
        <time>2013-01-30T13:36:26.000Z</time>
      </trkpt>
      <trkpt lat="43.97492" lon="5.11568">
        <ele>342.8</ele>
        <time>2013-01-30T13:36:27.000Z</time>
      </trkpt>
      <trkpt lat="43.97489" lon="5.11568">
        <ele>343</ele>
        <time>2013-01-30T13:36:29.000Z</time>
      </trkpt>
      <trkpt lat="43.97487" lon="5.11568">
        <ele>342</ele>
        <time>2013-01-30T13:36:30.000Z</time>
      </trkpt>
      <trkpt lat="43.97483" lon="5.11568">
        <ele>342.1</ele>
        <time>2013-01-30T13:36:32.000Z</time>
      </trkpt>
      <trkpt lat="43.97482" lon="5.11568">
        <ele>342.1</ele>
        <time>2013-01-30T13:36:33.000Z</time>
      </trkpt>
      <trkpt lat="43.97477" lon="5.11569">
        <ele>340.7</ele>
        <time>2013-01-30T13:36:35.000Z</time>
      </trkpt>
      <trkpt lat="43.97475" lon="5.11569">
        <ele>341</ele>
        <time>2013-01-30T13:36:36.000Z</time>
      </trkpt>
      <trkpt lat="43.97472" lon="5.11568">
        <ele>344</ele>
        <time>2013-01-30T13:36:39.000Z</time>
      </trkpt>
      <trkpt lat="43.97471" lon="5.11568">
        <ele>344.5</ele>
        <time>2013-01-30T13:36:40.000Z</time>
      </trkpt>
      <trkpt lat="43.97469" lon="5.11568">
        <ele>344.7</ele>
        <time>2013-01-30T13:36:41.000Z</time>
      </trkpt>
      <trkpt lat="43.97466" lon="5.11569">
        <ele>343.6</ele>
        <time>2013-01-30T13:36:42.000Z</time>
      </trkpt>
      <trkpt lat="43.97461" lon="5.11568">
        <ele>344.1</ele>
        <time>2013-01-30T13:36:44.000Z</time>
      </trkpt>
      <trkpt lat="43.9746" lon="5.11568">
        <ele>344.2</ele>
        <time>2013-01-30T13:36:45.000Z</time>
      </trkpt>
      <trkpt lat="43.97457" lon="5.11568">
        <ele>344.1</ele>
        <time>2013-01-30T13:36:47.000Z</time>
      </trkpt>
      <trkpt lat="43.97453" lon="5.11568">
        <ele>343.7</ele>
        <time>2013-01-30T13:36:48.000Z</time>
      </trkpt>
      <trkpt lat="43.9745" lon="5.11568">
        <ele>345.1</ele>
        <time>2013-01-30T13:36:50.000Z</time>
      </trkpt>
      <trkpt lat="43.97447" lon="5.11567">
        <ele>344.1</ele>
        <time>2013-01-30T13:36:51.000Z</time>
      </trkpt>
      <trkpt lat="43.97443" lon="5.11567">
        <ele>344.8</ele>
        <time>2013-01-30T13:36:53.000Z</time>
      </trkpt>
      <trkpt lat="43.97441" lon="5.11566">
        <ele>345.2</ele>
        <time>2013-01-30T13:36:54.000Z</time>
      </trkpt>
      <trkpt lat="43.97439" lon="5.11565">
        <ele>345.5</ele>
        <time>2013-01-30T13:36:56.000Z</time>
      </trkpt>
      <trkpt lat="43.97437" lon="5.11566">
        <ele>346.4</ele>
        <time>2013-01-30T13:36:57.000Z</time>
      </trkpt>
      <trkpt lat="43.97434" lon="5.11567">
        <ele>346.3</ele>
        <time>2013-01-30T13:36:59.000Z</time>
      </trkpt>
      <trkpt lat="43.97432" lon="5.11567">
        <ele>347.4</ele>
        <time>2013-01-30T13:37:00.000Z</time>
      </trkpt>
      <trkpt lat="43.97428" lon="5.11567">
        <ele>346.6</ele>
        <time>2013-01-30T13:37:01.000Z</time>
      </trkpt>
      <trkpt lat="43.97426" lon="5.11567">
        <ele>345.5</ele>
        <time>2013-01-30T13:37:02.000Z</time>
      </trkpt>
      <trkpt lat="43.97423" lon="5.11568">
        <ele>345.4</ele>
        <time>2013-01-30T13:37:04.000Z</time>
      </trkpt>
      <trkpt lat="43.97421" lon="5.11568">
        <ele>345.8</ele>
        <time>2013-01-30T13:37:05.000Z</time>
      </trkpt>
      <trkpt lat="43.97418" lon="5.1157">
        <ele>344.6</ele>
        <time>2013-01-30T13:37:07.000Z</time>
      </trkpt>
      <trkpt lat="43.97415" lon="5.11571">
        <ele>344.3</ele>
        <time>2013-01-30T13:37:08.000Z</time>
      </trkpt>
      <trkpt lat="43.97413" lon="5.11572">
        <ele>346.4</ele>
        <time>2013-01-30T13:37:10.000Z</time>
      </trkpt>
      <trkpt lat="43.97411" lon="5.11573">
        <ele>346.5</ele>
        <time>2013-01-30T13:37:11.000Z</time>
      </trkpt>
      <trkpt lat="43.97407" lon="5.11573">
        <ele>346.8</ele>
        <time>2013-01-30T13:37:13.000Z</time>
      </trkpt>
      <trkpt lat="43.97405" lon="5.11573">
        <ele>346.8</ele>
        <time>2013-01-30T13:37:14.000Z</time>
      </trkpt>
      <trkpt lat="43.97403" lon="5.11574">
        <ele>347.1</ele>
        <time>2013-01-30T13:37:16.000Z</time>
      </trkpt>
      <trkpt lat="43.97401" lon="5.11574">
        <ele>347.1</ele>
        <time>2013-01-30T13:37:17.000Z</time>
      </trkpt>
      <trkpt lat="43.97397" lon="5.11574">
        <ele>347.1</ele>
        <time>2013-01-30T13:37:19.000Z</time>
      </trkpt>
      <trkpt lat="43.97394" lon="5.11574">
        <ele>346.7</ele>
        <time>2013-01-30T13:37:20.000Z</time>
      </trkpt>
      <trkpt lat="43.97391" lon="5.11573">
        <ele>346.6</ele>
        <time>2013-01-30T13:37:21.000Z</time>
      </trkpt>
      <trkpt lat="43.97389" lon="5.11575">
        <ele>344.7</ele>
        <time>2013-01-30T13:37:22.000Z</time>
      </trkpt>
      <trkpt lat="43.97385" lon="5.11576">
        <ele>344</ele>
        <time>2013-01-30T13:37:23.000Z</time>
      </trkpt>
      <trkpt lat="43.97384" lon="5.11577">
        <ele>343.5</ele>
        <time>2013-01-30T13:37:24.000Z</time>
      </trkpt>
      <trkpt lat="43.9738" lon="5.11578">
        <ele>342.6</ele>
        <time>2013-01-30T13:37:26.000Z</time>
      </trkpt>
      <trkpt lat="43.97378" lon="5.11579">
        <ele>342.9</ele>
        <time>2013-01-30T13:37:27.000Z</time>
      </trkpt>
      <trkpt lat="43.97377" lon="5.11583">
        <ele>341.5</ele>
        <time>2013-01-30T13:37:28.000Z</time>
      </trkpt>
      <trkpt lat="43.97376" lon="5.11586">
        <ele>340.8</ele>
        <time>2013-01-30T13:37:29.000Z</time>
      </trkpt>
      <trkpt lat="43.97375" lon="5.11591">
        <ele>339.3</ele>
        <time>2013-01-30T13:37:32.000Z</time>
      </trkpt>
      <trkpt lat="43.97375" lon="5.11593">
        <ele>339.1</ele>
        <time>2013-01-30T13:37:33.000Z</time>
      </trkpt>
      <trkpt lat="43.97373" lon="5.11597">
        <ele>339.2</ele>
        <time>2013-01-30T13:37:35.000Z</time>
      </trkpt>
      <trkpt lat="43.97371" lon="5.11599">
        <ele>339.4</ele>
        <time>2013-01-30T13:37:36.000Z</time>
      </trkpt>
      <trkpt lat="43.97368" lon="5.116">
        <ele>339.9</ele>
        <time>2013-01-30T13:37:37.000Z</time>
      </trkpt>
      <trkpt lat="43.97366" lon="5.116">
        <ele>339.7</ele>
        <time>2013-01-30T13:37:38.000Z</time>
      </trkpt>
      <trkpt lat="43.97364" lon="5.11603">
        <ele>340.5</ele>
        <time>2013-01-30T13:37:40.000Z</time>
      </trkpt>
      <trkpt lat="43.97362" lon="5.11604">
        <ele>340.7</ele>
        <time>2013-01-30T13:37:41.000Z</time>
      </trkpt>
      <trkpt lat="43.97359" lon="5.11606">
        <ele>339.8</ele>
        <time>2013-01-30T13:37:42.000Z</time>
      </trkpt>
      <trkpt lat="43.97357" lon="5.11608">
        <ele>340.2</ele>
        <time>2013-01-30T13:37:43.000Z</time>
      </trkpt>
      <trkpt lat="43.97354" lon="5.11611">
        <ele>340.5</ele>
        <time>2013-01-30T13:37:45.000Z</time>
      </trkpt>
      <trkpt lat="43.97352" lon="5.11612">
        <ele>340.8</ele>
        <time>2013-01-30T13:37:46.000Z</time>
      </trkpt>
      <trkpt lat="43.97348" lon="5.11615">
        <ele>339.6</ele>
        <time>2013-01-30T13:37:48.000Z</time>
      </trkpt>
      <trkpt lat="43.97346" lon="5.11616">
        <ele>338.8</ele>
        <time>2013-01-30T13:37:49.000Z</time>
      </trkpt>
      <trkpt lat="43.97342" lon="5.11617">
        <ele>339.2</ele>
        <time>2013-01-30T13:37:51.000Z</time>
      </trkpt>
      <trkpt lat="43.97341" lon="5.11618">
        <ele>339.5</ele>
        <time>2013-01-30T13:37:52.000Z</time>
      </trkpt>
      <trkpt lat="43.97337" lon="5.1162">
        <ele>339.8</ele>
        <time>2013-01-30T13:37:54.000Z</time>
      </trkpt>
      <trkpt lat="43.97336" lon="5.11622">
        <ele>339.6</ele>
        <time>2013-01-30T13:37:55.000Z</time>
      </trkpt>
      <trkpt lat="43.97333" lon="5.11624">
        <ele>339.5</ele>
        <time>2013-01-30T13:37:57.000Z</time>
      </trkpt>
      <trkpt lat="43.9733" lon="5.11626">
        <ele>339.6</ele>
        <time>2013-01-30T13:37:58.000Z</time>
      </trkpt>
      <trkpt lat="43.97326" lon="5.11627">
        <ele>339.3</ele>
        <time>2013-01-30T13:38:00.000Z</time>
      </trkpt>
      <trkpt lat="43.97326" lon="5.1163">
        <ele>339.7</ele>
        <time>2013-01-30T13:38:01.000Z</time>
      </trkpt>
      <trkpt lat="43.97323" lon="5.11631">
        <ele>339.8</ele>
        <time>2013-01-30T13:38:02.000Z</time>
      </trkpt>
      <trkpt lat="43.97321" lon="5.11631">
        <ele>339.7</ele>
        <time>2013-01-30T13:38:03.000Z</time>
      </trkpt>
      <trkpt lat="43.97319" lon="5.11636">
        <ele>339.5</ele>
        <time>2013-01-30T13:38:05.000Z</time>
      </trkpt>
      <trkpt lat="43.97316" lon="5.11636">
        <ele>339.9</ele>
        <time>2013-01-30T13:38:06.000Z</time>
      </trkpt>
      <trkpt lat="43.97314" lon="5.11639">
        <ele>339.5</ele>
        <time>2013-01-30T13:38:07.000Z</time>
      </trkpt>
      <trkpt lat="43.97313" lon="5.11641">
        <ele>339.7</ele>
        <time>2013-01-30T13:38:08.000Z</time>
      </trkpt>
      <trkpt lat="43.97311" lon="5.11643">
        <ele>339.9</ele>
        <time>2013-01-30T13:38:09.000Z</time>
      </trkpt>
      <trkpt lat="43.97308" lon="5.11644">
        <ele>339.6</ele>
        <time>2013-01-30T13:38:10.000Z</time>
      </trkpt>
      <trkpt lat="43.97305" lon="5.11645">
        <ele>339.4</ele>
        <time>2013-01-30T13:38:12.000Z</time>
      </trkpt>
      <trkpt lat="43.97303" lon="5.11646">
        <ele>339.5</ele>
        <time>2013-01-30T13:38:13.000Z</time>
      </trkpt>
      <trkpt lat="43.97299" lon="5.11649">
        <ele>338.4</ele>
        <time>2013-01-30T13:38:16.000Z</time>
      </trkpt>
      <trkpt lat="43.97296" lon="5.11648">
        <ele>338.4</ele>
        <time>2013-01-30T13:38:17.000Z</time>
      </trkpt>
      <trkpt lat="43.97294" lon="5.11653">
        <ele>341.7</ele>
        <time>2013-01-30T13:38:20.000Z</time>
      </trkpt>
      <trkpt lat="43.97293" lon="5.11654">
        <ele>343.5</ele>
        <time>2013-01-30T13:38:21.000Z</time>
      </trkpt>
      <trkpt lat="43.9729" lon="5.11655">
        <ele>344.7</ele>
        <time>2013-01-30T13:38:23.000Z</time>
      </trkpt>
      <trkpt lat="43.97289" lon="5.11656">
        <ele>345</ele>
        <time>2013-01-30T13:38:24.000Z</time>
      </trkpt>
      <trkpt lat="43.97284" lon="5.11656">
        <ele>348.7</ele>
        <time>2013-01-30T13:38:26.000Z</time>
      </trkpt>
      <trkpt lat="43.97284" lon="5.11657">
        <ele>350.3</ele>
        <time>2013-01-30T13:38:27.000Z</time>
      </trkpt>
      <trkpt lat="43.9728" lon="5.11659">
        <ele>351.6</ele>
        <time>2013-01-30T13:38:32.000Z</time>
      </trkpt>
      <trkpt lat="43.97278" lon="5.1166">
        <ele>351.8</ele>
        <time>2013-01-30T13:38:33.000Z</time>
      </trkpt>
      <trkpt lat="43.97274" lon="5.11663">
        <ele>350.6</ele>
        <time>2013-01-30T13:38:35.000Z</time>
      </trkpt>
      <trkpt lat="43.97273" lon="5.11664">
        <ele>350.5</ele>
        <time>2013-01-30T13:38:36.000Z</time>
      </trkpt>
      <trkpt lat="43.97271" lon="5.11668">
        <ele>351.3</ele>
        <time>2013-01-30T13:38:38.000Z</time>
      </trkpt>
      <trkpt lat="43.9727" lon="5.1167">
        <ele>351.3</ele>
        <time>2013-01-30T13:38:39.000Z</time>
      </trkpt>
      <trkpt lat="43.97268" lon="5.11674">
        <ele>352.2</ele>
        <time>2013-01-30T13:38:41.000Z</time>
      </trkpt>
      <trkpt lat="43.97267" lon="5.11676">
        <ele>352</ele>
        <time>2013-01-30T13:38:42.000Z</time>
      </trkpt>
      <trkpt lat="43.97264" lon="5.11681">
        <ele>352.4</ele>
        <time>2013-01-30T13:38:44.000Z</time>
      </trkpt>
      <trkpt lat="43.97264" lon="5.11684">
        <ele>352.5</ele>
        <time>2013-01-30T13:38:45.000Z</time>
      </trkpt>
      <trkpt lat="43.97263" lon="5.11689">
        <ele>351.4</ele>
        <time>2013-01-30T13:38:47.000Z</time>
      </trkpt>
      <trkpt lat="43.97263" lon="5.11692">
        <ele>352.3</ele>
        <time>2013-01-30T13:38:48.000Z</time>
      </trkpt>
      <trkpt lat="43.97261" lon="5.11696">
        <ele>353.7</ele>
        <time>2013-01-30T13:38:51.000Z</time>
      </trkpt>
      <trkpt lat="43.97259" lon="5.11697">
        <ele>353.8</ele>
        <time>2013-01-30T13:38:52.000Z</time>
      </trkpt>
      <trkpt lat="43.97257" lon="5.11701">
        <ele>354.3</ele>
        <time>2013-01-30T13:38:54.000Z</time>
      </trkpt>
      <trkpt lat="43.97256" lon="5.11702">
        <ele>354.9</ele>
        <time>2013-01-30T13:38:55.000Z</time>
      </trkpt>
      <trkpt lat="43.97254" lon="5.11703">
        <ele>354.6</ele>
        <time>2013-01-30T13:38:56.000Z</time>
      </trkpt>
      <trkpt lat="43.97251" lon="5.11703">
        <ele>352.3</ele>
        <time>2013-01-30T13:38:57.000Z</time>
      </trkpt>
      <trkpt lat="43.97249" lon="5.11707">
        <ele>350.2</ele>
        <time>2013-01-30T13:38:58.000Z</time>
      </trkpt>
      <trkpt lat="43.97248" lon="5.1171">
        <ele>348.5</ele>
        <time>2013-01-30T13:38:59.000Z</time>
      </trkpt>
      <trkpt lat="43.97245" lon="5.11713">
        <ele>348.5</ele>
        <time>2013-01-30T13:39:01.000Z</time>
      </trkpt>
      <trkpt lat="43.97244" lon="5.11716">
        <ele>348.1</ele>
        <time>2013-01-30T13:39:02.000Z</time>
      </trkpt>
      <trkpt lat="43.9724" lon="5.11718">
        <ele>347.9</ele>
        <time>2013-01-30T13:39:04.000Z</time>
      </trkpt>
      <trkpt lat="43.97239" lon="5.1172">
        <ele>348.8</ele>
        <time>2013-01-30T13:39:05.000Z</time>
      </trkpt>
      <trkpt lat="43.97235" lon="5.11723">
        <ele>349.4</ele>
        <time>2013-01-30T13:39:08.000Z</time>
      </trkpt>
      <trkpt lat="43.97234" lon="5.11724">
        <ele>349.6</ele>
        <time>2013-01-30T13:39:09.000Z</time>
      </trkpt>
      <trkpt lat="43.97232" lon="5.11727">
        <ele>349.6</ele>
        <time>2013-01-30T13:39:11.000Z</time>
      </trkpt>
      <trkpt lat="43.97231" lon="5.11729">
        <ele>349.8</ele>
        <time>2013-01-30T13:39:12.000Z</time>
      </trkpt>
      <trkpt lat="43.97228" lon="5.1173">
        <ele>350.1</ele>
        <time>2013-01-30T13:39:13.000Z</time>
      </trkpt>
      <trkpt lat="43.97225" lon="5.11731">
        <ele>348.7</ele>
        <time>2013-01-30T13:39:14.000Z</time>
      </trkpt>
      <trkpt lat="43.97222" lon="5.11734">
        <ele>347.4</ele>
        <time>2013-01-30T13:39:16.000Z</time>
      </trkpt>
      <trkpt lat="43.97219" lon="5.11735">
        <ele>347.6</ele>
        <time>2013-01-30T13:39:17.000Z</time>
      </trkpt>
      <trkpt lat="43.97217" lon="5.11737">
        <ele>348.1</ele>
        <time>2013-01-30T13:39:18.000Z</time>
      </trkpt>
      <trkpt lat="43.97215" lon="5.11739">
        <ele>348.2</ele>
        <time>2013-01-30T13:39:19.000Z</time>
      </trkpt>
      <trkpt lat="43.97211" lon="5.11742">
        <ele>348.2</ele>
        <time>2013-01-30T13:39:21.000Z</time>
      </trkpt>
      <trkpt lat="43.9721" lon="5.11741">
        <ele>349</ele>
        <time>2013-01-30T13:39:22.000Z</time>
      </trkpt>
      <trkpt lat="43.97208" lon="5.11743">
        <ele>349.2</ele>
        <time>2013-01-30T13:39:23.000Z</time>
      </trkpt>
      <trkpt lat="43.97206" lon="5.11744">
        <ele>349.2</ele>
        <time>2013-01-30T13:39:24.000Z</time>
      </trkpt>
      <trkpt lat="43.97204" lon="5.11749">
        <ele>349</ele>
        <time>2013-01-30T13:39:27.000Z</time>
      </trkpt>
      <trkpt lat="43.97203" lon="5.11751">
        <ele>348.7</ele>
        <time>2013-01-30T13:39:28.000Z</time>
      </trkpt>
      <trkpt lat="43.97203" lon="5.11752">
        <ele>348.7</ele>
        <time>2013-01-30T13:39:29.000Z</time>
      </trkpt>
      <trkpt lat="43.97199" lon="5.1175">
        <ele>348.5</ele>
        <time>2013-01-30T13:39:30.000Z</time>
      </trkpt>
      <trkpt lat="43.97195" lon="5.11748">
        <ele>348.7</ele>
        <time>2013-01-30T13:39:32.000Z</time>
      </trkpt>
      <trkpt lat="43.97193" lon="5.11749">
        <ele>349.2</ele>
        <time>2013-01-30T13:39:33.000Z</time>
      </trkpt>
      <trkpt lat="43.9719" lon="5.1175">
        <ele>350.2</ele>
        <time>2013-01-30T13:39:36.000Z</time>
      </trkpt>
      <trkpt lat="43.97188" lon="5.11751">
        <ele>350.7</ele>
        <time>2013-01-30T13:39:37.000Z</time>
      </trkpt>
      <trkpt lat="43.97184" lon="5.11751">
        <ele>351.8</ele>
        <time>2013-01-30T13:39:40.000Z</time>
      </trkpt>
      <trkpt lat="43.97183" lon="5.11752">
        <ele>352</ele>
        <time>2013-01-30T13:39:41.000Z</time>
      </trkpt>
      <trkpt lat="43.9718" lon="5.11753">
        <ele>354.4</ele>
        <time>2013-01-30T13:39:44.000Z</time>
      </trkpt>
      <trkpt lat="43.97178" lon="5.11753">
        <ele>355.3</ele>
        <time>2013-01-30T13:39:45.000Z</time>
      </trkpt>
      <trkpt lat="43.97174" lon="5.11754">
        <ele>355.9</ele>
        <time>2013-01-30T13:39:48.000Z</time>
      </trkpt>
      <trkpt lat="43.97172" lon="5.11754">
        <ele>355.7</ele>
        <time>2013-01-30T13:39:49.000Z</time>
      </trkpt>
      <trkpt lat="43.97168" lon="5.11755">
        <ele>357.6</ele>
        <time>2013-01-30T13:39:51.000Z</time>
      </trkpt>
      <trkpt lat="43.97167" lon="5.11755">
        <ele>357.6</ele>
        <time>2013-01-30T13:39:52.000Z</time>
      </trkpt>
      <trkpt lat="43.97163" lon="5.11758">
        <ele>358.7</ele>
        <time>2013-01-30T13:39:56.000Z</time>
      </trkpt>
      <trkpt lat="43.97162" lon="5.11759">
        <ele>358.9</ele>
        <time>2013-01-30T13:39:57.000Z</time>
      </trkpt>
      <trkpt lat="43.97157" lon="5.11759">
        <ele>360.6</ele>
        <time>2013-01-30T13:40:01.000Z</time>
      </trkpt>
      <trkpt lat="43.97156" lon="5.1176">
        <ele>360.4</ele>
        <time>2013-01-30T13:40:02.000Z</time>
      </trkpt>
      <trkpt lat="43.97152" lon="5.1176">
        <ele>361.5</ele>
        <time>2013-01-30T13:40:05.000Z</time>
      </trkpt>
      <trkpt lat="43.9715" lon="5.11761">
        <ele>361.2</ele>
        <time>2013-01-30T13:40:06.000Z</time>
      </trkpt>
      <trkpt lat="43.97148" lon="5.11763">
        <ele>361.1</ele>
        <time>2013-01-30T13:40:08.000Z</time>
      </trkpt>
      <trkpt lat="43.97149" lon="5.11768">
        <ele>358.7</ele>
        <time>2013-01-30T13:40:09.000Z</time>
      </trkpt>
      <trkpt lat="43.97147" lon="5.11772">
        <ele>357.7</ele>
        <time>2013-01-30T13:40:11.000Z</time>
      </trkpt>
      <trkpt lat="43.97144" lon="5.11775">
        <ele>356.1</ele>
        <time>2013-01-30T13:40:12.000Z</time>
      </trkpt>
      <trkpt lat="43.97141" lon="5.11778">
        <ele>355.3</ele>
        <time>2013-01-30T13:40:13.000Z</time>
      </trkpt>
      <trkpt lat="43.9714" lon="5.1178">
        <ele>355.1</ele>
        <time>2013-01-30T13:40:14.000Z</time>
      </trkpt>
      <trkpt lat="43.97139" lon="5.11785">
        <ele>355.3</ele>
        <time>2013-01-30T13:40:16.000Z</time>
      </trkpt>
      <trkpt lat="43.97138" lon="5.11787">
        <ele>355</ele>
        <time>2013-01-30T13:40:17.000Z</time>
      </trkpt>
      <trkpt lat="43.97137" lon="5.11793">
        <ele>356.2</ele>
        <time>2013-01-30T13:40:19.000Z</time>
      </trkpt>
      <trkpt lat="43.97137" lon="5.11794">
        <ele>357.9</ele>
        <time>2013-01-30T13:40:20.000Z</time>
      </trkpt>
      <trkpt lat="43.97134" lon="5.11799">
        <ele>357.9</ele>
        <time>2013-01-30T13:40:22.000Z</time>
      </trkpt>
      <trkpt lat="43.97133" lon="5.11802">
        <ele>358.2</ele>
        <time>2013-01-30T13:40:23.000Z</time>
      </trkpt>
      <trkpt lat="43.9713" lon="5.11806">
        <ele>359.2</ele>
        <time>2013-01-30T13:40:25.000Z</time>
      </trkpt>
      <trkpt lat="43.97129" lon="5.1181">
        <ele>358.7</ele>
        <time>2013-01-30T13:40:26.000Z</time>
      </trkpt>
      <trkpt lat="43.97127" lon="5.11815">
        <ele>357.3</ele>
        <time>2013-01-30T13:40:27.000Z</time>
      </trkpt>
      <trkpt lat="43.97122" lon="5.11815">
        <ele>354.5</ele>
        <time>2013-01-30T13:40:28.000Z</time>
      </trkpt>
      <trkpt lat="43.97119" lon="5.11816">
        <ele>356.1</ele>
        <time>2013-01-30T13:40:29.000Z</time>
      </trkpt>
      <trkpt lat="43.97117" lon="5.11817">
        <ele>356.3</ele>
        <time>2013-01-30T13:40:30.000Z</time>
      </trkpt>
      <trkpt lat="43.97113" lon="5.1182">
        <ele>358.7</ele>
        <time>2013-01-30T13:40:32.000Z</time>
      </trkpt>
      <trkpt lat="43.97109" lon="5.11821">
        <ele>358</ele>
        <time>2013-01-30T13:40:33.000Z</time>
      </trkpt>
      <trkpt lat="43.97106" lon="5.11822">
        <ele>358.4</ele>
        <time>2013-01-30T13:40:34.000Z</time>
      </trkpt>
      <trkpt lat="43.97103" lon="5.11823">
        <ele>358.3</ele>
        <time>2013-01-30T13:40:35.000Z</time>
      </trkpt>
      <trkpt lat="43.971" lon="5.11823">
        <ele>358.3</ele>
        <time>2013-01-30T13:40:36.000Z</time>
      </trkpt>
      <trkpt lat="43.97093" lon="5.11826">
        <ele>363.9</ele>
        <time>2013-01-30T13:40:37.000Z</time>
      </trkpt>
      <trkpt lat="43.9709" lon="5.11826">
        <ele>365</ele>
        <time>2013-01-30T13:40:38.000Z</time>
      </trkpt>
      <trkpt lat="43.97089" lon="5.11826">
        <ele>365.2</ele>
        <time>2013-01-30T13:40:39.000Z</time>
      </trkpt>
      <trkpt lat="43.97086" lon="5.11827">
        <ele>366.1</ele>
        <time>2013-01-30T13:40:41.000Z</time>
      </trkpt>
      <trkpt lat="43.97084" lon="5.11828">
        <ele>365.8</ele>
        <time>2013-01-30T13:40:42.000Z</time>
      </trkpt>
      <trkpt lat="43.97082" lon="5.11828">
        <ele>365.3</ele>
        <time>2013-01-30T13:40:43.000Z</time>
      </trkpt>
      <trkpt lat="43.97079" lon="5.11827">
        <ele>364.4</ele>
        <time>2013-01-30T13:40:45.000Z</time>
      </trkpt>
      <trkpt lat="43.97074" lon="5.11827">
        <ele>365.8</ele>
        <time>2013-01-30T13:40:48.000Z</time>
      </trkpt>
      <trkpt lat="43.97072" lon="5.11828">
        <ele>366.1</ele>
        <time>2013-01-30T13:40:49.000Z</time>
      </trkpt>
      <trkpt lat="43.97069" lon="5.1183">
        <ele>366</ele>
        <time>2013-01-30T13:40:51.000Z</time>
      </trkpt>
      <trkpt lat="43.97067" lon="5.11833">
        <ele>366</ele>
        <time>2013-01-30T13:40:52.000Z</time>
      </trkpt>
      <trkpt lat="43.97066" lon="5.11836">
        <ele>365.5</ele>
        <time>2013-01-30T13:40:54.000Z</time>
      </trkpt>
      <trkpt lat="43.97067" lon="5.1184">
        <ele>365.7</ele>
        <time>2013-01-30T13:40:55.000Z</time>
      </trkpt>
      <trkpt lat="43.97066" lon="5.11849">
        <ele>361.5</ele>
        <time>2013-01-30T13:40:56.000Z</time>
      </trkpt>
      <trkpt lat="43.97065" lon="5.11854">
        <ele>360.8</ele>
        <time>2013-01-30T13:40:58.000Z</time>
      </trkpt>
      <trkpt lat="43.97064" lon="5.11857">
        <ele>360.2</ele>
        <time>2013-01-30T13:40:59.000Z</time>
      </trkpt>
      <trkpt lat="43.97064" lon="5.11859">
        <ele>359.5</ele>
        <time>2013-01-30T13:41:00.000Z</time>
      </trkpt>
      <trkpt lat="43.97065" lon="5.11865">
        <ele>364.2</ele>
        <time>2013-01-30T13:41:01.000Z</time>
      </trkpt>
      <trkpt lat="43.97064" lon="5.1187">
        <ele>365.8</ele>
        <time>2013-01-30T13:41:03.000Z</time>
      </trkpt>
      <trkpt lat="43.97064" lon="5.11872">
        <ele>366.4</ele>
        <time>2013-01-30T13:41:04.000Z</time>
      </trkpt>
      <trkpt lat="43.97063" lon="5.11877">
        <ele>365.1</ele>
        <time>2013-01-30T13:41:06.000Z</time>
      </trkpt>
      <trkpt lat="43.97063" lon="5.11879">
        <ele>364.5</ele>
        <time>2013-01-30T13:41:07.000Z</time>
      </trkpt>
      <trkpt lat="43.97061" lon="5.11885">
        <ele>367.9</ele>
        <time>2013-01-30T13:41:12.000Z</time>
      </trkpt>
      <trkpt lat="43.97062" lon="5.11885">
        <ele>370.4</ele>
        <time>2013-01-30T13:41:13.000Z</time>
      </trkpt>
      <trkpt lat="43.97061" lon="5.11889">
        <ele>372.3</ele>
        <time>2013-01-30T13:41:15.000Z</time>
      </trkpt>
      <trkpt lat="43.97061" lon="5.11892">
        <ele>370.6</ele>
        <time>2013-01-30T13:41:16.000Z</time>
      </trkpt>
      <trkpt lat="43.97062" lon="5.11897">
        <ele>372.8</ele>
        <time>2013-01-30T13:41:19.000Z</time>
      </trkpt>
      <trkpt lat="43.97062" lon="5.11899">
        <ele>372.7</ele>
        <time>2013-01-30T13:41:20.000Z</time>
      </trkpt>
      <trkpt lat="43.97061" lon="5.11905">
        <ele>374.7</ele>
        <time>2013-01-30T13:41:23.000Z</time>
      </trkpt>
      <trkpt lat="43.97062" lon="5.11906">
        <ele>377.5</ele>
        <time>2013-01-30T13:41:24.000Z</time>
      </trkpt>
      <trkpt lat="43.97063" lon="5.1191">
        <ele>381.8</ele>
        <time>2013-01-30T13:41:27.000Z</time>
      </trkpt>
      <trkpt lat="43.97064" lon="5.11912">
        <ele>382.6</ele>
        <time>2013-01-30T13:41:28.000Z</time>
      </trkpt>
      <trkpt lat="43.97063" lon="5.11917">
        <ele>384.7</ele>
        <time>2013-01-30T13:41:31.000Z</time>
      </trkpt>
      <trkpt lat="43.97064" lon="5.11921">
        <ele>384.7</ele>
        <time>2013-01-30T13:41:32.000Z</time>
      </trkpt>
      <trkpt lat="43.97065" lon="5.11927">
        <ele>384.8</ele>
        <time>2013-01-30T13:41:33.000Z</time>
      </trkpt>
      <trkpt lat="43.97065" lon="5.11931">
        <ele>384.7</ele>
        <time>2013-01-30T13:41:34.000Z</time>
      </trkpt>
      <trkpt lat="43.97063" lon="5.11935">
        <ele>388.8</ele>
        <time>2013-01-30T13:41:36.000Z</time>
      </trkpt>
      <trkpt lat="43.97063" lon="5.11937">
        <ele>389.2</ele>
        <time>2013-01-30T13:41:37.000Z</time>
      </trkpt>
      <trkpt lat="43.97062" lon="5.11942">
        <ele>388.6</ele>
        <time>2013-01-30T13:41:39.000Z</time>
      </trkpt>
      <trkpt lat="43.97061" lon="5.11944">
        <ele>388.5</ele>
        <time>2013-01-30T13:41:40.000Z</time>
      </trkpt>
      <trkpt lat="43.97061" lon="5.11948">
        <ele>388.8</ele>
        <time>2013-01-30T13:41:43.000Z</time>
      </trkpt>
      <trkpt lat="43.97058" lon="5.11949">
        <ele>390.4</ele>
        <time>2013-01-30T13:41:45.000Z</time>
      </trkpt>
      <trkpt lat="43.97056" lon="5.11952">
        <ele>393</ele>
        <time>2013-01-30T13:41:49.000Z</time>
      </trkpt>
      <trkpt lat="43.97054" lon="5.11953">
        <ele>392.4</ele>
        <time>2013-01-30T13:41:50.000Z</time>
      </trkpt>
      <trkpt lat="43.97051" lon="5.11955">
        <ele>393</ele>
        <time>2013-01-30T13:41:53.000Z</time>
      </trkpt>
      <trkpt lat="43.9705" lon="5.11957">
        <ele>392.8</ele>
        <time>2013-01-30T13:41:54.000Z</time>
      </trkpt>
      <trkpt lat="43.9705" lon="5.11961">
        <ele>395.6</ele>
        <time>2013-01-30T13:41:57.000Z</time>
      </trkpt>
      <trkpt lat="43.9705" lon="5.11963">
        <ele>395.7</ele>
        <time>2013-01-30T13:41:58.000Z</time>
      </trkpt>
      <trkpt lat="43.97049" lon="5.11969">
        <ele>398.6</ele>
        <time>2013-01-30T13:42:03.000Z</time>
      </trkpt>
      <trkpt lat="43.97049" lon="5.11969">
        <ele>399.3</ele>
        <time>2013-01-30T13:42:04.000Z</time>
      </trkpt>
      <trkpt lat="43.97047" lon="5.11975">
        <ele>399.4</ele>
        <time>2013-01-30T13:42:11.000Z</time>
      </trkpt>
      <trkpt lat="43.97047" lon="5.11976">
        <ele>399.3</ele>
        <time>2013-01-30T13:42:12.000Z</time>
      </trkpt>
      <trkpt lat="43.97044" lon="5.11981">
        <ele>398.5</ele>
        <time>2013-01-30T13:42:15.000Z</time>
      </trkpt>
      <trkpt lat="43.97044" lon="5.11982">
        <ele>398</ele>
        <time>2013-01-30T13:42:16.000Z</time>
      </trkpt>
      <trkpt lat="43.97041" lon="5.11986">
        <ele>395.4</ele>
        <time>2013-01-30T13:42:23.000Z</time>
      </trkpt>
      <trkpt lat="43.97041" lon="5.11987">
        <ele>395.7</ele>
        <time>2013-01-30T13:42:24.000Z</time>
      </trkpt>
      <trkpt lat="43.97039" lon="5.11991">
        <ele>395.4</ele>
        <time>2013-01-30T13:42:30.000Z</time>
      </trkpt>
      <trkpt lat="43.97039" lon="5.11993">
        <ele>396.4</ele>
        <time>2013-01-30T13:42:31.000Z</time>
      </trkpt>
      <trkpt lat="43.97036" lon="5.11997">
        <ele>395.7</ele>
        <time>2013-01-30T13:42:37.000Z</time>
      </trkpt>
      <trkpt lat="43.97034" lon="5.11997">
        <ele>394.9</ele>
        <time>2013-01-30T13:42:38.000Z</time>
      </trkpt>
      <trkpt lat="43.97034" lon="5.12002">
        <ele>397.2</ele>
        <time>2013-01-30T13:42:45.000Z</time>
      </trkpt>
      <trkpt lat="43.97033" lon="5.12003">
        <ele>397.2</ele>
        <time>2013-01-30T13:42:46.000Z</time>
      </trkpt>
      <trkpt lat="43.9703" lon="5.12007">
        <ele>393.9</ele>
        <time>2013-01-30T13:42:53.000Z</time>
      </trkpt>
      <trkpt lat="43.9703" lon="5.12009">
        <ele>393.2</ele>
        <time>2013-01-30T13:42:54.000Z</time>
      </trkpt>
      <trkpt lat="43.97028" lon="5.12014">
        <ele>391.3</ele>
        <time>2013-01-30T13:42:56.000Z</time>
      </trkpt>
      <trkpt lat="43.97028" lon="5.12017">
        <ele>390.6</ele>
        <time>2013-01-30T13:42:57.000Z</time>
      </trkpt>
      <trkpt lat="43.97028" lon="5.12022">
        <ele>389.5</ele>
        <time>2013-01-30T13:42:59.000Z</time>
      </trkpt>
      <trkpt lat="43.97026" lon="5.12025">
        <ele>388.8</ele>
        <time>2013-01-30T13:43:00.000Z</time>
      </trkpt>
      <trkpt lat="43.97024" lon="5.12029">
        <ele>386.7</ele>
        <time>2013-01-30T13:43:03.000Z</time>
      </trkpt>
      <trkpt lat="43.97024" lon="5.1203">
        <ele>386.4</ele>
        <time>2013-01-30T13:43:04.000Z</time>
      </trkpt>
      <trkpt lat="43.97022" lon="5.12034">
        <ele>386</ele>
        <time>2013-01-30T13:43:06.000Z</time>
      </trkpt>
      <trkpt lat="43.9702" lon="5.12036">
        <ele>385.9</ele>
        <time>2013-01-30T13:43:07.000Z</time>
      </trkpt>
      <trkpt lat="43.97018" lon="5.12038">
        <ele>385.9</ele>
        <time>2013-01-30T13:43:08.000Z</time>
      </trkpt>
      <trkpt lat="43.97016" lon="5.12039">
        <ele>386</ele>
        <time>2013-01-30T13:43:09.000Z</time>
      </trkpt>
      <trkpt lat="43.97013" lon="5.12042">
        <ele>385.7</ele>
        <time>2013-01-30T13:43:10.000Z</time>
      </trkpt>
      <trkpt lat="43.9701" lon="5.12044">
        <ele>384.4</ele>
        <time>2013-01-30T13:43:11.000Z</time>
      </trkpt>
      <trkpt lat="43.97012" lon="5.12049">
        <ele>385.5</ele>
        <time>2013-01-30T13:43:12.000Z</time>
      </trkpt>
      <trkpt lat="43.97011" lon="5.12054">
        <ele>384.8</ele>
        <time>2013-01-30T13:43:13.000Z</time>
      </trkpt>
      <trkpt lat="43.9701" lon="5.12057">
        <ele>385.3</ele>
        <time>2013-01-30T13:43:14.000Z</time>
      </trkpt>
      <trkpt lat="43.97008" lon="5.1206">
        <ele>385</ele>
        <time>2013-01-30T13:43:15.000Z</time>
      </trkpt>
      <trkpt lat="43.97007" lon="5.12063">
        <ele>384.4</ele>
        <time>2013-01-30T13:43:16.000Z</time>
      </trkpt>
      <trkpt lat="43.97005" lon="5.12065">
        <ele>383.7</ele>
        <time>2013-01-30T13:43:17.000Z</time>
      </trkpt>
      <trkpt lat="43.97001" lon="5.12067">
        <ele>388.5</ele>
        <time>2013-01-30T13:43:21.000Z</time>
      </trkpt>
      <trkpt lat="43.97" lon="5.12067">
        <ele>388.6</ele>
        <time>2013-01-30T13:43:22.000Z</time>
      </trkpt>
      <trkpt lat="43.96997" lon="5.12069">
        <ele>388.5</ele>
        <time>2013-01-30T13:43:24.000Z</time>
      </trkpt>
      <trkpt lat="43.96995" lon="5.12071">
        <ele>388.5</ele>
        <time>2013-01-30T13:43:25.000Z</time>
      </trkpt>
      <trkpt lat="43.96993" lon="5.12073">
        <ele>388.1</ele>
        <time>2013-01-30T13:43:26.000Z</time>
      </trkpt>
      <trkpt lat="43.96991" lon="5.12075">
        <ele>387.4</ele>
        <time>2013-01-30T13:43:27.000Z</time>
      </trkpt>
      <trkpt lat="43.96988" lon="5.12078">
        <ele>387.8</ele>
        <time>2013-01-30T13:43:29.000Z</time>
      </trkpt>
      <trkpt lat="43.96987" lon="5.12079">
        <ele>387.9</ele>
        <time>2013-01-30T13:43:30.000Z</time>
      </trkpt>
      <trkpt lat="43.96986" lon="5.12084">
        <ele>386.2</ele>
        <time>2013-01-30T13:43:32.000Z</time>
      </trkpt>
      <trkpt lat="43.96985" lon="5.12087">
        <ele>385.8</ele>
        <time>2013-01-30T13:43:33.000Z</time>
      </trkpt>
      <trkpt lat="43.96982" lon="5.1209">
        <ele>387.4</ele>
        <time>2013-01-30T13:43:36.000Z</time>
      </trkpt>
      <trkpt lat="43.96982" lon="5.12092">
        <ele>388</ele>
        <time>2013-01-30T13:43:37.000Z</time>
      </trkpt>
      <trkpt lat="43.9698" lon="5.12093">
        <ele>388</ele>
        <time>2013-01-30T13:43:39.000Z</time>
      </trkpt>
      <trkpt lat="43.96977" lon="5.12096">
        <ele>385.2</ele>
        <time>2013-01-30T13:43:40.000Z</time>
      </trkpt>
      <trkpt lat="43.96977" lon="5.121">
        <ele>385.6</ele>
        <time>2013-01-30T13:43:42.000Z</time>
      </trkpt>
      <trkpt lat="43.96977" lon="5.12103">
        <ele>385.9</ele>
        <time>2013-01-30T13:43:43.000Z</time>
      </trkpt>
      <trkpt lat="43.96976" lon="5.12109">
        <ele>383.6</ele>
        <time>2013-01-30T13:43:45.000Z</time>
      </trkpt>
      <trkpt lat="43.96975" lon="5.12112">
        <ele>383</ele>
        <time>2013-01-30T13:43:46.000Z</time>
      </trkpt>
      <trkpt lat="43.96974" lon="5.12118">
        <ele>382.5</ele>
        <time>2013-01-30T13:43:48.000Z</time>
      </trkpt>
      <trkpt lat="43.96973" lon="5.1212">
        <ele>382.6</ele>
        <time>2013-01-30T13:43:49.000Z</time>
      </trkpt>
      <trkpt lat="43.96972" lon="5.12125">
        <ele>382.6</ele>
        <time>2013-01-30T13:43:51.000Z</time>
      </trkpt>
      <trkpt lat="43.96972" lon="5.12127">
        <ele>382.4</ele>
        <time>2013-01-30T13:43:52.000Z</time>
      </trkpt>
      <trkpt lat="43.9697" lon="5.12132">
        <ele>383.1</ele>
        <time>2013-01-30T13:43:54.000Z</time>
      </trkpt>
      <trkpt lat="43.96969" lon="5.12134">
        <ele>383.3</ele>
        <time>2013-01-30T13:43:55.000Z</time>
      </trkpt>
      <trkpt lat="43.96968" lon="5.12136">
        <ele>383</ele>
        <time>2013-01-30T13:43:56.000Z</time>
      </trkpt>
      <trkpt lat="43.96965" lon="5.12139">
        <ele>382.9</ele>
        <time>2013-01-30T13:43:57.000Z</time>
      </trkpt>
      <trkpt lat="43.96964" lon="5.12141">
        <ele>383</ele>
        <time>2013-01-30T13:43:58.000Z</time>
      </trkpt>
      <trkpt lat="43.9696" lon="5.12143">
        <ele>382.6</ele>
        <time>2013-01-30T13:43:59.000Z</time>
      </trkpt>
      <trkpt lat="43.96958" lon="5.12146">
        <ele>382.6</ele>
        <time>2013-01-30T13:44:00.000Z</time>
      </trkpt>
      <trkpt lat="43.96956" lon="5.12148">
        <ele>382.6</ele>
        <time>2013-01-30T13:44:01.000Z</time>
      </trkpt>
      <trkpt lat="43.96957" lon="5.12153">
        <ele>383.4</ele>
        <time>2013-01-30T13:44:02.000Z</time>
      </trkpt>
      <trkpt lat="43.96954" lon="5.12155">
        <ele>383.5</ele>
        <time>2013-01-30T13:44:03.000Z</time>
      </trkpt>
      <trkpt lat="43.96952" lon="5.12159">
        <ele>385.3</ele>
        <time>2013-01-30T13:44:06.000Z</time>
      </trkpt>
      <trkpt lat="43.96952" lon="5.12162">
        <ele>385.3</ele>
        <time>2013-01-30T13:44:07.000Z</time>
      </trkpt>
      <trkpt lat="43.96951" lon="5.12164">
        <ele>385.8</ele>
        <time>2013-01-30T13:44:08.000Z</time>
      </trkpt>
      <trkpt lat="43.96952" lon="5.12169">
        <ele>385.6</ele>
        <time>2013-01-30T13:44:09.000Z</time>
      </trkpt>
      <trkpt lat="43.96953" lon="5.12173">
        <ele>385.6</ele>
        <time>2013-01-30T13:44:10.000Z</time>
      </trkpt>
      <trkpt lat="43.96952" lon="5.12177">
        <ele>382.8</ele>
        <time>2013-01-30T13:44:11.000Z</time>
      </trkpt>
      <trkpt lat="43.96951" lon="5.1218">
        <ele>381.2</ele>
        <time>2013-01-30T13:44:12.000Z</time>
      </trkpt>
      <trkpt lat="43.9695" lon="5.12183">
        <ele>379.9</ele>
        <time>2013-01-30T13:44:13.000Z</time>
      </trkpt>
      <trkpt lat="43.96948" lon="5.12188">
        <ele>381.4</ele>
        <time>2013-01-30T13:44:15.000Z</time>
      </trkpt>
      <trkpt lat="43.96948" lon="5.1219">
        <ele>381.3</ele>
        <time>2013-01-30T13:44:16.000Z</time>
      </trkpt>
      <trkpt lat="43.96946" lon="5.12195">
        <ele>382.3</ele>
        <time>2013-01-30T13:44:18.000Z</time>
      </trkpt>
      <trkpt lat="43.96945" lon="5.12199">
        <ele>380.4</ele>
        <time>2013-01-30T13:44:19.000Z</time>
      </trkpt>
      <trkpt lat="43.96945" lon="5.12205">
        <ele>381.9</ele>
        <time>2013-01-30T13:44:21.000Z</time>
      </trkpt>
      <trkpt lat="43.96945" lon="5.12208">
        <ele>382.5</ele>
        <time>2013-01-30T13:44:22.000Z</time>
      </trkpt>
      <trkpt lat="43.96944" lon="5.12214">
        <ele>382.7</ele>
        <time>2013-01-30T13:44:24.000Z</time>
      </trkpt>
      <trkpt lat="43.96944" lon="5.12216">
        <ele>383.2</ele>
        <time>2013-01-30T13:44:25.000Z</time>
      </trkpt>
      <trkpt lat="43.96942" lon="5.12221">
        <ele>384.9</ele>
        <time>2013-01-30T13:44:29.000Z</time>
      </trkpt>
      <trkpt lat="43.96942" lon="5.12222">
        <ele>384.9</ele>
        <time>2013-01-30T13:44:30.000Z</time>
      </trkpt>
      <trkpt lat="43.96942" lon="5.12224">
        <ele>384.8</ele>
        <time>2013-01-30T13:44:31.000Z</time>
      </trkpt>
      <trkpt lat="43.96943" lon="5.12231">
        <ele>383.8</ele>
        <time>2013-01-30T13:44:32.000Z</time>
      </trkpt>
      <trkpt lat="43.96946" lon="5.12238">
        <ele>383.9</ele>
        <time>2013-01-30T13:44:33.000Z</time>
      </trkpt>
      <trkpt lat="43.96946" lon="5.12246">
        <ele>383.7</ele>
        <time>2013-01-30T13:44:34.000Z</time>
      </trkpt>
      <trkpt lat="43.96949" lon="5.1225">
        <ele>383</ele>
        <time>2013-01-30T13:44:35.000Z</time>
      </trkpt>
      <trkpt lat="43.9695" lon="5.12254">
        <ele>382.6</ele>
        <time>2013-01-30T13:44:36.000Z</time>
      </trkpt>
      <trkpt lat="43.96952" lon="5.12258">
        <ele>383</ele>
        <time>2013-01-30T13:44:38.000Z</time>
      </trkpt>
      <trkpt lat="43.96954" lon="5.12258">
        <ele>382.6</ele>
        <time>2013-01-30T13:44:39.000Z</time>
      </trkpt>
      <trkpt lat="43.96951" lon="5.12262">
        <ele>382.2</ele>
        <time>2013-01-30T13:44:41.000Z</time>
      </trkpt>
      <trkpt lat="43.96951" lon="5.12263">
        <ele>381.5</ele>
        <time>2013-01-30T13:44:42.000Z</time>
      </trkpt>
      <trkpt lat="43.9695" lon="5.12267">
        <ele>382.2</ele>
        <time>2013-01-30T13:44:43.000Z</time>
      </trkpt>
      <trkpt lat="43.96949" lon="5.12271">
        <ele>382.6</ele>
        <time>2013-01-30T13:44:45.000Z</time>
      </trkpt>
      <trkpt lat="43.96949" lon="5.12276">
        <ele>385</ele>
        <time>2013-01-30T13:44:47.000Z</time>
      </trkpt>
      <trkpt lat="43.96948" lon="5.12278">
        <ele>384.8</ele>
        <time>2013-01-30T13:44:48.000Z</time>
      </trkpt>
      <trkpt lat="43.96946" lon="5.12283">
        <ele>384.9</ele>
        <time>2013-01-30T13:44:51.000Z</time>
      </trkpt>
      <trkpt lat="43.96945" lon="5.12285">
        <ele>385.1</ele>
        <time>2013-01-30T13:44:52.000Z</time>
      </trkpt>
      <trkpt lat="43.96945" lon="5.12287">
        <ele>384.8</ele>
        <time>2013-01-30T13:44:53.000Z</time>
      </trkpt>
      <trkpt lat="43.96943" lon="5.1229">
        <ele>384.8</ele>
        <time>2013-01-30T13:44:54.000Z</time>
      </trkpt>
      <trkpt lat="43.96941" lon="5.12295">
        <ele>388.2</ele>
        <time>2013-01-30T13:44:56.000Z</time>
      </trkpt>
      <trkpt lat="43.9694" lon="5.12296">
        <ele>388.4</ele>
        <time>2013-01-30T13:44:57.000Z</time>
      </trkpt>
      <trkpt lat="43.96939" lon="5.12299">
        <ele>390.8</ele>
        <time>2013-01-30T13:44:59.000Z</time>
      </trkpt>
      <trkpt lat="43.96939" lon="5.12304">
        <ele>391.7</ele>
        <time>2013-01-30T13:45:00.000Z</time>
      </trkpt>
      <trkpt lat="43.96939" lon="5.12306">
        <ele>392.8</ele>
        <time>2013-01-30T13:45:01.000Z</time>
      </trkpt>
      <trkpt lat="43.96935" lon="5.1231">
        <ele>392.6</ele>
        <time>2013-01-30T13:45:02.000Z</time>
      </trkpt>
      <trkpt lat="43.96935" lon="5.12313">
        <ele>392.9</ele>
        <time>2013-01-30T13:45:03.000Z</time>
      </trkpt>
      <trkpt lat="43.96935" lon="5.12318">
        <ele>393.3</ele>
        <time>2013-01-30T13:45:04.000Z</time>
      </trkpt>
      <trkpt lat="43.96934" lon="5.12321">
        <ele>393.6</ele>
        <time>2013-01-30T13:45:05.000Z</time>
      </trkpt>
      <trkpt lat="43.96931" lon="5.12324">
        <ele>392.4</ele>
        <time>2013-01-30T13:45:06.000Z</time>
      </trkpt>
      <trkpt lat="43.96931" lon="5.12328">
        <ele>392.4</ele>
        <time>2013-01-30T13:45:07.000Z</time>
      </trkpt>
      <trkpt lat="43.96929" lon="5.1233">
        <ele>393.6</ele>
        <time>2013-01-30T13:45:08.000Z</time>
      </trkpt>
      <trkpt lat="43.96927" lon="5.12331">
        <ele>393.7</ele>
        <time>2013-01-30T13:45:09.000Z</time>
      </trkpt>
      <trkpt lat="43.96925" lon="5.12334">
        <ele>394</ele>
        <time>2013-01-30T13:45:10.000Z</time>
      </trkpt>
      <trkpt lat="43.96922" lon="5.12336">
        <ele>393.1</ele>
        <time>2013-01-30T13:45:11.000Z</time>
      </trkpt>
      <trkpt lat="43.96921" lon="5.12338">
        <ele>392.6</ele>
        <time>2013-01-30T13:45:12.000Z</time>
      </trkpt>
      <trkpt lat="43.96919" lon="5.1234">
        <ele>392.2</ele>
        <time>2013-01-30T13:45:13.000Z</time>
      </trkpt>
      <trkpt lat="43.96917" lon="5.12342">
        <ele>391.5</ele>
        <time>2013-01-30T13:45:14.000Z</time>
      </trkpt>
      <trkpt lat="43.96914" lon="5.12346">
        <ele>391.4</ele>
        <time>2013-01-30T13:45:15.000Z</time>
      </trkpt>
      <trkpt lat="43.96912" lon="5.12349">
        <ele>391.1</ele>
        <time>2013-01-30T13:45:16.000Z</time>
      </trkpt>
      <trkpt lat="43.96911" lon="5.12353">
        <ele>390.6</ele>
        <time>2013-01-30T13:45:17.000Z</time>
      </trkpt>
      <trkpt lat="43.9691" lon="5.12355">
        <ele>391.1</ele>
        <time>2013-01-30T13:45:18.000Z</time>
      </trkpt>
      <trkpt lat="43.96906" lon="5.12359">
        <ele>392.8</ele>
        <time>2013-01-30T13:45:21.000Z</time>
      </trkpt>
      <trkpt lat="43.96904" lon="5.12359">
        <ele>393.3</ele>
        <time>2013-01-30T13:45:22.000Z</time>
      </trkpt>
      <trkpt lat="43.96903" lon="5.12366">
        <ele>392.8</ele>
        <time>2013-01-30T13:45:23.000Z</time>
      </trkpt>
      <trkpt lat="43.96902" lon="5.12371">
        <ele>393.8</ele>
        <time>2013-01-30T13:45:25.000Z</time>
      </trkpt>
      <trkpt lat="43.96901" lon="5.12372">
        <ele>393.7</ele>
        <time>2013-01-30T13:45:26.000Z</time>
      </trkpt>
      <trkpt lat="43.96902" lon="5.12376">
        <ele>395.7</ele>
        <time>2013-01-30T13:45:27.000Z</time>
      </trkpt>
      <trkpt lat="43.96903" lon="5.12381">
        <ele>396.7</ele>
        <time>2013-01-30T13:45:28.000Z</time>
      </trkpt>
      <trkpt lat="43.96903" lon="5.12386">
        <ele>395.6</ele>
        <time>2013-01-30T13:45:37.000Z</time>
      </trkpt>
      <trkpt lat="43.96903" lon="5.12388">
        <ele>395.8</ele>
        <time>2013-01-30T13:45:38.000Z</time>
      </trkpt>
      <trkpt lat="43.96902" lon="5.12389">
        <ele>395.9</ele>
        <time>2013-01-30T13:45:45.000Z</time>
      </trkpt>
      <trkpt lat="43.96898" lon="5.12394">
        <ele>395.2</ele>
        <time>2013-01-30T13:45:46.000Z</time>
      </trkpt>
      <trkpt lat="43.96895" lon="5.12397">
        <ele>394.5</ele>
        <time>2013-01-30T13:45:48.000Z</time>
      </trkpt>
      <trkpt lat="43.96893" lon="5.12399">
        <ele>394.4</ele>
        <time>2013-01-30T13:45:49.000Z</time>
      </trkpt>
      <trkpt lat="43.96893" lon="5.12403">
        <ele>394</ele>
        <time>2013-01-30T13:45:50.000Z</time>
      </trkpt>
      <trkpt lat="43.96892" lon="5.12405">
        <ele>393.8</ele>
        <time>2013-01-30T13:45:51.000Z</time>
      </trkpt>
      <trkpt lat="43.96891" lon="5.1241">
        <ele>394.3</ele>
        <time>2013-01-30T13:45:53.000Z</time>
      </trkpt>
      <trkpt lat="43.9689" lon="5.12412">
        <ele>394.6</ele>
        <time>2013-01-30T13:45:54.000Z</time>
      </trkpt>
      <trkpt lat="43.96888" lon="5.12417">
        <ele>395.1</ele>
        <time>2013-01-30T13:45:56.000Z</time>
      </trkpt>
      <trkpt lat="43.96887" lon="5.12419">
        <ele>395.2</ele>
        <time>2013-01-30T13:45:57.000Z</time>
      </trkpt>
      <trkpt lat="43.96884" lon="5.12424">
        <ele>394.6</ele>
        <time>2013-01-30T13:45:59.000Z</time>
      </trkpt>
      <trkpt lat="43.96884" lon="5.12424">
        <ele>394.7</ele>
        <time>2013-01-30T13:46:00.000Z</time>
      </trkpt>
      <trkpt lat="43.96885" lon="5.12429">
        <ele>396.5</ele>
        <time>2013-01-30T13:46:06.000Z</time>
      </trkpt>
      <trkpt lat="43.96885" lon="5.12431">
        <ele>396.4</ele>
        <time>2013-01-30T13:46:07.000Z</time>
      </trkpt>
      <trkpt lat="43.96883" lon="5.12435">
        <ele>398.2</ele>
        <time>2013-01-30T13:46:08.000Z</time>
      </trkpt>
      <trkpt lat="43.96882" lon="5.12437">
        <ele>399</ele>
        <time>2013-01-30T13:46:09.000Z</time>
      </trkpt>
      <trkpt lat="43.9688" lon="5.12442">
        <ele>399.8</ele>
        <time>2013-01-30T13:46:11.000Z</time>
      </trkpt>
      <trkpt lat="43.96879" lon="5.12445">
        <ele>399.5</ele>
        <time>2013-01-30T13:46:12.000Z</time>
      </trkpt>
      <trkpt lat="43.96875" lon="5.12444">
        <ele>400</ele>
        <time>2013-01-30T13:46:13.000Z</time>
      </trkpt>
      <trkpt lat="43.96873" lon="5.12445">
        <ele>400.3</ele>
        <time>2013-01-30T13:46:14.000Z</time>
      </trkpt>
      <trkpt lat="43.96869" lon="5.12447">
        <ele>399.4</ele>
        <time>2013-01-30T13:46:16.000Z</time>
      </trkpt>
      <trkpt lat="43.96868" lon="5.12447">
        <ele>401.1</ele>
        <time>2013-01-30T13:46:17.000Z</time>
      </trkpt>
      <trkpt lat="43.96864" lon="5.12449">
        <ele>401.4</ele>
        <time>2013-01-30T13:46:20.000Z</time>
      </trkpt>
      <trkpt lat="43.96862" lon="5.12449">
        <ele>401.3</ele>
        <time>2013-01-30T13:46:21.000Z</time>
      </trkpt>
      <trkpt lat="43.96858" lon="5.12447">
        <ele>401.9</ele>
        <time>2013-01-30T13:46:24.000Z</time>
      </trkpt>
      <trkpt lat="43.96858" lon="5.12446">
        <ele>402.4</ele>
        <time>2013-01-30T13:46:25.000Z</time>
      </trkpt>
      <trkpt lat="43.96855" lon="5.12449">
        <ele>403.6</ele>
        <time>2013-01-30T13:46:31.000Z</time>
      </trkpt>
      <trkpt lat="43.96852" lon="5.12451">
        <ele>403.5</ele>
        <time>2013-01-30T13:46:32.000Z</time>
      </trkpt>
      <trkpt lat="43.96848" lon="5.12454">
        <ele>402.8</ele>
        <time>2013-01-30T13:46:33.000Z</time>
      </trkpt>
      <trkpt lat="43.96848" lon="5.12455">
        <ele>402.9</ele>
        <time>2013-01-30T13:46:34.000Z</time>
      </trkpt>
      <trkpt lat="43.96846" lon="5.1246">
        <ele>403.3</ele>
        <time>2013-01-30T13:46:36.000Z</time>
      </trkpt>
      <trkpt lat="43.96845" lon="5.12462">
        <ele>402.4</ele>
        <time>2013-01-30T13:46:37.000Z</time>
      </trkpt>
      <trkpt lat="43.96843" lon="5.12467">
        <ele>402.4</ele>
        <time>2013-01-30T13:46:39.000Z</time>
      </trkpt>
      <trkpt lat="43.96842" lon="5.1247">
        <ele>401.2</ele>
        <time>2013-01-30T13:46:40.000Z</time>
      </trkpt>
      <trkpt lat="43.96842" lon="5.12475">
        <ele>401.3</ele>
        <time>2013-01-30T13:46:43.000Z</time>
      </trkpt>
      <trkpt lat="43.96843" lon="5.12477">
        <ele>402.2</ele>
        <time>2013-01-30T13:46:44.000Z</time>
      </trkpt>
      <trkpt lat="43.96843" lon="5.1248">
        <ele>402.7</ele>
        <time>2013-01-30T13:46:45.000Z</time>
      </trkpt>
      <trkpt lat="43.96842" lon="5.12483">
        <ele>402.9</ele>
        <time>2013-01-30T13:46:46.000Z</time>
      </trkpt>
      <trkpt lat="43.96841" lon="5.12488">
        <ele>405.6</ele>
        <time>2013-01-30T13:46:48.000Z</time>
      </trkpt>
      <trkpt lat="43.96841" lon="5.1249">
        <ele>405.6</ele>
        <time>2013-01-30T13:46:49.000Z</time>
      </trkpt>
      <trkpt lat="43.9684" lon="5.12494">
        <ele>406</ele>
        <time>2013-01-30T13:46:51.000Z</time>
      </trkpt>
      <trkpt lat="43.96839" lon="5.12496">
        <ele>405.1</ele>
        <time>2013-01-30T13:46:52.000Z</time>
      </trkpt>
      <trkpt lat="43.96837" lon="5.12501">
        <ele>403.7</ele>
        <time>2013-01-30T13:46:55.000Z</time>
      </trkpt>
      <trkpt lat="43.96838" lon="5.12503">
        <ele>404.1</ele>
        <time>2013-01-30T13:46:56.000Z</time>
      </trkpt>
      <trkpt lat="43.96836" lon="5.12506">
        <ele>401.6</ele>
        <time>2013-01-30T13:46:59.000Z</time>
      </trkpt>
      <trkpt lat="43.96835" lon="5.12508">
        <ele>401.6</ele>
        <time>2013-01-30T13:47:00.000Z</time>
      </trkpt>
      <trkpt lat="43.96836" lon="5.12513">
        <ele>401.6</ele>
        <time>2013-01-30T13:47:03.000Z</time>
      </trkpt>
      <trkpt lat="43.96836" lon="5.12516">
        <ele>401.5</ele>
        <time>2013-01-30T13:47:04.000Z</time>
      </trkpt>
      <trkpt lat="43.96836" lon="5.12521">
        <ele>400.4</ele>
        <time>2013-01-30T13:47:07.000Z</time>
      </trkpt>
      <trkpt lat="43.96836" lon="5.12523">
        <ele>402.4</ele>
        <time>2013-01-30T13:47:08.000Z</time>
      </trkpt>
      <trkpt lat="43.96837" lon="5.12529">
        <ele>403.9</ele>
        <time>2013-01-30T13:47:10.000Z</time>
      </trkpt>
      <trkpt lat="43.96837" lon="5.1253">
        <ele>404.2</ele>
        <time>2013-01-30T13:47:11.000Z</time>
      </trkpt>
      <trkpt lat="43.96838" lon="5.12534">
        <ele>404.1</ele>
        <time>2013-01-30T13:47:13.000Z</time>
      </trkpt>
      <trkpt lat="43.96837" lon="5.12537">
        <ele>403.9</ele>
        <time>2013-01-30T13:47:14.000Z</time>
      </trkpt>
      <trkpt lat="43.96837" lon="5.12543">
        <ele>405.4</ele>
        <time>2013-01-30T13:47:18.000Z</time>
      </trkpt>
      <trkpt lat="43.96837" lon="5.12544">
        <ele>405</ele>
        <time>2013-01-30T13:47:19.000Z</time>
      </trkpt>
      <trkpt lat="43.9684" lon="5.12545">
        <ele>411.8</ele>
        <time>2013-01-30T13:47:23.000Z</time>
      </trkpt>
      <trkpt lat="43.96842" lon="5.12548">
        <ele>413.6</ele>
        <time>2013-01-30T13:47:24.000Z</time>
      </trkpt>
      <trkpt lat="43.96842" lon="5.12553">
        <ele>420.5</ele>
        <time>2013-01-30T13:47:27.000Z</time>
      </trkpt>
      <trkpt lat="43.96842" lon="5.12556">
        <ele>422</ele>
        <time>2013-01-30T13:47:28.000Z</time>
      </trkpt>
      <trkpt lat="43.96844" lon="5.12561">
        <ele>423.8</ele>
        <time>2013-01-30T13:47:31.000Z</time>
      </trkpt>
      <trkpt lat="43.96843" lon="5.12565">
        <ele>423.9</ele>
        <time>2013-01-30T13:47:32.000Z</time>
      </trkpt>
      <trkpt lat="43.96842" lon="5.12569">
        <ele>423</ele>
        <time>2013-01-30T13:47:34.000Z</time>
      </trkpt>
      <trkpt lat="43.96841" lon="5.12571">
        <ele>425.2</ele>
        <time>2013-01-30T13:47:35.000Z</time>
      </trkpt>
      <trkpt lat="43.9684" lon="5.12573">
        <ele>426</ele>
        <time>2013-01-30T13:47:36.000Z</time>
      </trkpt>
      <trkpt lat="43.96841" lon="5.12577">
        <ele>425.3</ele>
        <time>2013-01-30T13:47:37.000Z</time>
      </trkpt>
      <trkpt lat="43.96841" lon="5.12583">
        <ele>425.9</ele>
        <time>2013-01-30T13:47:39.000Z</time>
      </trkpt>
      <trkpt lat="43.96841" lon="5.12584">
        <ele>425.6</ele>
        <time>2013-01-30T13:47:40.000Z</time>
      </trkpt>
      <trkpt lat="43.96842" lon="5.12589">
        <ele>427.8</ele>
        <time>2013-01-30T13:47:43.000Z</time>
      </trkpt>
      <trkpt lat="43.96842" lon="5.12593">
        <ele>424.9</ele>
        <time>2013-01-30T13:47:45.000Z</time>
      </trkpt>
      <trkpt lat="43.96842" lon="5.12598">
        <ele>425.8</ele>
        <time>2013-01-30T13:47:48.000Z</time>
      </trkpt>
      <trkpt lat="43.96842" lon="5.126">
        <ele>427</ele>
        <time>2013-01-30T13:47:49.000Z</time>
      </trkpt>
      <trkpt lat="43.96843" lon="5.12604">
        <ele>427.3</ele>
        <time>2013-01-30T13:47:51.000Z</time>
      </trkpt>
      <trkpt lat="43.96842" lon="5.12606">
        <ele>427.1</ele>
        <time>2013-01-30T13:47:52.000Z</time>
      </trkpt>
      <trkpt lat="43.96842" lon="5.1261">
        <ele>426.5</ele>
        <time>2013-01-30T13:47:54.000Z</time>
      </trkpt>
      <trkpt lat="43.96841" lon="5.12613">
        <ele>426.1</ele>
        <time>2013-01-30T13:47:55.000Z</time>
      </trkpt>
      <trkpt lat="43.96841" lon="5.12619">
        <ele>426</ele>
        <time>2013-01-30T13:47:57.000Z</time>
      </trkpt>
      <trkpt lat="43.96838" lon="5.12622">
        <ele>425.1</ele>
        <time>2013-01-30T13:47:58.000Z</time>
      </trkpt>
      <trkpt lat="43.96836" lon="5.12625">
        <ele>424</ele>
        <time>2013-01-30T13:48:01.000Z</time>
      </trkpt>
      <trkpt lat="43.96835" lon="5.12627">
        <ele>423.3</ele>
        <time>2013-01-30T13:48:02.000Z</time>
      </trkpt>
      <trkpt lat="43.96833" lon="5.12631">
        <ele>422</ele>
        <time>2013-01-30T13:48:06.000Z</time>
      </trkpt>
      <trkpt lat="43.96832" lon="5.12633">
        <ele>421.7</ele>
        <time>2013-01-30T13:48:07.000Z</time>
      </trkpt>
      <trkpt lat="43.9683" lon="5.12636">
        <ele>424.3</ele>
        <time>2013-01-30T13:48:09.000Z</time>
      </trkpt>
      <trkpt lat="43.96828" lon="5.12638">
        <ele>424.5</ele>
        <time>2013-01-30T13:48:10.000Z</time>
      </trkpt>
      <trkpt lat="43.96827" lon="5.12643">
        <ele>426.1</ele>
        <time>2013-01-30T13:48:13.000Z</time>
      </trkpt>
      <trkpt lat="43.96827" lon="5.12644">
        <ele>426.2</ele>
        <time>2013-01-30T13:48:14.000Z</time>
      </trkpt>
      <trkpt lat="43.96829" lon="5.12648">
        <ele>424.7</ele>
        <time>2013-01-30T13:48:19.000Z</time>
      </trkpt>
      <trkpt lat="43.96829" lon="5.1265">
        <ele>424.5</ele>
        <time>2013-01-30T13:48:20.000Z</time>
      </trkpt>
      <trkpt lat="43.96824" lon="5.12652">
        <ele>424</ele>
        <time>2013-01-30T13:48:21.000Z</time>
      </trkpt>
      <trkpt lat="43.96823" lon="5.12657">
        <ele>421.3</ele>
        <time>2013-01-30T13:48:24.000Z</time>
      </trkpt>
      <trkpt lat="43.96823" lon="5.12659">
        <ele>420.3</ele>
        <time>2013-01-30T13:48:25.000Z</time>
      </trkpt>
      <trkpt lat="43.96822" lon="5.12664">
        <ele>418.8</ele>
        <time>2013-01-30T13:48:29.000Z</time>
      </trkpt>
      <trkpt lat="43.96822" lon="5.12666">
        <ele>419</ele>
        <time>2013-01-30T13:48:30.000Z</time>
      </trkpt>
      <trkpt lat="43.96822" lon="5.1267">
        <ele>417.7</ele>
        <time>2013-01-30T13:48:33.000Z</time>
      </trkpt>
      <trkpt lat="43.96822" lon="5.12672">
        <ele>417.2</ele>
        <time>2013-01-30T13:48:34.000Z</time>
      </trkpt>
      <trkpt lat="43.96824" lon="5.12677">
        <ele>417</ele>
        <time>2013-01-30T13:48:36.000Z</time>
      </trkpt>
      <trkpt lat="43.96824" lon="5.12679">
        <ele>416.6</ele>
        <time>2013-01-30T13:48:37.000Z</time>
      </trkpt>
      <trkpt lat="43.96824" lon="5.12685">
        <ele>416.4</ele>
        <time>2013-01-30T13:48:40.000Z</time>
      </trkpt>
      <trkpt lat="43.96824" lon="5.12687">
        <ele>416</ele>
        <time>2013-01-30T13:48:41.000Z</time>
      </trkpt>
      <trkpt lat="43.96825" lon="5.12691">
        <ele>416</ele>
        <time>2013-01-30T13:48:43.000Z</time>
      </trkpt>
      <trkpt lat="43.96827" lon="5.12695">
        <ele>417.1</ele>
        <time>2013-01-30T13:48:45.000Z</time>
      </trkpt>
      <trkpt lat="43.96828" lon="5.127">
        <ele>416.5</ele>
        <time>2013-01-30T13:48:48.000Z</time>
      </trkpt>
      <trkpt lat="43.96828" lon="5.12701">
        <ele>417.1</ele>
        <time>2013-01-30T13:48:49.000Z</time>
      </trkpt>
      <trkpt lat="43.96829" lon="5.12706">
        <ele>413.9</ele>
        <time>2013-01-30T13:49:11.000Z</time>
      </trkpt>
      <trkpt lat="43.9683" lon="5.12709">
        <ele>413.7</ele>
        <time>2013-01-30T13:49:12.000Z</time>
      </trkpt>
      <trkpt lat="43.96831" lon="5.12713">
        <ele>420.6</ele>
        <time>2013-01-30T13:49:21.000Z</time>
      </trkpt>
      <trkpt lat="43.96832" lon="5.12714">
        <ele>421</ele>
        <time>2013-01-30T13:49:22.000Z</time>
      </trkpt>
      <trkpt lat="43.96836" lon="5.12716">
        <ele>424.9</ele>
        <time>2013-01-30T13:49:28.000Z</time>
      </trkpt>
      <trkpt lat="43.96837" lon="5.12716">
        <ele>424.6</ele>
        <time>2013-01-30T13:49:29.000Z</time>
      </trkpt>
      <trkpt lat="43.96841" lon="5.12718">
        <ele>427</ele>
        <time>2013-01-30T13:49:43.000Z</time>
      </trkpt>
      <trkpt lat="43.96841" lon="5.12718">
        <ele>427.5</ele>
        <time>2013-01-30T13:49:45.000Z</time>
      </trkpt>
      <trkpt lat="43.96845" lon="5.1272">
        <ele>429.8</ele>
        <time>2013-01-30T13:50:04.000Z</time>
      </trkpt>
      <trkpt lat="43.96846" lon="5.12719">
        <ele>430.7</ele>
        <time>2013-01-30T13:50:05.000Z</time>
      </trkpt>
      <trkpt lat="43.9685" lon="5.12721">
        <ele>431</ele>
        <time>2013-01-30T13:50:07.000Z</time>
      </trkpt>
      <trkpt lat="43.96851" lon="5.12723">
        <ele>432.2</ele>
        <time>2013-01-30T13:50:08.000Z</time>
      </trkpt>
      <trkpt lat="43.96855" lon="5.12726">
        <ele>432.5</ele>
        <time>2013-01-30T13:50:11.000Z</time>
      </trkpt>
      <trkpt lat="43.96856" lon="5.12727">
        <ele>431.9</ele>
        <time>2013-01-30T13:50:12.000Z</time>
      </trkpt>
      <trkpt lat="43.96858" lon="5.12727">
        <ele>430.2</ele>
        <time>2013-01-30T13:50:28.000Z</time>
      </trkpt>
      <trkpt lat="43.9686" lon="5.1273">
        <ele>429.9</ele>
        <time>2013-01-30T13:50:29.000Z</time>
      </trkpt>
      <trkpt lat="43.96864" lon="5.12734">
        <ele>434.2</ele>
        <time>2013-01-30T13:50:32.000Z</time>
      </trkpt>
      <trkpt lat="43.96865" lon="5.12734">
        <ele>434.6</ele>
        <time>2013-01-30T13:50:33.000Z</time>
      </trkpt>
      <trkpt lat="43.96869" lon="5.12736">
        <ele>433.6</ele>
        <time>2013-01-30T13:50:40.000Z</time>
      </trkpt>
      <trkpt lat="43.96871" lon="5.12736">
        <ele>432.5</ele>
        <time>2013-01-30T13:50:41.000Z</time>
      </trkpt>
      <trkpt lat="43.96874" lon="5.12735">
        <ele>431.2</ele>
        <time>2013-01-30T13:51:09.000Z</time>
      </trkpt>
      <trkpt lat="43.96876" lon="5.12734">
        <ele>431</ele>
        <time>2013-01-30T13:51:10.000Z</time>
      </trkpt>
      <trkpt lat="43.96879" lon="5.12737">
        <ele>431.2</ele>
        <time>2013-01-30T13:52:38.000Z</time>
      </trkpt>
      <trkpt lat="43.9688" lon="5.12737">
        <ele>430.9</ele>
        <time>2013-01-30T13:52:39.000Z</time>
      </trkpt>
      <trkpt lat="43.96883" lon="5.12739">
        <ele>426.9</ele>
        <time>2013-01-30T13:56:17.000Z</time>
      </trkpt>
      <trkpt lat="43.96886" lon="5.1274">
        <ele>426</ele>
        <time>2013-01-30T13:56:18.000Z</time>
      </trkpt>
      <trkpt lat="43.96889" lon="5.12742">
        <ele>424.7</ele>
        <time>2013-01-30T13:56:20.000Z</time>
      </trkpt>
      <trkpt lat="43.96891" lon="5.12742">
        <ele>424.5</ele>
        <time>2013-01-30T13:56:21.000Z</time>
      </trkpt>
      <trkpt lat="43.96895" lon="5.12743">
        <ele>424.6</ele>
        <time>2013-01-30T13:56:24.000Z</time>
      </trkpt>
      <trkpt lat="43.96896" lon="5.12739">
        <ele>424.2</ele>
        <time>2013-01-30T13:56:25.000Z</time>
      </trkpt>
      <trkpt lat="43.969" lon="5.12739">
        <ele>424.9</ele>
        <time>2013-01-30T13:56:29.000Z</time>
      </trkpt>
      <trkpt lat="43.96901" lon="5.1274">
        <ele>425</ele>
        <time>2013-01-30T13:56:30.000Z</time>
      </trkpt>
      <trkpt lat="43.96904" lon="5.12738">
        <ele>427.8</ele>
        <time>2013-01-30T13:56:37.000Z</time>
      </trkpt>
      <trkpt lat="43.96905" lon="5.12737">
        <ele>428.2</ele>
        <time>2013-01-30T13:56:38.000Z</time>
      </trkpt>
      <trkpt lat="43.96907" lon="5.12734">
        <ele>428.3</ele>
        <time>2013-01-30T13:56:40.000Z</time>
      </trkpt>
      <trkpt lat="43.96909" lon="5.12733">
        <ele>428.5</ele>
        <time>2013-01-30T13:56:41.000Z</time>
      </trkpt>
      <trkpt lat="43.96912" lon="5.12731">
        <ele>429.3</ele>
        <time>2013-01-30T13:56:44.000Z</time>
      </trkpt>
      <trkpt lat="43.96913" lon="5.12731">
        <ele>429.5</ele>
        <time>2013-01-30T13:56:45.000Z</time>
      </trkpt>
      <trkpt lat="43.96915" lon="5.1273">
        <ele>430.1</ele>
        <time>2013-01-30T13:56:47.000Z</time>
      </trkpt>
      <trkpt lat="43.96917" lon="5.12727">
        <ele>431.3</ele>
        <time>2013-01-30T13:56:48.000Z</time>
      </trkpt>
      <trkpt lat="43.9692" lon="5.12724">
        <ele>430.8</ele>
        <time>2013-01-30T13:56:50.000Z</time>
      </trkpt>
      <trkpt lat="43.96921" lon="5.12722">
        <ele>432.1</ele>
        <time>2013-01-30T13:56:51.000Z</time>
      </trkpt>
      <trkpt lat="43.96924" lon="5.12719">
        <ele>433</ele>
        <time>2013-01-30T13:56:53.000Z</time>
      </trkpt>
      <trkpt lat="43.96925" lon="5.12718">
        <ele>433.4</ele>
        <time>2013-01-30T13:56:54.000Z</time>
      </trkpt>
      <trkpt lat="43.96925" lon="5.12712">
        <ele>435</ele>
        <time>2013-01-30T13:56:58.000Z</time>
      </trkpt>
      <trkpt lat="43.96926" lon="5.1271">
        <ele>434.9</ele>
        <time>2013-01-30T13:56:59.000Z</time>
      </trkpt>
      <trkpt lat="43.96929" lon="5.12708">
        <ele>437.5</ele>
        <time>2013-01-30T13:57:07.000Z</time>
      </trkpt>
      <trkpt lat="43.9693" lon="5.12707">
        <ele>437.3</ele>
        <time>2013-01-30T13:57:08.000Z</time>
      </trkpt>
      <trkpt lat="43.96932" lon="5.12701">
        <ele>436.5</ele>
        <time>2013-01-30T13:57:12.000Z</time>
      </trkpt>
      <trkpt lat="43.96935" lon="5.12699">
        <ele>438.2</ele>
        <time>2013-01-30T13:57:13.000Z</time>
      </trkpt>
      <trkpt lat="43.96937" lon="5.12697">
        <ele>438</ele>
        <time>2013-01-30T13:57:14.000Z</time>
      </trkpt>
      <trkpt lat="43.96939" lon="5.12694">
        <ele>437.9</ele>
        <time>2013-01-30T13:57:15.000Z</time>
      </trkpt>
      <trkpt lat="43.96941" lon="5.12691">
        <ele>438.1</ele>
        <time>2013-01-30T13:57:17.000Z</time>
      </trkpt>
      <trkpt lat="43.96943" lon="5.1269">
        <ele>438.6</ele>
        <time>2013-01-30T13:57:18.000Z</time>
      </trkpt>
      <trkpt lat="43.96944" lon="5.12685">
        <ele>441.4</ele>
        <time>2013-01-30T13:57:21.000Z</time>
      </trkpt>
      <trkpt lat="43.96945" lon="5.12683">
        <ele>441.7</ele>
        <time>2013-01-30T13:57:22.000Z</time>
      </trkpt>
      <trkpt lat="43.96946" lon="5.12678">
        <ele>441.8</ele>
        <time>2013-01-30T13:57:24.000Z</time>
      </trkpt>
      <trkpt lat="43.96948" lon="5.12676">
        <ele>442.1</ele>
        <time>2013-01-30T13:57:25.000Z</time>
      </trkpt>
      <trkpt lat="43.9695" lon="5.12672">
        <ele>442.4</ele>
        <time>2013-01-30T13:57:27.000Z</time>
      </trkpt>
      <trkpt lat="43.96951" lon="5.1267">
        <ele>443</ele>
        <time>2013-01-30T13:57:28.000Z</time>
      </trkpt>
      <trkpt lat="43.96954" lon="5.12665">
        <ele>443</ele>
        <time>2013-01-30T13:57:30.000Z</time>
      </trkpt>
      <trkpt lat="43.96955" lon="5.12663">
        <ele>443.2</ele>
        <time>2013-01-30T13:57:31.000Z</time>
      </trkpt>
      <trkpt lat="43.96958" lon="5.1266">
        <ele>446.3</ele>
        <time>2013-01-30T13:57:35.000Z</time>
      </trkpt>
      <trkpt lat="43.96959" lon="5.12658">
        <ele>446.4</ele>
        <time>2013-01-30T13:57:36.000Z</time>
      </trkpt>
      <trkpt lat="43.96961" lon="5.12656">
        <ele>445.3</ele>
        <time>2013-01-30T13:57:37.000Z</time>
      </trkpt>
      <trkpt lat="43.96963" lon="5.12654">
        <ele>444.6</ele>
        <time>2013-01-30T13:57:38.000Z</time>
      </trkpt>
      <trkpt lat="43.96966" lon="5.12649">
        <ele>443.6</ele>
        <time>2013-01-30T13:57:40.000Z</time>
      </trkpt>
      <trkpt lat="43.96967" lon="5.12647">
        <ele>445.1</ele>
        <time>2013-01-30T13:57:41.000Z</time>
      </trkpt>
      <trkpt lat="43.96969" lon="5.12643">
        <ele>445.3</ele>
        <time>2013-01-30T13:57:44.000Z</time>
      </trkpt>
      <trkpt lat="43.96971" lon="5.12642">
        <ele>444.3</ele>
        <time>2013-01-30T13:57:45.000Z</time>
      </trkpt>
      <trkpt lat="43.96973" lon="5.12637">
        <ele>444.6</ele>
        <time>2013-01-30T13:57:48.000Z</time>
      </trkpt>
      <trkpt lat="43.96973" lon="5.12635">
        <ele>444.4</ele>
        <time>2013-01-30T13:57:49.000Z</time>
      </trkpt>
      <trkpt lat="43.96975" lon="5.12631">
        <ele>443.9</ele>
        <time>2013-01-30T13:57:51.000Z</time>
      </trkpt>
      <trkpt lat="43.96976" lon="5.12629">
        <ele>444.6</ele>
        <time>2013-01-30T13:57:52.000Z</time>
      </trkpt>
      <trkpt lat="43.96978" lon="5.12625">
        <ele>443.8</ele>
        <time>2013-01-30T13:57:54.000Z</time>
      </trkpt>
      <trkpt lat="43.96979" lon="5.12623">
        <ele>443.2</ele>
        <time>2013-01-30T13:57:55.000Z</time>
      </trkpt>
      <trkpt lat="43.96981" lon="5.12618">
        <ele>443.7</ele>
        <time>2013-01-30T13:57:59.000Z</time>
      </trkpt>
      <trkpt lat="43.96981" lon="5.12617">
        <ele>443.7</ele>
        <time>2013-01-30T13:58:00.000Z</time>
      </trkpt>
      <trkpt lat="43.96982" lon="5.12612">
        <ele>445.2</ele>
        <time>2013-01-30T13:58:02.000Z</time>
      </trkpt>
      <trkpt lat="43.96983" lon="5.12609">
        <ele>445.3</ele>
        <time>2013-01-30T13:58:03.000Z</time>
      </trkpt>
      <trkpt lat="43.96985" lon="5.12605">
        <ele>445</ele>
        <time>2013-01-30T13:58:05.000Z</time>
      </trkpt>
      <trkpt lat="43.96986" lon="5.12603">
        <ele>445.2</ele>
        <time>2013-01-30T13:58:06.000Z</time>
      </trkpt>
      <trkpt lat="43.96989" lon="5.12599">
        <ele>444.7</ele>
        <time>2013-01-30T13:58:08.000Z</time>
      </trkpt>
      <trkpt lat="43.96991" lon="5.12598">
        <ele>444.2</ele>
        <time>2013-01-30T13:58:09.000Z</time>
      </trkpt>
      <trkpt lat="43.96992" lon="5.12594">
        <ele>445.7</ele>
        <time>2013-01-30T13:58:12.000Z</time>
      </trkpt>
      <trkpt lat="43.96993" lon="5.12591">
        <ele>444.8</ele>
        <time>2013-01-30T13:58:13.000Z</time>
      </trkpt>
      <trkpt lat="43.96993" lon="5.12587">
        <ele>447.7</ele>
        <time>2013-01-30T13:58:15.000Z</time>
      </trkpt>
      <trkpt lat="43.96994" lon="5.12585">
        <ele>448.3</ele>
        <time>2013-01-30T13:58:16.000Z</time>
      </trkpt>
      <trkpt lat="43.96995" lon="5.12581">
        <ele>448.8</ele>
        <time>2013-01-30T13:58:18.000Z</time>
      </trkpt>
      <trkpt lat="43.96996" lon="5.12579">
        <ele>448.4</ele>
        <time>2013-01-30T13:58:19.000Z</time>
      </trkpt>
      <trkpt lat="43.96997" lon="5.12578">
        <ele>448.4</ele>
        <time>2013-01-30T13:58:20.000Z</time>
      </trkpt>
      <trkpt lat="43.96998" lon="5.12572">
        <ele>447.3</ele>
        <time>2013-01-30T13:58:21.000Z</time>
      </trkpt>
      <trkpt lat="43.96999" lon="5.12568">
        <ele>447.8</ele>
        <time>2013-01-30T13:58:22.000Z</time>
      </trkpt>
      <trkpt lat="43.97002" lon="5.12565">
        <ele>447.4</ele>
        <time>2013-01-30T13:58:23.000Z</time>
      </trkpt>
      <trkpt lat="43.97003" lon="5.12561">
        <ele>447.5</ele>
        <time>2013-01-30T13:58:25.000Z</time>
      </trkpt>
      <trkpt lat="43.97004" lon="5.12559">
        <ele>447.6</ele>
        <time>2013-01-30T13:58:26.000Z</time>
      </trkpt>
      <trkpt lat="43.97008" lon="5.12556">
        <ele>446.3</ele>
        <time>2013-01-30T13:58:29.000Z</time>
      </trkpt>
      <trkpt lat="43.97009" lon="5.12554">
        <ele>446.1</ele>
        <time>2013-01-30T13:58:30.000Z</time>
      </trkpt>
      <trkpt lat="43.97011" lon="5.1255">
        <ele>446</ele>
        <time>2013-01-30T13:58:32.000Z</time>
      </trkpt>
      <trkpt lat="43.97012" lon="5.12549">
        <ele>446.3</ele>
        <time>2013-01-30T13:58:33.000Z</time>
      </trkpt>
      <trkpt lat="43.97012" lon="5.12544">
        <ele>445.6</ele>
        <time>2013-01-30T13:58:34.000Z</time>
      </trkpt>
      <trkpt lat="43.97014" lon="5.12541">
        <ele>445.6</ele>
        <time>2013-01-30T13:58:35.000Z</time>
      </trkpt>
      <trkpt lat="43.97017" lon="5.12537">
        <ele>446.6</ele>
        <time>2013-01-30T13:58:37.000Z</time>
      </trkpt>
      <trkpt lat="43.97018" lon="5.12535">
        <ele>446.6</ele>
        <time>2013-01-30T13:58:38.000Z</time>
      </trkpt>
      <trkpt lat="43.97021" lon="5.12531">
        <ele>449</ele>
        <time>2013-01-30T13:58:40.000Z</time>
      </trkpt>
      <trkpt lat="43.97021" lon="5.12528">
        <ele>449.7</ele>
        <time>2013-01-30T13:58:41.000Z</time>
      </trkpt>
      <trkpt lat="43.97023" lon="5.12526">
        <ele>449.6</ele>
        <time>2013-01-30T13:58:42.000Z</time>
      </trkpt>
      <trkpt lat="43.97024" lon="5.12522">
        <ele>449</ele>
        <time>2013-01-30T13:58:43.000Z</time>
      </trkpt>
      <trkpt lat="43.97028" lon="5.12518">
        <ele>448.9</ele>
        <time>2013-01-30T13:58:45.000Z</time>
      </trkpt>
      <trkpt lat="43.9703" lon="5.12516">
        <ele>447.8</ele>
        <time>2013-01-30T13:58:46.000Z</time>
      </trkpt>
      <trkpt lat="43.97032" lon="5.12512">
        <ele>448.2</ele>
        <time>2013-01-30T13:58:48.000Z</time>
      </trkpt>
      <trkpt lat="43.97033" lon="5.12511">
        <ele>448.2</ele>
        <time>2013-01-30T13:58:49.000Z</time>
      </trkpt>
      <trkpt lat="43.97036" lon="5.12506">
        <ele>448.3</ele>
        <time>2013-01-30T13:58:51.000Z</time>
      </trkpt>
      <trkpt lat="43.97037" lon="5.12504">
        <ele>448.5</ele>
        <time>2013-01-30T13:58:52.000Z</time>
      </trkpt>
      <trkpt lat="43.9704" lon="5.12499">
        <ele>452</ele>
        <time>2013-01-30T13:58:55.000Z</time>
      </trkpt>
      <trkpt lat="43.97041" lon="5.12497">
        <ele>453</ele>
        <time>2013-01-30T13:58:56.000Z</time>
      </trkpt>
      <trkpt lat="43.97043" lon="5.12493">
        <ele>459.2</ele>
        <time>2013-01-30T13:58:59.000Z</time>
      </trkpt>
      <trkpt lat="43.97044" lon="5.12492">
        <ele>459.4</ele>
        <time>2013-01-30T13:59:00.000Z</time>
      </trkpt>
      <trkpt lat="43.97047" lon="5.12488">
        <ele>460.3</ele>
        <time>2013-01-30T13:59:02.000Z</time>
      </trkpt>
      <trkpt lat="43.97048" lon="5.12484">
        <ele>459.3</ele>
        <time>2013-01-30T13:59:03.000Z</time>
      </trkpt>
      <trkpt lat="43.9705" lon="5.12481">
        <ele>458.8</ele>
        <time>2013-01-30T13:59:04.000Z</time>
      </trkpt>
      <trkpt lat="43.97051" lon="5.12478">
        <ele>459.3</ele>
        <time>2013-01-30T13:59:05.000Z</time>
      </trkpt>
      <trkpt lat="43.97052" lon="5.12472">
        <ele>459.7</ele>
        <time>2013-01-30T13:59:08.000Z</time>
      </trkpt>
      <trkpt lat="43.97053" lon="5.12472">
        <ele>459.8</ele>
        <time>2013-01-30T13:59:09.000Z</time>
      </trkpt>
      <trkpt lat="43.97056" lon="5.12469">
        <ele>459.3</ele>
        <time>2013-01-30T13:59:19.000Z</time>
      </trkpt>
      <trkpt lat="43.97058" lon="5.12468">
        <ele>458.7</ele>
        <time>2013-01-30T13:59:20.000Z</time>
      </trkpt>
      <trkpt lat="43.97061" lon="5.12465">
        <ele>458.9</ele>
        <time>2013-01-30T13:59:22.000Z</time>
      </trkpt>
      <trkpt lat="43.97061" lon="5.12463">
        <ele>458.9</ele>
        <time>2013-01-30T13:59:23.000Z</time>
      </trkpt>
      <trkpt lat="43.97064" lon="5.12459">
        <ele>457.2</ele>
        <time>2013-01-30T13:59:26.000Z</time>
      </trkpt>
      <trkpt lat="43.97064" lon="5.12458">
        <ele>456.9</ele>
        <time>2013-01-30T13:59:27.000Z</time>
      </trkpt>
      <trkpt lat="43.97068" lon="5.12455">
        <ele>457.1</ele>
        <time>2013-01-30T13:59:37.000Z</time>
      </trkpt>
      <trkpt lat="43.97069" lon="5.12454">
        <ele>457.5</ele>
        <time>2013-01-30T13:59:38.000Z</time>
      </trkpt>
      <trkpt lat="43.97072" lon="5.1245">
        <ele>459.2</ele>
        <time>2013-01-30T13:59:43.000Z</time>
      </trkpt>
      <trkpt lat="43.97073" lon="5.12449">
        <ele>459</ele>
        <time>2013-01-30T13:59:44.000Z</time>
      </trkpt>
      <trkpt lat="43.97075" lon="5.12445">
        <ele>459.7</ele>
        <time>2013-01-30T13:59:52.000Z</time>
      </trkpt>
      <trkpt lat="43.97076" lon="5.12444">
        <ele>459.7</ele>
        <time>2013-01-30T13:59:53.000Z</time>
      </trkpt>
      <trkpt lat="43.97078" lon="5.12439">
        <ele>460.2</ele>
        <time>2013-01-30T13:59:55.000Z</time>
      </trkpt>
      <trkpt lat="43.97079" lon="5.12438">
        <ele>460.4</ele>
        <time>2013-01-30T13:59:56.000Z</time>
      </trkpt>
      <trkpt lat="43.97082" lon="5.12434">
        <ele>462.1</ele>
        <time>2013-01-30T13:59:59.000Z</time>
      </trkpt>
      <trkpt lat="43.97082" lon="5.12433">
        <ele>462.9</ele>
        <time>2013-01-30T14:00:00.000Z</time>
      </trkpt>
      <trkpt lat="43.97084" lon="5.12428">
        <ele>463.9</ele>
        <time>2013-01-30T14:00:03.000Z</time>
      </trkpt>
      <trkpt lat="43.97085" lon="5.12427">
        <ele>463.9</ele>
        <time>2013-01-30T14:00:04.000Z</time>
      </trkpt>
      <trkpt lat="43.97086" lon="5.12423">
        <ele>463.8</ele>
        <time>2013-01-30T14:00:05.000Z</time>
      </trkpt>
      <trkpt lat="43.97089" lon="5.1242">
        <ele>462.8</ele>
        <time>2013-01-30T14:00:06.000Z</time>
      </trkpt>
      <trkpt lat="43.97091" lon="5.12417">
        <ele>461.6</ele>
        <time>2013-01-30T14:00:07.000Z</time>
      </trkpt>
      <trkpt lat="43.97092" lon="5.12416">
        <ele>463.8</ele>
        <time>2013-01-30T14:00:08.000Z</time>
      </trkpt>
      <trkpt lat="43.97094" lon="5.12412">
        <ele>463.7</ele>
        <time>2013-01-30T14:00:10.000Z</time>
      </trkpt>
      <trkpt lat="43.97095" lon="5.12409">
        <ele>464.3</ele>
        <time>2013-01-30T14:00:11.000Z</time>
      </trkpt>
      <trkpt lat="43.97097" lon="5.12404">
        <ele>464.1</ele>
        <time>2013-01-30T14:00:13.000Z</time>
      </trkpt>
      <trkpt lat="43.97098" lon="5.12402">
        <ele>463.9</ele>
        <time>2013-01-30T14:00:14.000Z</time>
      </trkpt>
      <trkpt lat="43.97099" lon="5.12396">
        <ele>464</ele>
        <time>2013-01-30T14:00:16.000Z</time>
      </trkpt>
      <trkpt lat="43.97099" lon="5.12393">
        <ele>464.3</ele>
        <time>2013-01-30T14:00:17.000Z</time>
      </trkpt>
      <trkpt lat="43.97101" lon="5.12389">
        <ele>464.2</ele>
        <time>2013-01-30T14:00:19.000Z</time>
      </trkpt>
      <trkpt lat="43.97103" lon="5.12387">
        <ele>464.4</ele>
        <time>2013-01-30T14:00:20.000Z</time>
      </trkpt>
      <trkpt lat="43.97106" lon="5.12384">
        <ele>465.4</ele>
        <time>2013-01-30T14:00:22.000Z</time>
      </trkpt>
      <trkpt lat="43.97108" lon="5.1238">
        <ele>464.6</ele>
        <time>2013-01-30T14:00:23.000Z</time>
      </trkpt>
      <trkpt lat="43.97111" lon="5.12375">
        <ele>465</ele>
        <time>2013-01-30T14:00:25.000Z</time>
      </trkpt>
      <trkpt lat="43.97112" lon="5.12374">
        <ele>465.6</ele>
        <time>2013-01-30T14:00:26.000Z</time>
      </trkpt>
      <trkpt lat="43.97112" lon="5.12371">
        <ele>466.1</ele>
        <time>2013-01-30T14:00:27.000Z</time>
      </trkpt>
      <trkpt lat="43.97113" lon="5.12368">
        <ele>465.5</ele>
        <time>2013-01-30T14:00:28.000Z</time>
      </trkpt>
      <trkpt lat="43.97116" lon="5.12363">
        <ele>463.1</ele>
        <time>2013-01-30T14:00:30.000Z</time>
      </trkpt>
      <trkpt lat="43.97117" lon="5.1236">
        <ele>462.2</ele>
        <time>2013-01-30T14:00:31.000Z</time>
      </trkpt>
      <trkpt lat="43.97118" lon="5.12358">
        <ele>463.5</ele>
        <time>2013-01-30T14:00:32.000Z</time>
      </trkpt>
      <trkpt lat="43.9712" lon="5.12355">
        <ele>463.1</ele>
        <time>2013-01-30T14:00:33.000Z</time>
      </trkpt>
      <trkpt lat="43.97122" lon="5.12351">
        <ele>462.4</ele>
        <time>2013-01-30T14:00:34.000Z</time>
      </trkpt>
      <trkpt lat="43.97125" lon="5.12348">
        <ele>462.8</ele>
        <time>2013-01-30T14:00:35.000Z</time>
      </trkpt>
      <trkpt lat="43.97126" lon="5.12346">
        <ele>461.5</ele>
        <time>2013-01-30T14:00:36.000Z</time>
      </trkpt>
      <trkpt lat="43.97127" lon="5.12343">
        <ele>460.1</ele>
        <time>2013-01-30T14:00:37.000Z</time>
      </trkpt>
      <trkpt lat="43.9713" lon="5.12339">
        <ele>459</ele>
        <time>2013-01-30T14:00:40.000Z</time>
      </trkpt>
      <trkpt lat="43.97131" lon="5.12337">
        <ele>458.8</ele>
        <time>2013-01-30T14:00:41.000Z</time>
      </trkpt>
      <trkpt lat="43.97131" lon="5.12335">
        <ele>459</ele>
        <time>2013-01-30T14:00:42.000Z</time>
      </trkpt>
      <trkpt lat="43.97134" lon="5.12331">
        <ele>458.9</ele>
        <time>2013-01-30T14:00:43.000Z</time>
      </trkpt>
      <trkpt lat="43.97135" lon="5.12328">
        <ele>459.2</ele>
        <time>2013-01-30T14:00:44.000Z</time>
      </trkpt>
      <trkpt lat="43.97137" lon="5.12326">
        <ele>459.2</ele>
        <time>2013-01-30T14:00:45.000Z</time>
      </trkpt>
      <trkpt lat="43.97138" lon="5.12324">
        <ele>458.9</ele>
        <time>2013-01-30T14:00:46.000Z</time>
      </trkpt>
      <trkpt lat="43.9714" lon="5.12322">
        <ele>459</ele>
        <time>2013-01-30T14:00:47.000Z</time>
      </trkpt>
      <trkpt lat="43.97142" lon="5.12319">
        <ele>458</ele>
        <time>2013-01-30T14:00:48.000Z</time>
      </trkpt>
      <trkpt lat="43.97145" lon="5.12316">
        <ele>456</ele>
        <time>2013-01-30T14:00:49.000Z</time>
      </trkpt>
      <trkpt lat="43.97148" lon="5.12312">
        <ele>454.3</ele>
        <time>2013-01-30T14:00:51.000Z</time>
      </trkpt>
      <trkpt lat="43.97149" lon="5.1231">
        <ele>451</ele>
        <time>2013-01-30T14:00:52.000Z</time>
      </trkpt>
      <trkpt lat="43.97151" lon="5.12306">
        <ele>449.5</ele>
        <time>2013-01-30T14:00:54.000Z</time>
      </trkpt>
      <trkpt lat="43.97153" lon="5.12304">
        <ele>448.6</ele>
        <time>2013-01-30T14:00:55.000Z</time>
      </trkpt>
      <trkpt lat="43.97157" lon="5.123">
        <ele>449.7</ele>
        <time>2013-01-30T14:00:57.000Z</time>
      </trkpt>
      <trkpt lat="43.97159" lon="5.12296">
        <ele>448.4</ele>
        <time>2013-01-30T14:00:58.000Z</time>
      </trkpt>
      <trkpt lat="43.97162" lon="5.12293">
        <ele>447.8</ele>
        <time>2013-01-30T14:00:59.000Z</time>
      </trkpt>
      <trkpt lat="43.97164" lon="5.1229">
        <ele>448.2</ele>
        <time>2013-01-30T14:01:00.000Z</time>
      </trkpt>
      <trkpt lat="43.97166" lon="5.12287">
        <ele>448.1</ele>
        <time>2013-01-30T14:01:01.000Z</time>
      </trkpt>
      <trkpt lat="43.97169" lon="5.12285">
        <ele>447.9</ele>
        <time>2013-01-30T14:01:02.000Z</time>
      </trkpt>
      <trkpt lat="43.97172" lon="5.12283">
        <ele>447.9</ele>
        <time>2013-01-30T14:01:03.000Z</time>
      </trkpt>
      <trkpt lat="43.97175" lon="5.12281">
        <ele>447.8</ele>
        <time>2013-01-30T14:01:04.000Z</time>
      </trkpt>
      <trkpt lat="43.97176" lon="5.12281">
        <ele>447.5</ele>
        <time>2013-01-30T14:01:05.000Z</time>
      </trkpt>
      <trkpt lat="43.9718" lon="5.12279">
        <ele>447.3</ele>
        <time>2013-01-30T14:01:06.000Z</time>
      </trkpt>
      <trkpt lat="43.97183" lon="5.12274">
        <ele>447.1</ele>
        <time>2013-01-30T14:01:07.000Z</time>
      </trkpt>
      <trkpt lat="43.97187" lon="5.12271">
        <ele>447.3</ele>
        <time>2013-01-30T14:01:08.000Z</time>
      </trkpt>
      <trkpt lat="43.97189" lon="5.12267">
        <ele>447.1</ele>
        <time>2013-01-30T14:01:09.000Z</time>
      </trkpt>
      <trkpt lat="43.97192" lon="5.12268">
        <ele>446</ele>
        <time>2013-01-30T14:01:10.000Z</time>
      </trkpt>
      <trkpt lat="43.97196" lon="5.12269">
        <ele>445.8</ele>
        <time>2013-01-30T14:01:11.000Z</time>
      </trkpt>
      <trkpt lat="43.97199" lon="5.12264">
        <ele>446.3</ele>
        <time>2013-01-30T14:01:13.000Z</time>
      </trkpt>
      <trkpt lat="43.972" lon="5.12263">
        <ele>446.2</ele>
        <time>2013-01-30T14:01:14.000Z</time>
      </trkpt>
      <trkpt lat="43.97202" lon="5.12258">
        <ele>445.4</ele>
        <time>2013-01-30T14:01:15.000Z</time>
      </trkpt>
      <trkpt lat="43.97204" lon="5.12255">
        <ele>444.9</ele>
        <time>2013-01-30T14:01:16.000Z</time>
      </trkpt>
      <trkpt lat="43.97205" lon="5.12251">
        <ele>444.7</ele>
        <time>2013-01-30T14:01:17.000Z</time>
      </trkpt>
      <trkpt lat="43.97206" lon="5.12247">
        <ele>444.7</ele>
        <time>2013-01-30T14:01:18.000Z</time>
      </trkpt>
      <trkpt lat="43.97208" lon="5.12243">
        <ele>443.3</ele>
        <time>2013-01-30T14:01:19.000Z</time>
      </trkpt>
      <trkpt lat="43.9721" lon="5.12239">
        <ele>442.9</ele>
        <time>2013-01-30T14:01:20.000Z</time>
      </trkpt>
      <trkpt lat="43.97213" lon="5.12235">
        <ele>442.6</ele>
        <time>2013-01-30T14:01:21.000Z</time>
      </trkpt>
      <trkpt lat="43.97216" lon="5.12233">
        <ele>442.6</ele>
        <time>2013-01-30T14:01:22.000Z</time>
      </trkpt>
      <trkpt lat="43.9722" lon="5.1223">
        <ele>443.1</ele>
        <time>2013-01-30T14:01:23.000Z</time>
      </trkpt>
      <trkpt lat="43.97224" lon="5.12226">
        <ele>443.2</ele>
        <time>2013-01-30T14:01:24.000Z</time>
      </trkpt>
      <trkpt lat="43.97228" lon="5.12222">
        <ele>443.5</ele>
        <time>2013-01-30T14:01:25.000Z</time>
      </trkpt>
      <trkpt lat="43.97231" lon="5.12221">
        <ele>443.2</ele>
        <time>2013-01-30T14:01:26.000Z</time>
      </trkpt>
      <trkpt lat="43.97236" lon="5.12221">
        <ele>443.3</ele>
        <time>2013-01-30T14:01:27.000Z</time>
      </trkpt>
      <trkpt lat="43.97239" lon="5.12223">
        <ele>443.5</ele>
        <time>2013-01-30T14:01:28.000Z</time>
      </trkpt>
      <trkpt lat="43.97245" lon="5.12226">
        <ele>441.8</ele>
        <time>2013-01-30T14:01:29.000Z</time>
      </trkpt>
      <trkpt lat="43.97248" lon="5.12228">
        <ele>442.7</ele>
        <time>2013-01-30T14:01:30.000Z</time>
      </trkpt>
      <trkpt lat="43.97251" lon="5.12227">
        <ele>443</ele>
        <time>2013-01-30T14:01:31.000Z</time>
      </trkpt>
      <trkpt lat="43.97255" lon="5.12224">
        <ele>442</ele>
        <time>2013-01-30T14:01:32.000Z</time>
      </trkpt>
      <trkpt lat="43.97259" lon="5.12223">
        <ele>441.5</ele>
        <time>2013-01-30T14:01:33.000Z</time>
      </trkpt>
      <trkpt lat="43.97263" lon="5.12222">
        <ele>440.9</ele>
        <time>2013-01-30T14:01:34.000Z</time>
      </trkpt>
      <trkpt lat="43.97267" lon="5.12223">
        <ele>440.7</ele>
        <time>2013-01-30T14:01:35.000Z</time>
      </trkpt>
      <trkpt lat="43.97271" lon="5.12222">
        <ele>440.6</ele>
        <time>2013-01-30T14:01:36.000Z</time>
      </trkpt>
      <trkpt lat="43.97275" lon="5.12221">
        <ele>440.7</ele>
        <time>2013-01-30T14:01:37.000Z</time>
      </trkpt>
      <trkpt lat="43.9728" lon="5.12228">
        <ele>438.4</ele>
        <time>2013-01-30T14:01:38.000Z</time>
      </trkpt>
      <trkpt lat="43.97284" lon="5.12229">
        <ele>437.7</ele>
        <time>2013-01-30T14:01:39.000Z</time>
      </trkpt>
      <trkpt lat="43.97287" lon="5.12231">
        <ele>437.6</ele>
        <time>2013-01-30T14:01:40.000Z</time>
      </trkpt>
      <trkpt lat="43.9729" lon="5.12232">
        <ele>437.3</ele>
        <time>2013-01-30T14:01:41.000Z</time>
      </trkpt>
      <trkpt lat="43.97293" lon="5.12233">
        <ele>437.2</ele>
        <time>2013-01-30T14:01:42.000Z</time>
      </trkpt>
      <trkpt lat="43.97297" lon="5.12234">
        <ele>436.9</ele>
        <time>2013-01-30T14:01:43.000Z</time>
      </trkpt>
      <trkpt lat="43.97299" lon="5.12231">
        <ele>437.2</ele>
        <time>2013-01-30T14:01:44.000Z</time>
      </trkpt>
      <trkpt lat="43.97302" lon="5.12229">
        <ele>437.6</ele>
        <time>2013-01-30T14:01:45.000Z</time>
      </trkpt>
      <trkpt lat="43.97303" lon="5.12229">
        <ele>437.5</ele>
        <time>2013-01-30T14:01:46.000Z</time>
      </trkpt>
      <trkpt lat="43.97306" lon="5.12229">
        <ele>437.4</ele>
        <time>2013-01-30T14:01:47.000Z</time>
      </trkpt>
      <trkpt lat="43.97311" lon="5.1223">
        <ele>437.3</ele>
        <time>2013-01-30T14:01:48.000Z</time>
      </trkpt>
      <trkpt lat="43.97315" lon="5.12231">
        <ele>437.1</ele>
        <time>2013-01-30T14:01:49.000Z</time>
      </trkpt>
      <trkpt lat="43.9732" lon="5.1223">
        <ele>437</ele>
        <time>2013-01-30T14:01:50.000Z</time>
      </trkpt>
      <trkpt lat="43.97326" lon="5.12229">
        <ele>436.4</ele>
        <time>2013-01-30T14:01:51.000Z</time>
      </trkpt>
      <trkpt lat="43.97334" lon="5.1222">
        <ele>433.5</ele>
        <time>2013-01-30T14:01:52.000Z</time>
      </trkpt>
      <trkpt lat="43.97339" lon="5.12219">
        <ele>433.2</ele>
        <time>2013-01-30T14:01:53.000Z</time>
      </trkpt>
      <trkpt lat="43.97343" lon="5.12217">
        <ele>432.7</ele>
        <time>2013-01-30T14:01:54.000Z</time>
      </trkpt>
      <trkpt lat="43.97346" lon="5.12215">
        <ele>431.3</ele>
        <time>2013-01-30T14:01:55.000Z</time>
      </trkpt>
      <trkpt lat="43.97348" lon="5.12211">
        <ele>431</ele>
        <time>2013-01-30T14:01:56.000Z</time>
      </trkpt>
      <trkpt lat="43.9735" lon="5.12206">
        <ele>430.8</ele>
        <time>2013-01-30T14:01:57.000Z</time>
      </trkpt>
      <trkpt lat="43.97352" lon="5.12201">
        <ele>431.2</ele>
        <time>2013-01-30T14:01:58.000Z</time>
      </trkpt>
      <trkpt lat="43.97353" lon="5.12198">
        <ele>432</ele>
        <time>2013-01-30T14:01:59.000Z</time>
      </trkpt>
      <trkpt lat="43.97353" lon="5.12195">
        <ele>431.9</ele>
        <time>2013-01-30T14:02:00.000Z</time>
      </trkpt>
      <trkpt lat="43.97353" lon="5.12192">
        <ele>431.9</ele>
        <time>2013-01-30T14:02:01.000Z</time>
      </trkpt>
      <trkpt lat="43.97352" lon="5.12188">
        <ele>432.1</ele>
        <time>2013-01-30T14:02:02.000Z</time>
      </trkpt>
      <trkpt lat="43.97352" lon="5.12185">
        <ele>432.7</ele>
        <time>2013-01-30T14:02:03.000Z</time>
      </trkpt>
      <trkpt lat="43.97352" lon="5.12181">
        <ele>432.7</ele>
        <time>2013-01-30T14:02:04.000Z</time>
      </trkpt>
      <trkpt lat="43.97352" lon="5.12177">
        <ele>432.8</ele>
        <time>2013-01-30T14:02:05.000Z</time>
      </trkpt>
      <trkpt lat="43.97351" lon="5.12172">
        <ele>432.8</ele>
        <time>2013-01-30T14:02:06.000Z</time>
      </trkpt>
      <trkpt lat="43.97357" lon="5.12171">
        <ele>432.4</ele>
        <time>2013-01-30T14:02:07.000Z</time>
      </trkpt>
      <trkpt lat="43.97356" lon="5.12168">
        <ele>432.5</ele>
        <time>2013-01-30T14:02:08.000Z</time>
      </trkpt>
      <trkpt lat="43.97358" lon="5.12164">
        <ele>432.2</ele>
        <time>2013-01-30T14:02:09.000Z</time>
      </trkpt>
      <trkpt lat="43.97361" lon="5.12159">
        <ele>432.2</ele>
        <time>2013-01-30T14:02:10.000Z</time>
      </trkpt>
      <trkpt lat="43.97364" lon="5.12156">
        <ele>433</ele>
        <time>2013-01-30T14:02:11.000Z</time>
      </trkpt>
      <trkpt lat="43.97366" lon="5.12152">
        <ele>433.7</ele>
        <time>2013-01-30T14:02:12.000Z</time>
      </trkpt>
      <trkpt lat="43.97369" lon="5.12149">
        <ele>435.3</ele>
        <time>2013-01-30T14:02:13.000Z</time>
      </trkpt>
      <trkpt lat="43.97372" lon="5.12146">
        <ele>437</ele>
        <time>2013-01-30T14:02:14.000Z</time>
      </trkpt>
      <trkpt lat="43.97374" lon="5.1214">
        <ele>436.2</ele>
        <time>2013-01-30T14:02:15.000Z</time>
      </trkpt>
      <trkpt lat="43.97377" lon="5.12136">
        <ele>436.4</ele>
        <time>2013-01-30T14:02:16.000Z</time>
      </trkpt>
      <trkpt lat="43.97379" lon="5.12133">
        <ele>436.3</ele>
        <time>2013-01-30T14:02:17.000Z</time>
      </trkpt>
      <trkpt lat="43.97381" lon="5.12129">
        <ele>435.3</ele>
        <time>2013-01-30T14:02:18.000Z</time>
      </trkpt>
      <trkpt lat="43.97384" lon="5.12126">
        <ele>434.7</ele>
        <time>2013-01-30T14:02:19.000Z</time>
      </trkpt>
      <trkpt lat="43.97386" lon="5.12122">
        <ele>433.9</ele>
        <time>2013-01-30T14:02:20.000Z</time>
      </trkpt>
      <trkpt lat="43.97387" lon="5.12121">
        <ele>438</ele>
        <time>2013-01-30T14:02:21.000Z</time>
      </trkpt>
      <trkpt lat="43.97388" lon="5.12115">
        <ele>439.1</ele>
        <time>2013-01-30T14:02:23.000Z</time>
      </trkpt>
      <trkpt lat="43.97388" lon="5.12112">
        <ele>439.4</ele>
        <time>2013-01-30T14:02:24.000Z</time>
      </trkpt>
      <trkpt lat="43.9739" lon="5.12109">
        <ele>440</ele>
        <time>2013-01-30T14:02:26.000Z</time>
      </trkpt>
      <trkpt lat="43.97393" lon="5.12106">
        <ele>440</ele>
        <time>2013-01-30T14:02:27.000Z</time>
      </trkpt>
      <trkpt lat="43.97395" lon="5.12098">
        <ele>438.5</ele>
        <time>2013-01-30T14:02:28.000Z</time>
      </trkpt>
      <trkpt lat="43.97396" lon="5.12093">
        <ele>437.6</ele>
        <time>2013-01-30T14:02:29.000Z</time>
      </trkpt>
      <trkpt lat="43.97396" lon="5.12088">
        <ele>437.3</ele>
        <time>2013-01-30T14:02:30.000Z</time>
      </trkpt>
      <trkpt lat="43.97397" lon="5.12084">
        <ele>437.2</ele>
        <time>2013-01-30T14:02:31.000Z</time>
      </trkpt>
      <trkpt lat="43.97398" lon="5.12081">
        <ele>437.1</ele>
        <time>2013-01-30T14:02:32.000Z</time>
      </trkpt>
      <trkpt lat="43.97402" lon="5.12086">
        <ele>435.3</ele>
        <time>2013-01-30T14:02:33.000Z</time>
      </trkpt>
      <trkpt lat="43.97405" lon="5.12082">
        <ele>432.6</ele>
        <time>2013-01-30T14:02:36.000Z</time>
      </trkpt>
      <trkpt lat="43.97406" lon="5.1208">
        <ele>432.1</ele>
        <time>2013-01-30T14:02:37.000Z</time>
      </trkpt>
      <trkpt lat="43.97407" lon="5.12077">
        <ele>431.4</ele>
        <time>2013-01-30T14:02:38.000Z</time>
      </trkpt>
      <trkpt lat="43.97411" lon="5.12071">
        <ele>430.5</ele>
        <time>2013-01-30T14:02:39.000Z</time>
      </trkpt>
      <trkpt lat="43.97413" lon="5.12067">
        <ele>429.6</ele>
        <time>2013-01-30T14:02:40.000Z</time>
      </trkpt>
      <trkpt lat="43.97416" lon="5.12063">
        <ele>429</ele>
        <time>2013-01-30T14:02:41.000Z</time>
      </trkpt>
      <trkpt lat="43.97419" lon="5.1206">
        <ele>428.8</ele>
        <time>2013-01-30T14:02:42.000Z</time>
      </trkpt>
      <trkpt lat="43.97422" lon="5.12056">
        <ele>428.4</ele>
        <time>2013-01-30T14:02:43.000Z</time>
      </trkpt>
      <trkpt lat="43.97426" lon="5.12053">
        <ele>427</ele>
        <time>2013-01-30T14:02:44.000Z</time>
      </trkpt>
      <trkpt lat="43.97429" lon="5.1205">
        <ele>426.2</ele>
        <time>2013-01-30T14:02:45.000Z</time>
      </trkpt>
      <trkpt lat="43.97433" lon="5.12048">
        <ele>425.3</ele>
        <time>2013-01-30T14:02:46.000Z</time>
      </trkpt>
      <trkpt lat="43.97437" lon="5.12044">
        <ele>425</ele>
        <time>2013-01-30T14:02:47.000Z</time>
      </trkpt>
      <trkpt lat="43.97439" lon="5.1204">
        <ele>424.3</ele>
        <time>2013-01-30T14:02:48.000Z</time>
      </trkpt>
      <trkpt lat="43.97441" lon="5.12038">
        <ele>423.9</ele>
        <time>2013-01-30T14:02:49.000Z</time>
      </trkpt>
      <trkpt lat="43.97443" lon="5.12035">
        <ele>423.2</ele>
        <time>2013-01-30T14:02:50.000Z</time>
      </trkpt>
      <trkpt lat="43.97445" lon="5.12033">
        <ele>422.6</ele>
        <time>2013-01-30T14:02:51.000Z</time>
      </trkpt>
      <trkpt lat="43.97448" lon="5.12035">
        <ele>421.4</ele>
        <time>2013-01-30T14:02:52.000Z</time>
      </trkpt>
      <trkpt lat="43.97451" lon="5.12035">
        <ele>420.8</ele>
        <time>2013-01-30T14:02:53.000Z</time>
      </trkpt>
      <trkpt lat="43.97453" lon="5.12034">
        <ele>420.8</ele>
        <time>2013-01-30T14:02:54.000Z</time>
      </trkpt>
      <trkpt lat="43.97457" lon="5.12031">
        <ele>419.7</ele>
        <time>2013-01-30T14:02:55.000Z</time>
      </trkpt>
      <trkpt lat="43.9746" lon="5.12029">
        <ele>418.6</ele>
        <time>2013-01-30T14:02:56.000Z</time>
      </trkpt>
      <trkpt lat="43.97465" lon="5.12026">
        <ele>417.9</ele>
        <time>2013-01-30T14:02:57.000Z</time>
      </trkpt>
      <trkpt lat="43.97467" lon="5.12024">
        <ele>417.1</ele>
        <time>2013-01-30T14:03:00.000Z</time>
      </trkpt>
      <trkpt lat="43.97469" lon="5.12022">
        <ele>416</ele>
        <time>2013-01-30T14:03:01.000Z</time>
      </trkpt>
      <trkpt lat="43.97471" lon="5.12019">
        <ele>415</ele>
        <time>2013-01-30T14:03:02.000Z</time>
      </trkpt>
      <trkpt lat="43.97474" lon="5.12015">
        <ele>414</ele>
        <time>2013-01-30T14:03:03.000Z</time>
      </trkpt>
      <trkpt lat="43.97477" lon="5.12013">
        <ele>413.2</ele>
        <time>2013-01-30T14:03:04.000Z</time>
      </trkpt>
      <trkpt lat="43.97481" lon="5.12013">
        <ele>412.5</ele>
        <time>2013-01-30T14:03:05.000Z</time>
      </trkpt>
      <trkpt lat="43.97485" lon="5.12013">
        <ele>412</ele>
        <time>2013-01-30T14:03:06.000Z</time>
      </trkpt>
      <trkpt lat="43.97491" lon="5.12015">
        <ele>410.6</ele>
        <time>2013-01-30T14:03:07.000Z</time>
      </trkpt>
      <trkpt lat="43.97497" lon="5.12014">
        <ele>409.8</ele>
        <time>2013-01-30T14:03:08.000Z</time>
      </trkpt>
      <trkpt lat="43.97503" lon="5.12013">
        <ele>409.4</ele>
        <time>2013-01-30T14:03:09.000Z</time>
      </trkpt>
      <trkpt lat="43.97509" lon="5.12013">
        <ele>409.6</ele>
        <time>2013-01-30T14:03:10.000Z</time>
      </trkpt>
      <trkpt lat="43.97516" lon="5.12013">
        <ele>409.1</ele>
        <time>2013-01-30T14:03:11.000Z</time>
      </trkpt>
      <trkpt lat="43.97522" lon="5.12014">
        <ele>409.2</ele>
        <time>2013-01-30T14:03:12.000Z</time>
      </trkpt>
      <trkpt lat="43.97528" lon="5.12012">
        <ele>409</ele>
        <time>2013-01-30T14:03:13.000Z</time>
      </trkpt>
      <trkpt lat="43.97532" lon="5.12013">
        <ele>408.7</ele>
        <time>2013-01-30T14:03:14.000Z</time>
      </trkpt>
      <trkpt lat="43.97544" lon="5.12007">
        <ele>402.6</ele>
        <time>2013-01-30T14:03:15.000Z</time>
      </trkpt>
      <trkpt lat="43.97547" lon="5.12006">
        <ele>402.1</ele>
        <time>2013-01-30T14:03:16.000Z</time>
      </trkpt>
      <trkpt lat="43.9755" lon="5.12001">
        <ele>401.6</ele>
        <time>2013-01-30T14:03:17.000Z</time>
      </trkpt>
      <trkpt lat="43.97556" lon="5.11996">
        <ele>400.6</ele>
        <time>2013-01-30T14:03:18.000Z</time>
      </trkpt>
      <trkpt lat="43.97559" lon="5.12001">
        <ele>400.6</ele>
        <time>2013-01-30T14:03:19.000Z</time>
      </trkpt>
      <trkpt lat="43.97563" lon="5.12003">
        <ele>400.1</ele>
        <time>2013-01-30T14:03:20.000Z</time>
      </trkpt>
      <trkpt lat="43.97567" lon="5.12005">
        <ele>399.6</ele>
        <time>2013-01-30T14:03:21.000Z</time>
      </trkpt>
      <trkpt lat="43.9757" lon="5.12006">
        <ele>399.2</ele>
        <time>2013-01-30T14:03:23.000Z</time>
      </trkpt>
      <trkpt lat="43.97572" lon="5.12006">
        <ele>399</ele>
        <time>2013-01-30T14:03:24.000Z</time>
      </trkpt>
      <trkpt lat="43.97574" lon="5.12002">
        <ele>398.7</ele>
        <time>2013-01-30T14:03:26.000Z</time>
      </trkpt>
      <trkpt lat="43.97575" lon="5.12">
        <ele>399</ele>
        <time>2013-01-30T14:03:27.000Z</time>
      </trkpt>
      <trkpt lat="43.97577" lon="5.11995">
        <ele>399.1</ele>
        <time>2013-01-30T14:03:29.000Z</time>
      </trkpt>
      <trkpt lat="43.97578" lon="5.11994">
        <ele>399.2</ele>
        <time>2013-01-30T14:03:30.000Z</time>
      </trkpt>
      <trkpt lat="43.97579" lon="5.11991">
        <ele>399.3</ele>
        <time>2013-01-30T14:03:31.000Z</time>
      </trkpt>
      <trkpt lat="43.97579" lon="5.11987">
        <ele>399.4</ele>
        <time>2013-01-30T14:03:32.000Z</time>
      </trkpt>
      <trkpt lat="43.9758" lon="5.11984">
        <ele>399.7</ele>
        <time>2013-01-30T14:03:33.000Z</time>
      </trkpt>
      <trkpt lat="43.9758" lon="5.1198">
        <ele>399.6</ele>
        <time>2013-01-30T14:03:34.000Z</time>
      </trkpt>
      <trkpt lat="43.9758" lon="5.11977">
        <ele>399.2</ele>
        <time>2013-01-30T14:03:35.000Z</time>
      </trkpt>
      <trkpt lat="43.97581" lon="5.11974">
        <ele>399</ele>
        <time>2013-01-30T14:03:36.000Z</time>
      </trkpt>
      <trkpt lat="43.9758" lon="5.11968">
        <ele>399</ele>
        <time>2013-01-30T14:03:38.000Z</time>
      </trkpt>
      <trkpt lat="43.9758" lon="5.11964">
        <ele>399.3</ele>
        <time>2013-01-30T14:03:39.000Z</time>
      </trkpt>
      <trkpt lat="43.97581" lon="5.11961">
        <ele>399.5</ele>
        <time>2013-01-30T14:03:40.000Z</time>
      </trkpt>
      <trkpt lat="43.97581" lon="5.11958">
        <ele>399.4</ele>
        <time>2013-01-30T14:03:41.000Z</time>
      </trkpt>
      <trkpt lat="43.97582" lon="5.11953">
        <ele>399.6</ele>
        <time>2013-01-30T14:03:43.000Z</time>
      </trkpt>
      <trkpt lat="43.97582" lon="5.1195">
        <ele>399.8</ele>
        <time>2013-01-30T14:03:44.000Z</time>
      </trkpt>
      <trkpt lat="43.97582" lon="5.11945">
        <ele>400.2</ele>
        <time>2013-01-30T14:03:46.000Z</time>
      </trkpt>
      <trkpt lat="43.97583" lon="5.11942">
        <ele>400.3</ele>
        <time>2013-01-30T14:03:47.000Z</time>
      </trkpt>
      <trkpt lat="43.97583" lon="5.11938">
        <ele>400.2</ele>
        <time>2013-01-30T14:03:48.000Z</time>
      </trkpt>
      <trkpt lat="43.97582" lon="5.11933">
        <ele>398.3</ele>
        <time>2013-01-30T14:03:49.000Z</time>
      </trkpt>
      <trkpt lat="43.97582" lon="5.11927">
        <ele>398.8</ele>
        <time>2013-01-30T14:03:52.000Z</time>
      </trkpt>
      <trkpt lat="43.97582" lon="5.11926">
        <ele>398.7</ele>
        <time>2013-01-30T14:03:53.000Z</time>
      </trkpt>
      <trkpt lat="43.97584" lon="5.11921">
        <ele>398.9</ele>
        <time>2013-01-30T14:03:55.000Z</time>
      </trkpt>
      <trkpt lat="43.97585" lon="5.11919">
        <ele>399.5</ele>
        <time>2013-01-30T14:03:56.000Z</time>
      </trkpt>
      <trkpt lat="43.97587" lon="5.11916">
        <ele>400.2</ele>
        <time>2013-01-30T14:03:58.000Z</time>
      </trkpt>
      <trkpt lat="43.97589" lon="5.11915">
        <ele>400.7</ele>
        <time>2013-01-30T14:03:59.000Z</time>
      </trkpt>
      <trkpt lat="43.97591" lon="5.11916">
        <ele>400.2</ele>
        <time>2013-01-30T14:04:00.000Z</time>
      </trkpt>
      <trkpt lat="43.97593" lon="5.11911">
        <ele>399.8</ele>
        <time>2013-01-30T14:04:01.000Z</time>
      </trkpt>
      <trkpt lat="43.97598" lon="5.11906">
        <ele>399.4</ele>
        <time>2013-01-30T14:04:02.000Z</time>
      </trkpt>
      <trkpt lat="43.97602" lon="5.11907">
        <ele>398.7</ele>
        <time>2013-01-30T14:04:03.000Z</time>
      </trkpt>
      <trkpt lat="43.97597" lon="5.11918">
        <ele>402.8</ele>
        <time>2013-01-30T14:04:04.000Z</time>
      </trkpt>
      <trkpt lat="43.97601" lon="5.1192">
        <ele>402</ele>
        <time>2013-01-30T14:04:06.000Z</time>
      </trkpt>
      <trkpt lat="43.97603" lon="5.1192">
        <ele>401.9</ele>
        <time>2013-01-30T14:04:07.000Z</time>
      </trkpt>
      <trkpt lat="43.97607" lon="5.11921">
        <ele>402.4</ele>
        <time>2013-01-30T14:04:09.000Z</time>
      </trkpt>
      <trkpt lat="43.97609" lon="5.11922">
        <ele>402.4</ele>
        <time>2013-01-30T14:04:10.000Z</time>
      </trkpt>
      <trkpt lat="43.97612" lon="5.11922">
        <ele>402.6</ele>
        <time>2013-01-30T14:04:11.000Z</time>
      </trkpt>
      <trkpt lat="43.97618" lon="5.11923">
        <ele>401</ele>
        <time>2013-01-30T14:04:12.000Z</time>
      </trkpt>
      <trkpt lat="43.97621" lon="5.11925">
        <ele>401.1</ele>
        <time>2013-01-30T14:04:13.000Z</time>
      </trkpt>
      <trkpt lat="43.97624" lon="5.11926">
        <ele>401.8</ele>
        <time>2013-01-30T14:04:14.000Z</time>
      </trkpt>
      <trkpt lat="43.97626" lon="5.11928">
        <ele>402.5</ele>
        <time>2013-01-30T14:04:15.000Z</time>
      </trkpt>
      <trkpt lat="43.97632" lon="5.11927">
        <ele>400.8</ele>
        <time>2013-01-30T14:04:16.000Z</time>
      </trkpt>
      <trkpt lat="43.97635" lon="5.11927">
        <ele>400.3</ele>
        <time>2013-01-30T14:04:17.000Z</time>
      </trkpt>
      <trkpt lat="43.97639" lon="5.11926">
        <ele>400.2</ele>
        <time>2013-01-30T14:04:18.000Z</time>
      </trkpt>
      <trkpt lat="43.97643" lon="5.11925">
        <ele>399.8</ele>
        <time>2013-01-30T14:04:19.000Z</time>
      </trkpt>
      <trkpt lat="43.97647" lon="5.11924">
        <ele>399.8</ele>
        <time>2013-01-30T14:04:20.000Z</time>
      </trkpt>
      <trkpt lat="43.97651" lon="5.11922">
        <ele>399.4</ele>
        <time>2013-01-30T14:04:21.000Z</time>
      </trkpt>
      <trkpt lat="43.97654" lon="5.11921">
        <ele>398.8</ele>
        <time>2013-01-30T14:04:22.000Z</time>
      </trkpt>
      <trkpt lat="43.97658" lon="5.1192">
        <ele>398.5</ele>
        <time>2013-01-30T14:04:23.000Z</time>
      </trkpt>
      <trkpt lat="43.9766" lon="5.11921">
        <ele>398.6</ele>
        <time>2013-01-30T14:04:24.000Z</time>
      </trkpt>
      <trkpt lat="43.97662" lon="5.11922">
        <ele>398.7</ele>
        <time>2013-01-30T14:04:25.000Z</time>
      </trkpt>
      <trkpt lat="43.97665" lon="5.11921">
        <ele>398.4</ele>
        <time>2013-01-30T14:04:26.000Z</time>
      </trkpt>
      <trkpt lat="43.97668" lon="5.11924">
        <ele>398.2</ele>
        <time>2013-01-30T14:04:27.000Z</time>
      </trkpt>
      <trkpt lat="43.97671" lon="5.11926">
        <ele>397.4</ele>
        <time>2013-01-30T14:04:28.000Z</time>
      </trkpt>
      <trkpt lat="43.97673" lon="5.11927">
        <ele>397.7</ele>
        <time>2013-01-30T14:04:29.000Z</time>
      </trkpt>
      <trkpt lat="43.97676" lon="5.1193">
        <ele>397.7</ele>
        <time>2013-01-30T14:04:30.000Z</time>
      </trkpt>
      <trkpt lat="43.9768" lon="5.11933">
        <ele>397.1</ele>
        <time>2013-01-30T14:04:31.000Z</time>
      </trkpt>
      <trkpt lat="43.97683" lon="5.11936">
        <ele>396.8</ele>
        <time>2013-01-30T14:04:32.000Z</time>
      </trkpt>
      <trkpt lat="43.97686" lon="5.11938">
        <ele>396.6</ele>
        <time>2013-01-30T14:04:33.000Z</time>
      </trkpt>
      <trkpt lat="43.97689" lon="5.11941">
        <ele>396.9</ele>
        <time>2013-01-30T14:04:34.000Z</time>
      </trkpt>
      <trkpt lat="43.97691" lon="5.11944">
        <ele>397.3</ele>
        <time>2013-01-30T14:04:35.000Z</time>
      </trkpt>
      <trkpt lat="43.97694" lon="5.11947">
        <ele>397.5</ele>
        <time>2013-01-30T14:04:36.000Z</time>
      </trkpt>
      <trkpt lat="43.97696" lon="5.1195">
        <ele>397.8</ele>
        <time>2013-01-30T14:04:37.000Z</time>
      </trkpt>
      <trkpt lat="43.97698" lon="5.11951">
        <ele>397.6</ele>
        <time>2013-01-30T14:04:38.000Z</time>
      </trkpt>
      <trkpt lat="43.97697" lon="5.11953">
        <ele>398.4</ele>
        <time>2013-01-30T14:05:14.000Z</time>
      </trkpt>
      <trkpt lat="43.97704" lon="5.11961">
        <ele>401.4</ele>
        <time>2013-01-30T14:05:15.000Z</time>
      </trkpt>
      <trkpt lat="43.97705" lon="5.11964">
        <ele>401.6</ele>
        <time>2013-01-30T14:05:16.000Z</time>
      </trkpt>
      <trkpt lat="43.9771" lon="5.11966">
        <ele>399</ele>
        <time>2013-01-30T14:05:17.000Z</time>
      </trkpt>
      <trkpt lat="43.97714" lon="5.11968">
        <ele>398.1</ele>
        <time>2013-01-30T14:05:18.000Z</time>
      </trkpt>
      <trkpt lat="43.9772" lon="5.1197">
        <ele>397.4</ele>
        <time>2013-01-30T14:05:19.000Z</time>
      </trkpt>
      <trkpt lat="43.97725" lon="5.1197">
        <ele>396.2</ele>
        <time>2013-01-30T14:05:20.000Z</time>
      </trkpt>
      <trkpt lat="43.97731" lon="5.1197">
        <ele>394.8</ele>
        <time>2013-01-30T14:05:21.000Z</time>
      </trkpt>
      <trkpt lat="43.97737" lon="5.1197">
        <ele>394.3</ele>
        <time>2013-01-30T14:05:22.000Z</time>
      </trkpt>
      <trkpt lat="43.97743" lon="5.1197">
        <ele>394</ele>
        <time>2013-01-30T14:05:23.000Z</time>
      </trkpt>
      <trkpt lat="43.9775" lon="5.11968">
        <ele>392.8</ele>
        <time>2013-01-30T14:05:24.000Z</time>
      </trkpt>
      <trkpt lat="43.97757" lon="5.11967">
        <ele>392.8</ele>
        <time>2013-01-30T14:05:25.000Z</time>
      </trkpt>
      <trkpt lat="43.97764" lon="5.11966">
        <ele>391.7</ele>
        <time>2013-01-30T14:05:26.000Z</time>
      </trkpt>
      <trkpt lat="43.97769" lon="5.11964">
        <ele>390.5</ele>
        <time>2013-01-30T14:05:27.000Z</time>
      </trkpt>
      <trkpt lat="43.97773" lon="5.11966">
        <ele>390.5</ele>
        <time>2013-01-30T14:05:28.000Z</time>
      </trkpt>
      <trkpt lat="43.97776" lon="5.11967">
        <ele>390.4</ele>
        <time>2013-01-30T14:05:29.000Z</time>
      </trkpt>
      <trkpt lat="43.9778" lon="5.11969">
        <ele>389.8</ele>
        <time>2013-01-30T14:05:30.000Z</time>
      </trkpt>
      <trkpt lat="43.97779" lon="5.11983">
        <ele>388.6</ele>
        <time>2013-01-30T14:05:31.000Z</time>
      </trkpt>
      <trkpt lat="43.97783" lon="5.1199">
        <ele>387</ele>
        <time>2013-01-30T14:05:32.000Z</time>
      </trkpt>
      <trkpt lat="43.97786" lon="5.11998">
        <ele>385.2</ele>
        <time>2013-01-30T14:05:33.000Z</time>
      </trkpt>
      <trkpt lat="43.9779" lon="5.12006">
        <ele>384.1</ele>
        <time>2013-01-30T14:05:34.000Z</time>
      </trkpt>
      <trkpt lat="43.97794" lon="5.12014">
        <ele>383.3</ele>
        <time>2013-01-30T14:05:35.000Z</time>
      </trkpt>
      <trkpt lat="43.97797" lon="5.12023">
        <ele>383.2</ele>
        <time>2013-01-30T14:05:36.000Z</time>
      </trkpt>
      <trkpt lat="43.978" lon="5.12033">
        <ele>383.1</ele>
        <time>2013-01-30T14:05:37.000Z</time>
      </trkpt>
      <trkpt lat="43.97803" lon="5.1204">
        <ele>382.7</ele>
        <time>2013-01-30T14:05:38.000Z</time>
      </trkpt>
      <trkpt lat="43.97806" lon="5.12048">
        <ele>380.6</ele>
        <time>2013-01-30T14:05:39.000Z</time>
      </trkpt>
      <trkpt lat="43.9781" lon="5.12057">
        <ele>379.8</ele>
        <time>2013-01-30T14:05:40.000Z</time>
      </trkpt>
      <trkpt lat="43.97814" lon="5.12065">
        <ele>378.9</ele>
        <time>2013-01-30T14:05:41.000Z</time>
      </trkpt>
      <trkpt lat="43.97818" lon="5.12076">
        <ele>377.5</ele>
        <time>2013-01-30T14:05:42.000Z</time>
      </trkpt>
      <trkpt lat="43.97821" lon="5.12084">
        <ele>376.8</ele>
        <time>2013-01-30T14:05:43.000Z</time>
      </trkpt>
      <trkpt lat="43.97823" lon="5.12091">
        <ele>375.8</ele>
        <time>2013-01-30T14:05:44.000Z</time>
      </trkpt>
      <trkpt lat="43.97825" lon="5.12095">
        <ele>375.1</ele>
        <time>2013-01-30T14:05:45.000Z</time>
      </trkpt>
      <trkpt lat="43.97826" lon="5.12099">
        <ele>375</ele>
        <time>2013-01-30T14:05:46.000Z</time>
      </trkpt>
      <trkpt lat="43.97827" lon="5.12105">
        <ele>371.7</ele>
        <time>2013-01-30T14:06:08.000Z</time>
      </trkpt>
      <trkpt lat="43.97827" lon="5.12106">
        <ele>371.5</ele>
        <time>2013-01-30T14:06:09.000Z</time>
      </trkpt>
      <trkpt lat="43.9783" lon="5.12111">
        <ele>369.4</ele>
        <time>2013-01-30T14:06:34.000Z</time>
      </trkpt>
      <trkpt lat="43.9783" lon="5.12111">
        <ele>369.3</ele>
        <time>2013-01-30T14:06:35.000Z</time>
      </trkpt>
      <trkpt lat="43.97831" lon="5.12105">
        <ele>369</ele>
        <time>2013-01-30T14:08:18.000Z</time>
      </trkpt>
      <trkpt lat="43.97831" lon="5.12105">
        <ele>368.8</ele>
        <time>2013-01-30T14:08:19.000Z</time>
      </trkpt>
      <trkpt lat="43.97836" lon="5.12105">
        <ele>367.9</ele>
        <time>2013-01-30T14:09:06.000Z</time>
      </trkpt>
      <trkpt lat="43.97836" lon="5.12105">
        <ele>367.4</ele>
        <time>2013-01-30T14:09:07.000Z</time>
      </trkpt>
      <trkpt lat="43.97832" lon="5.12107">
        <ele>367.7</ele>
        <time>2013-01-30T14:11:48.000Z</time>
      </trkpt>
      <trkpt lat="43.97831" lon="5.12107">
        <ele>367.8</ele>
        <time>2013-01-30T14:11:49.000Z</time>
      </trkpt>
      <trkpt lat="43.97827" lon="5.12105">
        <ele>368.3</ele>
        <time>2013-01-30T14:13:07.000Z</time>
      </trkpt>
      <trkpt lat="43.97827" lon="5.12104">
        <ele>368.1</ele>
        <time>2013-01-30T14:13:08.000Z</time>
      </trkpt>
      <trkpt lat="43.9783" lon="5.12107">
        <ele>369.1</ele>
        <time>2013-01-30T14:14:47.000Z</time>
      </trkpt>
      <trkpt lat="43.97831" lon="5.12106">
        <ele>369.8</ele>
        <time>2013-01-30T14:14:48.000Z</time>
      </trkpt>
      <trkpt lat="43.97835" lon="5.12104">
        <ele>369.4</ele>
        <time>2013-01-30T14:14:50.000Z</time>
      </trkpt>
      <trkpt lat="43.97837" lon="5.12104">
        <ele>369.7</ele>
        <time>2013-01-30T14:14:51.000Z</time>
      </trkpt>
      <trkpt lat="43.9784" lon="5.12101">
        <ele>369.2</ele>
        <time>2013-01-30T14:14:53.000Z</time>
      </trkpt>
      <trkpt lat="43.97841" lon="5.12099">
        <ele>369.2</ele>
        <time>2013-01-30T14:14:54.000Z</time>
      </trkpt>
      <trkpt lat="43.97844" lon="5.12097">
        <ele>369.4</ele>
        <time>2013-01-30T14:14:56.000Z</time>
      </trkpt>
      <trkpt lat="43.97846" lon="5.12096">
        <ele>369.2</ele>
        <time>2013-01-30T14:14:57.000Z</time>
      </trkpt>
      <trkpt lat="43.97849" lon="5.12096">
        <ele>369.5</ele>
        <time>2013-01-30T14:14:59.000Z</time>
      </trkpt>
      <trkpt lat="43.97851" lon="5.12095">
        <ele>369.4</ele>
        <time>2013-01-30T14:15:00.000Z</time>
      </trkpt>
      <trkpt lat="43.97853" lon="5.12094">
        <ele>369.1</ele>
        <time>2013-01-30T14:15:02.000Z</time>
      </trkpt>
      <trkpt lat="43.97854" lon="5.12101">
        <ele>369.4</ele>
        <time>2013-01-30T14:15:03.000Z</time>
      </trkpt>
      <trkpt lat="43.97857" lon="5.12104">
        <ele>367.9</ele>
        <time>2013-01-30T14:15:05.000Z</time>
      </trkpt>
      <trkpt lat="43.97859" lon="5.12104">
        <ele>368</ele>
        <time>2013-01-30T14:15:06.000Z</time>
      </trkpt>
      <trkpt lat="43.97861" lon="5.12103">
        <ele>367.9</ele>
        <time>2013-01-30T14:15:07.000Z</time>
      </trkpt>
      <trkpt lat="43.97865" lon="5.12099">
        <ele>368.4</ele>
        <time>2013-01-30T14:15:08.000Z</time>
      </trkpt>
      <trkpt lat="43.97867" lon="5.12098">
        <ele>369.1</ele>
        <time>2013-01-30T14:15:09.000Z</time>
      </trkpt>
      <trkpt lat="43.9787" lon="5.12097">
        <ele>369.3</ele>
        <time>2013-01-30T14:15:10.000Z</time>
      </trkpt>
      <trkpt lat="43.97872" lon="5.12095">
        <ele>369.4</ele>
        <time>2013-01-30T14:15:11.000Z</time>
      </trkpt>
      <trkpt lat="43.97874" lon="5.12093">
        <ele>369.9</ele>
        <time>2013-01-30T14:15:12.000Z</time>
      </trkpt>
      <trkpt lat="43.97876" lon="5.12091">
        <ele>370.3</ele>
        <time>2013-01-30T14:15:13.000Z</time>
      </trkpt>
      <trkpt lat="43.97879" lon="5.1209">
        <ele>370.2</ele>
        <time>2013-01-30T14:15:14.000Z</time>
      </trkpt>
      <trkpt lat="43.97882" lon="5.12088">
        <ele>370.5</ele>
        <time>2013-01-30T14:15:16.000Z</time>
      </trkpt>
      <trkpt lat="43.97884" lon="5.12086">
        <ele>370.3</ele>
        <time>2013-01-30T14:15:17.000Z</time>
      </trkpt>
      <trkpt lat="43.97887" lon="5.12085">
        <ele>370.6</ele>
        <time>2013-01-30T14:15:18.000Z</time>
      </trkpt>
      <trkpt lat="43.9789" lon="5.12083">
        <ele>370.9</ele>
        <time>2013-01-30T14:15:19.000Z</time>
      </trkpt>
      <trkpt lat="43.97893" lon="5.12081">
        <ele>371.1</ele>
        <time>2013-01-30T14:15:20.000Z</time>
      </trkpt>
      <trkpt lat="43.97894" lon="5.1208">
        <ele>371.2</ele>
        <time>2013-01-30T14:15:21.000Z</time>
      </trkpt>
      <trkpt lat="43.97897" lon="5.12078">
        <ele>371.7</ele>
        <time>2013-01-30T14:15:22.000Z</time>
      </trkpt>
      <trkpt lat="43.97899" lon="5.12077">
        <ele>371.8</ele>
        <time>2013-01-30T14:15:23.000Z</time>
      </trkpt>
      <trkpt lat="43.97903" lon="5.12074">
        <ele>371.1</ele>
        <time>2013-01-30T14:15:24.000Z</time>
      </trkpt>
      <trkpt lat="43.97907" lon="5.12072">
        <ele>371.2</ele>
        <time>2013-01-30T14:15:25.000Z</time>
      </trkpt>
      <trkpt lat="43.97911" lon="5.12068">
        <ele>370.9</ele>
        <time>2013-01-30T14:15:26.000Z</time>
      </trkpt>
      <trkpt lat="43.97914" lon="5.12065">
        <ele>369.9</ele>
        <time>2013-01-30T14:15:27.000Z</time>
      </trkpt>
      <trkpt lat="43.97918" lon="5.12062">
        <ele>369.5</ele>
        <time>2013-01-30T14:15:28.000Z</time>
      </trkpt>
      <trkpt lat="43.97921" lon="5.12058">
        <ele>369</ele>
        <time>2013-01-30T14:15:29.000Z</time>
      </trkpt>
      <trkpt lat="43.97924" lon="5.12054">
        <ele>368.3</ele>
        <time>2013-01-30T14:15:30.000Z</time>
      </trkpt>
      <trkpt lat="43.97927" lon="5.12052">
        <ele>368</ele>
        <time>2013-01-30T14:15:31.000Z</time>
      </trkpt>
      <trkpt lat="43.97929" lon="5.12051">
        <ele>367.9</ele>
        <time>2013-01-30T14:15:32.000Z</time>
      </trkpt>
      <trkpt lat="43.97932" lon="5.12048">
        <ele>367.4</ele>
        <time>2013-01-30T14:15:33.000Z</time>
      </trkpt>
      <trkpt lat="43.97933" lon="5.12046">
        <ele>366.9</ele>
        <time>2013-01-30T14:15:34.000Z</time>
      </trkpt>
      <trkpt lat="43.97935" lon="5.12044">
        <ele>368.1</ele>
        <time>2013-01-30T14:15:36.000Z</time>
      </trkpt>
      <trkpt lat="43.97937" lon="5.12043">
        <ele>367.7</ele>
        <time>2013-01-30T14:15:37.000Z</time>
      </trkpt>
      <trkpt lat="43.97941" lon="5.12041">
        <ele>367.1</ele>
        <time>2013-01-30T14:15:39.000Z</time>
      </trkpt>
      <trkpt lat="43.97942" lon="5.1204">
        <ele>366.9</ele>
        <time>2013-01-30T14:15:40.000Z</time>
      </trkpt>
      <trkpt lat="43.97945" lon="5.12038">
        <ele>367.3</ele>
        <time>2013-01-30T14:15:43.000Z</time>
      </trkpt>
      <trkpt lat="43.97947" lon="5.12038">
        <ele>367.9</ele>
        <time>2013-01-30T14:15:44.000Z</time>
      </trkpt>
      <trkpt lat="43.97949" lon="5.12037">
        <ele>368.2</ele>
        <time>2013-01-30T14:15:45.000Z</time>
      </trkpt>
      <trkpt lat="43.97952" lon="5.12035">
        <ele>367</ele>
        <time>2013-01-30T14:15:46.000Z</time>
      </trkpt>
      <trkpt lat="43.97954" lon="5.12033">
        <ele>367.3</ele>
        <time>2013-01-30T14:15:47.000Z</time>
      </trkpt>
      <trkpt lat="43.97956" lon="5.12032">
        <ele>367.5</ele>
        <time>2013-01-30T14:15:48.000Z</time>
      </trkpt>
      <trkpt lat="43.9796" lon="5.1203">
        <ele>368.3</ele>
        <time>2013-01-30T14:15:50.000Z</time>
      </trkpt>
      <trkpt lat="43.97961" lon="5.12029">
        <ele>368.3</ele>
        <time>2013-01-30T14:15:51.000Z</time>
      </trkpt>
      <trkpt lat="43.97964" lon="5.12026">
        <ele>368.4</ele>
        <time>2013-01-30T14:15:53.000Z</time>
      </trkpt>
      <trkpt lat="43.97967" lon="5.12025">
        <ele>368.1</ele>
        <time>2013-01-30T14:15:54.000Z</time>
      </trkpt>
      <trkpt lat="43.97969" lon="5.12024">
        <ele>368.2</ele>
        <time>2013-01-30T14:15:55.000Z</time>
      </trkpt>
      <trkpt lat="43.97973" lon="5.12021">
        <ele>367.3</ele>
        <time>2013-01-30T14:15:56.000Z</time>
      </trkpt>
      <trkpt lat="43.97976" lon="5.12019">
        <ele>367.2</ele>
        <time>2013-01-30T14:15:57.000Z</time>
      </trkpt>
      <trkpt lat="43.97978" lon="5.12018">
        <ele>367.3</ele>
        <time>2013-01-30T14:15:58.000Z</time>
      </trkpt>
      <trkpt lat="43.9798" lon="5.12016">
        <ele>366.8</ele>
        <time>2013-01-30T14:15:59.000Z</time>
      </trkpt>
      <trkpt lat="43.97982" lon="5.12015">
        <ele>366.4</ele>
        <time>2013-01-30T14:16:00.000Z</time>
      </trkpt>
      <trkpt lat="43.97984" lon="5.12014">
        <ele>366.4</ele>
        <time>2013-01-30T14:16:01.000Z</time>
      </trkpt>
      <trkpt lat="43.97986" lon="5.12011">
        <ele>366.3</ele>
        <time>2013-01-30T14:16:02.000Z</time>
      </trkpt>
      <trkpt lat="43.97988" lon="5.1201">
        <ele>366.4</ele>
        <time>2013-01-30T14:16:03.000Z</time>
      </trkpt>
      <trkpt lat="43.9799" lon="5.12008">
        <ele>366.2</ele>
        <time>2013-01-30T14:16:04.000Z</time>
      </trkpt>
      <trkpt lat="43.97994" lon="5.12004">
        <ele>366.2</ele>
        <time>2013-01-30T14:16:06.000Z</time>
      </trkpt>
      <trkpt lat="43.97995" lon="5.12003">
        <ele>366.4</ele>
        <time>2013-01-30T14:16:07.000Z</time>
      </trkpt>
      <trkpt lat="43.97998" lon="5.11999">
        <ele>367</ele>
        <time>2013-01-30T14:16:09.000Z</time>
      </trkpt>
      <trkpt lat="43.97999" lon="5.11998">
        <ele>366.9</ele>
        <time>2013-01-30T14:16:10.000Z</time>
      </trkpt>
      <trkpt lat="43.98003" lon="5.11993">
        <ele>364.9</ele>
        <time>2013-01-30T14:16:11.000Z</time>
      </trkpt>
      <trkpt lat="43.98007" lon="5.11991">
        <ele>364.2</ele>
        <time>2013-01-30T14:16:12.000Z</time>
      </trkpt>
      <trkpt lat="43.98009" lon="5.11988">
        <ele>363.8</ele>
        <time>2013-01-30T14:16:13.000Z</time>
      </trkpt>
      <trkpt lat="43.98013" lon="5.11987">
        <ele>363.8</ele>
        <time>2013-01-30T14:16:15.000Z</time>
      </trkpt>
      <trkpt lat="43.98015" lon="5.11987">
        <ele>363.6</ele>
        <time>2013-01-30T14:16:16.000Z</time>
      </trkpt>
      <trkpt lat="43.98019" lon="5.11984">
        <ele>364.5</ele>
        <time>2013-01-30T14:16:18.000Z</time>
      </trkpt>
      <trkpt lat="43.9802" lon="5.11983">
        <ele>364.9</ele>
        <time>2013-01-30T14:16:19.000Z</time>
      </trkpt>
      <trkpt lat="43.98024" lon="5.11981">
        <ele>365.1</ele>
        <time>2013-01-30T14:16:21.000Z</time>
      </trkpt>
      <trkpt lat="43.98027" lon="5.11979">
        <ele>365.4</ele>
        <time>2013-01-30T14:16:22.000Z</time>
      </trkpt>
      <trkpt lat="43.9803" lon="5.11977">
        <ele>364.9</ele>
        <time>2013-01-30T14:16:23.000Z</time>
      </trkpt>
      <trkpt lat="43.98032" lon="5.11974">
        <ele>365.8</ele>
        <time>2013-01-30T14:16:24.000Z</time>
      </trkpt>
      <trkpt lat="43.98034" lon="5.11972">
        <ele>365.5</ele>
        <time>2013-01-30T14:16:25.000Z</time>
      </trkpt>
      <trkpt lat="43.98036" lon="5.11969">
        <ele>364.8</ele>
        <time>2013-01-30T14:16:26.000Z</time>
      </trkpt>
      <trkpt lat="43.98039" lon="5.11967">
        <ele>365</ele>
        <time>2013-01-30T14:16:27.000Z</time>
      </trkpt>
      <trkpt lat="43.98041" lon="5.11966">
        <ele>364.8</ele>
        <time>2013-01-30T14:16:28.000Z</time>
      </trkpt>
      <trkpt lat="43.98046" lon="5.11963">
        <ele>364.4</ele>
        <time>2013-01-30T14:16:29.000Z</time>
      </trkpt>
      <trkpt lat="43.98048" lon="5.1196">
        <ele>364.3</ele>
        <time>2013-01-30T14:16:30.000Z</time>
      </trkpt>
      <trkpt lat="43.98052" lon="5.11958">
        <ele>364.1</ele>
        <time>2013-01-30T14:16:31.000Z</time>
      </trkpt>
      <trkpt lat="43.98055" lon="5.11955">
        <ele>363.8</ele>
        <time>2013-01-30T14:16:32.000Z</time>
      </trkpt>
      <trkpt lat="43.98058" lon="5.11954">
        <ele>363.9</ele>
        <time>2013-01-30T14:16:33.000Z</time>
      </trkpt>
      <trkpt lat="43.98061" lon="5.11952">
        <ele>363.8</ele>
        <time>2013-01-30T14:16:34.000Z</time>
      </trkpt>
      <trkpt lat="43.98064" lon="5.11951">
        <ele>363.6</ele>
        <time>2013-01-30T14:16:35.000Z</time>
      </trkpt>
      <trkpt lat="43.98068" lon="5.11949">
        <ele>363.4</ele>
        <time>2013-01-30T14:16:37.000Z</time>
      </trkpt>
      <trkpt lat="43.98071" lon="5.11948">
        <ele>363.3</ele>
        <time>2013-01-30T14:16:38.000Z</time>
      </trkpt>
      <trkpt lat="43.98075" lon="5.11946">
        <ele>363.1</ele>
        <time>2013-01-30T14:16:40.000Z</time>
      </trkpt>
      <trkpt lat="43.98076" lon="5.11945">
        <ele>362.7</ele>
        <time>2013-01-30T14:16:41.000Z</time>
      </trkpt>
      <trkpt lat="43.98079" lon="5.11943">
        <ele>363.3</ele>
        <time>2013-01-30T14:16:43.000Z</time>
      </trkpt>
      <trkpt lat="43.98081" lon="5.11942">
        <ele>362.9</ele>
        <time>2013-01-30T14:16:44.000Z</time>
      </trkpt>
      <trkpt lat="43.98084" lon="5.11939">
        <ele>363.5</ele>
        <time>2013-01-30T14:16:46.000Z</time>
      </trkpt>
      <trkpt lat="43.98087" lon="5.11935">
        <ele>362.8</ele>
        <time>2013-01-30T14:16:47.000Z</time>
      </trkpt>
      <trkpt lat="43.98089" lon="5.11931">
        <ele>362.3</ele>
        <time>2013-01-30T14:16:48.000Z</time>
      </trkpt>
      <trkpt lat="43.98092" lon="5.11929">
        <ele>362.2</ele>
        <time>2013-01-30T14:16:49.000Z</time>
      </trkpt>
      <trkpt lat="43.98094" lon="5.11927">
        <ele>362.4</ele>
        <time>2013-01-30T14:16:50.000Z</time>
      </trkpt>
      <trkpt lat="43.98096" lon="5.11926">
        <ele>362.6</ele>
        <time>2013-01-30T14:16:51.000Z</time>
      </trkpt>
      <trkpt lat="43.98099" lon="5.11925">
        <ele>362.7</ele>
        <time>2013-01-30T14:16:52.000Z</time>
      </trkpt>
      <trkpt lat="43.98101" lon="5.11924">
        <ele>362.3</ele>
        <time>2013-01-30T14:16:53.000Z</time>
      </trkpt>
      <trkpt lat="43.98104" lon="5.11921">
        <ele>361.8</ele>
        <time>2013-01-30T14:16:54.000Z</time>
      </trkpt>
      <trkpt lat="43.98106" lon="5.1192">
        <ele>361.7</ele>
        <time>2013-01-30T14:16:55.000Z</time>
      </trkpt>
      <trkpt lat="43.98107" lon="5.11916">
        <ele>362.3</ele>
        <time>2013-01-30T14:16:56.000Z</time>
      </trkpt>
      <trkpt lat="43.98109" lon="5.11914">
        <ele>362.3</ele>
        <time>2013-01-30T14:16:57.000Z</time>
      </trkpt>
      <trkpt lat="43.98111" lon="5.11912">
        <ele>362.1</ele>
        <time>2013-01-30T14:16:58.000Z</time>
      </trkpt>
      <trkpt lat="43.98112" lon="5.11908">
        <ele>361.9</ele>
        <time>2013-01-30T14:16:59.000Z</time>
      </trkpt>
      <trkpt lat="43.98114" lon="5.11905">
        <ele>362.3</ele>
        <time>2013-01-30T14:17:00.000Z</time>
      </trkpt>
      <trkpt lat="43.98115" lon="5.11903">
        <ele>362.6</ele>
        <time>2013-01-30T14:17:01.000Z</time>
      </trkpt>
      <trkpt lat="43.98117" lon="5.119">
        <ele>362.6</ele>
        <time>2013-01-30T14:17:02.000Z</time>
      </trkpt>
      <trkpt lat="43.98118" lon="5.11898">
        <ele>362.3</ele>
        <time>2013-01-30T14:17:03.000Z</time>
      </trkpt>
      <trkpt lat="43.98121" lon="5.11894">
        <ele>361.8</ele>
        <time>2013-01-30T14:17:05.000Z</time>
      </trkpt>
      <trkpt lat="43.98123" lon="5.1189">
        <ele>361.6</ele>
        <time>2013-01-30T14:17:06.000Z</time>
      </trkpt>
      <trkpt lat="43.98125" lon="5.11887">
        <ele>360.9</ele>
        <time>2013-01-30T14:17:07.000Z</time>
      </trkpt>
      <trkpt lat="43.98127" lon="5.11884">
        <ele>361.4</ele>
        <time>2013-01-30T14:17:08.000Z</time>
      </trkpt>
      <trkpt lat="43.98129" lon="5.11881">
        <ele>361.7</ele>
        <time>2013-01-30T14:17:10.000Z</time>
      </trkpt>
      <trkpt lat="43.9813" lon="5.11878">
        <ele>362.1</ele>
        <time>2013-01-30T14:17:11.000Z</time>
      </trkpt>
      <trkpt lat="43.98132" lon="5.11873">
        <ele>362.3</ele>
        <time>2013-01-30T14:17:13.000Z</time>
      </trkpt>
      <trkpt lat="43.98133" lon="5.11871">
        <ele>362.4</ele>
        <time>2013-01-30T14:17:14.000Z</time>
      </trkpt>
      <trkpt lat="43.98135" lon="5.11867">
        <ele>363.5</ele>
        <time>2013-01-30T14:17:16.000Z</time>
      </trkpt>
      <trkpt lat="43.98136" lon="5.11865">
        <ele>363.2</ele>
        <time>2013-01-30T14:17:17.000Z</time>
      </trkpt>
      <trkpt lat="43.98136" lon="5.11862">
        <ele>363.1</ele>
        <time>2013-01-30T14:17:36.000Z</time>
      </trkpt>
      <trkpt lat="43.98139" lon="5.11857">
        <ele>363</ele>
        <time>2013-01-30T14:17:37.000Z</time>
      </trkpt>
      <trkpt lat="43.9814" lon="5.11852">
        <ele>360.5</ele>
        <time>2013-01-30T14:17:42.000Z</time>
      </trkpt>
      <trkpt lat="43.98141" lon="5.1185">
        <ele>360</ele>
        <time>2013-01-30T14:17:43.000Z</time>
      </trkpt>
      <trkpt lat="43.98143" lon="5.11848">
        <ele>359.4</ele>
        <time>2013-01-30T14:17:44.000Z</time>
      </trkpt>
      <trkpt lat="43.98145" lon="5.11844">
        <ele>359.9</ele>
        <time>2013-01-30T14:17:45.000Z</time>
      </trkpt>
      <trkpt lat="43.98147" lon="5.11842">
        <ele>359.8</ele>
        <time>2013-01-30T14:17:46.000Z</time>
      </trkpt>
      <trkpt lat="43.98149" lon="5.11838">
        <ele>359</ele>
        <time>2013-01-30T14:17:47.000Z</time>
      </trkpt>
      <trkpt lat="43.98147" lon="5.11833">
        <ele>357.9</ele>
        <time>2013-01-30T14:17:50.000Z</time>
      </trkpt>
      <trkpt lat="43.98147" lon="5.11831">
        <ele>358.1</ele>
        <time>2013-01-30T14:17:51.000Z</time>
      </trkpt>
      <trkpt lat="43.98144" lon="5.11828">
        <ele>358.1</ele>
        <time>2013-01-30T14:17:53.000Z</time>
      </trkpt>
      <trkpt lat="43.98143" lon="5.11826">
        <ele>358.1</ele>
        <time>2013-01-30T14:17:54.000Z</time>
      </trkpt>
      <trkpt lat="43.9814" lon="5.11822">
        <ele>358</ele>
        <time>2013-01-30T14:17:57.000Z</time>
      </trkpt>
      <trkpt lat="43.98138" lon="5.1182">
        <ele>357.8</ele>
        <time>2013-01-30T14:17:58.000Z</time>
      </trkpt>
      <trkpt lat="43.98137" lon="5.11816">
        <ele>359.6</ele>
        <time>2013-01-30T14:18:00.000Z</time>
      </trkpt>
      <trkpt lat="43.98136" lon="5.11814">
        <ele>359.8</ele>
        <time>2013-01-30T14:18:01.000Z</time>
      </trkpt>
      <trkpt lat="43.98137" lon="5.11809">
        <ele>358.7</ele>
        <time>2013-01-30T14:18:02.000Z</time>
      </trkpt>
      <trkpt lat="43.98137" lon="5.11806">
        <ele>358.3</ele>
        <time>2013-01-30T14:18:03.000Z</time>
      </trkpt>
      <trkpt lat="43.98137" lon="5.11802">
        <ele>358.5</ele>
        <time>2013-01-30T14:18:05.000Z</time>
      </trkpt>
      <trkpt lat="43.98137" lon="5.118">
        <ele>358.6</ele>
        <time>2013-01-30T14:18:06.000Z</time>
      </trkpt>
      <trkpt lat="43.98138" lon="5.11794">
        <ele>358.4</ele>
        <time>2013-01-30T14:18:08.000Z</time>
      </trkpt>
      <trkpt lat="43.98138" lon="5.11792">
        <ele>358.6</ele>
        <time>2013-01-30T14:18:09.000Z</time>
      </trkpt>
      <trkpt lat="43.9814" lon="5.11787">
        <ele>356.6</ele>
        <time>2013-01-30T14:18:10.000Z</time>
      </trkpt>
      <trkpt lat="43.9814" lon="5.11784">
        <ele>355.5</ele>
        <time>2013-01-30T14:18:11.000Z</time>
      </trkpt>
      <trkpt lat="43.98142" lon="5.11782">
        <ele>355</ele>
        <time>2013-01-30T14:18:13.000Z</time>
      </trkpt>
      <trkpt lat="43.98144" lon="5.1178">
        <ele>354.7</ele>
        <time>2013-01-30T14:18:14.000Z</time>
      </trkpt>
      <trkpt lat="43.98148" lon="5.11777">
        <ele>354.7</ele>
        <time>2013-01-30T14:18:17.000Z</time>
      </trkpt>
      <trkpt lat="43.98149" lon="5.11774">
        <ele>354.6</ele>
        <time>2013-01-30T14:18:18.000Z</time>
      </trkpt>
      <trkpt lat="43.9815" lon="5.11769">
        <ele>355.3</ele>
        <time>2013-01-30T14:18:20.000Z</time>
      </trkpt>
      <trkpt lat="43.98151" lon="5.11766">
        <ele>355.2</ele>
        <time>2013-01-30T14:18:21.000Z</time>
      </trkpt>
      <trkpt lat="43.98154" lon="5.11762">
        <ele>354.4</ele>
        <time>2013-01-30T14:18:23.000Z</time>
      </trkpt>
      <trkpt lat="43.98155" lon="5.11759">
        <ele>354.7</ele>
        <time>2013-01-30T14:18:24.000Z</time>
      </trkpt>
      <trkpt lat="43.98159" lon="5.11756">
        <ele>352.6</ele>
        <time>2013-01-30T14:18:28.000Z</time>
      </trkpt>
      <trkpt lat="43.98161" lon="5.11755">
        <ele>352.3</ele>
        <time>2013-01-30T14:18:29.000Z</time>
      </trkpt>
      <trkpt lat="43.98164" lon="5.11754">
        <ele>351.8</ele>
        <time>2013-01-30T14:18:31.000Z</time>
      </trkpt>
      <trkpt lat="43.98165" lon="5.11754">
        <ele>351.5</ele>
        <time>2013-01-30T14:18:32.000Z</time>
      </trkpt>
      <trkpt lat="43.98169" lon="5.11756">
        <ele>350.2</ele>
        <time>2013-01-30T14:18:35.000Z</time>
      </trkpt>
      <trkpt lat="43.98171" lon="5.11756">
        <ele>349.7</ele>
        <time>2013-01-30T14:18:36.000Z</time>
      </trkpt>
      <trkpt lat="43.98175" lon="5.11755">
        <ele>349.7</ele>
        <time>2013-01-30T14:18:38.000Z</time>
      </trkpt>
      <trkpt lat="43.98177" lon="5.11755">
        <ele>349.7</ele>
        <time>2013-01-30T14:18:39.000Z</time>
      </trkpt>
      <trkpt lat="43.98181" lon="5.11758">
        <ele>350.6</ele>
        <time>2013-01-30T14:18:41.000Z</time>
      </trkpt>
      <trkpt lat="43.98184" lon="5.11758">
        <ele>349.7</ele>
        <time>2013-01-30T14:18:42.000Z</time>
      </trkpt>
      <trkpt lat="43.98187" lon="5.1176">
        <ele>349.4</ele>
        <time>2013-01-30T14:18:44.000Z</time>
      </trkpt>
      <trkpt lat="43.98189" lon="5.11761">
        <ele>349.3</ele>
        <time>2013-01-30T14:18:45.000Z</time>
      </trkpt>
      <trkpt lat="43.98191" lon="5.11763">
        <ele>349</ele>
        <time>2013-01-30T14:18:47.000Z</time>
      </trkpt>
      <trkpt lat="43.98193" lon="5.11766">
        <ele>347.9</ele>
        <time>2013-01-30T14:18:48.000Z</time>
      </trkpt>
      <trkpt lat="43.98196" lon="5.1177">
        <ele>348.1</ele>
        <time>2013-01-30T14:18:51.000Z</time>
      </trkpt>
      <trkpt lat="43.98197" lon="5.11771">
        <ele>347.7</ele>
        <time>2013-01-30T14:18:52.000Z</time>
      </trkpt>
      <trkpt lat="43.98199" lon="5.11772">
        <ele>347.3</ele>
        <time>2013-01-30T14:18:54.000Z</time>
      </trkpt>
      <trkpt lat="43.98201" lon="5.11772">
        <ele>347.4</ele>
        <time>2013-01-30T14:18:55.000Z</time>
      </trkpt>
      <trkpt lat="43.98205" lon="5.11772">
        <ele>347.1</ele>
        <time>2013-01-30T14:18:57.000Z</time>
      </trkpt>
      <trkpt lat="43.98207" lon="5.11772">
        <ele>347</ele>
        <time>2013-01-30T14:18:58.000Z</time>
      </trkpt>
      <trkpt lat="43.98212" lon="5.11773">
        <ele>346.2</ele>
        <time>2013-01-30T14:19:00.000Z</time>
      </trkpt>
      <trkpt lat="43.98213" lon="5.11773">
        <ele>346.2</ele>
        <time>2013-01-30T14:19:01.000Z</time>
      </trkpt>
      <trkpt lat="43.98214" lon="5.11777">
        <ele>342.8</ele>
        <time>2013-01-30T14:19:28.000Z</time>
      </trkpt>
      <trkpt lat="43.98217" lon="5.11778">
        <ele>343.4</ele>
        <time>2013-01-30T14:19:29.000Z</time>
      </trkpt>
      <trkpt lat="43.98219" lon="5.11779">
        <ele>343.4</ele>
        <time>2013-01-30T14:19:31.000Z</time>
      </trkpt>
      <trkpt lat="43.98222" lon="5.11779">
        <ele>343.3</ele>
        <time>2013-01-30T14:19:32.000Z</time>
      </trkpt>
      <trkpt lat="43.98221" lon="5.11782">
        <ele>342.8</ele>
        <time>2013-01-30T14:19:36.000Z</time>
      </trkpt>
      <trkpt lat="43.98214" lon="5.11783">
        <ele>343.3</ele>
        <time>2013-01-30T14:19:37.000Z</time>
      </trkpt>
      <trkpt lat="43.98217" lon="5.11779">
        <ele>342.4</ele>
        <time>2013-01-30T14:19:56.000Z</time>
      </trkpt>
      <trkpt lat="43.98219" lon="5.11778">
        <ele>338.6</ele>
        <time>2013-01-30T14:19:57.000Z</time>
      </trkpt>
      <trkpt lat="43.98222" lon="5.11779">
        <ele>337.3</ele>
        <time>2013-01-30T14:20:52.000Z</time>
      </trkpt>
      <trkpt lat="43.98224" lon="5.1178">
        <ele>336.2</ele>
        <time>2013-01-30T14:20:53.000Z</time>
      </trkpt>
      <trkpt lat="43.98226" lon="5.11785">
        <ele>334.6</ele>
        <time>2013-01-30T14:20:55.000Z</time>
      </trkpt>
      <trkpt lat="43.98227" lon="5.11787">
        <ele>334.4</ele>
        <time>2013-01-30T14:20:56.000Z</time>
      </trkpt>
      <trkpt lat="43.98228" lon="5.11791">
        <ele>332.3</ele>
        <time>2013-01-30T14:20:59.000Z</time>
      </trkpt>
      <trkpt lat="43.98231" lon="5.11794">
        <ele>332.5</ele>
        <time>2013-01-30T14:21:00.000Z</time>
      </trkpt>
      <trkpt lat="43.98232" lon="5.11798">
        <ele>331.9</ele>
        <time>2013-01-30T14:21:01.000Z</time>
      </trkpt>
      <trkpt lat="43.98233" lon="5.11802">
        <ele>331.7</ele>
        <time>2013-01-30T14:21:02.000Z</time>
      </trkpt>
      <trkpt lat="43.98234" lon="5.11805">
        <ele>331.4</ele>
        <time>2013-01-30T14:21:03.000Z</time>
      </trkpt>
      <trkpt lat="43.98236" lon="5.11808">
        <ele>331</ele>
        <time>2013-01-30T14:21:04.000Z</time>
      </trkpt>
      <trkpt lat="43.98237" lon="5.11811">
        <ele>330.8</ele>
        <time>2013-01-30T14:21:05.000Z</time>
      </trkpt>
      <trkpt lat="43.9824" lon="5.11815">
        <ele>330.4</ele>
        <time>2013-01-30T14:21:06.000Z</time>
      </trkpt>
      <trkpt lat="43.98242" lon="5.11817">
        <ele>329.7</ele>
        <time>2013-01-30T14:21:07.000Z</time>
      </trkpt>
      <trkpt lat="43.98243" lon="5.1182">
        <ele>329</ele>
        <time>2013-01-30T14:21:08.000Z</time>
      </trkpt>
      <trkpt lat="43.98244" lon="5.11824">
        <ele>328.6</ele>
        <time>2013-01-30T14:21:09.000Z</time>
      </trkpt>
      <trkpt lat="43.98245" lon="5.11827">
        <ele>328.2</ele>
        <time>2013-01-30T14:21:10.000Z</time>
      </trkpt>
      <trkpt lat="43.98247" lon="5.1183">
        <ele>327.3</ele>
        <time>2013-01-30T14:21:11.000Z</time>
      </trkpt>
      <trkpt lat="43.98249" lon="5.11833">
        <ele>326.6</ele>
        <time>2013-01-30T14:21:12.000Z</time>
      </trkpt>
      <trkpt lat="43.9825" lon="5.11837">
        <ele>326</ele>
        <time>2013-01-30T14:21:13.000Z</time>
      </trkpt>
      <trkpt lat="43.98251" lon="5.11839">
        <ele>325.4</ele>
        <time>2013-01-30T14:21:14.000Z</time>
      </trkpt>
      <trkpt lat="43.98251" lon="5.11842">
        <ele>324.6</ele>
        <time>2013-01-30T14:21:15.000Z</time>
      </trkpt>
      <trkpt lat="43.98251" lon="5.11845">
        <ele>323.8</ele>
        <time>2013-01-30T14:21:16.000Z</time>
      </trkpt>
      <trkpt lat="43.98249" lon="5.11848">
        <ele>322.9</ele>
        <time>2013-01-30T14:21:17.000Z</time>
      </trkpt>
      <trkpt lat="43.98248" lon="5.11851">
        <ele>322.8</ele>
        <time>2013-01-30T14:21:18.000Z</time>
      </trkpt>
      <trkpt lat="43.98247" lon="5.11854">
        <ele>322.3</ele>
        <time>2013-01-30T14:21:19.000Z</time>
      </trkpt>
      <trkpt lat="43.98246" lon="5.11857">
        <ele>322.2</ele>
        <time>2013-01-30T14:21:20.000Z</time>
      </trkpt>
      <trkpt lat="43.98244" lon="5.1186">
        <ele>322.1</ele>
        <time>2013-01-30T14:21:21.000Z</time>
      </trkpt>
      <trkpt lat="43.98241" lon="5.11864">
        <ele>321.9</ele>
        <time>2013-01-30T14:21:22.000Z</time>
      </trkpt>
      <trkpt lat="43.98241" lon="5.11866">
        <ele>321.8</ele>
        <time>2013-01-30T14:21:23.000Z</time>
      </trkpt>
      <trkpt lat="43.98239" lon="5.1187">
        <ele>321.5</ele>
        <time>2013-01-30T14:21:24.000Z</time>
      </trkpt>
      <trkpt lat="43.98237" lon="5.11874">
        <ele>321.2</ele>
        <time>2013-01-30T14:21:25.000Z</time>
      </trkpt>
      <trkpt lat="43.98236" lon="5.11877">
        <ele>321.2</ele>
        <time>2013-01-30T14:21:26.000Z</time>
      </trkpt>
      <trkpt lat="43.98233" lon="5.1188">
        <ele>320.9</ele>
        <time>2013-01-30T14:21:27.000Z</time>
      </trkpt>
      <trkpt lat="43.98231" lon="5.11883">
        <ele>320.6</ele>
        <time>2013-01-30T14:21:28.000Z</time>
      </trkpt>
      <trkpt lat="43.98229" lon="5.11888">
        <ele>320.6</ele>
        <time>2013-01-30T14:21:30.000Z</time>
      </trkpt>
      <trkpt lat="43.98227" lon="5.1189">
        <ele>320.7</ele>
        <time>2013-01-30T14:21:31.000Z</time>
      </trkpt>
      <trkpt lat="43.98226" lon="5.11893">
        <ele>320.6</ele>
        <time>2013-01-30T14:21:32.000Z</time>
      </trkpt>
      <trkpt lat="43.98225" lon="5.11896">
        <ele>319.9</ele>
        <time>2013-01-30T14:21:33.000Z</time>
      </trkpt>
      <trkpt lat="43.98223" lon="5.11899">
        <ele>319.6</ele>
        <time>2013-01-30T14:21:34.000Z</time>
      </trkpt>
      <trkpt lat="43.98223" lon="5.11902">
        <ele>319.7</ele>
        <time>2013-01-30T14:21:35.000Z</time>
      </trkpt>
      <trkpt lat="43.98221" lon="5.11905">
        <ele>319.7</ele>
        <time>2013-01-30T14:21:36.000Z</time>
      </trkpt>
      <trkpt lat="43.9822" lon="5.11909">
        <ele>319.8</ele>
        <time>2013-01-30T14:21:37.000Z</time>
      </trkpt>
      <trkpt lat="43.98219" lon="5.11911">
        <ele>319.6</ele>
        <time>2013-01-30T14:21:38.000Z</time>
      </trkpt>
      <trkpt lat="43.98217" lon="5.11915">
        <ele>318</ele>
        <time>2013-01-30T14:21:39.000Z</time>
      </trkpt>
      <trkpt lat="43.98216" lon="5.11917">
        <ele>317.4</ele>
        <time>2013-01-30T14:21:40.000Z</time>
      </trkpt>
      <trkpt lat="43.98215" lon="5.1192">
        <ele>317</ele>
        <time>2013-01-30T14:21:41.000Z</time>
      </trkpt>
      <trkpt lat="43.98213" lon="5.11923">
        <ele>316.9</ele>
        <time>2013-01-30T14:21:42.000Z</time>
      </trkpt>
      <trkpt lat="43.98212" lon="5.11926">
        <ele>316.8</ele>
        <time>2013-01-30T14:21:43.000Z</time>
      </trkpt>
      <trkpt lat="43.9821" lon="5.11929">
        <ele>316.9</ele>
        <time>2013-01-30T14:21:44.000Z</time>
      </trkpt>
      <trkpt lat="43.98209" lon="5.11933">
        <ele>316.6</ele>
        <time>2013-01-30T14:21:45.000Z</time>
      </trkpt>
      <trkpt lat="43.98206" lon="5.11936">
        <ele>315.2</ele>
        <time>2013-01-30T14:21:46.000Z</time>
      </trkpt>
      <trkpt lat="43.98205" lon="5.11939">
        <ele>315.5</ele>
        <time>2013-01-30T14:21:47.000Z</time>
      </trkpt>
      <trkpt lat="43.98203" lon="5.11943">
        <ele>315.7</ele>
        <time>2013-01-30T14:21:48.000Z</time>
      </trkpt>
      <trkpt lat="43.982" lon="5.11946">
        <ele>315.7</ele>
        <time>2013-01-30T14:21:49.000Z</time>
      </trkpt>
      <trkpt lat="43.98198" lon="5.1195">
        <ele>314.8</ele>
        <time>2013-01-30T14:21:50.000Z</time>
      </trkpt>
      <trkpt lat="43.98196" lon="5.11954">
        <ele>314.8</ele>
        <time>2013-01-30T14:21:51.000Z</time>
      </trkpt>
      <trkpt lat="43.98194" lon="5.11958">
        <ele>314.5</ele>
        <time>2013-01-30T14:21:52.000Z</time>
      </trkpt>
      <trkpt lat="43.9819" lon="5.11963">
        <ele>313.5</ele>
        <time>2013-01-30T14:21:53.000Z</time>
      </trkpt>
      <trkpt lat="43.98186" lon="5.11968">
        <ele>313.8</ele>
        <time>2013-01-30T14:21:54.000Z</time>
      </trkpt>
      <trkpt lat="43.98182" lon="5.11973">
        <ele>313.7</ele>
        <time>2013-01-30T14:21:55.000Z</time>
      </trkpt>
      <trkpt lat="43.98177" lon="5.11977">
        <ele>313.5</ele>
        <time>2013-01-30T14:21:56.000Z</time>
      </trkpt>
      <trkpt lat="43.98173" lon="5.11982">
        <ele>313.5</ele>
        <time>2013-01-30T14:21:57.000Z</time>
      </trkpt>
      <trkpt lat="43.98168" lon="5.11987">
        <ele>313.4</ele>
        <time>2013-01-30T14:21:58.000Z</time>
      </trkpt>
      <trkpt lat="43.98164" lon="5.11991">
        <ele>313.4</ele>
        <time>2013-01-30T14:21:59.000Z</time>
      </trkpt>
      <trkpt lat="43.9816" lon="5.11994">
        <ele>313.3</ele>
        <time>2013-01-30T14:22:00.000Z</time>
      </trkpt>
      <trkpt lat="43.98157" lon="5.11996">
        <ele>313</ele>
        <time>2013-01-30T14:22:01.000Z</time>
      </trkpt>
      <trkpt lat="43.98152" lon="5.11999">
        <ele>313.4</ele>
        <time>2013-01-30T14:22:02.000Z</time>
      </trkpt>
      <trkpt lat="43.98147" lon="5.12002">
        <ele>314.1</ele>
        <time>2013-01-30T14:22:03.000Z</time>
      </trkpt>
      <trkpt lat="43.98144" lon="5.12002">
        <ele>315.2</ele>
        <time>2013-01-30T14:22:04.000Z</time>
      </trkpt>
      <trkpt lat="43.98141" lon="5.12003">
        <ele>316.1</ele>
        <time>2013-01-30T14:22:05.000Z</time>
      </trkpt>
      <trkpt lat="43.98138" lon="5.12004">
        <ele>316.7</ele>
        <time>2013-01-30T14:22:06.000Z</time>
      </trkpt>
      <trkpt lat="43.98136" lon="5.12006">
        <ele>317.4</ele>
        <time>2013-01-30T14:22:07.000Z</time>
      </trkpt>
      <trkpt lat="43.98134" lon="5.12009">
        <ele>318</ele>
        <time>2013-01-30T14:22:08.000Z</time>
      </trkpt>
      <trkpt lat="43.98133" lon="5.12012">
        <ele>318.1</ele>
        <time>2013-01-30T14:22:09.000Z</time>
      </trkpt>
      <trkpt lat="43.98134" lon="5.12017">
        <ele>317.8</ele>
        <time>2013-01-30T14:22:12.000Z</time>
      </trkpt>
      <trkpt lat="43.9814" lon="5.12021">
        <ele>318.3</ele>
        <time>2013-01-30T14:22:13.000Z</time>
      </trkpt>
      <trkpt lat="43.98143" lon="5.12023">
        <ele>319</ele>
        <time>2013-01-30T14:22:15.000Z</time>
      </trkpt>
      <trkpt lat="43.98145" lon="5.12023">
        <ele>318.8</ele>
        <time>2013-01-30T14:22:16.000Z</time>
      </trkpt>
      <trkpt lat="43.98149" lon="5.12025">
        <ele>320.8</ele>
        <time>2013-01-30T14:22:18.000Z</time>
      </trkpt>
      <trkpt lat="43.98151" lon="5.12025">
        <ele>320.2</ele>
        <time>2013-01-30T14:22:19.000Z</time>
      </trkpt>
      <trkpt lat="43.98155" lon="5.12027">
        <ele>320.8</ele>
        <time>2013-01-30T14:22:21.000Z</time>
      </trkpt>
      <trkpt lat="43.98156" lon="5.12028">
        <ele>321.1</ele>
        <time>2013-01-30T14:22:22.000Z</time>
      </trkpt>
      <trkpt lat="43.98156" lon="5.12034">
        <ele>321</ele>
        <time>2013-01-30T14:23:09.000Z</time>
      </trkpt>
      <trkpt lat="43.98156" lon="5.12035">
        <ele>321</ele>
        <time>2013-01-30T14:23:10.000Z</time>
      </trkpt>
      <trkpt lat="43.98158" lon="5.12036">
        <ele>320.4</ele>
        <time>2013-01-30T14:23:31.000Z</time>
      </trkpt>
      <trkpt lat="43.9816" lon="5.12037">
        <ele>318.9</ele>
        <time>2013-01-30T14:23:32.000Z</time>
      </trkpt>
      <trkpt lat="43.98164" lon="5.12038">
        <ele>317.9</ele>
        <time>2013-01-30T14:23:33.000Z</time>
      </trkpt>
      <trkpt lat="43.98169" lon="5.12037">
        <ele>316.8</ele>
        <time>2013-01-30T14:23:34.000Z</time>
      </trkpt>
      <trkpt lat="43.98174" lon="5.12037">
        <ele>316.5</ele>
        <time>2013-01-30T14:23:35.000Z</time>
      </trkpt>
      <trkpt lat="43.98179" lon="5.12037">
        <ele>314.6</ele>
        <time>2013-01-30T14:23:36.000Z</time>
      </trkpt>
      <trkpt lat="43.98184" lon="5.12037">
        <ele>312.9</ele>
        <time>2013-01-30T14:23:37.000Z</time>
      </trkpt>
      <trkpt lat="43.98189" lon="5.12037">
        <ele>312.7</ele>
        <time>2013-01-30T14:23:38.000Z</time>
      </trkpt>
      <trkpt lat="43.98194" lon="5.12036">
        <ele>312</ele>
        <time>2013-01-30T14:23:39.000Z</time>
      </trkpt>
      <trkpt lat="43.98199" lon="5.12037">
        <ele>311.5</ele>
        <time>2013-01-30T14:23:40.000Z</time>
      </trkpt>
      <trkpt lat="43.98205" lon="5.1204">
        <ele>311.1</ele>
        <time>2013-01-30T14:23:41.000Z</time>
      </trkpt>
      <trkpt lat="43.98216" lon="5.12054">
        <ele>309.5</ele>
        <time>2013-01-30T14:23:42.000Z</time>
      </trkpt>
      <trkpt lat="43.9821" lon="5.12036">
        <ele>309.6</ele>
        <time>2013-01-30T14:23:43.000Z</time>
      </trkpt>
      <trkpt lat="43.98214" lon="5.12036">
        <ele>308.3</ele>
        <time>2013-01-30T14:23:44.000Z</time>
      </trkpt>
      <trkpt lat="43.98218" lon="5.12036">
        <ele>306.9</ele>
        <time>2013-01-30T14:23:45.000Z</time>
      </trkpt>
      <trkpt lat="43.98222" lon="5.12034">
        <ele>305.5</ele>
        <time>2013-01-30T14:23:46.000Z</time>
      </trkpt>
      <trkpt lat="43.98227" lon="5.12032">
        <ele>304.3</ele>
        <time>2013-01-30T14:23:47.000Z</time>
      </trkpt>
      <trkpt lat="43.98231" lon="5.12029">
        <ele>303.6</ele>
        <time>2013-01-30T14:23:48.000Z</time>
      </trkpt>
      <trkpt lat="43.98234" lon="5.12027">
        <ele>303</ele>
        <time>2013-01-30T14:23:49.000Z</time>
      </trkpt>
      <trkpt lat="43.98237" lon="5.12027">
        <ele>302.1</ele>
        <time>2013-01-30T14:23:50.000Z</time>
      </trkpt>
      <trkpt lat="43.98238" lon="5.12019">
        <ele>301.9</ele>
        <time>2013-01-30T14:23:51.000Z</time>
      </trkpt>
      <trkpt lat="43.98242" lon="5.12018">
        <ele>300.3</ele>
        <time>2013-01-30T14:23:52.000Z</time>
      </trkpt>
      <trkpt lat="43.98245" lon="5.12016">
        <ele>298.8</ele>
        <time>2013-01-30T14:23:53.000Z</time>
      </trkpt>
      <trkpt lat="43.9825" lon="5.12014">
        <ele>297.4</ele>
        <time>2013-01-30T14:23:54.000Z</time>
      </trkpt>
      <trkpt lat="43.98255" lon="5.1201">
        <ele>295.8</ele>
        <time>2013-01-30T14:23:55.000Z</time>
      </trkpt>
      <trkpt lat="43.9826" lon="5.12004">
        <ele>294.7</ele>
        <time>2013-01-30T14:23:56.000Z</time>
      </trkpt>
      <trkpt lat="43.98267" lon="5.12001">
        <ele>294.3</ele>
        <time>2013-01-30T14:23:57.000Z</time>
      </trkpt>
      <trkpt lat="43.98272" lon="5.11997">
        <ele>294.7</ele>
        <time>2013-01-30T14:23:58.000Z</time>
      </trkpt>
      <trkpt lat="43.98278" lon="5.11996">
        <ele>294.9</ele>
        <time>2013-01-30T14:23:59.000Z</time>
      </trkpt>
      <trkpt lat="43.98281" lon="5.11995">
        <ele>296</ele>
        <time>2013-01-30T14:24:00.000Z</time>
      </trkpt>
      <trkpt lat="43.98283" lon="5.11994">
        <ele>297.1</ele>
        <time>2013-01-30T14:24:01.000Z</time>
      </trkpt>
      <trkpt lat="43.98285" lon="5.11994">
        <ele>297.4</ele>
        <time>2013-01-30T14:24:02.000Z</time>
      </trkpt>
      <trkpt lat="43.98288" lon="5.11993">
        <ele>297.6</ele>
        <time>2013-01-30T14:24:03.000Z</time>
      </trkpt>
      <trkpt lat="43.9829" lon="5.11992">
        <ele>298.1</ele>
        <time>2013-01-30T14:24:04.000Z</time>
      </trkpt>
      <trkpt lat="43.98292" lon="5.1199">
        <ele>299.4</ele>
        <time>2013-01-30T14:24:05.000Z</time>
      </trkpt>
      <trkpt lat="43.98293" lon="5.11988">
        <ele>298.8</ele>
        <time>2013-01-30T14:24:06.000Z</time>
      </trkpt>
      <trkpt lat="43.98296" lon="5.11986">
        <ele>298.9</ele>
        <time>2013-01-30T14:24:07.000Z</time>
      </trkpt>
      <trkpt lat="43.98297" lon="5.11984">
        <ele>299.2</ele>
        <time>2013-01-30T14:24:08.000Z</time>
      </trkpt>
      <trkpt lat="43.98299" lon="5.11982">
        <ele>299.2</ele>
        <time>2013-01-30T14:24:09.000Z</time>
      </trkpt>
      <trkpt lat="43.98303" lon="5.1198">
        <ele>299.2</ele>
        <time>2013-01-30T14:24:11.000Z</time>
      </trkpt>
      <trkpt lat="43.98305" lon="5.11979">
        <ele>299.3</ele>
        <time>2013-01-30T14:24:12.000Z</time>
      </trkpt>
      <trkpt lat="43.98308" lon="5.11977">
        <ele>299.4</ele>
        <time>2013-01-30T14:24:14.000Z</time>
      </trkpt>
      <trkpt lat="43.98312" lon="5.11977">
        <ele>298.2</ele>
        <time>2013-01-30T14:24:15.000Z</time>
      </trkpt>
      <trkpt lat="43.98314" lon="5.11976">
        <ele>298.3</ele>
        <time>2013-01-30T14:24:16.000Z</time>
      </trkpt>
      <trkpt lat="43.98317" lon="5.11975">
        <ele>298.6</ele>
        <time>2013-01-30T14:24:17.000Z</time>
      </trkpt>
      <trkpt lat="43.9832" lon="5.11974">
        <ele>298.7</ele>
        <time>2013-01-30T14:24:18.000Z</time>
      </trkpt>
      <trkpt lat="43.98322" lon="5.11972">
        <ele>298.9</ele>
        <time>2013-01-30T14:24:19.000Z</time>
      </trkpt>
      <trkpt lat="43.98326" lon="5.11969">
        <ele>299.5</ele>
        <time>2013-01-30T14:24:21.000Z</time>
      </trkpt>
      <trkpt lat="43.98328" lon="5.11968">
        <ele>300.1</ele>
        <time>2013-01-30T14:24:22.000Z</time>
      </trkpt>
      <trkpt lat="43.98331" lon="5.11966">
        <ele>300.4</ele>
        <time>2013-01-30T14:24:24.000Z</time>
      </trkpt>
      <trkpt lat="43.98333" lon="5.11965">
        <ele>300.1</ele>
        <time>2013-01-30T14:24:25.000Z</time>
      </trkpt>
      <trkpt lat="43.98336" lon="5.11964">
        <ele>300.1</ele>
        <time>2013-01-30T14:24:27.000Z</time>
      </trkpt>
      <trkpt lat="43.98338" lon="5.11963">
        <ele>300.1</ele>
        <time>2013-01-30T14:24:28.000Z</time>
      </trkpt>
      <trkpt lat="43.98342" lon="5.11962">
        <ele>300</ele>
        <time>2013-01-30T14:24:30.000Z</time>
      </trkpt>
      <trkpt lat="43.98345" lon="5.11964">
        <ele>297.1</ele>
        <time>2013-01-30T14:24:31.000Z</time>
      </trkpt>
      <trkpt lat="43.98347" lon="5.1196">
        <ele>299.4</ele>
        <time>2013-01-30T14:24:33.000Z</time>
      </trkpt>
      <trkpt lat="43.98351" lon="5.11961">
        <ele>299.5</ele>
        <time>2013-01-30T14:24:34.000Z</time>
      </trkpt>
      <trkpt lat="43.98353" lon="5.1196">
        <ele>299.7</ele>
        <time>2013-01-30T14:24:35.000Z</time>
      </trkpt>
      <trkpt lat="43.98356" lon="5.11959">
        <ele>300</ele>
        <time>2013-01-30T14:24:36.000Z</time>
      </trkpt>
      <trkpt lat="43.98359" lon="5.11958">
        <ele>300.4</ele>
        <time>2013-01-30T14:24:37.000Z</time>
      </trkpt>
      <trkpt lat="43.98361" lon="5.11957">
        <ele>300.6</ele>
        <time>2013-01-30T14:24:38.000Z</time>
      </trkpt>
      <trkpt lat="43.98364" lon="5.11955">
        <ele>299.9</ele>
        <time>2013-01-30T14:24:40.000Z</time>
      </trkpt>
      <trkpt lat="43.98366" lon="5.11955">
        <ele>300.1</ele>
        <time>2013-01-30T14:24:41.000Z</time>
      </trkpt>
      <trkpt lat="43.98369" lon="5.11955">
        <ele>307.1</ele>
        <time>2013-01-30T14:24:45.000Z</time>
      </trkpt>
      <trkpt lat="43.98371" lon="5.11954">
        <ele>307.7</ele>
        <time>2013-01-30T14:24:46.000Z</time>
      </trkpt>
      <trkpt lat="43.98375" lon="5.11952">
        <ele>306.5</ele>
        <time>2013-01-30T14:24:48.000Z</time>
      </trkpt>
      <trkpt lat="43.98377" lon="5.11952">
        <ele>306</ele>
        <time>2013-01-30T14:24:49.000Z</time>
      </trkpt>
      <trkpt lat="43.98381" lon="5.11956">
        <ele>304.3</ele>
        <time>2013-01-30T14:24:52.000Z</time>
      </trkpt>
      <trkpt lat="43.98388" lon="5.11952">
        <ele>305.1</ele>
        <time>2013-01-30T14:24:53.000Z</time>
      </trkpt>
      <trkpt lat="43.98392" lon="5.11953">
        <ele>302.7</ele>
        <time>2013-01-30T14:24:54.000Z</time>
      </trkpt>
      <trkpt lat="43.98395" lon="5.11956">
        <ele>301.1</ele>
        <time>2013-01-30T14:24:55.000Z</time>
      </trkpt>
      <trkpt lat="43.98397" lon="5.11958">
        <ele>299</ele>
        <time>2013-01-30T14:24:56.000Z</time>
      </trkpt>
      <trkpt lat="43.98398" lon="5.11962">
        <ele>297</ele>
        <time>2013-01-30T14:24:57.000Z</time>
      </trkpt>
      <trkpt lat="43.98401" lon="5.11967">
        <ele>294.5</ele>
        <time>2013-01-30T14:24:58.000Z</time>
      </trkpt>
      <trkpt lat="43.98403" lon="5.1197">
        <ele>292.3</ele>
        <time>2013-01-30T14:24:59.000Z</time>
      </trkpt>
      <trkpt lat="43.98405" lon="5.11973">
        <ele>291.6</ele>
        <time>2013-01-30T14:25:00.000Z</time>
      </trkpt>
      <trkpt lat="43.98407" lon="5.11973">
        <ele>291.5</ele>
        <time>2013-01-30T14:25:01.000Z</time>
      </trkpt>
      <trkpt lat="43.98407" lon="5.11979">
        <ele>289.1</ele>
        <time>2013-01-30T14:25:06.000Z</time>
      </trkpt>
      <trkpt lat="43.98408" lon="5.1198">
        <ele>289.4</ele>
        <time>2013-01-30T14:25:07.000Z</time>
      </trkpt>
      <trkpt lat="43.98409" lon="5.1198">
        <ele>289.3</ele>
        <time>2013-01-30T14:26:03.000Z</time>
      </trkpt>
      <trkpt lat="43.98412" lon="5.11979">
        <ele>289.3</ele>
        <time>2013-01-30T14:26:04.000Z</time>
      </trkpt>
      <trkpt lat="43.98419" lon="5.11977">
        <ele>290.9</ele>
        <time>2013-01-30T14:26:05.000Z</time>
      </trkpt>
      <trkpt lat="43.98418" lon="5.11973">
        <ele>291.7</ele>
        <time>2013-01-30T14:26:08.000Z</time>
      </trkpt>
      <trkpt lat="43.98418" lon="5.11971">
        <ele>291.3</ele>
        <time>2013-01-30T14:26:09.000Z</time>
      </trkpt>
      <trkpt lat="43.98418" lon="5.11967">
        <ele>291.4</ele>
        <time>2013-01-30T14:26:10.000Z</time>
      </trkpt>
      <trkpt lat="43.98418" lon="5.11962">
        <ele>290.9</ele>
        <time>2013-01-30T14:26:11.000Z</time>
      </trkpt>
      <trkpt lat="43.98417" lon="5.11956">
        <ele>289.2</ele>
        <time>2013-01-30T14:26:12.000Z</time>
      </trkpt>
      <trkpt lat="43.98415" lon="5.11949">
        <ele>287.5</ele>
        <time>2013-01-30T14:26:13.000Z</time>
      </trkpt>
      <trkpt lat="43.98414" lon="5.11943">
        <ele>286.7</ele>
        <time>2013-01-30T14:26:14.000Z</time>
      </trkpt>
      <trkpt lat="43.98413" lon="5.11937">
        <ele>285.8</ele>
        <time>2013-01-30T14:26:15.000Z</time>
      </trkpt>
      <trkpt lat="43.98412" lon="5.11932">
        <ele>285.4</ele>
        <time>2013-01-30T14:26:16.000Z</time>
      </trkpt>
      <trkpt lat="43.98411" lon="5.11928">
        <ele>285.3</ele>
        <time>2013-01-30T14:26:17.000Z</time>
      </trkpt>
      <trkpt lat="43.9841" lon="5.11924">
        <ele>285</ele>
        <time>2013-01-30T14:26:18.000Z</time>
      </trkpt>
      <trkpt lat="43.98409" lon="5.11921">
        <ele>284.6</ele>
        <time>2013-01-30T14:26:19.000Z</time>
      </trkpt>
      <trkpt lat="43.98408" lon="5.11919">
        <ele>284.3</ele>
        <time>2013-01-30T14:26:20.000Z</time>
      </trkpt>
      <trkpt lat="43.98408" lon="5.11915">
        <ele>283.2</ele>
        <time>2013-01-30T14:26:21.000Z</time>
      </trkpt>
      <trkpt lat="43.98407" lon="5.11912">
        <ele>282.5</ele>
        <time>2013-01-30T14:26:22.000Z</time>
      </trkpt>
      <trkpt lat="43.9841" lon="5.1191">
        <ele>282.5</ele>
        <time>2013-01-30T14:26:23.000Z</time>
      </trkpt>
      <trkpt lat="43.98411" lon="5.11907">
        <ele>283.2</ele>
        <time>2013-01-30T14:26:24.000Z</time>
      </trkpt>
      <trkpt lat="43.98413" lon="5.11904">
        <ele>284.4</ele>
        <time>2013-01-30T14:26:25.000Z</time>
      </trkpt>
      <trkpt lat="43.98414" lon="5.11901">
        <ele>286.8</ele>
        <time>2013-01-30T14:26:26.000Z</time>
      </trkpt>
      <trkpt lat="43.98416" lon="5.119">
        <ele>285.1</ele>
        <time>2013-01-30T14:26:27.000Z</time>
      </trkpt>
      <trkpt lat="43.98419" lon="5.11899">
        <ele>285</ele>
        <time>2013-01-30T14:26:28.000Z</time>
      </trkpt>
      <trkpt lat="43.98419" lon="5.11893">
        <ele>284.2</ele>
        <time>2013-01-30T14:26:29.000Z</time>
      </trkpt>
      <trkpt lat="43.98419" lon="5.11887">
        <ele>283.2</ele>
        <time>2013-01-30T14:26:30.000Z</time>
      </trkpt>
      <trkpt lat="43.98419" lon="5.11881">
        <ele>282.6</ele>
        <time>2013-01-30T14:26:31.000Z</time>
      </trkpt>
      <trkpt lat="43.98419" lon="5.11874">
        <ele>281.6</ele>
        <time>2013-01-30T14:26:32.000Z</time>
      </trkpt>
      <trkpt lat="43.98419" lon="5.11869">
        <ele>281.2</ele>
        <time>2013-01-30T14:26:33.000Z</time>
      </trkpt>
      <trkpt lat="43.98419" lon="5.11865">
        <ele>280.7</ele>
        <time>2013-01-30T14:26:34.000Z</time>
      </trkpt>
      <trkpt lat="43.9842" lon="5.1186">
        <ele>280.7</ele>
        <time>2013-01-30T14:26:36.000Z</time>
      </trkpt>
      <trkpt lat="43.98421" lon="5.11858">
        <ele>280.4</ele>
        <time>2013-01-30T14:26:37.000Z</time>
      </trkpt>
      <trkpt lat="43.98424" lon="5.11856">
        <ele>279.9</ele>
        <time>2013-01-30T14:26:38.000Z</time>
      </trkpt>
      <trkpt lat="43.98427" lon="5.11856">
        <ele>279.5</ele>
        <time>2013-01-30T14:26:39.000Z</time>
      </trkpt>
      <trkpt lat="43.9843" lon="5.11857">
        <ele>279.2</ele>
        <time>2013-01-30T14:26:40.000Z</time>
      </trkpt>
      <trkpt lat="43.98434" lon="5.11858">
        <ele>279</ele>
        <time>2013-01-30T14:26:41.000Z</time>
      </trkpt>
      <trkpt lat="43.98438" lon="5.1186">
        <ele>278.6</ele>
        <time>2013-01-30T14:26:42.000Z</time>
      </trkpt>
      <trkpt lat="43.98443" lon="5.11861">
        <ele>278.3</ele>
        <time>2013-01-30T14:26:43.000Z</time>
      </trkpt>
      <trkpt lat="43.98448" lon="5.11863">
        <ele>277.3</ele>
        <time>2013-01-30T14:26:44.000Z</time>
      </trkpt>
      <trkpt lat="43.98453" lon="5.11864">
        <ele>277</ele>
        <time>2013-01-30T14:26:45.000Z</time>
      </trkpt>
      <trkpt lat="43.98458" lon="5.11865">
        <ele>276.1</ele>
        <time>2013-01-30T14:26:46.000Z</time>
      </trkpt>
      <trkpt lat="43.98464" lon="5.11866">
        <ele>275.4</ele>
        <time>2013-01-30T14:26:47.000Z</time>
      </trkpt>
      <trkpt lat="43.98471" lon="5.11868">
        <ele>275.1</ele>
        <time>2013-01-30T14:26:48.000Z</time>
      </trkpt>
      <trkpt lat="43.98477" lon="5.11869">
        <ele>274.5</ele>
        <time>2013-01-30T14:26:49.000Z</time>
      </trkpt>
      <trkpt lat="43.98484" lon="5.11871">
        <ele>274.2</ele>
        <time>2013-01-30T14:26:50.000Z</time>
      </trkpt>
      <trkpt lat="43.98491" lon="5.11873">
        <ele>273.2</ele>
        <time>2013-01-30T14:26:51.000Z</time>
      </trkpt>
      <trkpt lat="43.98498" lon="5.11875">
        <ele>272.3</ele>
        <time>2013-01-30T14:26:52.000Z</time>
      </trkpt>
      <trkpt lat="43.98505" lon="5.11877">
        <ele>271.6</ele>
        <time>2013-01-30T14:26:53.000Z</time>
      </trkpt>
      <trkpt lat="43.98512" lon="5.11879">
        <ele>270.8</ele>
        <time>2013-01-30T14:26:54.000Z</time>
      </trkpt>
      <trkpt lat="43.98519" lon="5.11881">
        <ele>270.5</ele>
        <time>2013-01-30T14:26:55.000Z</time>
      </trkpt>
      <trkpt lat="43.98526" lon="5.11883">
        <ele>269.8</ele>
        <time>2013-01-30T14:26:56.000Z</time>
      </trkpt>
      <trkpt lat="43.98533" lon="5.11885">
        <ele>269.2</ele>
        <time>2013-01-30T14:26:57.000Z</time>
      </trkpt>
      <trkpt lat="43.98541" lon="5.11887">
        <ele>268.4</ele>
        <time>2013-01-30T14:26:58.000Z</time>
      </trkpt>
      <trkpt lat="43.98547" lon="5.11886">
        <ele>267.8</ele>
        <time>2013-01-30T14:26:59.000Z</time>
      </trkpt>
      <trkpt lat="43.98554" lon="5.11883">
        <ele>267.7</ele>
        <time>2013-01-30T14:27:00.000Z</time>
      </trkpt>
      <trkpt lat="43.9856" lon="5.11879">
        <ele>267.3</ele>
        <time>2013-01-30T14:27:01.000Z</time>
      </trkpt>
      <trkpt lat="43.98565" lon="5.11872">
        <ele>266.8</ele>
        <time>2013-01-30T14:27:02.000Z</time>
      </trkpt>
      <trkpt lat="43.98571" lon="5.11866">
        <ele>267</ele>
        <time>2013-01-30T14:27:03.000Z</time>
      </trkpt>
      <trkpt lat="43.98575" lon="5.11858">
        <ele>266.5</ele>
        <time>2013-01-30T14:27:04.000Z</time>
      </trkpt>
      <trkpt lat="43.9858" lon="5.11849">
        <ele>265.9</ele>
        <time>2013-01-30T14:27:05.000Z</time>
      </trkpt>
      <trkpt lat="43.98584" lon="5.11841">
        <ele>266.3</ele>
        <time>2013-01-30T14:27:06.000Z</time>
      </trkpt>
      <trkpt lat="43.98589" lon="5.11832">
        <ele>266</ele>
        <time>2013-01-30T14:27:07.000Z</time>
      </trkpt>
      <trkpt lat="43.98594" lon="5.11824">
        <ele>265.9</ele>
        <time>2013-01-30T14:27:08.000Z</time>
      </trkpt>
      <trkpt lat="43.98599" lon="5.11815">
        <ele>266.4</ele>
        <time>2013-01-30T14:27:09.000Z</time>
      </trkpt>
      <trkpt lat="43.98603" lon="5.11807">
        <ele>266</ele>
        <time>2013-01-30T14:27:10.000Z</time>
      </trkpt>
      <trkpt lat="43.98608" lon="5.11798">
        <ele>265.8</ele>
        <time>2013-01-30T14:27:11.000Z</time>
      </trkpt>
      <trkpt lat="43.98613" lon="5.11789">
        <ele>265.7</ele>
        <time>2013-01-30T14:27:12.000Z</time>
      </trkpt>
      <trkpt lat="43.98618" lon="5.11782">
        <ele>265.5</ele>
        <time>2013-01-30T14:27:13.000Z</time>
      </trkpt>
      <trkpt lat="43.98622" lon="5.11774">
        <ele>265.1</ele>
        <time>2013-01-30T14:27:14.000Z</time>
      </trkpt>
      <trkpt lat="43.98627" lon="5.11766">
        <ele>264.9</ele>
        <time>2013-01-30T14:27:15.000Z</time>
      </trkpt>
      <trkpt lat="43.98632" lon="5.11759">
        <ele>264.6</ele>
        <time>2013-01-30T14:27:16.000Z</time>
      </trkpt>
      <trkpt lat="43.98637" lon="5.11752">
        <ele>264.5</ele>
        <time>2013-01-30T14:27:17.000Z</time>
      </trkpt>
      <trkpt lat="43.98642" lon="5.11745">
        <ele>264.2</ele>
        <time>2013-01-30T14:27:18.000Z</time>
      </trkpt>
      <trkpt lat="43.98647" lon="5.11739">
        <ele>264</ele>
        <time>2013-01-30T14:27:19.000Z</time>
      </trkpt>
      <trkpt lat="43.98652" lon="5.11732">
        <ele>264</ele>
        <time>2013-01-30T14:27:20.000Z</time>
      </trkpt>
      <trkpt lat="43.98657" lon="5.11725">
        <ele>263.4</ele>
        <time>2013-01-30T14:27:21.000Z</time>
      </trkpt>
      <trkpt lat="43.98663" lon="5.11718">
        <ele>263</ele>
        <time>2013-01-30T14:27:22.000Z</time>
      </trkpt>
      <trkpt lat="43.98668" lon="5.11713">
        <ele>262.8</ele>
        <time>2013-01-30T14:27:23.000Z</time>
      </trkpt>
      <trkpt lat="43.98673" lon="5.11708">
        <ele>262.6</ele>
        <time>2013-01-30T14:27:24.000Z</time>
      </trkpt>
      <trkpt lat="43.98679" lon="5.11703">
        <ele>262.1</ele>
        <time>2013-01-30T14:27:25.000Z</time>
      </trkpt>
      <trkpt lat="43.98685" lon="5.11698">
        <ele>261.9</ele>
        <time>2013-01-30T14:27:26.000Z</time>
      </trkpt>
      <trkpt lat="43.98691" lon="5.11693">
        <ele>261.8</ele>
        <time>2013-01-30T14:27:27.000Z</time>
      </trkpt>
      <trkpt lat="43.98697" lon="5.11689">
        <ele>261.6</ele>
        <time>2013-01-30T14:27:28.000Z</time>
      </trkpt>
      <trkpt lat="43.98702" lon="5.11684">
        <ele>261.3</ele>
        <time>2013-01-30T14:27:29.000Z</time>
      </trkpt>
      <trkpt lat="43.98708" lon="5.1168">
        <ele>261.2</ele>
        <time>2013-01-30T14:27:30.000Z</time>
      </trkpt>
      <trkpt lat="43.98713" lon="5.11676">
        <ele>261.1</ele>
        <time>2013-01-30T14:27:31.000Z</time>
      </trkpt>
      <trkpt lat="43.98719" lon="5.11672">
        <ele>260.8</ele>
        <time>2013-01-30T14:27:32.000Z</time>
      </trkpt>
      <trkpt lat="43.98725" lon="5.11668">
        <ele>260.1</ele>
        <time>2013-01-30T14:27:33.000Z</time>
      </trkpt>
      <trkpt lat="43.98731" lon="5.11664">
        <ele>259.7</ele>
        <time>2013-01-30T14:27:34.000Z</time>
      </trkpt>
      <trkpt lat="43.98737" lon="5.11661">
        <ele>259.7</ele>
        <time>2013-01-30T14:27:35.000Z</time>
      </trkpt>
      <trkpt lat="43.98743" lon="5.11658">
        <ele>259.5</ele>
        <time>2013-01-30T14:27:36.000Z</time>
      </trkpt>
      <trkpt lat="43.98749" lon="5.11657">
        <ele>259.2</ele>
        <time>2013-01-30T14:27:37.000Z</time>
      </trkpt>
      <trkpt lat="43.98755" lon="5.11655">
        <ele>258.7</ele>
        <time>2013-01-30T14:27:38.000Z</time>
      </trkpt>
      <trkpt lat="43.98761" lon="5.11653">
        <ele>258.5</ele>
        <time>2013-01-30T14:27:39.000Z</time>
      </trkpt>
      <trkpt lat="43.98766" lon="5.1165">
        <ele>258.4</ele>
        <time>2013-01-30T14:27:40.000Z</time>
      </trkpt>
      <trkpt lat="43.98772" lon="5.11648">
        <ele>257.5</ele>
        <time>2013-01-30T14:27:41.000Z</time>
      </trkpt>
      <trkpt lat="43.98779" lon="5.11646">
        <ele>256.6</ele>
        <time>2013-01-30T14:27:42.000Z</time>
      </trkpt>
      <trkpt lat="43.98785" lon="5.11643">
        <ele>256.1</ele>
        <time>2013-01-30T14:27:43.000Z</time>
      </trkpt>
      <trkpt lat="43.98791" lon="5.11641">
        <ele>255.8</ele>
        <time>2013-01-30T14:27:44.000Z</time>
      </trkpt>
      <trkpt lat="43.98797" lon="5.11639">
        <ele>255.7</ele>
        <time>2013-01-30T14:27:45.000Z</time>
      </trkpt>
      <trkpt lat="43.98803" lon="5.11637">
        <ele>255.9</ele>
        <time>2013-01-30T14:27:46.000Z</time>
      </trkpt>
      <trkpt lat="43.98809" lon="5.11635">
        <ele>255.9</ele>
        <time>2013-01-30T14:27:47.000Z</time>
      </trkpt>
      <trkpt lat="43.98815" lon="5.11633">
        <ele>255.7</ele>
        <time>2013-01-30T14:27:48.000Z</time>
      </trkpt>
      <trkpt lat="43.98821" lon="5.11631">
        <ele>255.7</ele>
        <time>2013-01-30T14:27:49.000Z</time>
      </trkpt>
      <trkpt lat="43.98827" lon="5.11629">
        <ele>255.6</ele>
        <time>2013-01-30T14:27:50.000Z</time>
      </trkpt>
      <trkpt lat="43.98832" lon="5.11627">
        <ele>255.3</ele>
        <time>2013-01-30T14:27:51.000Z</time>
      </trkpt>
      <trkpt lat="43.98838" lon="5.11625">
        <ele>254.6</ele>
        <time>2013-01-30T14:27:52.000Z</time>
      </trkpt>
      <trkpt lat="43.98844" lon="5.11623">
        <ele>254.4</ele>
        <time>2013-01-30T14:27:53.000Z</time>
      </trkpt>
      <trkpt lat="43.9885" lon="5.11621">
        <ele>254.1</ele>
        <time>2013-01-30T14:27:54.000Z</time>
      </trkpt>
      <trkpt lat="43.98855" lon="5.1162">
        <ele>254.1</ele>
        <time>2013-01-30T14:27:55.000Z</time>
      </trkpt>
      <trkpt lat="43.98862" lon="5.11618">
        <ele>253.8</ele>
        <time>2013-01-30T14:27:56.000Z</time>
      </trkpt>
      <trkpt lat="43.98868" lon="5.11616">
        <ele>253.5</ele>
        <time>2013-01-30T14:27:57.000Z</time>
      </trkpt>
      <trkpt lat="43.98874" lon="5.11613">
        <ele>253.1</ele>
        <time>2013-01-30T14:27:58.000Z</time>
      </trkpt>
      <trkpt lat="43.98879" lon="5.11612">
        <ele>253</ele>
        <time>2013-01-30T14:27:59.000Z</time>
      </trkpt>
      <trkpt lat="43.98885" lon="5.1161">
        <ele>253</ele>
        <time>2013-01-30T14:28:00.000Z</time>
      </trkpt>
      <trkpt lat="43.98891" lon="5.11607">
        <ele>252.7</ele>
        <time>2013-01-30T14:28:01.000Z</time>
      </trkpt>
      <trkpt lat="43.98896" lon="5.11605">
        <ele>252.7</ele>
        <time>2013-01-30T14:28:02.000Z</time>
      </trkpt>
      <trkpt lat="43.98902" lon="5.11602">
        <ele>252.9</ele>
        <time>2013-01-30T14:28:03.000Z</time>
      </trkpt>
      <trkpt lat="43.98908" lon="5.11601">
        <ele>252</ele>
        <time>2013-01-30T14:28:04.000Z</time>
      </trkpt>
      <trkpt lat="43.98913" lon="5.11598">
        <ele>251.8</ele>
        <time>2013-01-30T14:28:05.000Z</time>
      </trkpt>
      <trkpt lat="43.98918" lon="5.11596">
        <ele>251.8</ele>
        <time>2013-01-30T14:28:06.000Z</time>
      </trkpt>
      <trkpt lat="43.98924" lon="5.11594">
        <ele>251.5</ele>
        <time>2013-01-30T14:28:07.000Z</time>
      </trkpt>
      <trkpt lat="43.9893" lon="5.11591">
        <ele>251.3</ele>
        <time>2013-01-30T14:28:08.000Z</time>
      </trkpt>
      <trkpt lat="43.98936" lon="5.11588">
        <ele>250.7</ele>
        <time>2013-01-30T14:28:09.000Z</time>
      </trkpt>
      <trkpt lat="43.98942" lon="5.11585">
        <ele>250.4</ele>
        <time>2013-01-30T14:28:10.000Z</time>
      </trkpt>
      <trkpt lat="43.98948" lon="5.11582">
        <ele>250.2</ele>
        <time>2013-01-30T14:28:11.000Z</time>
      </trkpt>
      <trkpt lat="43.98954" lon="5.11579">
        <ele>249.8</ele>
        <time>2013-01-30T14:28:12.000Z</time>
      </trkpt>
      <trkpt lat="43.98961" lon="5.11577">
        <ele>249.2</ele>
        <time>2013-01-30T14:28:13.000Z</time>
      </trkpt>
      <trkpt lat="43.98967" lon="5.11574">
        <ele>249.2</ele>
        <time>2013-01-30T14:28:14.000Z</time>
      </trkpt>
      <trkpt lat="43.98974" lon="5.1157">
        <ele>248.3</ele>
        <time>2013-01-30T14:28:15.000Z</time>
      </trkpt>
      <trkpt lat="43.98981" lon="5.11567">
        <ele>247.9</ele>
        <time>2013-01-30T14:28:16.000Z</time>
      </trkpt>
      <trkpt lat="43.98988" lon="5.11564">
        <ele>247.7</ele>
        <time>2013-01-30T14:28:17.000Z</time>
      </trkpt>
      <trkpt lat="43.98994" lon="5.1156">
        <ele>247.4</ele>
        <time>2013-01-30T14:28:18.000Z</time>
      </trkpt>
      <trkpt lat="43.99" lon="5.11557">
        <ele>247.4</ele>
        <time>2013-01-30T14:28:19.000Z</time>
      </trkpt>
      <trkpt lat="43.99007" lon="5.11555">
        <ele>247.4</ele>
        <time>2013-01-30T14:28:20.000Z</time>
      </trkpt>
      <trkpt lat="43.99013" lon="5.11552">
        <ele>247</ele>
        <time>2013-01-30T14:28:21.000Z</time>
      </trkpt>
      <trkpt lat="43.9902" lon="5.1155">
        <ele>246.9</ele>
        <time>2013-01-30T14:28:22.000Z</time>
      </trkpt>
      <trkpt lat="43.99025" lon="5.11548">
        <ele>246.8</ele>
        <time>2013-01-30T14:28:23.000Z</time>
      </trkpt>
      <trkpt lat="43.99031" lon="5.11545">
        <ele>246.8</ele>
        <time>2013-01-30T14:28:24.000Z</time>
      </trkpt>
      <trkpt lat="43.99037" lon="5.11543">
        <ele>246.5</ele>
        <time>2013-01-30T14:28:25.000Z</time>
      </trkpt>
      <trkpt lat="43.99044" lon="5.1154">
        <ele>246.6</ele>
        <time>2013-01-30T14:28:26.000Z</time>
      </trkpt>
      <trkpt lat="43.9905" lon="5.11538">
        <ele>246.5</ele>
        <time>2013-01-30T14:28:27.000Z</time>
      </trkpt>
      <trkpt lat="43.99057" lon="5.11535">
        <ele>246.3</ele>
        <time>2013-01-30T14:28:28.000Z</time>
      </trkpt>
      <trkpt lat="43.99063" lon="5.11533">
        <ele>246.2</ele>
        <time>2013-01-30T14:28:29.000Z</time>
      </trkpt>
      <trkpt lat="43.9907" lon="5.1153">
        <ele>246</ele>
        <time>2013-01-30T14:28:30.000Z</time>
      </trkpt>
      <trkpt lat="43.99077" lon="5.11528">
        <ele>245.8</ele>
        <time>2013-01-30T14:28:31.000Z</time>
      </trkpt>
      <trkpt lat="43.99083" lon="5.11526">
        <ele>245.5</ele>
        <time>2013-01-30T14:28:32.000Z</time>
      </trkpt>
      <trkpt lat="43.9909" lon="5.11523">
        <ele>245.3</ele>
        <time>2013-01-30T14:28:33.000Z</time>
      </trkpt>
      <trkpt lat="43.99096" lon="5.11521">
        <ele>245.1</ele>
        <time>2013-01-30T14:28:34.000Z</time>
      </trkpt>
      <trkpt lat="43.99103" lon="5.11519">
        <ele>244.7</ele>
        <time>2013-01-30T14:28:35.000Z</time>
      </trkpt>
      <trkpt lat="43.9911" lon="5.11517">
        <ele>244.6</ele>
        <time>2013-01-30T14:28:36.000Z</time>
      </trkpt>
      <trkpt lat="43.99116" lon="5.11515">
        <ele>244.5</ele>
        <time>2013-01-30T14:28:37.000Z</time>
      </trkpt>
      <trkpt lat="43.99122" lon="5.11513">
        <ele>244.5</ele>
        <time>2013-01-30T14:28:38.000Z</time>
      </trkpt>
      <trkpt lat="43.99128" lon="5.11511">
        <ele>244.2</ele>
        <time>2013-01-30T14:28:39.000Z</time>
      </trkpt>
      <trkpt lat="43.99135" lon="5.11509">
        <ele>244.3</ele>
        <time>2013-01-30T14:28:40.000Z</time>
      </trkpt>
      <trkpt lat="43.9914" lon="5.11508">
        <ele>244.3</ele>
        <time>2013-01-30T14:28:41.000Z</time>
      </trkpt>
      <trkpt lat="43.99146" lon="5.11506">
        <ele>244.2</ele>
        <time>2013-01-30T14:28:42.000Z</time>
      </trkpt>
      <trkpt lat="43.99152" lon="5.11505">
        <ele>244.1</ele>
        <time>2013-01-30T14:28:43.000Z</time>
      </trkpt>
      <trkpt lat="43.99158" lon="5.11504">
        <ele>244</ele>
        <time>2013-01-30T14:28:44.000Z</time>
      </trkpt>
      <trkpt lat="43.99164" lon="5.11504">
        <ele>243.7</ele>
        <time>2013-01-30T14:28:45.000Z</time>
      </trkpt>
      <trkpt lat="43.99171" lon="5.11504">
        <ele>243.4</ele>
        <time>2013-01-30T14:28:46.000Z</time>
      </trkpt>
      <trkpt lat="43.99177" lon="5.11504">
        <ele>243.2</ele>
        <time>2013-01-30T14:28:47.000Z</time>
      </trkpt>
      <trkpt lat="43.99184" lon="5.11505">
        <ele>242.9</ele>
        <time>2013-01-30T14:28:48.000Z</time>
      </trkpt>
      <trkpt lat="43.99191" lon="5.11505">
        <ele>243</ele>
        <time>2013-01-30T14:28:49.000Z</time>
      </trkpt>
      <trkpt lat="43.99197" lon="5.11506">
        <ele>243</ele>
        <time>2013-01-30T14:28:50.000Z</time>
      </trkpt>
      <trkpt lat="43.99204" lon="5.11506">
        <ele>242.6</ele>
        <time>2013-01-30T14:28:51.000Z</time>
      </trkpt>
      <trkpt lat="43.99211" lon="5.11506">
        <ele>242</ele>
        <time>2013-01-30T14:28:52.000Z</time>
      </trkpt>
      <trkpt lat="43.99217" lon="5.11506">
        <ele>241.8</ele>
        <time>2013-01-30T14:28:53.000Z</time>
      </trkpt>
      <trkpt lat="43.99224" lon="5.11506">
        <ele>241.5</ele>
        <time>2013-01-30T14:28:54.000Z</time>
      </trkpt>
      <trkpt lat="43.9923" lon="5.11505">
        <ele>241</ele>
        <time>2013-01-30T14:28:55.000Z</time>
      </trkpt>
      <trkpt lat="43.99237" lon="5.11504">
        <ele>240.8</ele>
        <time>2013-01-30T14:28:56.000Z</time>
      </trkpt>
      <trkpt lat="43.99244" lon="5.11503">
        <ele>240.4</ele>
        <time>2013-01-30T14:28:57.000Z</time>
      </trkpt>
      <trkpt lat="43.9925" lon="5.11501">
        <ele>240.4</ele>
        <time>2013-01-30T14:28:58.000Z</time>
      </trkpt>
      <trkpt lat="43.99257" lon="5.11498">
        <ele>240.2</ele>
        <time>2013-01-30T14:28:59.000Z</time>
      </trkpt>
      <trkpt lat="43.99264" lon="5.11495">
        <ele>239.8</ele>
        <time>2013-01-30T14:29:00.000Z</time>
      </trkpt>
      <trkpt lat="43.9927" lon="5.11492">
        <ele>239.5</ele>
        <time>2013-01-30T14:29:01.000Z</time>
      </trkpt>
      <trkpt lat="43.99276" lon="5.1149">
        <ele>239.2</ele>
        <time>2013-01-30T14:29:02.000Z</time>
      </trkpt>
      <trkpt lat="43.99282" lon="5.11487">
        <ele>239</ele>
        <time>2013-01-30T14:29:03.000Z</time>
      </trkpt>
      <trkpt lat="43.99289" lon="5.11484">
        <ele>238.8</ele>
        <time>2013-01-30T14:29:04.000Z</time>
      </trkpt>
      <trkpt lat="43.99295" lon="5.11481">
        <ele>238.5</ele>
        <time>2013-01-30T14:29:05.000Z</time>
      </trkpt>
      <trkpt lat="43.99301" lon="5.11478">
        <ele>238.3</ele>
        <time>2013-01-30T14:29:06.000Z</time>
      </trkpt>
      <trkpt lat="43.99308" lon="5.11475">
        <ele>237.9</ele>
        <time>2013-01-30T14:29:07.000Z</time>
      </trkpt>
      <trkpt lat="43.99314" lon="5.11472">
        <ele>238</ele>
        <time>2013-01-30T14:29:08.000Z</time>
      </trkpt>
      <trkpt lat="43.9932" lon="5.1147">
        <ele>237.9</ele>
        <time>2013-01-30T14:29:09.000Z</time>
      </trkpt>
      <trkpt lat="43.99327" lon="5.11467">
        <ele>237.7</ele>
        <time>2013-01-30T14:29:10.000Z</time>
      </trkpt>
      <trkpt lat="43.99333" lon="5.11465">
        <ele>237.5</ele>
        <time>2013-01-30T14:29:11.000Z</time>
      </trkpt>
      <trkpt lat="43.99339" lon="5.11462">
        <ele>237.5</ele>
        <time>2013-01-30T14:29:12.000Z</time>
      </trkpt>
      <trkpt lat="43.99346" lon="5.1146">
        <ele>237.4</ele>
        <time>2013-01-30T14:29:13.000Z</time>
      </trkpt>
      <trkpt lat="43.99352" lon="5.11458">
        <ele>237.1</ele>
        <time>2013-01-30T14:29:14.000Z</time>
      </trkpt>
      <trkpt lat="43.99358" lon="5.11457">
        <ele>237.1</ele>
        <time>2013-01-30T14:29:15.000Z</time>
      </trkpt>
      <trkpt lat="43.99364" lon="5.11456">
        <ele>237.1</ele>
        <time>2013-01-30T14:29:16.000Z</time>
      </trkpt>
      <trkpt lat="43.99371" lon="5.11455">
        <ele>236.8</ele>
        <time>2013-01-30T14:29:17.000Z</time>
      </trkpt>
      <trkpt lat="43.99378" lon="5.11454">
        <ele>236.6</ele>
        <time>2013-01-30T14:29:18.000Z</time>
      </trkpt>
      <trkpt lat="43.99385" lon="5.11454">
        <ele>236.4</ele>
        <time>2013-01-30T14:29:19.000Z</time>
      </trkpt>
      <trkpt lat="43.99391" lon="5.11454">
        <ele>236.1</ele>
        <time>2013-01-30T14:29:20.000Z</time>
      </trkpt>
      <trkpt lat="43.99398" lon="5.11453">
        <ele>236.1</ele>
        <time>2013-01-30T14:29:21.000Z</time>
      </trkpt>
      <trkpt lat="43.99405" lon="5.11452">
        <ele>236.4</ele>
        <time>2013-01-30T14:29:22.000Z</time>
      </trkpt>
      <trkpt lat="43.99411" lon="5.11452">
        <ele>236.4</ele>
        <time>2013-01-30T14:29:23.000Z</time>
      </trkpt>
      <trkpt lat="43.99418" lon="5.11452">
        <ele>236.2</ele>
        <time>2013-01-30T14:29:24.000Z</time>
      </trkpt>
      <trkpt lat="43.99425" lon="5.11451">
        <ele>236</ele>
        <time>2013-01-30T14:29:25.000Z</time>
      </trkpt>
      <trkpt lat="43.99432" lon="5.11451">
        <ele>235.9</ele>
        <time>2013-01-30T14:29:26.000Z</time>
      </trkpt>
      <trkpt lat="43.99438" lon="5.1145">
        <ele>235.8</ele>
        <time>2013-01-30T14:29:27.000Z</time>
      </trkpt>
      <trkpt lat="43.99445" lon="5.11449">
        <ele>235.9</ele>
        <time>2013-01-30T14:29:28.000Z</time>
      </trkpt>
      <trkpt lat="43.99452" lon="5.11447">
        <ele>235</ele>
        <time>2013-01-30T14:29:29.000Z</time>
      </trkpt>
      <trkpt lat="43.99459" lon="5.11445">
        <ele>235.1</ele>
        <time>2013-01-30T14:29:30.000Z</time>
      </trkpt>
      <trkpt lat="43.99465" lon="5.11442">
        <ele>234.9</ele>
        <time>2013-01-30T14:29:31.000Z</time>
      </trkpt>
      <trkpt lat="43.99472" lon="5.11439">
        <ele>235.1</ele>
        <time>2013-01-30T14:29:32.000Z</time>
      </trkpt>
      <trkpt lat="43.99478" lon="5.11436">
        <ele>235.1</ele>
        <time>2013-01-30T14:29:33.000Z</time>
      </trkpt>
      <trkpt lat="43.99484" lon="5.11432">
        <ele>235</ele>
        <time>2013-01-30T14:29:34.000Z</time>
      </trkpt>
      <trkpt lat="43.9949" lon="5.11429">
        <ele>234.9</ele>
        <time>2013-01-30T14:29:35.000Z</time>
      </trkpt>
      <trkpt lat="43.99497" lon="5.11424">
        <ele>235.1</ele>
        <time>2013-01-30T14:29:36.000Z</time>
      </trkpt>
      <trkpt lat="43.99503" lon="5.11419">
        <ele>235.2</ele>
        <time>2013-01-30T14:29:37.000Z</time>
      </trkpt>
      <trkpt lat="43.99508" lon="5.11414">
        <ele>235.2</ele>
        <time>2013-01-30T14:29:38.000Z</time>
      </trkpt>
      <trkpt lat="43.99513" lon="5.11408">
        <ele>235.3</ele>
        <time>2013-01-30T14:29:39.000Z</time>
      </trkpt>
      <trkpt lat="43.99519" lon="5.11403">
        <ele>234.8</ele>
        <time>2013-01-30T14:29:40.000Z</time>
      </trkpt>
      <trkpt lat="43.99524" lon="5.11398">
        <ele>234.7</ele>
        <time>2013-01-30T14:29:41.000Z</time>
      </trkpt>
      <trkpt lat="43.9953" lon="5.11392">
        <ele>234.4</ele>
        <time>2013-01-30T14:29:42.000Z</time>
      </trkpt>
      <trkpt lat="43.99536" lon="5.11387">
        <ele>234.2</ele>
        <time>2013-01-30T14:29:43.000Z</time>
      </trkpt>
      <trkpt lat="43.99541" lon="5.11382">
        <ele>234.1</ele>
        <time>2013-01-30T14:29:44.000Z</time>
      </trkpt>
      <trkpt lat="43.99547" lon="5.11377">
        <ele>233.9</ele>
        <time>2013-01-30T14:29:45.000Z</time>
      </trkpt>
      <trkpt lat="43.99553" lon="5.11373">
        <ele>233.8</ele>
        <time>2013-01-30T14:29:46.000Z</time>
      </trkpt>
      <trkpt lat="43.99559" lon="5.1137">
        <ele>233.7</ele>
        <time>2013-01-30T14:29:47.000Z</time>
      </trkpt>
      <trkpt lat="43.99566" lon="5.11366">
        <ele>233.5</ele>
        <time>2013-01-30T14:29:48.000Z</time>
      </trkpt>
      <trkpt lat="43.99573" lon="5.11363">
        <ele>233.3</ele>
        <time>2013-01-30T14:29:49.000Z</time>
      </trkpt>
      <trkpt lat="43.9958" lon="5.1136">
        <ele>233.1</ele>
        <time>2013-01-30T14:29:50.000Z</time>
      </trkpt>
      <trkpt lat="43.99587" lon="5.11358">
        <ele>232.6</ele>
        <time>2013-01-30T14:29:51.000Z</time>
      </trkpt>
      <trkpt lat="43.99595" lon="5.11355">
        <ele>232.4</ele>
        <time>2013-01-30T14:29:52.000Z</time>
      </trkpt>
      <trkpt lat="43.99601" lon="5.11352">
        <ele>231.9</ele>
        <time>2013-01-30T14:29:53.000Z</time>
      </trkpt>
      <trkpt lat="43.99608" lon="5.1135">
        <ele>231.6</ele>
        <time>2013-01-30T14:29:54.000Z</time>
      </trkpt>
      <trkpt lat="43.99615" lon="5.11348">
        <ele>231.5</ele>
        <time>2013-01-30T14:29:55.000Z</time>
      </trkpt>
      <trkpt lat="43.99621" lon="5.11346">
        <ele>231.3</ele>
        <time>2013-01-30T14:29:56.000Z</time>
      </trkpt>
      <trkpt lat="43.99628" lon="5.11344">
        <ele>231.1</ele>
        <time>2013-01-30T14:29:57.000Z</time>
      </trkpt>
      <trkpt lat="43.99635" lon="5.11341">
        <ele>230.9</ele>
        <time>2013-01-30T14:29:58.000Z</time>
      </trkpt>
      <trkpt lat="43.99642" lon="5.1134">
        <ele>230.8</ele>
        <time>2013-01-30T14:29:59.000Z</time>
      </trkpt>
      <trkpt lat="43.99648" lon="5.11339">
        <ele>230.8</ele>
        <time>2013-01-30T14:30:00.000Z</time>
      </trkpt>
      <trkpt lat="43.99655" lon="5.11337">
        <ele>230.9</ele>
        <time>2013-01-30T14:30:01.000Z</time>
      </trkpt>
      <trkpt lat="43.99662" lon="5.11336">
        <ele>230.8</ele>
        <time>2013-01-30T14:30:02.000Z</time>
      </trkpt>
      <trkpt lat="43.99668" lon="5.11336">
        <ele>230.5</ele>
        <time>2013-01-30T14:30:03.000Z</time>
      </trkpt>
      <trkpt lat="43.99675" lon="5.11335">
        <ele>230.5</ele>
        <time>2013-01-30T14:30:04.000Z</time>
      </trkpt>
      <trkpt lat="43.99681" lon="5.11335">
        <ele>230.3</ele>
        <time>2013-01-30T14:30:05.000Z</time>
      </trkpt>
      <trkpt lat="43.99688" lon="5.11335">
        <ele>230.1</ele>
        <time>2013-01-30T14:30:06.000Z</time>
      </trkpt>
      <trkpt lat="43.99694" lon="5.11335">
        <ele>229.7</ele>
        <time>2013-01-30T14:30:07.000Z</time>
      </trkpt>
      <trkpt lat="43.99701" lon="5.11335">
        <ele>229.6</ele>
        <time>2013-01-30T14:30:08.000Z</time>
      </trkpt>
      <trkpt lat="43.99707" lon="5.11335">
        <ele>229.4</ele>
        <time>2013-01-30T14:30:09.000Z</time>
      </trkpt>
      <trkpt lat="43.99714" lon="5.11335">
        <ele>229.2</ele>
        <time>2013-01-30T14:30:10.000Z</time>
      </trkpt>
      <trkpt lat="43.99721" lon="5.11334">
        <ele>228.9</ele>
        <time>2013-01-30T14:30:11.000Z</time>
      </trkpt>
      <trkpt lat="43.99727" lon="5.11335">
        <ele>228.8</ele>
        <time>2013-01-30T14:30:12.000Z</time>
      </trkpt>
      <trkpt lat="43.99734" lon="5.11335">
        <ele>228.8</ele>
        <time>2013-01-30T14:30:13.000Z</time>
      </trkpt>
      <trkpt lat="43.9974" lon="5.11335">
        <ele>228.6</ele>
        <time>2013-01-30T14:30:14.000Z</time>
      </trkpt>
      <trkpt lat="43.99747" lon="5.11334">
        <ele>228.4</ele>
        <time>2013-01-30T14:30:15.000Z</time>
      </trkpt>
      <trkpt lat="43.99754" lon="5.11333">
        <ele>228</ele>
        <time>2013-01-30T14:30:16.000Z</time>
      </trkpt>
      <trkpt lat="43.99761" lon="5.11331">
        <ele>227.8</ele>
        <time>2013-01-30T14:30:17.000Z</time>
      </trkpt>
      <trkpt lat="43.99769" lon="5.1133">
        <ele>227.4</ele>
        <time>2013-01-30T14:30:18.000Z</time>
      </trkpt>
      <trkpt lat="43.99776" lon="5.11328">
        <ele>227.2</ele>
        <time>2013-01-30T14:30:19.000Z</time>
      </trkpt>
      <trkpt lat="43.99784" lon="5.11327">
        <ele>227</ele>
        <time>2013-01-30T14:30:20.000Z</time>
      </trkpt>
      <trkpt lat="43.99791" lon="5.11326">
        <ele>226.6</ele>
        <time>2013-01-30T14:30:21.000Z</time>
      </trkpt>
      <trkpt lat="43.99799" lon="5.11324">
        <ele>226.3</ele>
        <time>2013-01-30T14:30:22.000Z</time>
      </trkpt>
      <trkpt lat="43.99806" lon="5.11323">
        <ele>226.1</ele>
        <time>2013-01-30T14:30:23.000Z</time>
      </trkpt>
      <trkpt lat="43.99813" lon="5.11321">
        <ele>225.9</ele>
        <time>2013-01-30T14:30:24.000Z</time>
      </trkpt>
      <trkpt lat="43.99821" lon="5.11319">
        <ele>225.7</ele>
        <time>2013-01-30T14:30:25.000Z</time>
      </trkpt>
      <trkpt lat="43.99828" lon="5.11318">
        <ele>225.5</ele>
        <time>2013-01-30T14:30:26.000Z</time>
      </trkpt>
      <trkpt lat="43.99835" lon="5.11316">
        <ele>225.4</ele>
        <time>2013-01-30T14:30:27.000Z</time>
      </trkpt>
      <trkpt lat="43.99842" lon="5.11315">
        <ele>225.5</ele>
        <time>2013-01-30T14:30:28.000Z</time>
      </trkpt>
      <trkpt lat="43.99849" lon="5.11313">
        <ele>225.1</ele>
        <time>2013-01-30T14:30:29.000Z</time>
      </trkpt>
      <trkpt lat="43.99856" lon="5.11311">
        <ele>224.9</ele>
        <time>2013-01-30T14:30:30.000Z</time>
      </trkpt>
      <trkpt lat="43.99863" lon="5.11308">
        <ele>224.8</ele>
        <time>2013-01-30T14:30:31.000Z</time>
      </trkpt>
      <trkpt lat="43.9987" lon="5.11306">
        <ele>224.6</ele>
        <time>2013-01-30T14:30:32.000Z</time>
      </trkpt>
      <trkpt lat="43.99877" lon="5.11303">
        <ele>224.4</ele>
        <time>2013-01-30T14:30:33.000Z</time>
      </trkpt>
      <trkpt lat="43.99884" lon="5.11301">
        <ele>223.9</ele>
        <time>2013-01-30T14:30:34.000Z</time>
      </trkpt>
      <trkpt lat="43.99891" lon="5.11299">
        <ele>223.7</ele>
        <time>2013-01-30T14:30:35.000Z</time>
      </trkpt>
      <trkpt lat="43.99897" lon="5.11296">
        <ele>223.5</ele>
        <time>2013-01-30T14:30:36.000Z</time>
      </trkpt>
      <trkpt lat="43.99904" lon="5.11293">
        <ele>223.6</ele>
        <time>2013-01-30T14:30:37.000Z</time>
      </trkpt>
      <trkpt lat="43.9991" lon="5.1129">
        <ele>223.5</ele>
        <time>2013-01-30T14:30:38.000Z</time>
      </trkpt>
      <trkpt lat="43.99917" lon="5.11288">
        <ele>223.2</ele>
        <time>2013-01-30T14:30:39.000Z</time>
      </trkpt>
      <trkpt lat="43.99924" lon="5.11285">
        <ele>223</ele>
        <time>2013-01-30T14:30:40.000Z</time>
      </trkpt>
      <trkpt lat="43.9993" lon="5.11283">
        <ele>222.8</ele>
        <time>2013-01-30T14:30:41.000Z</time>
      </trkpt>
      <trkpt lat="43.99937" lon="5.1128">
        <ele>222.9</ele>
        <time>2013-01-30T14:30:42.000Z</time>
      </trkpt>
      <trkpt lat="43.99943" lon="5.11277">
        <ele>222.9</ele>
        <time>2013-01-30T14:30:43.000Z</time>
      </trkpt>
      <trkpt lat="43.9995" lon="5.11275">
        <ele>222.8</ele>
        <time>2013-01-30T14:30:44.000Z</time>
      </trkpt>
      <trkpt lat="43.99956" lon="5.11273">
        <ele>222.4</ele>
        <time>2013-01-30T14:30:45.000Z</time>
      </trkpt>
      <trkpt lat="43.99963" lon="5.1127">
        <ele>222.5</ele>
        <time>2013-01-30T14:30:46.000Z</time>
      </trkpt>
      <trkpt lat="43.9997" lon="5.11268">
        <ele>222.3</ele>
        <time>2013-01-30T14:30:47.000Z</time>
      </trkpt>
      <trkpt lat="43.99977" lon="5.11265">
        <ele>222.3</ele>
        <time>2013-01-30T14:30:48.000Z</time>
      </trkpt>
      <trkpt lat="43.99984" lon="5.11263">
        <ele>222</ele>
        <time>2013-01-30T14:30:49.000Z</time>
      </trkpt>
      <trkpt lat="43.9999" lon="5.11261">
        <ele>221.6</ele>
        <time>2013-01-30T14:30:50.000Z</time>
      </trkpt>
      <trkpt lat="43.99997" lon="5.11258">
        <ele>221.5</ele>
        <time>2013-01-30T14:30:51.000Z</time>
      </trkpt>
      <trkpt lat="44.00004" lon="5.11256">
        <ele>221.4</ele>
        <time>2013-01-30T14:30:52.000Z</time>
      </trkpt>
      <trkpt lat="44.00011" lon="5.11253">
        <ele>221</ele>
        <time>2013-01-30T14:30:53.000Z</time>
      </trkpt>
      <trkpt lat="44.00017" lon="5.11251">
        <ele>220.8</ele>
        <time>2013-01-30T14:30:54.000Z</time>
      </trkpt>
      <trkpt lat="44.00024" lon="5.11248">
        <ele>220.6</ele>
        <time>2013-01-30T14:30:55.000Z</time>
      </trkpt>
      <trkpt lat="44.00031" lon="5.11246">
        <ele>220.2</ele>
        <time>2013-01-30T14:30:56.000Z</time>
      </trkpt>
      <trkpt lat="44.00038" lon="5.11245">
        <ele>220.1</ele>
        <time>2013-01-30T14:30:57.000Z</time>
      </trkpt>
      <trkpt lat="44.00044" lon="5.11242">
        <ele>220.1</ele>
        <time>2013-01-30T14:30:58.000Z</time>
      </trkpt>
      <trkpt lat="44.00051" lon="5.11241">
        <ele>219.9</ele>
        <time>2013-01-30T14:30:59.000Z</time>
      </trkpt>
      <trkpt lat="44.00058" lon="5.11239">
        <ele>219.3</ele>
        <time>2013-01-30T14:31:00.000Z</time>
      </trkpt>
      <trkpt lat="44.00065" lon="5.11236">
        <ele>219</ele>
        <time>2013-01-30T14:31:01.000Z</time>
      </trkpt>
      <trkpt lat="44.00072" lon="5.11234">
        <ele>218.8</ele>
        <time>2013-01-30T14:31:02.000Z</time>
      </trkpt>
      <trkpt lat="44.00078" lon="5.11232">
        <ele>218.6</ele>
        <time>2013-01-30T14:31:03.000Z</time>
      </trkpt>
      <trkpt lat="44.00085" lon="5.11229">
        <ele>218.3</ele>
        <time>2013-01-30T14:31:04.000Z</time>
      </trkpt>
      <trkpt lat="44.00092" lon="5.11227">
        <ele>217.9</ele>
        <time>2013-01-30T14:31:05.000Z</time>
      </trkpt>
      <trkpt lat="44.00099" lon="5.11224">
        <ele>217.4</ele>
        <time>2013-01-30T14:31:06.000Z</time>
      </trkpt>
      <trkpt lat="44.00106" lon="5.1122">
        <ele>217.4</ele>
        <time>2013-01-30T14:31:07.000Z</time>
      </trkpt>
      <trkpt lat="44.00112" lon="5.11217">
        <ele>217</ele>
        <time>2013-01-30T14:31:08.000Z</time>
      </trkpt>
      <trkpt lat="44.00119" lon="5.11214">
        <ele>216.6</ele>
        <time>2013-01-30T14:31:09.000Z</time>
      </trkpt>
      <trkpt lat="44.00126" lon="5.11211">
        <ele>216.6</ele>
        <time>2013-01-30T14:31:10.000Z</time>
      </trkpt>
      <trkpt lat="44.00133" lon="5.11207">
        <ele>216.2</ele>
        <time>2013-01-30T14:31:11.000Z</time>
      </trkpt>
      <trkpt lat="44.0014" lon="5.11203">
        <ele>216.1</ele>
        <time>2013-01-30T14:31:12.000Z</time>
      </trkpt>
      <trkpt lat="44.00147" lon="5.11199">
        <ele>216.1</ele>
        <time>2013-01-30T14:31:13.000Z</time>
      </trkpt>
      <trkpt lat="44.00154" lon="5.11197">
        <ele>216</ele>
        <time>2013-01-30T14:31:14.000Z</time>
      </trkpt>
      <trkpt lat="44.00161" lon="5.11194">
        <ele>215.6</ele>
        <time>2013-01-30T14:31:15.000Z</time>
      </trkpt>
      <trkpt lat="44.00168" lon="5.11191">
        <ele>215.3</ele>
        <time>2013-01-30T14:31:16.000Z</time>
      </trkpt>
      <trkpt lat="44.00176" lon="5.11189">
        <ele>215.1</ele>
        <time>2013-01-30T14:31:17.000Z</time>
      </trkpt>
      <trkpt lat="44.00183" lon="5.11187">
        <ele>214.8</ele>
        <time>2013-01-30T14:31:18.000Z</time>
      </trkpt>
      <trkpt lat="44.0019" lon="5.11185">
        <ele>214.5</ele>
        <time>2013-01-30T14:31:19.000Z</time>
      </trkpt>
      <trkpt lat="44.00196" lon="5.11183">
        <ele>214.5</ele>
        <time>2013-01-30T14:31:20.000Z</time>
      </trkpt>
      <trkpt lat="44.00203" lon="5.11181">
        <ele>214.4</ele>
        <time>2013-01-30T14:31:21.000Z</time>
      </trkpt>
      <trkpt lat="44.0021" lon="5.11179">
        <ele>214.4</ele>
        <time>2013-01-30T14:31:22.000Z</time>
      </trkpt>
      <trkpt lat="44.00216" lon="5.11178">
        <ele>214.4</ele>
        <time>2013-01-30T14:31:23.000Z</time>
      </trkpt>
      <trkpt lat="44.00223" lon="5.11177">
        <ele>214.4</ele>
        <time>2013-01-30T14:31:24.000Z</time>
      </trkpt>
      <trkpt lat="44.00229" lon="5.11176">
        <ele>214.2</ele>
        <time>2013-01-30T14:31:25.000Z</time>
      </trkpt>
      <trkpt lat="44.00235" lon="5.11175">
        <ele>213.8</ele>
        <time>2013-01-30T14:31:26.000Z</time>
      </trkpt>
      <trkpt lat="44.00241" lon="5.11174">
        <ele>214.1</ele>
        <time>2013-01-30T14:31:27.000Z</time>
      </trkpt>
      <trkpt lat="44.00247" lon="5.11172">
        <ele>214</ele>
        <time>2013-01-30T14:31:28.000Z</time>
      </trkpt>
      <trkpt lat="44.00252" lon="5.11171">
        <ele>213.9</ele>
        <time>2013-01-30T14:31:29.000Z</time>
      </trkpt>
      <trkpt lat="44.00258" lon="5.1117">
        <ele>213.8</ele>
        <time>2013-01-30T14:31:30.000Z</time>
      </trkpt>
      <trkpt lat="44.00263" lon="5.11169">
        <ele>214</ele>
        <time>2013-01-30T14:31:31.000Z</time>
      </trkpt>
      <trkpt lat="44.00268" lon="5.11168">
        <ele>213.8</ele>
        <time>2013-01-30T14:31:32.000Z</time>
      </trkpt>
      <trkpt lat="44.00274" lon="5.11167">
        <ele>213.4</ele>
        <time>2013-01-30T14:31:33.000Z</time>
      </trkpt>
      <trkpt lat="44.00279" lon="5.11166">
        <ele>213.5</ele>
        <time>2013-01-30T14:31:34.000Z</time>
      </trkpt>
      <trkpt lat="44.00285" lon="5.11166">
        <ele>213.3</ele>
        <time>2013-01-30T14:31:35.000Z</time>
      </trkpt>
      <trkpt lat="44.0029" lon="5.11165">
        <ele>213.2</ele>
        <time>2013-01-30T14:31:36.000Z</time>
      </trkpt>
      <trkpt lat="44.00296" lon="5.11165">
        <ele>213.2</ele>
        <time>2013-01-30T14:31:37.000Z</time>
      </trkpt>
      <trkpt lat="44.00301" lon="5.11163">
        <ele>213.2</ele>
        <time>2013-01-30T14:31:38.000Z</time>
      </trkpt>
      <trkpt lat="44.00306" lon="5.11164">
        <ele>213.2</ele>
        <time>2013-01-30T14:31:39.000Z</time>
      </trkpt>
      <trkpt lat="44.00311" lon="5.11164">
        <ele>213.1</ele>
        <time>2013-01-30T14:31:40.000Z</time>
      </trkpt>
      <trkpt lat="44.00317" lon="5.11164">
        <ele>211.9</ele>
        <time>2013-01-30T14:31:41.000Z</time>
      </trkpt>
      <trkpt lat="44.00322" lon="5.11162">
        <ele>212.1</ele>
        <time>2013-01-30T14:31:42.000Z</time>
      </trkpt>
      <trkpt lat="44.00328" lon="5.11163">
        <ele>212.3</ele>
        <time>2013-01-30T14:31:43.000Z</time>
      </trkpt>
      <trkpt lat="44.00333" lon="5.11163">
        <ele>211.9</ele>
        <time>2013-01-30T14:31:44.000Z</time>
      </trkpt>
      <trkpt lat="44.00338" lon="5.11163">
        <ele>212</ele>
        <time>2013-01-30T14:31:45.000Z</time>
      </trkpt>
      <trkpt lat="44.00348" lon="5.11161">
        <ele>211.9</ele>
        <time>2013-01-30T14:31:47.000Z</time>
      </trkpt>
      <trkpt lat="44.00354" lon="5.11161">
        <ele>211.9</ele>
        <time>2013-01-30T14:31:48.000Z</time>
      </trkpt>
      <trkpt lat="44.00359" lon="5.11161">
        <ele>212</ele>
        <time>2013-01-30T14:31:49.000Z</time>
      </trkpt>
      <trkpt lat="44.00364" lon="5.11161">
        <ele>211.4</ele>
        <time>2013-01-30T14:31:50.000Z</time>
      </trkpt>
      <trkpt lat="44.0037" lon="5.1116">
        <ele>211.3</ele>
        <time>2013-01-30T14:31:51.000Z</time>
      </trkpt>
      <trkpt lat="44.00375" lon="5.1116">
        <ele>211.1</ele>
        <time>2013-01-30T14:31:52.000Z</time>
      </trkpt>
      <trkpt lat="44.0038" lon="5.11159">
        <ele>211</ele>
        <time>2013-01-30T14:31:53.000Z</time>
      </trkpt>
      <trkpt lat="44.00386" lon="5.11159">
        <ele>211.2</ele>
        <time>2013-01-30T14:31:54.000Z</time>
      </trkpt>
      <trkpt lat="44.00391" lon="5.11158">
        <ele>211.3</ele>
        <time>2013-01-30T14:31:55.000Z</time>
      </trkpt>
      <trkpt lat="44.00396" lon="5.11158">
        <ele>210.9</ele>
        <time>2013-01-30T14:31:56.000Z</time>
      </trkpt>
      <trkpt lat="44.00402" lon="5.11158">
        <ele>210.2</ele>
        <time>2013-01-30T14:31:57.000Z</time>
      </trkpt>
      <trkpt lat="44.00407" lon="5.11158">
        <ele>210.3</ele>
        <time>2013-01-30T14:31:58.000Z</time>
      </trkpt>
      <trkpt lat="44.00412" lon="5.11158">
        <ele>210.1</ele>
        <time>2013-01-30T14:31:59.000Z</time>
      </trkpt>
      <trkpt lat="44.00417" lon="5.11158">
        <ele>210.1</ele>
        <time>2013-01-30T14:32:00.000Z</time>
      </trkpt>
      <trkpt lat="44.00422" lon="5.11158">
        <ele>210.1</ele>
        <time>2013-01-30T14:32:01.000Z</time>
      </trkpt>
      <trkpt lat="44.00427" lon="5.11158">
        <ele>210.1</ele>
        <time>2013-01-30T14:32:02.000Z</time>
      </trkpt>
      <trkpt lat="44.00432" lon="5.11158">
        <ele>209.6</ele>
        <time>2013-01-30T14:32:03.000Z</time>
      </trkpt>
      <trkpt lat="44.00436" lon="5.11158">
        <ele>210</ele>
        <time>2013-01-30T14:32:04.000Z</time>
      </trkpt>
      <trkpt lat="44.00439" lon="5.11159">
        <ele>210.1</ele>
        <time>2013-01-30T14:32:05.000Z</time>
      </trkpt>
      <trkpt lat="44.00442" lon="5.1116">
        <ele>210.2</ele>
        <time>2013-01-30T14:32:06.000Z</time>
      </trkpt>
      <trkpt lat="44.00445" lon="5.11162">
        <ele>210.4</ele>
        <time>2013-01-30T14:32:07.000Z</time>
      </trkpt>
      <trkpt lat="44.00447" lon="5.11164">
        <ele>210.5</ele>
        <time>2013-01-30T14:32:08.000Z</time>
      </trkpt>
      <trkpt lat="44.00449" lon="5.11166">
        <ele>210.4</ele>
        <time>2013-01-30T14:32:09.000Z</time>
      </trkpt>
      <trkpt lat="44.00451" lon="5.11168">
        <ele>210.4</ele>
        <time>2013-01-30T14:32:10.000Z</time>
      </trkpt>
      <trkpt lat="44.00455" lon="5.11167">
        <ele>210.3</ele>
        <time>2013-01-30T14:32:11.000Z</time>
      </trkpt>
      <trkpt lat="44.00459" lon="5.11165">
        <ele>210.3</ele>
        <time>2013-01-30T14:32:12.000Z</time>
      </trkpt>
      <trkpt lat="44.00463" lon="5.11163">
        <ele>210.7</ele>
        <time>2013-01-30T14:32:13.000Z</time>
      </trkpt>
      <trkpt lat="44.00467" lon="5.11162">
        <ele>210.7</ele>
        <time>2013-01-30T14:32:14.000Z</time>
      </trkpt>
      <trkpt lat="44.00472" lon="5.1116">
        <ele>210.5</ele>
        <time>2013-01-30T14:32:15.000Z</time>
      </trkpt>
      <trkpt lat="44.00476" lon="5.11158">
        <ele>210.4</ele>
        <time>2013-01-30T14:32:16.000Z</time>
      </trkpt>
      <trkpt lat="44.00481" lon="5.11155">
        <ele>210.6</ele>
        <time>2013-01-30T14:32:17.000Z</time>
      </trkpt>
      <trkpt lat="44.00485" lon="5.11153">
        <ele>210.4</ele>
        <time>2013-01-30T14:32:18.000Z</time>
      </trkpt>
      <trkpt lat="44.00489" lon="5.1115">
        <ele>210.2</ele>
        <time>2013-01-30T14:32:19.000Z</time>
      </trkpt>
      <trkpt lat="44.00492" lon="5.11147">
        <ele>209.8</ele>
        <time>2013-01-30T14:32:20.000Z</time>
      </trkpt>
      <trkpt lat="44.00495" lon="5.11146">
        <ele>209.7</ele>
        <time>2013-01-30T14:32:21.000Z</time>
      </trkpt>
      <trkpt lat="44.00497" lon="5.11144">
        <ele>209.8</ele>
        <time>2013-01-30T14:32:22.000Z</time>
      </trkpt>
      <trkpt lat="44.00501" lon="5.11142">
        <ele>210.8</ele>
        <time>2013-01-30T14:32:24.000Z</time>
      </trkpt>
      <trkpt lat="44.00504" lon="5.11142">
        <ele>210.6</ele>
        <time>2013-01-30T14:32:25.000Z</time>
      </trkpt>
      <trkpt lat="44.00506" lon="5.11142">
        <ele>210.2</ele>
        <time>2013-01-30T14:32:26.000Z</time>
      </trkpt>
      <trkpt lat="44.00509" lon="5.11144">
        <ele>210.1</ele>
        <time>2013-01-30T14:32:27.000Z</time>
      </trkpt>
      <trkpt lat="44.0051" lon="5.11147">
        <ele>210.4</ele>
        <time>2013-01-30T14:32:28.000Z</time>
      </trkpt>
      <trkpt lat="44.00511" lon="5.1115">
        <ele>210.6</ele>
        <time>2013-01-30T14:32:29.000Z</time>
      </trkpt>
      <trkpt lat="44.00512" lon="5.11155">
        <ele>210.6</ele>
        <time>2013-01-30T14:32:30.000Z</time>
      </trkpt>
      <trkpt lat="44.00513" lon="5.11159">
        <ele>209.9</ele>
        <time>2013-01-30T14:32:31.000Z</time>
      </trkpt>
      <trkpt lat="44.00513" lon="5.11163">
        <ele>209.5</ele>
        <time>2013-01-30T14:32:32.000Z</time>
      </trkpt>
      <trkpt lat="44.00513" lon="5.11167">
        <ele>208.9</ele>
        <time>2013-01-30T14:32:33.000Z</time>
      </trkpt>
      <trkpt lat="44.00514" lon="5.11171">
        <ele>208.8</ele>
        <time>2013-01-30T14:32:34.000Z</time>
      </trkpt>
      <trkpt lat="44.00516" lon="5.11175">
        <ele>209.4</ele>
        <time>2013-01-30T14:32:35.000Z</time>
      </trkpt>
      <trkpt lat="44.00517" lon="5.11179">
        <ele>209.6</ele>
        <time>2013-01-30T14:32:36.000Z</time>
      </trkpt>
      <trkpt lat="44.00517" lon="5.11182">
        <ele>209.8</ele>
        <time>2013-01-30T14:32:37.000Z</time>
      </trkpt>
      <trkpt lat="44.00518" lon="5.11186">
        <ele>209.9</ele>
        <time>2013-01-30T14:32:38.000Z</time>
      </trkpt>
      <trkpt lat="44.00518" lon="5.11189">
        <ele>210.2</ele>
        <time>2013-01-30T14:32:39.000Z</time>
      </trkpt>
      <trkpt lat="44.00519" lon="5.11192">
        <ele>211.2</ele>
        <time>2013-01-30T14:32:40.000Z</time>
      </trkpt>
      <trkpt lat="44.00523" lon="5.11195">
        <ele>210</ele>
        <time>2013-01-30T14:32:41.000Z</time>
      </trkpt>
      <trkpt lat="44.00526" lon="5.11196">
        <ele>209.9</ele>
        <time>2013-01-30T14:32:42.000Z</time>
      </trkpt>
      <trkpt lat="44.00529" lon="5.11196">
        <ele>210</ele>
        <time>2013-01-30T14:32:43.000Z</time>
      </trkpt>
      <trkpt lat="44.00531" lon="5.11196">
        <ele>210.2</ele>
        <time>2013-01-30T14:32:44.000Z</time>
      </trkpt>
      <trkpt lat="44.00534" lon="5.11196">
        <ele>210.4</ele>
        <time>2013-01-30T14:32:45.000Z</time>
      </trkpt>
      <trkpt lat="44.00536" lon="5.11195">
        <ele>210.6</ele>
        <time>2013-01-30T14:32:46.000Z</time>
      </trkpt>
      <trkpt lat="44.00539" lon="5.11194">
        <ele>210.6</ele>
        <time>2013-01-30T14:32:47.000Z</time>
      </trkpt>
      <trkpt lat="44.00542" lon="5.11193">
        <ele>211.1</ele>
        <time>2013-01-30T14:32:48.000Z</time>
      </trkpt>
      <trkpt lat="44.00544" lon="5.11194">
        <ele>211.4</ele>
        <time>2013-01-30T14:32:49.000Z</time>
      </trkpt>
      <trkpt lat="44.00547" lon="5.11196">
        <ele>212</ele>
        <time>2013-01-30T14:32:50.000Z</time>
      </trkpt>
      <trkpt lat="44.00549" lon="5.11198">
        <ele>212.1</ele>
        <time>2013-01-30T14:32:51.000Z</time>
      </trkpt>
      <trkpt lat="44.00551" lon="5.112">
        <ele>212.1</ele>
        <time>2013-01-30T14:32:52.000Z</time>
      </trkpt>
      <trkpt lat="44.00553" lon="5.11203">
        <ele>211.5</ele>
        <time>2013-01-30T14:32:53.000Z</time>
      </trkpt>
      <trkpt lat="44.00555" lon="5.11205">
        <ele>211.6</ele>
        <time>2013-01-30T14:32:54.000Z</time>
      </trkpt>
      <trkpt lat="44.00557" lon="5.11208">
        <ele>211.6</ele>
        <time>2013-01-30T14:32:55.000Z</time>
      </trkpt>
      <trkpt lat="44.00558" lon="5.1121">
        <ele>211.5</ele>
        <time>2013-01-30T14:32:56.000Z</time>
      </trkpt>
      <trkpt lat="44.0056" lon="5.11213">
        <ele>211.5</ele>
        <time>2013-01-30T14:32:57.000Z</time>
      </trkpt>
      <trkpt lat="44.00561" lon="5.11215">
        <ele>211.6</ele>
        <time>2013-01-30T14:32:58.000Z</time>
      </trkpt>
      <trkpt lat="44.00562" lon="5.11218">
        <ele>211.5</ele>
        <time>2013-01-30T14:32:59.000Z</time>
      </trkpt>
      <trkpt lat="44.00565" lon="5.11222">
        <ele>212.2</ele>
        <time>2013-01-30T14:33:01.000Z</time>
      </trkpt>
      <trkpt lat="44.00566" lon="5.11223">
        <ele>212.6</ele>
        <time>2013-01-30T14:33:02.000Z</time>
      </trkpt>
      <trkpt lat="44.0057" lon="5.11224">
        <ele>213.7</ele>
        <time>2013-01-30T14:33:04.000Z</time>
      </trkpt>
      <trkpt lat="44.00571" lon="5.11225">
        <ele>214.2</ele>
        <time>2013-01-30T14:33:05.000Z</time>
      </trkpt>
      <trkpt lat="44.00575" lon="5.11222">
        <ele>214</ele>
        <time>2013-01-30T14:33:07.000Z</time>
      </trkpt>
      <trkpt lat="44.00576" lon="5.11221">
        <ele>214</ele>
        <time>2013-01-30T14:33:08.000Z</time>
      </trkpt>
      <trkpt lat="44.00579" lon="5.11219">
        <ele>214.2</ele>
        <time>2013-01-30T14:33:10.000Z</time>
      </trkpt>
      <trkpt lat="44.00581" lon="5.11218">
        <ele>214.3</ele>
        <time>2013-01-30T14:33:11.000Z</time>
      </trkpt>
      <trkpt lat="44.00585" lon="5.11215">
        <ele>214.3</ele>
        <time>2013-01-30T14:33:14.000Z</time>
      </trkpt>
      <trkpt lat="44.00586" lon="5.11214">
        <ele>214.4</ele>
        <time>2013-01-30T14:33:15.000Z</time>
      </trkpt>
      <trkpt lat="44.00587" lon="5.11216">
        <ele>216</ele>
        <time>2013-01-30T14:34:23.000Z</time>
      </trkpt>
    </trkseg>
  </trk>
</gpx>